﻿<?xml version="1.0" encoding="utf-8"?><gpx creator="Garmin Desktop App" version="1.1" xsi:schemaLocation="http://www.topografix.com/GPX/1/1 http://www.topografix.com/GPX/1/1/gpx.xsd http://www.garmin.com/xmlschemas/WaypointExtension/v1 http://www8.garmin.com/xmlschemas/WaypointExtensionv1.xsd http://www.garmin.com/xmlschemas/TrackPointExtension/v1 http://www.garmin.com/xmlschemas/TrackPointExtensionv1.xsd http://www.garmin.com/xmlschemas/GpxExtensions/v3 http://www8.garmin.com/xmlschemas/GpxExtensionsv3.xsd http://www.garmin.com/xmlschemas/ActivityExtension/v1 http://www8.garmin.com/xmlschemas/ActivityExtensionv1.xsd http://www.garmin.com/xmlschemas/AdventuresExtensions/v1 http://www8.garmin.com/xmlschemas/AdventuresExtensionv1.xsd http://www.garmin.com/xmlschemas/PressureExtension/v1 http://www.garmin.com/xmlschemas/PressureExtensionv1.xsd http://www.garmin.com/xmlschemas/TripExtensions/v1 http://www.garmin.com/xmlschemas/TripExtensionsv1.xsd http://www.garmin.com/xmlschemas/TripMetaDataExtensions/v1 http://www.garmin.com/xmlschemas/TripMetaDataExtensionsv1.xsd http://www.garmin.com/xmlschemas/ViaPointTransportationModeExtensions/v1 http://www.garmin.com/xmlschemas/ViaPointTransportationModeExtensionsv1.xsd http://www.garmin.com/xmlschemas/CreationTimeExtension/v1 http://www.garmin.com/xmlschemas/CreationTimeExtensionsv1.xsd http://www.garmin.com/xmlschemas/AccelerationExtension/v1 http://www.garmin.com/xmlschemas/AccelerationExtensionv1.xsd http://www.garmin.com/xmlschemas/PowerExtension/v1 http://www.garmin.com/xmlschemas/PowerExtensionv1.xsd http://www.garmin.com/xmlschemas/VideoExtension/v1 http://www.garmin.com/xmlschemas/VideoExtensionv1.xsd" xmlns="http://www.topografix.com/GPX/1/1" xmlns:xsi="http://www.w3.org/2001/XMLSchema-instance" xmlns:wptx1="http://www.garmin.com/xmlschemas/WaypointExtension/v1" xmlns:gpxtrx="http://www.garmin.com/xmlschemas/GpxExtensions/v3" xmlns:gpxtpx="http://www.garmin.com/xmlschemas/TrackPointExtension/v1" xmlns:gpxx="http://www.garmin.com/xmlschemas/GpxExtensions/v3" xmlns:trp="http://www.garmin.com/xmlschemas/TripExtensions/v1" xmlns:adv="http://www.garmin.com/xmlschemas/AdventuresExtensions/v1" xmlns:prs="http://www.garmin.com/xmlschemas/PressureExtension/v1" xmlns:tmd="http://www.garmin.com/xmlschemas/TripMetaDataExtensions/v1" xmlns:vptm="http://www.garmin.com/xmlschemas/ViaPointTransportationModeExtensions/v1" xmlns:ctx="http://www.garmin.com/xmlschemas/CreationTimeExtension/v1" xmlns:gpxacc="http://www.garmin.com/xmlschemas/AccelerationExtension/v1" xmlns:gpxpx="http://www.garmin.com/xmlschemas/PowerExtension/v1" xmlns:vidx1="http://www.garmin.com/xmlschemas/VideoExtension/v1">

  <metadata>
    <link href="http://www.garmin.com">
      <text>Garmin International</text>
    </link>
    <time>2026-01-08T00:01:03Z</time>
    <bounds maxlat="38.135514501482248" maxlon="140.49363470636308" minlat="38.126962529495358" minlon="140.44812005013227" />
  </metadata>

  <trk>
    <name>2026-01-04 13:32:53</name>
    <extensions>
      <gpxx:TrackExtension>
        <gpxx:DisplayColor>Magenta</gpxx:DisplayColor>
      </gpxx:TrackExtension>
      <gpxtrkx:TrackStatsExtension xmlns:gpxtrkx="http://www.garmin.com/xmlschemas/TrackStatsExtension/v1">
        <gpxtrkx:Distance>11882</gpxtrkx:Distance>
      </gpxtrkx:TrackStatsExtension>
    </extensions>
    <trkseg>
      <trkpt lat="38.13544568605721" lon="140.49351618625224">
        <ele>1121.03</ele>
        <time>2026-01-03T22:28:05Z</time>
      </trkpt>
      <trkpt lat="38.135444931685925" lon="140.49351400695741">
        <ele>1121.03</ele>
        <time>2026-01-03T22:28:06Z</time>
      </trkpt>
      <trkpt lat="38.135441327467561" lon="140.49349992536008">
        <ele>1122</ele>
        <time>2026-01-03T22:28:25Z</time>
      </trkpt>
      <trkpt lat="38.135426323860884" lon="140.49352020956576">
        <ele>1121.52</ele>
        <time>2026-01-03T22:28:33Z</time>
      </trkpt>
      <trkpt lat="38.135375110432506" lon="140.49355918541551">
        <ele>1122.48</ele>
        <time>2026-01-03T22:28:47Z</time>
      </trkpt>
      <trkpt lat="38.135359352454543" lon="140.49358265474439">
        <ele>1124.4000000000001</ele>
        <time>2026-01-03T22:28:58Z</time>
      </trkpt>
      <trkpt lat="38.135356418788433" lon="140.49357435666025">
        <ele>1121.52</ele>
        <time>2026-01-03T22:29:00Z</time>
      </trkpt>
      <trkpt lat="38.135352563112974" lon="140.49356262199581">
        <ele>1120.55</ele>
        <time>2026-01-03T22:29:21Z</time>
      </trkpt>
      <trkpt lat="38.135345689952374" lon="140.49355692230165">
        <ele>1119.5899999999999</ele>
        <time>2026-01-03T22:29:36Z</time>
      </trkpt>
      <trkpt lat="38.135344348847866" lon="140.49355432391167">
        <ele>1122.48</ele>
        <time>2026-01-03T22:29:38Z</time>
      </trkpt>
      <trkpt lat="38.135343510657549" lon="140.49355331808329">
        <ele>1122.48</ele>
        <time>2026-01-03T22:29:39Z</time>
      </trkpt>
      <trkpt lat="38.135347785428166" lon="140.49354535527527">
        <ele>1119.1099999999999</ele>
        <time>2026-01-03T22:29:44Z</time>
      </trkpt>
      <trkpt lat="38.135345773771405" lon="140.49353747628629">
        <ele>1122</ele>
        <time>2026-01-03T22:29:49Z</time>
      </trkpt>
      <trkpt lat="38.135345857590437" lon="140.49353563226759">
        <ele>1122</ele>
        <time>2026-01-03T22:29:50Z</time>
      </trkpt>
      <trkpt lat="38.135348707437515" lon="140.49353403970599">
        <ele>1121.03</ele>
        <time>2026-01-03T22:29:52Z</time>
      </trkpt>
      <trkpt lat="38.135352060198784" lon="140.49354032613337">
        <ele>1122.96</ele>
        <time>2026-01-03T22:29:55Z</time>
      </trkpt>
      <trkpt lat="38.135356586426497" lon="140.49353982321918">
        <ele>1120.0699999999999</ele>
        <time>2026-01-03T22:29:59Z</time>
      </trkpt>
      <trkpt lat="38.135360023006797" lon="140.49354284070432">
        <ele>1122</ele>
        <time>2026-01-03T22:30:01Z</time>
      </trkpt>
      <trkpt lat="38.135366812348366" lon="140.49354803748429">
        <ele>1121.52</ele>
        <time>2026-01-03T22:30:05Z</time>
      </trkpt>
      <trkpt lat="38.135367650538683" lon="140.49355004914105">
        <ele>1119.5899999999999</ele>
        <time>2026-01-03T22:30:07Z</time>
      </trkpt>
      <trkpt lat="38.135366309434175" lon="140.49355315044522">
        <ele>1121.52</ele>
        <time>2026-01-03T22:30:09Z</time>
      </trkpt>
      <trkpt lat="38.135377122089267" lon="140.49356530420482">
        <ele>1121.03</ele>
        <time>2026-01-03T22:30:22Z</time>
      </trkpt>
      <trkpt lat="38.135378966107965" lon="140.49356278963387">
        <ele>1122.48</ele>
        <time>2026-01-03T22:30:26Z</time>
      </trkpt>
      <trkpt lat="38.135377792641521" lon="140.49356513656676">
        <ele>1120.0699999999999</ele>
        <time>2026-01-03T22:30:32Z</time>
      </trkpt>
      <trkpt lat="38.135381983593106" lon="140.49356572329998">
        <ele>1122</ele>
        <time>2026-01-03T22:30:35Z</time>
      </trkpt>
      <trkpt lat="38.135390365496278" lon="140.49357008188963">
        <ele>1118.6300000000001</ele>
        <time>2026-01-03T22:30:44Z</time>
      </trkpt>
      <trkpt lat="38.135389694944024" lon="140.49356949515641">
        <ele>1117.6700000000001</ele>
        <time>2026-01-03T22:30:46Z</time>
      </trkpt>
      <trkpt lat="38.135387180373073" lon="140.49357385374606">
        <ele>1122</ele>
        <time>2026-01-03T22:30:52Z</time>
      </trkpt>
      <trkpt lat="38.135387515649199" lon="140.49357376992702">
        <ele>1122</ele>
        <time>2026-01-03T22:30:53Z</time>
      </trkpt>
      <trkpt lat="38.13538902439177" lon="140.49357309937477">
        <ele>1121.03</ele>
        <time>2026-01-03T22:30:57Z</time>
      </trkpt>
      <trkpt lat="38.135385755449533" lon="140.49356807023287">
        <ele>1122.96</ele>
        <time>2026-01-03T22:31:06Z</time>
      </trkpt>
      <trkpt lat="38.135377708822489" lon="140.4935699980706">
        <ele>1119.5899999999999</ele>
        <time>2026-01-03T22:31:29Z</time>
      </trkpt>
      <trkpt lat="38.135381815955043" lon="140.49357477575541">
        <ele>1121.52</ele>
        <time>2026-01-03T22:31:32Z</time>
      </trkpt>
      <trkpt lat="38.135378211736679" lon="140.4935766197741">
        <ele>1124.8800000000001</ele>
        <time>2026-01-03T22:31:37Z</time>
      </trkpt>
      <trkpt lat="38.135376116260886" lon="140.49357745796442">
        <ele>1124.8800000000001</ele>
        <time>2026-01-03T22:31:38Z</time>
      </trkpt>
      <trkpt lat="38.135374272242188" lon="140.49357888288796">
        <ele>1121.03</ele>
        <time>2026-01-03T22:31:42Z</time>
      </trkpt>
      <trkpt lat="38.135378211736679" lon="140.49356480129063">
        <ele>1118.6300000000001</ele>
        <time>2026-01-03T22:31:51Z</time>
      </trkpt>
      <trkpt lat="38.135377960279584" lon="140.49356061033905">
        <ele>1120.0699999999999</ele>
        <time>2026-01-03T22:31:55Z</time>
      </trkpt>
      <trkpt lat="38.135386006906629" lon="140.49355566501617">
        <ele>1118.1500000000001</ele>
        <time>2026-01-03T22:32:09Z</time>
      </trkpt>
      <trkpt lat="38.135386174544692" lon="140.49355491064489">
        <ele>1119.5899999999999</ele>
        <time>2026-01-03T22:32:11Z</time>
      </trkpt>
      <trkpt lat="38.135383240878582" lon="140.49355021677911">
        <ele>1122</ele>
        <time>2026-01-03T22:32:13Z</time>
      </trkpt>
      <trkpt lat="38.135374607518315" lon="140.49354208633304">
        <ele>1119.5899999999999</ele>
        <time>2026-01-03T22:32:18Z</time>
      </trkpt>
      <trkpt lat="38.135361447930336" lon="140.49353471025825">
        <ele>1121.52</ele>
        <time>2026-01-03T22:32:21Z</time>
      </trkpt>
      <trkpt lat="38.135345438495278" lon="140.49352632835507">
        <ele>1123.9200000000001</ele>
        <time>2026-01-03T22:32:25Z</time>
      </trkpt>
      <trkpt lat="38.135335715487599" lon="140.49349405802786">
        <ele>1120.0699999999999</ele>
        <time>2026-01-03T22:32:43Z</time>
      </trkpt>
      <trkpt lat="38.135333033278584" lon="140.4934975784272">
        <ele>1122.48</ele>
        <time>2026-01-03T22:32:46Z</time>
      </trkpt>
      <trkpt lat="38.135336302220821" lon="140.4935026075691">
        <ele>1120.55</ele>
        <time>2026-01-03T22:32:50Z</time>
      </trkpt>
      <trkpt lat="38.135329429060221" lon="140.49349950626493">
        <ele>1123.9200000000001</ele>
        <time>2026-01-03T22:32:55Z</time>
      </trkpt>
      <trkpt lat="38.135328087955713" lon="140.49350202083588">
        <ele>1123.9200000000001</ele>
        <time>2026-01-03T22:32:56Z</time>
      </trkpt>
      <trkpt lat="38.1353201251477" lon="140.49351199530065">
        <ele>1122.48</ele>
        <time>2026-01-03T22:33:01Z</time>
      </trkpt>
      <trkpt lat="38.135312246158719" lon="140.49352037720382">
        <ele>1123.9200000000001</ele>
        <time>2026-01-03T22:33:05Z</time>
      </trkpt>
      <trkpt lat="38.135310150682926" lon="140.49352331086993">
        <ele>1122.48</ele>
        <time>2026-01-03T22:33:07Z</time>
      </trkpt>
      <trkpt lat="38.135312916710973" lon="140.49353806301951">
        <ele>1122.96</ele>
        <time>2026-01-03T22:33:16Z</time>
      </trkpt>
      <trkpt lat="38.135311575606465" lon="140.49353663809597">
        <ele>1126.3199999999999</ele>
        <time>2026-01-03T22:33:26Z</time>
      </trkpt>
      <trkpt lat="38.135312413796782" lon="140.4935372248292">
        <ele>1122.96</ele>
        <time>2026-01-03T22:33:28Z</time>
      </trkpt>
      <trkpt lat="38.135314006358385" lon="140.49353680573404">
        <ele>1122</ele>
        <time>2026-01-03T22:33:30Z</time>
      </trkpt>
      <trkpt lat="38.135310066863894" lon="140.49353730864823">
        <ele>1123.4400000000001</ele>
        <time>2026-01-03T22:33:36Z</time>
      </trkpt>
      <trkpt lat="38.135320460423827" lon="140.49354803748429">
        <ele>1122</ele>
        <time>2026-01-03T22:33:45Z</time>
      </trkpt>
      <trkpt lat="38.135316269472241" lon="140.49354770220816">
        <ele>1123.9200000000001</ele>
        <time>2026-01-03T22:33:52Z</time>
      </trkpt>
      <trkpt lat="38.135312832891941" lon="140.49353999085724">
        <ele>1122.48</ele>
        <time>2026-01-03T22:34:00Z</time>
      </trkpt>
      <trkpt lat="38.135311240330338" lon="140.4935335367918">
        <ele>1122</ele>
        <time>2026-01-03T22:34:04Z</time>
      </trkpt>
      <trkpt lat="38.135328004136682" lon="140.49354854039848">
        <ele>1123.4400000000001</ele>
        <time>2026-01-03T22:34:31Z</time>
      </trkpt>
      <trkpt lat="38.135313419625163" lon="140.49351383931935">
        <ele>1121.52</ele>
        <time>2026-01-03T22:34:49Z</time>
      </trkpt>
      <trkpt lat="38.135320208966732" lon="140.4935335367918">
        <ele>1122.96</ele>
        <time>2026-01-03T22:35:10Z</time>
      </trkpt>
      <trkpt lat="38.135320795699954" lon="140.49353864975274">
        <ele>1122</ele>
        <time>2026-01-03T22:35:12Z</time>
      </trkpt>
      <trkpt lat="38.135328507050872" lon="140.49353571608663">
        <ele>1120.0699999999999</ele>
        <time>2026-01-03T22:35:23Z</time>
      </trkpt>
      <trkpt lat="38.135327333584428" lon="140.49353563226759">
        <ele>1122.96</ele>
        <time>2026-01-03T22:35:26Z</time>
      </trkpt>
      <trkpt lat="38.135325824841857" lon="140.49353797920048">
        <ele>1120.55</ele>
        <time>2026-01-03T22:35:33Z</time>
      </trkpt>
      <trkpt lat="38.135330937802792" lon="140.49351233057678">
        <ele>1121.52</ele>
        <time>2026-01-03T22:35:46Z</time>
      </trkpt>
      <trkpt lat="38.135323897004128" lon="140.49351082183421">
        <ele>1122.96</ele>
        <time>2026-01-03T22:35:50Z</time>
      </trkpt>
      <trkpt lat="38.135311491787434" lon="140.49350528977811">
        <ele>1122</ele>
        <time>2026-01-03T22:36:18Z</time>
      </trkpt>
      <trkpt lat="38.135319454595447" lon="140.49352029338479">
        <ele>1122.48</ele>
        <time>2026-01-03T22:36:42Z</time>
      </trkpt>
      <trkpt lat="38.135321550071239" lon="140.49354325979948">
        <ele>1121.03</ele>
        <time>2026-01-03T22:37:10Z</time>
      </trkpt>
      <trkpt lat="38.13532255589962" lon="140.49353663809597">
        <ele>1122.48</ele>
        <time>2026-01-03T22:37:38Z</time>
      </trkpt>
      <trkpt lat="38.135298248380423" lon="140.49354351125658">
        <ele>1122</ele>
        <time>2026-01-03T22:38:00Z</time>
      </trkpt>
      <trkpt lat="38.135312246158719" lon="140.49353915266693">
        <ele>1121.52</ele>
        <time>2026-01-03T22:38:24Z</time>
      </trkpt>
      <trkpt lat="38.135323310270905" lon="140.49355641938746">
        <ele>1121.03</ele>
        <time>2026-01-03T22:38:51Z</time>
      </trkpt>
      <trkpt lat="38.135307719931006" lon="140.49351928755641">
        <ele>1121.52</ele>
        <time>2026-01-03T22:39:11Z</time>
      </trkpt>
      <trkpt lat="38.135307300835848" lon="140.49350839108229">
        <ele>1120.55</ele>
        <time>2026-01-03T22:39:22Z</time>
      </trkpt>
      <trkpt lat="38.135309983044863" lon="140.4935042001307">
        <ele>1119.1099999999999</ele>
        <time>2026-01-03T22:39:30Z</time>
      </trkpt>
      <trkpt lat="38.135310066863894" lon="140.49350168555975">
        <ele>1120.0699999999999</ele>
        <time>2026-01-03T22:39:32Z</time>
      </trkpt>
      <trkpt lat="38.135313587263227" lon="140.49349707551301">
        <ele>1121.03</ele>
        <time>2026-01-03T22:39:51Z</time>
      </trkpt>
      <trkpt lat="38.135314593091607" lon="140.49350394867361">
        <ele>1122.48</ele>
        <time>2026-01-03T22:39:59Z</time>
      </trkpt>
      <trkpt lat="38.135310234501958" lon="140.49350000917912">
        <ele>1119.5899999999999</ele>
        <time>2026-01-03T22:40:25Z</time>
      </trkpt>
      <trkpt lat="38.135301265865564" lon="140.49349959008396">
        <ele>1119.1099999999999</ele>
        <time>2026-01-03T22:40:44Z</time>
      </trkpt>
      <trkpt lat="38.135304115712643" lon="140.49350311048329">
        <ele>1120.0699999999999</ele>
        <time>2026-01-03T22:40:47Z</time>
      </trkpt>
      <trkpt lat="38.135302104055882" lon="140.4935126658529">
        <ele>1122</ele>
        <time>2026-01-03T22:40:52Z</time>
      </trkpt>
      <trkpt lat="38.135333200916648" lon="140.49354854039848">
        <ele>1121.03</ele>
        <time>2026-01-03T22:41:17Z</time>
      </trkpt>
      <trkpt lat="38.13534552231431" lon="140.4935509711504">
        <ele>1119.5899999999999</ele>
        <time>2026-01-03T22:41:37Z</time>
      </trkpt>
      <trkpt lat="38.135348707437515" lon="140.49354761838913">
        <ele>1121.52</ele>
        <time>2026-01-03T22:41:40Z</time>
      </trkpt>
      <trkpt lat="38.13534895889461" lon="140.49354518763721">
        <ele>1117.1900000000001</ele>
        <time>2026-01-03T22:41:42Z</time>
      </trkpt>
      <trkpt lat="38.135348372161388" lon="140.49354116432369">
        <ele>1121.52</ele>
        <time>2026-01-03T22:41:43Z</time>
      </trkpt>
      <trkpt lat="38.135319538414478" lon="140.49351878464222">
        <ele>1120.0699999999999</ele>
        <time>2026-01-03T22:41:46Z</time>
      </trkpt>
      <trkpt lat="38.135306211188436" lon="140.49350562505424">
        <ele>1122</ele>
        <time>2026-01-03T22:41:48Z</time>
      </trkpt>
      <trkpt lat="38.135257428511977" lon="140.49343261867762">
        <ele>1122</ele>
        <time>2026-01-03T22:42:02Z</time>
      </trkpt>
      <trkpt lat="38.135260278359056" lon="140.49342725425959">
        <ele>1122.48</ele>
        <time>2026-01-03T22:42:04Z</time>
      </trkpt>
      <trkpt lat="38.135245693847537" lon="140.49334678798914">
        <ele>1123.9200000000001</ele>
        <time>2026-01-03T22:42:16Z</time>
      </trkpt>
      <trkpt lat="38.135223565623164" lon="140.49322977662086">
        <ele>1123.4400000000001</ele>
        <time>2026-01-03T22:42:30Z</time>
      </trkpt>
      <trkpt lat="38.135216692462564" lon="140.49319314770401">
        <ele>1122</ele>
        <time>2026-01-03T22:42:34Z</time>
      </trkpt>
      <trkpt lat="38.135211244225502" lon="140.49317185766995">
        <ele>1123.4400000000001</ele>
        <time>2026-01-03T22:42:36Z</time>
      </trkpt>
      <trkpt lat="38.135210070759058" lon="140.49311972223222">
        <ele>1124.8800000000001</ele>
        <time>2026-01-03T22:42:43Z</time>
      </trkpt>
      <trkpt lat="38.135234462097287" lon="140.49295417964458">
        <ele>1124.4000000000001</ele>
        <time>2026-01-03T22:43:02Z</time>
      </trkpt>
      <trkpt lat="38.135284250602126" lon="140.49285938031971">
        <ele>1125.8399999999999</ele>
        <time>2026-01-03T22:43:17Z</time>
      </trkpt>
      <trkpt lat="38.135339738801122" lon="140.49277279525995">
        <ele>1126.8</ele>
        <time>2026-01-03T22:43:33Z</time>
      </trkpt>
      <trkpt lat="38.135353568941355" lon="140.49274337477982">
        <ele>1128.24</ele>
        <time>2026-01-03T22:43:37Z</time>
      </trkpt>
      <trkpt lat="38.135368237271905" lon="140.49271822907031">
        <ele>1127.76</ele>
        <time>2026-01-03T22:43:41Z</time>
      </trkpt>
      <trkpt lat="38.135437304154038" lon="140.49260197207332">
        <ele>1128.73</ele>
        <time>2026-01-03T22:43:58Z</time>
      </trkpt>
      <trkpt lat="38.135461024940014" lon="140.49248043447733">
        <ele>1129.21</ele>
        <time>2026-01-03T22:44:15Z</time>
      </trkpt>
      <trkpt lat="38.13540218397975" lon="140.49235797487199">
        <ele>1131.6099999999999</ele>
        <time>2026-01-03T22:44:32Z</time>
      </trkpt>
      <trkpt lat="38.135301768779755" lon="140.4922710545361">
        <ele>1132.5699999999999</ele>
        <time>2026-01-03T22:44:50Z</time>
      </trkpt>
      <trkpt lat="38.135206215083599" lon="140.49221967346966">
        <ele>1134.49</ele>
        <time>2026-01-03T22:45:07Z</time>
      </trkpt>
      <trkpt lat="38.135117115452886" lon="140.49217994324863">
        <ele>1135.9400000000001</ele>
        <time>2026-01-03T22:45:23Z</time>
      </trkpt>
      <trkpt lat="38.135069087147713" lon="140.49209243617952">
        <ele>1136.9000000000001</ele>
        <time>2026-01-03T22:45:39Z</time>
      </trkpt>
      <trkpt lat="38.135079648345709" lon="140.49203543923795">
        <ele>1137.3800000000001</ele>
        <time>2026-01-03T22:45:48Z</time>
      </trkpt>
      <trkpt lat="38.135131532326341" lon="140.49190602265298">
        <ele>1138.3399999999999</ele>
        <time>2026-01-03T22:46:05Z</time>
      </trkpt>
      <trkpt lat="38.135183835402131" lon="140.49179328605533">
        <ele>1140.26</ele>
        <time>2026-01-03T22:46:22Z</time>
      </trkpt>
      <trkpt lat="38.135186685249209" lon="140.49174098297954">
        <ele>1138.8199999999999</ele>
        <time>2026-01-03T22:46:29Z</time>
      </trkpt>
      <trkpt lat="38.135192636400461" lon="140.4917134065181">
        <ele>1140.74</ele>
        <time>2026-01-03T22:46:33Z</time>
      </trkpt>
      <trkpt lat="38.135196827352047" lon="140.4916134942323">
        <ele>1141.22</ele>
        <time>2026-01-03T22:46:48Z</time>
      </trkpt>
      <trkpt lat="38.135159527882934" lon="140.49149103462696">
        <ele>1141.22</ele>
        <time>2026-01-03T22:47:06Z</time>
      </trkpt>
      <trkpt lat="38.135152570903301" lon="140.49147326499224">
        <ele>1144.1099999999999</ele>
        <time>2026-01-03T22:47:09Z</time>
      </trkpt>
      <trkpt lat="38.135150978341699" lon="140.49146907404065">
        <ele>1144.1099999999999</ele>
        <time>2026-01-03T22:47:10Z</time>
      </trkpt>
      <trkpt lat="38.135144440457225" lon="140.49146102741361">
        <ele>1142.6600000000001</ele>
        <time>2026-01-03T22:47:12Z</time>
      </trkpt>
      <trkpt lat="38.135103285312653" lon="140.49140905961394">
        <ele>1144.1099999999999</ele>
        <time>2026-01-03T22:47:24Z</time>
      </trkpt>
      <trkpt lat="38.13506749458611" lon="140.49137058667839">
        <ele>1144.1099999999999</ele>
        <time>2026-01-03T22:47:33Z</time>
      </trkpt>
      <trkpt lat="38.13504159450531" lon="140.49136052839458">
        <ele>1146.99</ele>
        <time>2026-01-03T22:47:38Z</time>
      </trkpt>
      <trkpt lat="38.134970432147384" lon="140.49135214649141">
        <ele>1149.8699999999999</ele>
        <time>2026-01-03T22:47:52Z</time>
      </trkpt>
      <trkpt lat="38.134966576471925" lon="140.49135365523398">
        <ele>1149.8699999999999</ele>
        <time>2026-01-03T22:47:53Z</time>
      </trkpt>
      <trkpt lat="38.134956769645214" lon="140.49135809764266">
        <ele>1146.51</ele>
        <time>2026-01-03T22:47:55Z</time>
      </trkpt>
      <trkpt lat="38.134951489046216" lon="140.49135977402329">
        <ele>1146.51</ele>
        <time>2026-01-03T22:47:56Z</time>
      </trkpt>
      <trkpt lat="38.134935228154063" lon="140.49136421643198">
        <ele>1148.4300000000001</ele>
        <time>2026-01-03T22:47:59Z</time>
      </trkpt>
      <trkpt lat="38.134924499318004" lon="140.49136656336486">
        <ele>1146.99</ele>
        <time>2026-01-03T22:48:01Z</time>
      </trkpt>
      <trkpt lat="38.134905807673931" lon="140.49137058667839">
        <ele>1149.8699999999999</ele>
        <time>2026-01-03T22:48:04Z</time>
      </trkpt>
      <trkpt lat="38.134844619780779" lon="140.4913920443505">
        <ele>1151.3199999999999</ele>
        <time>2026-01-03T22:48:15Z</time>
      </trkpt>
      <trkpt lat="38.134823832660913" lon="140.49139548093081">
        <ele>1149.3900000000001</ele>
        <time>2026-01-03T22:48:18Z</time>
      </trkpt>
      <trkpt lat="38.134763902053237" lon="140.49140495248139">
        <ele>1151.8</ele>
        <time>2026-01-03T22:48:27Z</time>
      </trkpt>
      <trkpt lat="38.13463356345892" lon="140.49143688753247">
        <ele>1151.8</ele>
        <time>2026-01-03T22:48:45Z</time>
      </trkpt>
      <trkpt lat="38.134523676708341" lon="140.49146806821227">
        <ele>1153.24</ele>
        <time>2026-01-03T22:49:00Z</time>
      </trkpt>
      <trkpt lat="38.134511774405837" lon="140.49146890640259">
        <ele>1153.24</ele>
        <time>2026-01-03T22:49:02Z</time>
      </trkpt>
      <trkpt lat="38.134493501856923" lon="140.49147351644933">
        <ele>1151.8</ele>
        <time>2026-01-03T22:49:04Z</time>
      </trkpt>
      <trkpt lat="38.134479839354753" lon="140.49147770740092">
        <ele>1153.24</ele>
        <time>2026-01-03T22:49:06Z</time>
      </trkpt>
      <trkpt lat="38.134431811049581" lon="140.4914874304086">
        <ele>1153.24</ele>
        <time>2026-01-03T22:49:13Z</time>
      </trkpt>
      <trkpt lat="38.134374562650919" lon="140.49150285311043">
        <ele>1154.6800000000001</ele>
        <time>2026-01-03T22:49:21Z</time>
      </trkpt>
      <trkpt lat="38.134265514090657" lon="140.49146999605">
        <ele>1155.6400000000001</ele>
        <time>2026-01-03T22:49:37Z</time>
      </trkpt>
      <trkpt lat="38.134219162166119" lon="140.49145113676786">
        <ele>1157.0799999999999</ele>
        <time>2026-01-03T22:49:49Z</time>
      </trkpt>
      <trkpt lat="38.134221592918038" lon="140.49145055003464">
        <ele>1161.4100000000001</ele>
        <time>2026-01-03T22:49:50Z</time>
      </trkpt>
      <trkpt lat="38.134222850203514" lon="140.49145046621561">
        <ele>1158.53</ele>
        <time>2026-01-03T22:49:51Z</time>
      </trkpt>
      <trkpt lat="38.134212289005518" lon="140.49143252894282">
        <ele>1155.1600000000001</ele>
        <time>2026-01-03T22:49:55Z</time>
      </trkpt>
      <trkpt lat="38.134169708937407" lon="140.49134342931211">
        <ele>1156.1199999999999</ele>
        <time>2026-01-03T22:50:07Z</time>
      </trkpt>
      <trkpt lat="38.13414640724659" lon="140.49125944264233">
        <ele>1159.01</ele>
        <time>2026-01-03T22:50:19Z</time>
      </trkpt>
      <trkpt lat="38.134140037000179" lon="140.49123035743833">
        <ele>1157.0799999999999</ele>
        <time>2026-01-03T22:50:23Z</time>
      </trkpt>
      <trkpt lat="38.13413760624826" lon="140.49121803604066">
        <ele>1160.45</ele>
        <time>2026-01-03T22:50:25Z</time>
      </trkpt>
      <trkpt lat="38.134133834391832" lon="140.49118677154183">
        <ele>1157.0799999999999</ele>
        <time>2026-01-03T22:50:29Z</time>
      </trkpt>
      <trkpt lat="38.134132660925388" lon="140.49116531386971">
        <ele>1158.53</ele>
        <time>2026-01-03T22:50:32Z</time>
      </trkpt>
      <trkpt lat="38.134130230173469" lon="140.49115223810077">
        <ele>1156.1199999999999</ele>
        <time>2026-01-03T22:50:34Z</time>
      </trkpt>
      <trkpt lat="38.13412930816412" lon="140.49114402383566">
        <ele>1159.97</ele>
        <time>2026-01-03T22:50:35Z</time>
      </trkpt>
      <trkpt lat="38.134126961231232" lon="140.49112902022898">
        <ele>1160.45</ele>
        <time>2026-01-03T22:50:37Z</time>
      </trkpt>
      <trkpt lat="38.134127045050263" lon="140.49111753702164">
        <ele>1159.49</ele>
        <time>2026-01-03T22:50:39Z</time>
      </trkpt>
      <trkpt lat="38.134136013686657" lon="140.49105928279459">
        <ele>1161.4100000000001</ele>
        <time>2026-01-03T22:50:47Z</time>
      </trkpt>
      <trkpt lat="38.134141210466623" lon="140.49102541990578">
        <ele>1159.49</ele>
        <time>2026-01-03T22:50:51Z</time>
      </trkpt>
      <trkpt lat="38.134145988151431" lon="140.49100857228041">
        <ele>1162.3699999999999</ele>
        <time>2026-01-03T22:50:53Z</time>
      </trkpt>
      <trkpt lat="38.134154286235571" lon="140.49098577350378">
        <ele>1159.97</ele>
        <time>2026-01-03T22:50:56Z</time>
      </trkpt>
      <trkpt lat="38.134161243215203" lon="140.49096280708909">
        <ele>1161.8900000000001</ele>
        <time>2026-01-03T22:50:59Z</time>
      </trkpt>
      <trkpt lat="38.134164847433567" lon="140.49093447625637">
        <ele>1160.9300000000001</ele>
        <time>2026-01-03T22:51:02Z</time>
      </trkpt>
      <trkpt lat="38.134170547127724" lon="140.49090228974819">
        <ele>1162.3699999999999</ele>
        <time>2026-01-03T22:51:05Z</time>
      </trkpt>
      <trkpt lat="38.134175073355436" lon="140.49087052233517">
        <ele>1159.97</ele>
        <time>2026-01-03T22:51:08Z</time>
      </trkpt>
      <trkpt lat="38.13417767174542" lon="140.49084252677858">
        <ele>1162.3699999999999</ele>
        <time>2026-01-03T22:51:11Z</time>
      </trkpt>
      <trkpt lat="38.134178761392832" lon="140.49080103635788">
        <ele>1160.45</ele>
        <time>2026-01-03T22:51:15Z</time>
      </trkpt>
      <trkpt lat="38.134175911545753" lon="140.49078016541898">
        <ele>1162.8499999999999</ele>
        <time>2026-01-03T22:51:17Z</time>
      </trkpt>
      <trkpt lat="38.134136432781816" lon="140.49065208993852">
        <ele>1163.8099999999999</ele>
        <time>2026-01-03T22:51:32Z</time>
      </trkpt>
      <trkpt lat="38.134082369506359" lon="140.49056936055422">
        <ele>1163.8099999999999</ele>
        <time>2026-01-03T22:51:42Z</time>
      </trkpt>
      <trkpt lat="38.134064851328731" lon="140.49054052680731">
        <ele>1166.22</ele>
        <time>2026-01-03T22:51:45Z</time>
      </trkpt>
      <trkpt lat="38.134045992046595" lon="140.49051756039262">
        <ele>1164.77</ele>
        <time>2026-01-03T22:51:48Z</time>
      </trkpt>
      <trkpt lat="38.134018080309033" lon="140.49047632142901">
        <ele>1165.74</ele>
        <time>2026-01-03T22:51:53Z</time>
      </trkpt>
      <trkpt lat="38.133936775848269" lon="140.49037305638194">
        <ele>1167.6600000000001</ele>
        <time>2026-01-03T22:52:07Z</time>
      </trkpt>
      <trkpt lat="38.133868630975485" lon="140.49028689041734">
        <ele>1167.6600000000001</ele>
        <time>2026-01-03T22:52:19Z</time>
      </trkpt>
      <trkpt lat="38.133775927126408" lon="140.49015529453754">
        <ele>1169.5799999999999</ele>
        <time>2026-01-03T22:52:35Z</time>
      </trkpt>
      <trkpt lat="38.13368909060955" lon="140.49005303531885">
        <ele>1171.02</ele>
        <time>2026-01-03T22:52:49Z</time>
      </trkpt>
      <trkpt lat="38.133609965443611" lon="140.48994113691151">
        <ele>1171.98</ele>
        <time>2026-01-03T22:53:04Z</time>
      </trkpt>
      <trkpt lat="38.133598482236266" lon="140.48992831259966">
        <ele>1173.4300000000001</ele>
        <time>2026-01-03T22:53:06Z</time>
      </trkpt>
      <trkpt lat="38.13353075645864" lon="140.48983426764607">
        <ele>1174.3900000000001</ele>
        <time>2026-01-03T22:53:18Z</time>
      </trkpt>
      <trkpt lat="38.133509298786521" lon="140.48980518244207">
        <ele>1173.4300000000001</ele>
        <time>2026-01-03T22:53:22Z</time>
      </trkpt>
      <trkpt lat="38.133464707061648" lon="140.48974164761603">
        <ele>1174.8699999999999</ele>
        <time>2026-01-03T22:53:30Z</time>
      </trkpt>
      <trkpt lat="38.133400920778513" lon="140.48966838978231">
        <ele>1175.8299999999999</ele>
        <time>2026-01-03T22:53:43Z</time>
      </trkpt>
      <trkpt lat="38.133352054283023" lon="140.48958825878799">
        <ele>1174.8699999999999</ele>
        <time>2026-01-03T22:53:53Z</time>
      </trkpt>
      <trkpt lat="38.133278377354145" lon="140.48948817886412">
        <ele>1176.79</ele>
        <time>2026-01-03T22:54:06Z</time>
      </trkpt>
      <trkpt lat="38.133193803951144" lon="140.4893823992461">
        <ele>1177.75</ele>
        <time>2026-01-03T22:54:20Z</time>
      </trkpt>
      <trkpt lat="38.133114092051983" lon="140.48928257077932">
        <ele>1178.71</ele>
        <time>2026-01-03T22:54:35Z</time>
      </trkpt>
      <trkpt lat="38.133029351010919" lon="140.48917377367616">
        <ele>1180.1600000000001</ele>
        <time>2026-01-03T22:54:51Z</time>
      </trkpt>
      <trkpt lat="38.132940754294395" lon="140.48905198462307">
        <ele>1180.1600000000001</ele>
        <time>2026-01-03T22:55:07Z</time>
      </trkpt>
      <trkpt lat="38.132935725152493" lon="140.48904511146247">
        <ele>1180.1600000000001</ele>
        <time>2026-01-03T22:55:08Z</time>
      </trkpt>
      <trkpt lat="38.132926253601909" lon="140.48902926966548">
        <ele>1183.52</ele>
        <time>2026-01-03T22:55:10Z</time>
      </trkpt>
      <trkpt lat="38.132921895012259" lon="140.4890229832381">
        <ele>1183.52</ele>
        <time>2026-01-03T22:55:11Z</time>
      </trkpt>
      <trkpt lat="38.132915273308754" lon="140.48901066184044">
        <ele>1181.5999999999999</ele>
        <time>2026-01-03T22:55:13Z</time>
      </trkpt>
      <trkpt lat="38.132834555581212" lon="140.48889289610088">
        <ele>1183.04</ele>
        <time>2026-01-03T22:55:28Z</time>
      </trkpt>
      <trkpt lat="38.132810750976205" lon="140.48886154778302">
        <ele>1181.5999999999999</ele>
        <time>2026-01-03T22:55:33Z</time>
      </trkpt>
      <trkpt lat="38.132813349366188" lon="140.48886531963944">
        <ele>1183.52</ele>
        <time>2026-01-03T22:55:36Z</time>
      </trkpt>
      <trkpt lat="38.13281737267971" lon="140.48886288888752">
        <ele>1184.48</ele>
        <time>2026-01-03T22:55:41Z</time>
      </trkpt>
      <trkpt lat="38.132816115394235" lon="140.48886464908719">
        <ele>1181.5999999999999</ele>
        <time>2026-01-03T22:55:45Z</time>
      </trkpt>
      <trkpt lat="38.132815277203918" lon="140.48886481672525">
        <ele>1181.5999999999999</ele>
        <time>2026-01-03T22:55:46Z</time>
      </trkpt>
      <trkpt lat="38.132816702127457" lon="140.48886498436332">
        <ele>1189.77</ele>
        <time>2026-01-03T22:55:48Z</time>
      </trkpt>
      <trkpt lat="38.132817959412932" lon="140.488864146173">
        <ele>1187.8499999999999</ele>
        <time>2026-01-03T22:55:49Z</time>
      </trkpt>
      <trkpt lat="38.132817288860679" lon="140.48886171542108">
        <ele>1184.96</ele>
        <time>2026-01-03T22:55:52Z</time>
      </trkpt>
      <trkpt lat="38.132802117615938" lon="140.48885341733694">
        <ele>1184.96</ele>
        <time>2026-01-03T22:56:05Z</time>
      </trkpt>
      <trkpt lat="38.132803793996572" lon="140.48884939402342">
        <ele>1183.52</ele>
        <time>2026-01-03T22:56:08Z</time>
      </trkpt>
      <trkpt lat="38.13280463218689" lon="140.48885392025113">
        <ele>1185.9200000000001</ele>
        <time>2026-01-03T22:56:31Z</time>
      </trkpt>
      <trkpt lat="38.13279633410275" lon="140.48883229494095">
        <ele>1184.48</ele>
        <time>2026-01-03T22:56:36Z</time>
      </trkpt>
      <trkpt lat="38.132815528661013" lon="140.48887521028519">
        <ele>1184.96</ele>
        <time>2026-01-03T22:56:51Z</time>
      </trkpt>
      <trkpt lat="38.13281879760325" lon="140.48889096826315">
        <ele>1186.4000000000001</ele>
        <time>2026-01-03T22:57:06Z</time>
      </trkpt>
      <trkpt lat="38.132819551974535" lon="140.48889365047216">
        <ele>1184</ele>
        <time>2026-01-03T22:57:08Z</time>
      </trkpt>
      <trkpt lat="38.132819384336472" lon="140.48889499157667">
        <ele>1182.5599999999999</ele>
        <time>2026-01-03T22:57:10Z</time>
      </trkpt>
      <trkpt lat="38.132819551974535" lon="140.48889440484345">
        <ele>1184</ele>
        <time>2026-01-03T22:57:12Z</time>
      </trkpt>
      <trkpt lat="38.132823491469026" lon="140.4888937342912">
        <ele>1182.5599999999999</ele>
        <time>2026-01-03T22:57:17Z</time>
      </trkpt>
      <trkpt lat="38.132824162021279" lon="140.48889331519604">
        <ele>1184</ele>
        <time>2026-01-03T22:57:21Z</time>
      </trkpt>
      <trkpt lat="38.132823491469026" lon="140.48886112868786">
        <ele>1186.8800000000001</ele>
        <time>2026-01-03T22:57:26Z</time>
      </trkpt>
      <trkpt lat="38.13281930051744" lon="140.48885207623243">
        <ele>1181.5999999999999</ele>
        <time>2026-01-03T22:57:28Z</time>
      </trkpt>
      <trkpt lat="38.132817205041647" lon="140.48885031603277">
        <ele>1181.5999999999999</ele>
        <time>2026-01-03T22:57:29Z</time>
      </trkpt>
      <trkpt lat="38.132815277203918" lon="140.48884402960539">
        <ele>1184</ele>
        <time>2026-01-03T22:57:32Z</time>
      </trkpt>
      <trkpt lat="38.132807565853" lon="140.48883522860706">
        <ele>1183.52</ele>
        <time>2026-01-03T22:57:44Z</time>
      </trkpt>
      <trkpt lat="38.132744366303086" lon="140.48874956555665">
        <ele>1183.52</ele>
        <time>2026-01-03T22:57:56Z</time>
      </trkpt>
      <trkpt lat="38.132696254178882" lon="140.48867614008486">
        <ele>1183.52</ele>
        <time>2026-01-03T22:58:05Z</time>
      </trkpt>
      <trkpt lat="38.132688961923122" lon="140.48866507597268">
        <ele>1185.4400000000001</ele>
        <time>2026-01-03T22:58:07Z</time>
      </trkpt>
      <trkpt lat="38.132668677717447" lon="140.48862115480006">
        <ele>1186.8800000000001</ele>
        <time>2026-01-03T22:58:14Z</time>
      </trkpt>
      <trkpt lat="38.132633557543159" lon="140.48854705877602">
        <ele>1185.9200000000001</ele>
        <time>2026-01-03T22:58:26Z</time>
      </trkpt>
      <trkpt lat="38.132625259459019" lon="140.48853213898838">
        <ele>1186.8800000000001</ele>
        <time>2026-01-03T22:58:28Z</time>
      </trkpt>
      <trkpt lat="38.132611345499754" lon="140.48850255087018">
        <ele>1184</ele>
        <time>2026-01-03T22:58:32Z</time>
      </trkpt>
      <trkpt lat="38.132605729624629" lon="140.48848872072995">
        <ele>1186.4000000000001</ele>
        <time>2026-01-03T22:58:34Z</time>
      </trkpt>
      <trkpt lat="38.132570525631309" lon="140.48841965384781">
        <ele>1187.3699999999999</ele>
        <time>2026-01-03T22:58:44Z</time>
      </trkpt>
      <trkpt lat="38.132550744339824" lon="140.48837338574231">
        <ele>1190.73</ele>
        <time>2026-01-03T22:58:52Z</time>
      </trkpt>
      <trkpt lat="38.132546553388238" lon="140.48836877569556">
        <ele>1190.73</ele>
        <time>2026-01-03T22:58:53Z</time>
      </trkpt>
      <trkpt lat="38.132537165656686" lon="140.48834882676601">
        <ele>1188.8099999999999</ele>
        <time>2026-01-03T22:58:56Z</time>
      </trkpt>
      <trkpt lat="38.132498441264033" lon="140.48823558725417">
        <ele>1190.25</ele>
        <time>2026-01-03T22:59:12Z</time>
      </trkpt>
      <trkpt lat="38.132487880066037" lon="140.48821605741978">
        <ele>1188.8099999999999</ele>
        <time>2026-01-03T22:59:15Z</time>
      </trkpt>
      <trkpt lat="38.132476899772882" lon="140.48819568939507">
        <ele>1191.6900000000001</ele>
        <time>2026-01-03T22:59:18Z</time>
      </trkpt>
      <trkpt lat="38.132437421008945" lon="140.48811430111527">
        <ele>1190.73</ele>
        <time>2026-01-03T22:59:31Z</time>
      </trkpt>
      <trkpt lat="38.132428703829646" lon="140.48809996806085">
        <ele>1192.1700000000001</ele>
        <time>2026-01-03T22:59:34Z</time>
      </trkpt>
      <trkpt lat="38.132415879517794" lon="140.48805110156536">
        <ele>1193.1300000000001</ele>
        <time>2026-01-03T22:59:44Z</time>
      </trkpt>
      <trkpt lat="38.132410179823637" lon="140.4880268778652">
        <ele>1195.0599999999999</ele>
        <time>2026-01-03T22:59:49Z</time>
      </trkpt>
      <trkpt lat="38.132396265864372" lon="140.48798572272062">
        <ele>1193.6099999999999</ele>
        <time>2026-01-03T22:59:54Z</time>
      </trkpt>
      <trkpt lat="38.132378160953522" lon="140.48791523091495">
        <ele>1196.98</ele>
        <time>2026-01-03T23:00:05Z</time>
      </trkpt>
      <trkpt lat="38.132376987487078" lon="140.48790751956403">
        <ele>1196.98</ele>
        <time>2026-01-03T23:00:06Z</time>
      </trkpt>
      <trkpt lat="38.132368437945843" lon="140.48788857646286">
        <ele>1193.1300000000001</ele>
        <time>2026-01-03T23:00:09Z</time>
      </trkpt>
      <trkpt lat="38.132365755736828" lon="140.48788044601679">
        <ele>1193.6099999999999</ele>
        <time>2026-01-03T23:00:10Z</time>
      </trkpt>
      <trkpt lat="38.132355948910117" lon="140.48786359839141">
        <ele>1195.0599999999999</ele>
        <time>2026-01-03T23:00:12Z</time>
      </trkpt>
      <trkpt lat="38.132322505116463" lon="140.48775949515402">
        <ele>1196.02</ele>
        <time>2026-01-03T23:00:25Z</time>
      </trkpt>
      <trkpt lat="38.132280427962542" lon="140.4876761790365">
        <ele>1195.0599999999999</ele>
        <time>2026-01-03T23:00:36Z</time>
      </trkpt>
      <trkpt lat="38.132271710783243" lon="140.48766084015369">
        <ele>1198.4200000000001</ele>
        <time>2026-01-03T23:00:38Z</time>
      </trkpt>
      <trkpt lat="38.132262323051691" lon="140.48763502389193">
        <ele>1195.54</ele>
        <time>2026-01-03T23:00:41Z</time>
      </trkpt>
      <trkpt lat="38.132261820137501" lon="140.48762496560812">
        <ele>1193.6099999999999</ele>
        <time>2026-01-03T23:00:43Z</time>
      </trkpt>
      <trkpt lat="38.132257964462042" lon="140.48761071637273">
        <ele>1196.5</ele>
        <time>2026-01-03T23:00:45Z</time>
      </trkpt>
      <trkpt lat="38.132254108786583" lon="140.48760334029794">
        <ele>1196.5</ele>
        <time>2026-01-03T23:00:46Z</time>
      </trkpt>
      <trkpt lat="38.132207086309791" lon="140.4874927829951">
        <ele>1198.9000000000001</ele>
        <time>2026-01-03T23:01:01Z</time>
      </trkpt>
      <trkpt lat="38.132182694971561" lon="140.48742271028459">
        <ele>1199.8599999999999</ele>
        <time>2026-01-03T23:01:11Z</time>
      </trkpt>
      <trkpt lat="38.132131146267056" lon="140.48732087016106">
        <ele>1201.3</ele>
        <time>2026-01-03T23:01:26Z</time>
      </trkpt>
      <trkpt lat="38.132121171802282" lon="140.48729664646089">
        <ele>1199.8599999999999</ele>
        <time>2026-01-03T23:01:29Z</time>
      </trkpt>
      <trkpt lat="38.132103821262717" lon="140.48726135864854">
        <ele>1203.23</ele>
        <time>2026-01-03T23:01:33Z</time>
      </trkpt>
      <trkpt lat="38.132101558148861" lon="140.48725423403084">
        <ele>1203.23</ele>
        <time>2026-01-03T23:01:34Z</time>
      </trkpt>
      <trkpt lat="38.132098540663719" lon="140.48724023625255">
        <ele>1201.3</ele>
        <time>2026-01-03T23:01:36Z</time>
      </trkpt>
      <trkpt lat="38.132094349712133" lon="140.48721861094236">
        <ele>1204.6700000000001</ele>
        <time>2026-01-03T23:01:39Z</time>
      </trkpt>
      <trkpt lat="38.132093595340848" lon="140.48721140250564">
        <ele>1204.6700000000001</ele>
        <time>2026-01-03T23:01:40Z</time>
      </trkpt>
      <trkpt lat="38.132075071334839" lon="140.48715457320213">
        <ele>1203.71</ele>
        <time>2026-01-03T23:01:47Z</time>
      </trkpt>
      <trkpt lat="38.132052440196276" lon="140.48710042610765">
        <ele>1204.6700000000001</ele>
        <time>2026-01-03T23:01:54Z</time>
      </trkpt>
      <trkpt lat="38.132002651691437" lon="140.4870025254786">
        <ele>1203.23</ele>
        <time>2026-01-03T23:02:09Z</time>
      </trkpt>
      <trkpt lat="38.131994940340519" lon="140.48697888851166">
        <ele>1205.6300000000001</ele>
        <time>2026-01-03T23:02:12Z</time>
      </trkpt>
      <trkpt lat="38.131987983360887" lon="140.48695961013436">
        <ele>1203.23</ele>
        <time>2026-01-03T23:02:14Z</time>
      </trkpt>
      <trkpt lat="38.131983624771237" lon="140.48694443888962">
        <ele>1205.6300000000001</ele>
        <time>2026-01-03T23:02:16Z</time>
      </trkpt>
      <trkpt lat="38.131965352222323" lon="140.48690152354538">
        <ele>1207.0699999999999</ele>
        <time>2026-01-03T23:02:22Z</time>
      </trkpt>
      <trkpt lat="38.131961915642023" lon="140.48689163289964">
        <ele>1203.71</ele>
        <time>2026-01-03T23:02:24Z</time>
      </trkpt>
      <trkpt lat="38.131959736347198" lon="140.48688786104321">
        <ele>1203.71</ele>
        <time>2026-01-03T23:02:25Z</time>
      </trkpt>
      <trkpt lat="38.131955042481422" lon="140.48687729984522">
        <ele>1205.1500000000001</ele>
        <time>2026-01-03T23:02:27Z</time>
      </trkpt>
      <trkpt lat="38.131929310038686" lon="140.48682063817978">
        <ele>1204.6700000000001</ele>
        <time>2026-01-03T23:02:36Z</time>
      </trkpt>
      <trkpt lat="38.131923694163561" lon="140.48680672422051">
        <ele>1203.23</ele>
        <time>2026-01-03T23:02:38Z</time>
      </trkpt>
      <trkpt lat="38.131918162107468" lon="140.48678878694773">
        <ele>1207.0699999999999</ele>
        <time>2026-01-03T23:02:40Z</time>
      </trkpt>
      <trkpt lat="38.131910534575582" lon="140.48677202314138">
        <ele>1208.51</ele>
        <time>2026-01-03T23:02:42Z</time>
      </trkpt>
      <trkpt lat="38.131904331967235" lon="140.48675056546926">
        <ele>1207.0699999999999</ele>
        <time>2026-01-03T23:02:45Z</time>
      </trkpt>
      <trkpt lat="38.131900057196617" lon="140.48673002980649">
        <ele>1208.03</ele>
        <time>2026-01-03T23:02:48Z</time>
      </trkpt>
      <trkpt lat="38.131853872910142" lon="140.4866158682853">
        <ele>1209</ele>
        <time>2026-01-03T23:03:03Z</time>
      </trkpt>
      <trkpt lat="38.131837528198957" lon="140.48657077364624">
        <ele>1209.96</ele>
        <time>2026-01-03T23:03:08Z</time>
      </trkpt>
      <trkpt lat="38.131822273135185" lon="140.48654168844223">
        <ele>1211.8800000000001</ele>
        <time>2026-01-03T23:03:12Z</time>
      </trkpt>
      <trkpt lat="38.131811795756221" lon="140.48652090132236">
        <ele>1208.51</ele>
        <time>2026-01-03T23:03:15Z</time>
      </trkpt>
      <trkpt lat="38.131796959787607" lon="140.48648066818714">
        <ele>1211.8800000000001</ele>
        <time>2026-01-03T23:03:20Z</time>
      </trkpt>
      <trkpt lat="38.131793858483434" lon="140.4864726215601">
        <ele>1211.8800000000001</ele>
        <time>2026-01-03T23:03:21Z</time>
      </trkpt>
      <trkpt lat="38.131776843219995" lon="140.48643305897713">
        <ele>1210.9200000000001</ele>
        <time>2026-01-03T23:03:26Z</time>
      </trkpt>
      <trkpt lat="38.131742309778929" lon="140.48635535873473">
        <ele>1212.3599999999999</ele>
        <time>2026-01-03T23:03:36Z</time>
      </trkpt>
      <trkpt lat="38.131728563457727" lon="140.48631671816111">
        <ele>1210.4400000000001</ele>
        <time>2026-01-03T23:03:42Z</time>
      </trkpt>
      <trkpt lat="38.131719678640366" lon="140.48629241064191">
        <ele>1212.3599999999999</ele>
        <time>2026-01-03T23:03:45Z</time>
      </trkpt>
      <trkpt lat="38.131673578172922" lon="140.48616944812238">
        <ele>1213.3199999999999</ele>
        <time>2026-01-03T23:04:00Z</time>
      </trkpt>
      <trkpt lat="38.131654215976596" lon="140.48612318001688">
        <ele>1210.9200000000001</ele>
        <time>2026-01-03T23:04:06Z</time>
      </trkpt>
      <trkpt lat="38.131644241511822" lon="140.48609862104058">
        <ele>1213.3199999999999</ele>
        <time>2026-01-03T23:04:09Z</time>
      </trkpt>
      <trkpt lat="38.131636027246714" lon="140.48607917502522">
        <ele>1211.4000000000001</ele>
        <time>2026-01-03T23:04:12Z</time>
      </trkpt>
      <trkpt lat="38.131601829081774" lon="140.48600340262055">
        <ele>1214.28</ele>
        <time>2026-01-03T23:04:23Z</time>
      </trkpt>
      <trkpt lat="38.131584646180272" lon="140.48596845008433">
        <ele>1210.4400000000001</ele>
        <time>2026-01-03T23:04:27Z</time>
      </trkpt>
      <trkpt lat="38.131565200164914" lon="140.48592394217849">
        <ele>1213.3199999999999</ele>
        <time>2026-01-03T23:04:33Z</time>
      </trkpt>
      <trkpt lat="38.131542736664414" lon="140.48586669377983">
        <ele>1214.76</ele>
        <time>2026-01-03T23:04:41Z</time>
      </trkpt>
      <trkpt lat="38.13149705529213" lon="140.48573409207165">
        <ele>1214.76</ele>
        <time>2026-01-03T23:04:57Z</time>
      </trkpt>
      <trkpt lat="38.131471239030361" lon="140.48566804267466">
        <ele>1217.1700000000001</ele>
        <time>2026-01-03T23:05:06Z</time>
      </trkpt>
      <trkpt lat="38.13146386295557" lon="140.4856467526406">
        <ele>1213.8</ele>
        <time>2026-01-03T23:05:09Z</time>
      </trkpt>
      <trkpt lat="38.131441315636039" lon="140.48558908514678">
        <ele>1215.24</ele>
        <time>2026-01-03T23:05:17Z</time>
      </trkpt>
      <trkpt lat="38.131412314251065" lon="140.48550149425864">
        <ele>1217.6500000000001</ele>
        <time>2026-01-03T23:05:29Z</time>
      </trkpt>
      <trkpt lat="38.13140669837594" lon="140.48548707738519">
        <ele>1215.72</ele>
        <time>2026-01-03T23:05:31Z</time>
      </trkpt>
      <trkpt lat="38.131401166319847" lon="140.48547307960689">
        <ele>1216.6900000000001</ele>
        <time>2026-01-03T23:05:33Z</time>
      </trkpt>
      <trkpt lat="38.131378535181284" lon="140.48542278818786">
        <ele>1216.21</ele>
        <time>2026-01-03T23:05:39Z</time>
      </trkpt>
      <trkpt lat="38.131368895992637" lon="140.48540325835347">
        <ele>1217.6500000000001</ele>
        <time>2026-01-03T23:05:42Z</time>
      </trkpt>
      <trkpt lat="38.131329920142889" lon="140.48531508073211">
        <ele>1218.6099999999999</ele>
        <time>2026-01-03T23:05:55Z</time>
      </trkpt>
      <trkpt lat="38.131321789696813" lon="140.48528507351875">
        <ele>1217.6500000000001</ele>
        <time>2026-01-03T23:05:59Z</time>
      </trkpt>
      <trkpt lat="38.131303433328867" lon="140.48522950150073">
        <ele>1221.01</ele>
        <time>2026-01-03T23:06:05Z</time>
      </trkpt>
      <trkpt lat="38.131286418065429" lon="140.48517937771976">
        <ele>1219.5699999999999</ele>
        <time>2026-01-03T23:06:12Z</time>
      </trkpt>
      <trkpt lat="38.131279041990638" lon="140.48515666276217">
        <ele>1218.1300000000001</ele>
        <time>2026-01-03T23:06:15Z</time>
      </trkpt>
      <trkpt lat="38.131266804412007" lon="140.48512129113078">
        <ele>1220.53</ele>
        <time>2026-01-03T23:06:19Z</time>
      </trkpt>
      <trkpt lat="38.131229588761926" lon="140.4850407410413">
        <ele>1221.01</ele>
        <time>2026-01-03T23:06:31Z</time>
      </trkpt>
      <trkpt lat="38.131192289292812" lon="140.48495206050575">
        <ele>1221.49</ele>
        <time>2026-01-03T23:06:45Z</time>
      </trkpt>
      <trkpt lat="38.131161276251078" lon="140.48485164530575">
        <ele>1224.3800000000001</ele>
        <time>2026-01-03T23:06:59Z</time>
      </trkpt>
      <trkpt lat="38.131158342584968" lon="140.48484452068806">
        <ele>1224.3800000000001</ele>
        <time>2026-01-03T23:07:00Z</time>
      </trkpt>
      <trkpt lat="38.131151469424367" lon="140.48482960090041">
        <ele>1222.9300000000001</ele>
        <time>2026-01-03T23:07:02Z</time>
      </trkpt>
      <trkpt lat="38.131145099177957" lon="140.48481199890375">
        <ele>1221.01</ele>
        <time>2026-01-03T23:07:05Z</time>
      </trkpt>
      <trkpt lat="38.131131771951914" lon="140.48477964475751">
        <ele>1222.45</ele>
        <time>2026-01-03T23:07:10Z</time>
      </trkpt>
      <trkpt lat="38.131109727546573" lon="140.48471007496119">
        <ele>1224.8599999999999</ele>
        <time>2026-01-03T23:07:18Z</time>
      </trkpt>
      <trkpt lat="38.131103105843067" lon="140.48468794673681">
        <ele>1223.4200000000001</ele>
        <time>2026-01-03T23:07:21Z</time>
      </trkpt>
      <trkpt lat="38.131094221025705" lon="140.48464612103999">
        <ele>1224.3800000000001</ele>
        <time>2026-01-03T23:07:26Z</time>
      </trkpt>
      <trkpt lat="38.131077205762267" lon="140.48460605554283">
        <ele>1222.9300000000001</ele>
        <time>2026-01-03T23:07:31Z</time>
      </trkpt>
      <trkpt lat="38.131053987890482" lon="140.48455744050443">
        <ele>1223.9000000000001</ele>
        <time>2026-01-03T23:07:39Z</time>
      </trkpt>
      <trkpt lat="38.131039990112185" lon="140.4845021199435">
        <ele>1222.9300000000001</ele>
        <time>2026-01-03T23:07:47Z</time>
      </trkpt>
      <trkpt lat="38.131032362580299" lon="140.48448116518557">
        <ele>1224.8599999999999</ele>
        <time>2026-01-03T23:07:50Z</time>
      </trkpt>
      <trkpt lat="38.131014257669449" lon="140.484429448843">
        <ele>1228.22</ele>
        <time>2026-01-03T23:07:57Z</time>
      </trkpt>
      <trkpt lat="38.13100403174758" lon="140.48439969308674">
        <ele>1226.78</ele>
        <time>2026-01-03T23:08:01Z</time>
      </trkpt>
      <trkpt lat="38.13096790574491" lon="140.48427647911012">
        <ele>1226.3</ele>
        <time>2026-01-03T23:08:16Z</time>
      </trkpt>
      <trkpt lat="38.130964133888483" lon="140.4842674266547">
        <ele>1226.3</ele>
        <time>2026-01-03T23:08:17Z</time>
      </trkpt>
      <trkpt lat="38.130937982350588" lon="140.48418813385069">
        <ele>1229.6600000000001</ele>
        <time>2026-01-03T23:08:29Z</time>
      </trkpt>
      <trkpt lat="38.130929432809353" lon="140.48413826152682">
        <ele>1227.74</ele>
        <time>2026-01-03T23:08:35Z</time>
      </trkpt>
      <trkpt lat="38.130903113633394" lon="140.48405863344669">
        <ele>1228.22</ele>
        <time>2026-01-03T23:08:44Z</time>
      </trkpt>
      <trkpt lat="38.130900012329221" lon="140.48403608612716">
        <ele>1226.78</ele>
        <time>2026-01-03T23:08:46Z</time>
      </trkpt>
      <trkpt lat="38.130893474444747" lon="140.48400213941932">
        <ele>1229.6600000000001</ele>
        <time>2026-01-03T23:08:50Z</time>
      </trkpt>
      <trkpt lat="38.130873860791326" lon="140.48392552882433">
        <ele>1228.7</ele>
        <time>2026-01-03T23:08:59Z</time>
      </trkpt>
      <trkpt lat="38.130868496373296" lon="140.48390910029411">
        <ele>1232.55</ele>
        <time>2026-01-03T23:09:01Z</time>
      </trkpt>
      <trkpt lat="38.130865395069122" lon="140.48390264622867">
        <ele>1232.55</ele>
        <time>2026-01-03T23:09:02Z</time>
      </trkpt>
      <trkpt lat="38.130824575200677" lon="140.48376870341599">
        <ele>1232.55</ele>
        <time>2026-01-03T23:09:18Z</time>
      </trkpt>
      <trkpt lat="38.130817031487823" lon="140.48373710364103">
        <ele>1233.99</ele>
        <time>2026-01-03T23:09:22Z</time>
      </trkpt>
      <trkpt lat="38.130802446976304" lon="140.48369251191616">
        <ele>1232.55</ele>
        <time>2026-01-03T23:09:27Z</time>
      </trkpt>
      <trkpt lat="38.13079783692956" lon="140.48367625102401">
        <ele>1233.99</ele>
        <time>2026-01-03T23:09:29Z</time>
      </trkpt>
      <trkpt lat="38.130746288225055" lon="140.4835662804544">
        <ele>1233.99</ele>
        <time>2026-01-03T23:09:44Z</time>
      </trkpt>
      <trkpt lat="38.130727177485824" lon="140.48352613113821">
        <ele>1234.47</ele>
        <time>2026-01-03T23:09:49Z</time>
      </trkpt>
      <trkpt lat="38.13071871176362" lon="140.48350492492318">
        <ele>1232.0699999999999</ele>
        <time>2026-01-03T23:09:52Z</time>
      </trkpt>
      <trkpt lat="38.130691889673471" lon="140.48345262184739">
        <ele>1235.4300000000001</ele>
        <time>2026-01-03T23:09:59Z</time>
      </trkpt>
      <trkpt lat="38.130684848874807" lon="140.48343946225941">
        <ele>1233.99</ele>
        <time>2026-01-03T23:10:01Z</time>
      </trkpt>
      <trkpt lat="38.130636736750603" lon="140.48335304483771">
        <ele>1237.3499999999999</ele>
        <time>2026-01-03T23:10:12Z</time>
      </trkpt>
      <trkpt lat="38.130633216351271" lon="140.48334650695324">
        <ele>1237.3499999999999</ele>
        <time>2026-01-03T23:10:13Z</time>
      </trkpt>
      <trkpt lat="38.130562221631408" lon="140.48324609175324">
        <ele>1236.8699999999999</ele>
        <time>2026-01-03T23:10:27Z</time>
      </trkpt>
      <trkpt lat="38.130511678755283" lon="140.48318658024073">
        <ele>1238.3199999999999</ele>
        <time>2026-01-03T23:10:37Z</time>
      </trkpt>
      <trkpt lat="38.130475636571646" lon="140.48313905484974">
        <ele>1235.4300000000001</ele>
        <time>2026-01-03T23:10:44Z</time>
      </trkpt>
      <trkpt lat="38.130464069545269" lon="140.48313109204173">
        <ele>1236.8699999999999</ele>
        <time>2026-01-03T23:10:46Z</time>
      </trkpt>
      <trkpt lat="38.130445713177323" lon="140.48310887999833">
        <ele>1236.3900000000001</ele>
        <time>2026-01-03T23:10:50Z</time>
      </trkpt>
      <trkpt lat="38.130407156422734" lon="140.48306303098798">
        <ele>1239.28</ele>
        <time>2026-01-03T23:10:56Z</time>
      </trkpt>
      <trkpt lat="38.130349908024073" lon="140.48300854861736">
        <ele>1237.8299999999999</ele>
        <time>2026-01-03T23:11:06Z</time>
      </trkpt>
      <trkpt lat="38.130332976579666" lon="140.48298809677362">
        <ele>1239.28</ele>
        <time>2026-01-03T23:11:08Z</time>
      </trkpt>
      <trkpt lat="38.13022811897099" lon="140.48286446370184">
        <ele>1237.3499999999999</ele>
        <time>2026-01-03T23:11:19Z</time>
      </trkpt>
      <trkpt lat="38.130214707925916" lon="140.48284049145877">
        <ele>1239.76</ele>
        <time>2026-01-03T23:11:21Z</time>
      </trkpt>
      <trkpt lat="38.130213869735599" lon="140.48281744122505">
        <ele>1240.72</ele>
        <time>2026-01-03T23:11:23Z</time>
      </trkpt>
      <trkpt lat="38.130245888605714" lon="140.48281014896929">
        <ele>1228.7</ele>
        <time>2026-01-03T23:11:33Z</time>
      </trkpt>
      <trkpt lat="38.130251504480839" lon="140.48281207680702">
        <ele>1239.76</ele>
        <time>2026-01-03T23:11:34Z</time>
      </trkpt>
      <trkpt lat="38.130259802564979" lon="140.48281794413924">
        <ele>1241.2</ele>
        <time>2026-01-03T23:11:36Z</time>
      </trkpt>
      <trkpt lat="38.130260976031423" lon="140.48282171599567">
        <ele>1255.6199999999999</ele>
        <time>2026-01-03T23:11:37Z</time>
      </trkpt>
      <trkpt lat="38.130262652412057" lon="140.48282305710018">
        <ele>1248.4100000000001</ele>
        <time>2026-01-03T23:11:38Z</time>
      </trkpt>
      <trkpt lat="38.13026525080204" lon="140.48282909207046">
        <ele>1244.5599999999999</ele>
        <time>2026-01-03T23:11:39Z</time>
      </trkpt>
      <trkpt lat="38.130267011001706" lon="140.48282749950886">
        <ele>1243.5999999999999</ele>
        <time>2026-01-03T23:11:41Z</time>
      </trkpt>
      <trkpt lat="38.130250917747617" lon="140.48280361108482">
        <ele>1242.6400000000001</ele>
        <time>2026-01-03T23:11:54Z</time>
      </trkpt>
      <trkpt lat="38.130243457853794" lon="140.48279279842973">
        <ele>1243.1199999999999</ele>
        <time>2026-01-03T23:12:11Z</time>
      </trkpt>
      <trkpt lat="38.130222670733929" lon="140.48280444927514">
        <ele>1241.6800000000001</ele>
        <time>2026-01-03T23:12:23Z</time>
      </trkpt>
      <trkpt lat="38.1302241794765" lon="140.48279791139066">
        <ele>1244.0799999999999</ele>
        <time>2026-01-03T23:12:27Z</time>
      </trkpt>
      <trkpt lat="38.130231555551291" lon="140.48278969712555">
        <ele>1242.1600000000001</ele>
        <time>2026-01-03T23:12:34Z</time>
      </trkpt>
      <trkpt lat="38.130238009616733" lon="140.48278106376529">
        <ele>1241.6800000000001</ele>
        <time>2026-01-03T23:12:58Z</time>
      </trkpt>
      <trkpt lat="38.130125692114234" lon="140.48276002518833">
        <ele>1242.6400000000001</ele>
        <time>2026-01-03T23:13:29Z</time>
      </trkpt>
      <trkpt lat="38.130132062360644" lon="140.48268106766045">
        <ele>1242.6400000000001</ele>
        <time>2026-01-03T23:13:55Z</time>
      </trkpt>
      <trkpt lat="38.130145305767655" lon="140.48270001076162">
        <ele>1242.6400000000001</ele>
        <time>2026-01-03T23:14:03Z</time>
      </trkpt>
      <trkpt lat="38.130214288830757" lon="140.4827977437526">
        <ele>1241.2</ele>
        <time>2026-01-03T23:14:23Z</time>
      </trkpt>
      <trkpt lat="38.130213199183345" lon="140.48273823224008">
        <ele>1241.6800000000001</ele>
        <time>2026-01-03T23:14:33Z</time>
      </trkpt>
      <trkpt lat="38.130107503384352" lon="140.48251820728183">
        <ele>1242.1600000000001</ele>
        <time>2026-01-03T23:14:48Z</time>
      </trkpt>
      <trkpt lat="38.130161482840776" lon="140.48296756111085">
        <ele>1242.1600000000001</ele>
        <time>2026-01-03T23:16:27Z</time>
      </trkpt>
      <trkpt lat="38.130230298265815" lon="140.48297259025276">
        <ele>1242.6400000000001</ele>
        <time>2026-01-03T23:16:35Z</time>
      </trkpt>
      <trkpt lat="38.130215797573328" lon="140.48295163549483">
        <ele>1241.2</ele>
        <time>2026-01-03T23:16:38Z</time>
      </trkpt>
      <trkpt lat="38.130253683775663" lon="140.48284761607647">
        <ele>1239.28</ele>
        <time>2026-01-03T23:16:51Z</time>
      </trkpt>
      <trkpt lat="38.130253767594695" lon="140.48284233547747">
        <ele>1241.6800000000001</ele>
        <time>2026-01-03T23:16:53Z</time>
      </trkpt>
      <trkpt lat="38.130253432318568" lon="140.48283546231687">
        <ele>1237.3499999999999</ele>
        <time>2026-01-03T23:16:55Z</time>
      </trkpt>
      <trkpt lat="38.130252761766315" lon="140.48283361829817">
        <ele>1244.0799999999999</ele>
        <time>2026-01-03T23:16:56Z</time>
      </trkpt>
      <trkpt lat="38.130250917747617" lon="140.48283202573657">
        <ele>1256.0999999999999</ele>
        <time>2026-01-03T23:17:02Z</time>
      </trkpt>
      <trkpt lat="38.130252510309219" lon="140.482835797593">
        <ele>1247.9300000000001</ele>
        <time>2026-01-03T23:17:03Z</time>
      </trkpt>
      <trkpt lat="38.130249073728919" lon="140.48283864744008">
        <ele>1245.04</ele>
        <time>2026-01-03T23:17:05Z</time>
      </trkpt>
      <trkpt lat="38.130243290215731" lon="140.48283588141203">
        <ele>1242.1600000000001</ele>
        <time>2026-01-03T23:17:08Z</time>
      </trkpt>
      <trkpt lat="38.130239099264145" lon="140.48283252865076">
        <ele>1244.0799999999999</ele>
        <time>2026-01-03T23:17:12Z</time>
      </trkpt>
      <trkpt lat="38.130238428711891" lon="140.48283353447914">
        <ele>1242.6400000000001</ele>
        <time>2026-01-03T23:17:22Z</time>
      </trkpt>
      <trkpt lat="38.130241446197033" lon="140.48283303156495">
        <ele>1243.1199999999999</ele>
        <time>2026-01-03T23:17:47Z</time>
      </trkpt>
      <trkpt lat="38.130237422883511" lon="140.48282976262271">
        <ele>1225.8199999999999</ele>
        <time>2026-01-03T23:17:51Z</time>
      </trkpt>
      <trkpt lat="38.130237171426415" lon="140.48282825388014">
        <ele>1218.6099999999999</ele>
        <time>2026-01-03T23:17:52Z</time>
      </trkpt>
      <trkpt lat="38.13023985363543" lon="140.48282582312822">
        <ele>1233.99</ele>
        <time>2026-01-03T23:17:53Z</time>
      </trkpt>
      <trkpt lat="38.130245972424746" lon="140.48282238654792">
        <ele>1243.1199999999999</ele>
        <time>2026-01-03T23:17:54Z</time>
      </trkpt>
      <trkpt lat="38.130254521965981" lon="140.48281744122505">
        <ele>1241.2</ele>
        <time>2026-01-03T23:17:55Z</time>
      </trkpt>
      <trkpt lat="38.13027354888618" lon="140.48280847258866">
        <ele>1251.29</ele>
        <time>2026-01-03T23:17:57Z</time>
      </trkpt>
      <trkpt lat="38.130283607169986" lon="140.48280185088515">
        <ele>1236.3900000000001</ele>
        <time>2026-01-03T23:17:58Z</time>
      </trkpt>
      <trkpt lat="38.130292911082506" lon="140.4828009288758">
        <ele>1239.28</ele>
        <time>2026-01-03T23:17:59Z</time>
      </trkpt>
      <trkpt lat="38.13029995188117" lon="140.48280294053257">
        <ele>1242.6400000000001</ele>
        <time>2026-01-03T23:18:00Z</time>
      </trkpt>
      <trkpt lat="38.130309004336596" lon="140.48280864022672">
        <ele>1250.3299999999999</ele>
        <time>2026-01-03T23:18:01Z</time>
      </trkpt>
      <trkpt lat="38.1303053162992" lon="140.4828186146915">
        <ele>1235.4300000000001</ele>
        <time>2026-01-03T23:18:02Z</time>
      </trkpt>
      <trkpt lat="38.130304981023073" lon="140.48282515257597">
        <ele>1235.4300000000001</ele>
        <time>2026-01-03T23:18:03Z</time>
      </trkpt>
      <trkpt lat="38.130303304642439" lon="140.48282490111887">
        <ele>1266.1900000000001</ele>
        <time>2026-01-03T23:18:04Z</time>
      </trkpt>
      <trkpt lat="38.130291402339935" lon="140.48280453309417">
        <ele>1249.8499999999999</ele>
        <time>2026-01-03T23:18:06Z</time>
      </trkpt>
      <trkpt lat="38.130276398733258" lon="140.48281182534993">
        <ele>1243.5999999999999</ele>
        <time>2026-01-03T23:18:07Z</time>
      </trkpt>
      <trkpt lat="38.130260054022074" lon="140.48282741568983">
        <ele>1238.3199999999999</ele>
        <time>2026-01-03T23:18:10Z</time>
      </trkpt>
      <trkpt lat="38.130255276337266" lon="140.48283135518432">
        <ele>1243.5999999999999</ele>
        <time>2026-01-03T23:18:11Z</time>
      </trkpt>
      <trkpt lat="38.130249911919236" lon="140.48283730633557">
        <ele>1246.49</ele>
        <time>2026-01-03T23:18:12Z</time>
      </trkpt>
      <trkpt lat="38.130245972424746" lon="140.48283973708749">
        <ele>1246.49</ele>
        <time>2026-01-03T23:18:13Z</time>
      </trkpt>
      <trkpt lat="38.130243960767984" lon="140.48284116201103">
        <ele>1243.5999999999999</ele>
        <time>2026-01-03T23:18:14Z</time>
      </trkpt>
      <trkpt lat="38.130243290215731" lon="140.48284694552422">
        <ele>1243.5999999999999</ele>
        <time>2026-01-03T23:18:15Z</time>
      </trkpt>
      <trkpt lat="38.130247900262475" lon="140.48284074291587">
        <ele>1241.2</ele>
        <time>2026-01-03T23:18:25Z</time>
      </trkpt>
      <trkpt lat="38.130248067900538" lon="140.48283747397363">
        <ele>1242.6400000000001</ele>
        <time>2026-01-03T23:18:27Z</time>
      </trkpt>
      <trkpt lat="38.130247984081507" lon="140.48283378593624">
        <ele>1241.2</ele>
        <time>2026-01-03T23:18:29Z</time>
      </trkpt>
      <trkpt lat="38.130252594128251" lon="140.48282640986145">
        <ele>1243.1199999999999</ele>
        <time>2026-01-03T23:18:34Z</time>
      </trkpt>
      <trkpt lat="38.130253348499537" lon="140.48282967880368">
        <ele>1241.6800000000001</ele>
        <time>2026-01-03T23:18:36Z</time>
      </trkpt>
      <trkpt lat="38.130255276337266" lon="140.48283135518432">
        <ele>1243.1199999999999</ele>
        <time>2026-01-03T23:18:38Z</time>
      </trkpt>
      <trkpt lat="38.130260305479169" lon="140.48282976262271">
        <ele>1241.2</ele>
        <time>2026-01-03T23:18:44Z</time>
      </trkpt>
      <trkpt lat="38.130260054022074" lon="140.48282699659467">
        <ele>1243.1199999999999</ele>
        <time>2026-01-03T23:18:46Z</time>
      </trkpt>
      <trkpt lat="38.130259467288852" lon="140.4828186146915">
        <ele>1241.6800000000001</ele>
        <time>2026-01-03T23:18:50Z</time>
      </trkpt>
      <trkpt lat="38.130266424268484" lon="140.48280972987413">
        <ele>1242.6400000000001</ele>
        <time>2026-01-03T23:19:03Z</time>
      </trkpt>
      <trkpt lat="38.130255779251456" lon="140.4828149266541">
        <ele>1244.0799999999999</ele>
        <time>2026-01-03T23:19:11Z</time>
      </trkpt>
      <trkpt lat="38.130258377641439" lon="140.48281366936862">
        <ele>1242.6400000000001</ele>
        <time>2026-01-03T23:19:15Z</time>
      </trkpt>
      <trkpt lat="38.13025644980371" lon="140.48281257972121">
        <ele>1241.6800000000001</ele>
        <time>2026-01-03T23:19:42Z</time>
      </trkpt>
      <trkpt lat="38.130249576643109" lon="140.48283336684108">
        <ele>1243.1199999999999</ele>
        <time>2026-01-03T23:20:04Z</time>
      </trkpt>
      <trkpt lat="38.130260137841105" lon="140.48283118754625">
        <ele>1244.0799999999999</ele>
        <time>2026-01-03T23:20:17Z</time>
      </trkpt>
      <trkpt lat="38.130264161154628" lon="140.48282800242305">
        <ele>1243.1199999999999</ele>
        <time>2026-01-03T23:20:29Z</time>
      </trkpt>
      <trkpt lat="38.130264915525913" lon="140.48282674513757">
        <ele>1241.6800000000001</ele>
        <time>2026-01-03T23:20:31Z</time>
      </trkpt>
      <trkpt lat="38.130263825878501" lon="140.48282104544342">
        <ele>1242.6400000000001</ele>
        <time>2026-01-03T23:20:35Z</time>
      </trkpt>
      <trkpt lat="38.13025988638401" lon="140.4828133340925">
        <ele>1243.1199999999999</ele>
        <time>2026-01-03T23:20:45Z</time>
      </trkpt>
      <trkpt lat="38.130259802564979" lon="140.48282741568983">
        <ele>1241.2</ele>
        <time>2026-01-03T23:20:48Z</time>
      </trkpt>
      <trkpt lat="38.130302298814058" lon="140.482841078192">
        <ele>1243.1199999999999</ele>
        <time>2026-01-03T23:20:56Z</time>
      </trkpt>
      <trkpt lat="38.130311770364642" lon="140.48282624222338">
        <ele>1243.1199999999999</ele>
        <time>2026-01-03T23:21:00Z</time>
      </trkpt>
      <trkpt lat="38.130346303805709" lon="140.48277737572789">
        <ele>1240.72</ele>
        <time>2026-01-03T23:21:06Z</time>
      </trkpt>
      <trkpt lat="38.13034538179636" lon="140.4827409144491">
        <ele>1240.72</ele>
        <time>2026-01-03T23:21:09Z</time>
      </trkpt>
      <trkpt lat="38.130313865840435" lon="140.48265567049384">
        <ele>1238.3199999999999</ele>
        <time>2026-01-03T23:21:17Z</time>
      </trkpt>
      <trkpt lat="38.130273129791021" lon="140.48246514983475">
        <ele>1236.8699999999999</ele>
        <time>2026-01-03T23:21:27Z</time>
      </trkpt>
      <trkpt lat="38.130263071507215" lon="140.48239449039102">
        <ele>1238.3199999999999</ele>
        <time>2026-01-03T23:21:31Z</time>
      </trkpt>
      <trkpt lat="38.130255024880171" lon="140.48233229666948">
        <ele>1236.8699999999999</ele>
        <time>2026-01-03T23:21:36Z</time>
      </trkpt>
      <trkpt lat="38.130245637148619" lon="140.48224219121039">
        <ele>1235.9100000000001</ele>
        <time>2026-01-03T23:21:44Z</time>
      </trkpt>
      <trkpt lat="38.130249828100204" lon="140.48223615624011">
        <ele>1233.51</ele>
        <time>2026-01-03T23:21:47Z</time>
      </trkpt>
      <trkpt lat="38.130261562764645" lon="140.4821534268558">
        <ele>1234.95</ele>
        <time>2026-01-03T23:22:03Z</time>
      </trkpt>
      <trkpt lat="38.130258796736598" lon="140.48213666304946">
        <ele>1233.99</ele>
        <time>2026-01-03T23:22:07Z</time>
      </trkpt>
      <trkpt lat="38.130263071507215" lon="140.48210791312158">
        <ele>1235.4300000000001</ele>
        <time>2026-01-03T23:22:10Z</time>
      </trkpt>
      <trkpt lat="38.130275728181005" lon="140.48204052262008">
        <ele>1238.8</ele>
        <time>2026-01-03T23:22:21Z</time>
      </trkpt>
      <trkpt lat="38.130276901647449" lon="140.48203557729721">
        <ele>1238.8</ele>
        <time>2026-01-03T23:22:22Z</time>
      </trkpt>
      <trkpt lat="38.13029307872057" lon="140.48196843825281">
        <ele>1242.1600000000001</ele>
        <time>2026-01-03T23:22:37Z</time>
      </trkpt>
      <trkpt lat="38.130272878333926" lon="140.48191973939538">
        <ele>1241.6800000000001</ele>
        <time>2026-01-03T23:22:44Z</time>
      </trkpt>
      <trkpt lat="38.130259467288852" lon="140.48185545019805">
        <ele>1244.5599999999999</ele>
        <time>2026-01-03T23:22:52Z</time>
      </trkpt>
      <trkpt lat="38.130263071507215" lon="140.48180306330323">
        <ele>1247.45</ele>
        <time>2026-01-03T23:23:01Z</time>
      </trkpt>
      <trkpt lat="38.130271369591355" lon="140.48179677687585">
        <ele>1248.8900000000001</ele>
        <time>2026-01-03T23:23:03Z</time>
      </trkpt>
      <trkpt lat="38.130342280492187" lon="140.48175076022744">
        <ele>1252.25</ele>
        <time>2026-01-03T23:23:15Z</time>
      </trkpt>
      <trkpt lat="38.130390141159296" lon="140.48172762617469">
        <ele>1253.7</ele>
        <time>2026-01-03T23:23:32Z</time>
      </trkpt>
      <trkpt lat="38.130401121452451" lon="140.48172058537602">
        <ele>1251.77</ele>
        <time>2026-01-03T23:23:34Z</time>
      </trkpt>
      <trkpt lat="38.13041377812624" lon="140.4817133769393">
        <ele>1253.22</ele>
        <time>2026-01-03T23:23:36Z</time>
      </trkpt>
      <trkpt lat="38.130441857501864" lon="140.48167289234698">
        <ele>1252.25</ele>
        <time>2026-01-03T23:23:43Z</time>
      </trkpt>
      <trkpt lat="38.130451748147607" lon="140.48165746964514">
        <ele>1255.6199999999999</ele>
        <time>2026-01-03T23:23:47Z</time>
      </trkpt>
      <trkpt lat="38.130479408428073" lon="140.481620086357">
        <ele>1255.6199999999999</ele>
        <time>2026-01-03T23:23:57Z</time>
      </trkpt>
      <trkpt lat="38.130499608814716" lon="140.48155487515032">
        <ele>1256.5799999999999</ele>
        <time>2026-01-03T23:24:08Z</time>
      </trkpt>
      <trkpt lat="38.130522994324565" lon="140.48148170113564">
        <ele>1257.54</ele>
        <time>2026-01-03T23:24:21Z</time>
      </trkpt>
      <trkpt lat="38.130532298237085" lon="140.48143333755434">
        <ele>1258.98</ele>
        <time>2026-01-03T23:24:28Z</time>
      </trkpt>
      <trkpt lat="38.130537075921893" lon="140.48133770003915">
        <ele>1260.9100000000001</ele>
        <time>2026-01-03T23:24:43Z</time>
      </trkpt>
      <trkpt lat="38.130530621856451" lon="140.48132227733731">
        <ele>1259.46</ele>
        <time>2026-01-03T23:24:46Z</time>
      </trkpt>
      <trkpt lat="38.13052961602807" lon="140.48129545524716">
        <ele>1261.3900000000001</ele>
        <time>2026-01-03T23:24:50Z</time>
      </trkpt>
      <trkpt lat="38.130526850000024" lon="140.48118766397238">
        <ele>1263.3099999999999</ele>
        <time>2026-01-03T23:25:05Z</time>
      </trkpt>
      <trkpt lat="38.130530621856451" lon="140.48115564510226">
        <ele>1264.75</ele>
        <time>2026-01-03T23:25:11Z</time>
      </trkpt>
      <trkpt lat="38.130546966567636" lon="140.48105623573065">
        <ele>1266.1900000000001</ele>
        <time>2026-01-03T23:25:25Z</time>
      </trkpt>
      <trkpt lat="38.130557527765632" lon="140.48095154576004">
        <ele>1267.6400000000001</ele>
        <time>2026-01-03T23:25:40Z</time>
      </trkpt>
      <trkpt lat="38.130561886355281" lon="140.48087602481246">
        <ele>1267.6400000000001</ele>
        <time>2026-01-03T23:25:50Z</time>
      </trkpt>
      <trkpt lat="38.130567166954279" lon="140.48085406422615">
        <ele>1271.48</ele>
        <time>2026-01-03T23:25:53Z</time>
      </trkpt>
      <trkpt lat="38.130570100620389" lon="140.48083746805787">
        <ele>1273.4000000000001</ele>
        <time>2026-01-03T23:25:55Z</time>
      </trkpt>
      <trkpt lat="38.130568591877818" lon="140.48081978224218">
        <ele>1271</ele>
        <time>2026-01-03T23:25:57Z</time>
      </trkpt>
      <trkpt lat="38.130563143640757" lon="140.48075540922582">
        <ele>1273.4000000000001</ele>
        <time>2026-01-03T23:26:05Z</time>
      </trkpt>
      <trkpt lat="38.130562556907535" lon="140.48074074089527">
        <ele>1271</ele>
        <time>2026-01-03T23:26:07Z</time>
      </trkpt>
      <trkpt lat="38.130559707060456" lon="140.48067008145154">
        <ele>1272.4400000000001</ele>
        <time>2026-01-03T23:26:16Z</time>
      </trkpt>
      <trkpt lat="38.130567250773311" lon="140.48061568289995">
        <ele>1274.8499999999999</ele>
        <time>2026-01-03T23:26:23Z</time>
      </trkpt>
      <trkpt lat="38.130562640726566" lon="140.4805663973093">
        <ele>1272.9200000000001</ele>
        <time>2026-01-03T23:26:29Z</time>
      </trkpt>
      <trkpt lat="38.130563227459788" lon="140.48054058104753">
        <ele>1274.3599999999999</ele>
        <time>2026-01-03T23:26:32Z</time>
      </trkpt>
      <trkpt lat="38.130572531372309" lon="140.48044770956039">
        <ele>1277.25</ele>
        <time>2026-01-03T23:26:45Z</time>
      </trkpt>
      <trkpt lat="38.130576889961958" lon="140.48043463379145">
        <ele>1278.21</ele>
        <time>2026-01-03T23:26:47Z</time>
      </trkpt>
      <trkpt lat="38.130582002922893" lon="140.48040814697742">
        <ele>1277.25</ele>
        <time>2026-01-03T23:26:51Z</time>
      </trkpt>
      <trkpt lat="38.130572447553277" lon="140.48041258938611">
        <ele>1278.21</ele>
        <time>2026-01-03T23:26:55Z</time>
      </trkpt>
      <trkpt lat="38.13057160936296" lon="140.48041610978544">
        <ele>1279.6500000000001</ele>
        <time>2026-01-03T23:27:00Z</time>
      </trkpt>
      <trkpt lat="38.13057160936296" lon="140.48040194436908">
        <ele>1278.21</ele>
        <time>2026-01-03T23:27:05Z</time>
      </trkpt>
      <trkpt lat="38.130568005144596" lon="140.4803126771003">
        <ele>1281.0899999999999</ele>
        <time>2026-01-03T23:27:18Z</time>
      </trkpt>
      <trkpt lat="38.130567083135247" lon="140.48019583337009">
        <ele>1283.02</ele>
        <time>2026-01-03T23:27:32Z</time>
      </trkpt>
      <trkpt lat="38.130555097013712" lon="140.48010841012001">
        <ele>1283.02</ele>
        <time>2026-01-03T23:27:43Z</time>
      </trkpt>
      <trkpt lat="38.13054327853024" lon="140.4800034686923">
        <ele>1285.4200000000001</ele>
        <time>2026-01-03T23:27:57Z</time>
      </trkpt>
      <trkpt lat="38.130540093407035" lon="140.47995309345424">
        <ele>1284.46</ele>
        <time>2026-01-03T23:28:04Z</time>
      </trkpt>
      <trkpt lat="38.130537830293179" lon="140.47993532381952">
        <ele>1288.78</ele>
        <time>2026-01-03T23:28:06Z</time>
      </trkpt>
      <trkpt lat="38.130535483360291" lon="140.47992635518312">
        <ele>1288.78</ele>
        <time>2026-01-03T23:28:07Z</time>
      </trkpt>
      <trkpt lat="38.130533052608371" lon="140.4799054004252">
        <ele>1287.3399999999999</ele>
        <time>2026-01-03T23:28:10Z</time>
      </trkpt>
      <trkpt lat="38.130532382056117" lon="140.47987832687795">
        <ele>1288.78</ele>
        <time>2026-01-03T23:28:13Z</time>
      </trkpt>
      <trkpt lat="38.130529867485166" lon="140.47984723001719">
        <ele>1290.71</ele>
        <time>2026-01-03T23:28:18Z</time>
      </trkpt>
      <trkpt lat="38.13051687553525" lon="140.47978654503822">
        <ele>1291.1900000000001</ele>
        <time>2026-01-03T23:28:27Z</time>
      </trkpt>
      <trkpt lat="38.130493657663465" lon="140.4797029774636">
        <ele>1292.6300000000001</ele>
        <time>2026-01-03T23:28:41Z</time>
      </trkpt>
      <trkpt lat="38.130449736490846" lon="140.47960013151169">
        <ele>1295.03</ele>
        <time>2026-01-03T23:28:55Z</time>
      </trkpt>
      <trkpt lat="38.130403803661466" lon="140.47950767911971">
        <ele>1296.96</ele>
        <time>2026-01-03T23:29:09Z</time>
      </trkpt>
      <trkpt lat="38.130385614931583" lon="140.4794561304152">
        <ele>1295.99</ele>
        <time>2026-01-03T23:29:16Z</time>
      </trkpt>
      <trkpt lat="38.130371700972319" lon="140.47941950149834">
        <ele>1297.4400000000001</ele>
        <time>2026-01-03T23:29:22Z</time>
      </trkpt>
      <trkpt lat="38.130347225815058" lon="140.4793216008693">
        <ele>1297.4400000000001</ele>
        <time>2026-01-03T23:29:36Z</time>
      </trkpt>
      <trkpt lat="38.130337838083506" lon="140.47920039854944">
        <ele>1299.3599999999999</ele>
        <time>2026-01-03T23:29:49Z</time>
      </trkpt>
      <trkpt lat="38.130326438695192" lon="140.47910241410136">
        <ele>1302.24</ele>
        <time>2026-01-03T23:30:02Z</time>
      </trkpt>
      <trkpt lat="38.130304226651788" lon="140.47899914905429">
        <ele>1304.1700000000001</ele>
        <time>2026-01-03T23:30:17Z</time>
      </trkpt>
      <trkpt lat="38.130318140611053" lon="140.47891323454678">
        <ele>1307.05</ele>
        <time>2026-01-03T23:30:33Z</time>
      </trkpt>
      <trkpt lat="38.130319733172655" lon="140.47890887595713">
        <ele>1307.05</ele>
        <time>2026-01-03T23:30:34Z</time>
      </trkpt>
      <trkpt lat="38.13034831546247" lon="140.47885112464428">
        <ele>1308.49</ele>
        <time>2026-01-03T23:30:47Z</time>
      </trkpt>
      <trkpt lat="38.130370695143938" lon="140.47882379963994">
        <ele>1311.8599999999999</ele>
        <time>2026-01-03T23:30:56Z</time>
      </trkpt>
      <trkpt lat="38.130372622981668" lon="140.47882027924061">
        <ele>1311.8599999999999</ele>
        <time>2026-01-03T23:30:57Z</time>
      </trkpt>
      <trkpt lat="38.130434900522232" lon="140.47878993675113">
        <ele>1315.22</ele>
        <time>2026-01-03T23:31:14Z</time>
      </trkpt>
      <trkpt lat="38.130464823916554" lon="140.47877032309771">
        <ele>1315.22</ele>
        <time>2026-01-03T23:31:26Z</time>
      </trkpt>
      <trkpt lat="38.130505057051778" lon="140.47870913520455">
        <ele>1317.1400000000001</ele>
        <time>2026-01-03T23:31:44Z</time>
      </trkpt>
      <trkpt lat="38.130513858050108" lon="140.47863428480923">
        <ele>1320.03</ele>
        <time>2026-01-03T23:31:59Z</time>
      </trkpt>
      <trkpt lat="38.130502793937922" lon="140.47857142053545">
        <ele>1324.3499999999999</ele>
        <time>2026-01-03T23:32:14Z</time>
      </trkpt>
      <trkpt lat="38.130500614643097" lon="140.47856639139354">
        <ele>1324.3499999999999</ele>
        <time>2026-01-03T23:32:15Z</time>
      </trkpt>
      <trkpt lat="38.130500027909875" lon="140.47854769974947">
        <ele>1322.9100000000001</ele>
        <time>2026-01-03T23:32:22Z</time>
      </trkpt>
      <trkpt lat="38.130494747310877" lon="140.47849573194981">
        <ele>1326.28</ele>
        <time>2026-01-03T23:32:33Z</time>
      </trkpt>
      <trkpt lat="38.130490640178323" lon="140.47846765257418">
        <ele>1327.24</ele>
        <time>2026-01-03T23:32:38Z</time>
      </trkpt>
      <trkpt lat="38.130481336265802" lon="140.47842985019088">
        <ele>1328.2</ele>
        <time>2026-01-03T23:32:47Z</time>
      </trkpt>
      <trkpt lat="38.130470355972648" lon="140.4783836659044">
        <ele>1331.0799999999999</ele>
        <time>2026-01-03T23:33:00Z</time>
      </trkpt>
      <trkpt lat="38.130454681813717" lon="140.47837444581091">
        <ele>1330.5999999999999</ele>
        <time>2026-01-03T23:33:08Z</time>
      </trkpt>
      <trkpt lat="38.130457866936922" lon="140.47836966812611">
        <ele>1332.04</ele>
        <time>2026-01-03T23:33:12Z</time>
      </trkpt>
      <trkpt lat="38.130457950755954" lon="140.47835893929005">
        <ele>1332.52</ele>
        <time>2026-01-03T23:33:17Z</time>
      </trkpt>
      <trkpt lat="38.130435990169644" lon="140.47830479219556">
        <ele>1333.49</ele>
        <time>2026-01-03T23:33:31Z</time>
      </trkpt>
      <trkpt lat="38.130419813096523" lon="140.47826740890741">
        <ele>1335.4100000000001</ele>
        <time>2026-01-03T23:33:40Z</time>
      </trkpt>
      <trkpt lat="38.13039324246347" lon="140.47820035368204">
        <ele>1338.29</ele>
        <time>2026-01-03T23:33:55Z</time>
      </trkpt>
      <trkpt lat="38.130368934944272" lon="140.47817973420024">
        <ele>1341.1800000000001</ele>
        <time>2026-01-03T23:34:03Z</time>
      </trkpt>
      <trkpt lat="38.130364995449781" lon="140.47818149439991">
        <ele>1339.73</ele>
        <time>2026-01-03T23:34:05Z</time>
      </trkpt>
      <trkpt lat="38.130317386239767" lon="140.4781611263752">
        <ele>1340.7</ele>
        <time>2026-01-03T23:34:24Z</time>
      </trkpt>
      <trkpt lat="38.130324762314558" lon="140.47815685160458">
        <ele>1340.22</ele>
        <time>2026-01-03T23:34:44Z</time>
      </trkpt>
      <trkpt lat="38.130278578028083" lon="140.47809968702495">
        <ele>1341.6600000000001</ele>
        <time>2026-01-03T23:35:01Z</time>
      </trkpt>
      <trkpt lat="38.13027061522007" lon="140.47806045971811">
        <ele>1344.0599999999999</ele>
        <time>2026-01-03T23:35:06Z</time>
      </trkpt>
      <trkpt lat="38.130254857242107" lon="140.47794738784432">
        <ele>1346.46</ele>
        <time>2026-01-03T23:35:22Z</time>
      </trkpt>
      <trkpt lat="38.130221413448453" lon="140.47783423215151">
        <ele>1349.3499999999999</ele>
        <time>2026-01-03T23:35:37Z</time>
      </trkpt>
      <trkpt lat="38.130201715976" lon="140.47777212224901">
        <ele>1352.71</ele>
        <time>2026-01-03T23:35:47Z</time>
      </trkpt>
      <trkpt lat="38.13018805347383" lon="140.47773071564734">
        <ele>1352.71</ele>
        <time>2026-01-03T23:35:53Z</time>
      </trkpt>
      <trkpt lat="38.130148490890861" lon="140.4776412807405">
        <ele>1354.1500000000001</ele>
        <time>2026-01-03T23:36:07Z</time>
      </trkpt>
      <trkpt lat="38.130135163664818" lon="140.47761923633516">
        <ele>1356.0799999999999</ele>
        <time>2026-01-03T23:36:11Z</time>
      </trkpt>
      <trkpt lat="38.130086129531264" lon="140.4775220900774">
        <ele>1358</ele>
        <time>2026-01-03T23:36:26Z</time>
      </trkpt>
      <trkpt lat="38.130055703222752" lon="140.47747498378158">
        <ele>1358</ele>
        <time>2026-01-03T23:36:34Z</time>
      </trkpt>
      <trkpt lat="38.130048327147961" lon="140.47746224328876">
        <ele>1360.8800000000001</ele>
        <time>2026-01-03T23:36:36Z</time>
      </trkpt>
      <trkpt lat="38.130044974386692" lon="140.47745562158525">
        <ele>1360.8800000000001</ele>
        <time>2026-01-03T23:36:37Z</time>
      </trkpt>
      <trkpt lat="38.130023432895541" lon="140.47741438262165">
        <ele>1358.96</ele>
        <time>2026-01-03T23:36:43Z</time>
      </trkpt>
      <trkpt lat="38.129999628290534" lon="140.47738873399794">
        <ele>1362.8099999999999</ele>
        <time>2026-01-03T23:36:48Z</time>
      </trkpt>
      <trkpt lat="38.12999552115798" lon="140.47738110646605">
        <ele>1362.8099999999999</ele>
        <time>2026-01-03T23:36:49Z</time>
      </trkpt>
      <trkpt lat="38.12996668741107" lon="140.47734154388309">
        <ele>1362.3299999999999</ele>
        <time>2026-01-03T23:37:02Z</time>
      </trkpt>
      <trkpt lat="38.129876749590039" lon="140.47725881449878">
        <ele>1365.6900000000001</ele>
        <time>2026-01-03T23:37:17Z</time>
      </trkpt>
      <trkpt lat="38.129869708791375" lon="140.47725613228977">
        <ele>1365.6900000000001</ele>
        <time>2026-01-03T23:37:18Z</time>
      </trkpt>
      <trkpt lat="38.129863254725933" lon="140.47724414616823">
        <ele>1366.6500000000001</ele>
        <time>2026-01-03T23:37:34Z</time>
      </trkpt>
      <trkpt lat="38.129864260554314" lon="140.47723785974085">
        <ele>1365.21</ele>
        <time>2026-01-03T23:37:56Z</time>
      </trkpt>
      <trkpt lat="38.129864679649472" lon="140.47723811119795">
        <ele>1365.21</ele>
        <time>2026-01-03T23:37:57Z</time>
      </trkpt>
      <trkpt lat="38.129866691306233" lon="140.47723433934152">
        <ele>1364.73</ele>
        <time>2026-01-03T23:38:03Z</time>
      </trkpt>
      <trkpt lat="38.12986602075398" lon="140.47723459079862">
        <ele>1365.6900000000001</ele>
        <time>2026-01-03T23:38:07Z</time>
      </trkpt>
      <trkpt lat="38.129866356030107" lon="140.47723928466439">
        <ele>1366.1700000000001</ele>
        <time>2026-01-03T23:38:13Z</time>
      </trkpt>
      <trkpt lat="38.129869038239121" lon="140.4772321600467">
        <ele>1364.73</ele>
        <time>2026-01-03T23:38:23Z</time>
      </trkpt>
      <trkpt lat="38.129879850894213" lon="140.47723593190312">
        <ele>1367.6099999999999</ele>
        <time>2026-01-03T23:38:38Z</time>
      </trkpt>
      <trkpt lat="38.129882784560323" lon="140.47724012285471">
        <ele>1365.21</ele>
        <time>2026-01-03T23:38:41Z</time>
      </trkpt>
      <trkpt lat="38.129882952198386" lon="140.47724188305438">
        <ele>1365.21</ele>
        <time>2026-01-03T23:38:46Z</time>
      </trkpt>
      <trkpt lat="38.129883958026767" lon="140.4772406257689">
        <ele>1367.1300000000001</ele>
        <time>2026-01-03T23:38:48Z</time>
      </trkpt>
      <trkpt lat="38.129890915006399" lon="140.47724448144436">
        <ele>1366.1700000000001</ele>
        <time>2026-01-03T23:38:57Z</time>
      </trkpt>
      <trkpt lat="38.129889238625765" lon="140.477235596627">
        <ele>1365.6900000000001</ele>
        <time>2026-01-03T23:39:12Z</time>
      </trkpt>
      <trkpt lat="38.129870379343629" lon="140.47724741511047">
        <ele>1365.6900000000001</ele>
        <time>2026-01-03T23:39:34Z</time>
      </trkpt>
      <trkpt lat="38.129870882257819" lon="140.47724397853017">
        <ele>1367.1300000000001</ele>
        <time>2026-01-03T23:39:37Z</time>
      </trkpt>
      <trkpt lat="38.129869541153312" lon="140.47723920084536">
        <ele>1365.21</ele>
        <time>2026-01-03T23:39:41Z</time>
      </trkpt>
      <trkpt lat="38.129868702962995" lon="140.47723685391247">
        <ele>1367.1300000000001</ele>
        <time>2026-01-03T23:39:43Z</time>
      </trkpt>
      <trkpt lat="38.129871301352978" lon="140.47723358497024">
        <ele>1365.21</ele>
        <time>2026-01-03T23:39:49Z</time>
      </trkpt>
      <trkpt lat="38.129870127886534" lon="140.47722746618092">
        <ele>1366.6500000000001</ele>
        <time>2026-01-03T23:39:52Z</time>
      </trkpt>
      <trkpt lat="38.129870379343629" lon="140.47721330076456">
        <ele>1364.73</ele>
        <time>2026-01-03T23:40:03Z</time>
      </trkpt>
      <trkpt lat="38.129866691306233" lon="140.47721690498292">
        <ele>1366.1700000000001</ele>
        <time>2026-01-03T23:40:05Z</time>
      </trkpt>
      <trkpt lat="38.12985772266984" lon="140.47721271403134">
        <ele>1365.6900000000001</ele>
        <time>2026-01-03T23:40:20Z</time>
      </trkpt>
      <trkpt lat="38.129847412928939" lon="140.47721170820296">
        <ele>1366.1700000000001</ele>
        <time>2026-01-03T23:40:33Z</time>
      </trkpt>
      <trkpt lat="38.129846071824431" lon="140.4772128816694">
        <ele>1364.73</ele>
        <time>2026-01-03T23:40:39Z</time>
      </trkpt>
      <trkpt lat="38.129852106794715" lon="140.47723157331347">
        <ele>1366.1700000000001</ele>
        <time>2026-01-03T23:40:56Z</time>
      </trkpt>
      <trkpt lat="38.129851184785366" lon="140.47723827883601">
        <ele>1364.73</ele>
        <time>2026-01-03T23:41:16Z</time>
      </trkpt>
      <trkpt lat="38.129846407100558" lon="140.47724481672049">
        <ele>1364.73</ele>
        <time>2026-01-03T23:41:24Z</time>
      </trkpt>
      <trkpt lat="38.129860991612077" lon="140.47725487500429">
        <ele>1366.1700000000001</ele>
        <time>2026-01-03T23:41:53Z</time>
      </trkpt>
      <trkpt lat="38.129855040460825" lon="140.47724691219628">
        <ele>1365.6900000000001</ele>
        <time>2026-01-03T23:42:03Z</time>
      </trkpt>
      <trkpt lat="38.129846910014749" lon="140.47724012285471">
        <ele>1364.73</ele>
        <time>2026-01-03T23:42:11Z</time>
      </trkpt>
      <trkpt lat="38.129844898357987" lon="140.47723274677992">
        <ele>1365.6900000000001</ele>
        <time>2026-01-03T23:42:18Z</time>
      </trkpt>
      <trkpt lat="38.129852442070842" lon="140.47722998075187">
        <ele>1364.25</ele>
        <time>2026-01-03T23:42:22Z</time>
      </trkpt>
      <trkpt lat="38.129859650507569" lon="140.47723232768476">
        <ele>1366.1700000000001</ele>
        <time>2026-01-03T23:42:30Z</time>
      </trkpt>
      <trkpt lat="38.129860991612077" lon="140.47723635099828">
        <ele>1365.6900000000001</ele>
        <time>2026-01-03T23:42:34Z</time>
      </trkpt>
      <trkpt lat="38.129854537546635" lon="140.47722486779094">
        <ele>1366.6500000000001</ele>
        <time>2026-01-03T23:42:47Z</time>
      </trkpt>
      <trkpt lat="38.129853531718254" lon="140.47721832990646">
        <ele>1363.77</ele>
        <time>2026-01-03T23:42:59Z</time>
      </trkpt>
      <trkpt lat="38.12985478900373" lon="140.47722713090479">
        <ele>1365.21</ele>
        <time>2026-01-03T23:43:11Z</time>
      </trkpt>
      <trkpt lat="38.129853112623096" lon="140.47722453251481">
        <ele>1366.6500000000001</ele>
        <time>2026-01-03T23:43:13Z</time>
      </trkpt>
      <trkpt lat="38.12984892167151" lon="140.47721606679261">
        <ele>1364.25</ele>
        <time>2026-01-03T23:43:15Z</time>
      </trkpt>
      <trkpt lat="38.129844982177019" lon="140.47720860689878">
        <ele>1364.73</ele>
        <time>2026-01-03T23:43:29Z</time>
      </trkpt>
      <trkpt lat="38.129828805103898" lon="140.47718605957925">
        <ele>1364.73</ele>
        <time>2026-01-03T23:43:45Z</time>
      </trkpt>
      <trkpt lat="38.129828637465835" lon="140.4771991353482">
        <ele>1365.21</ele>
        <time>2026-01-03T23:43:53Z</time>
      </trkpt>
      <trkpt lat="38.129819752648473" lon="140.47720039263368">
        <ele>1366.6500000000001</ele>
        <time>2026-01-03T23:44:10Z</time>
      </trkpt>
      <trkpt lat="38.129817992448807" lon="140.47719812951982">
        <ele>1365.6900000000001</ele>
        <time>2026-01-03T23:44:12Z</time>
      </trkpt>
      <trkpt lat="38.12981229275465" lon="140.47719603404403">
        <ele>1366.6500000000001</ele>
        <time>2026-01-03T23:44:20Z</time>
      </trkpt>
      <trkpt lat="38.129810700193048" lon="140.47719544731081">
        <ele>1365.21</ele>
        <time>2026-01-03T23:44:23Z</time>
      </trkpt>
      <trkpt lat="38.129811873659492" lon="140.47719402238727">
        <ele>1366.6500000000001</ele>
        <time>2026-01-03T23:44:26Z</time>
      </trkpt>
      <trkpt lat="38.129810532554984" lon="140.47719586640596">
        <ele>1367.1300000000001</ele>
        <time>2026-01-03T23:44:31Z</time>
      </trkpt>
      <trkpt lat="38.129811622202396" lon="140.47719787806273">
        <ele>1364.73</ele>
        <time>2026-01-03T23:44:35Z</time>
      </trkpt>
      <trkpt lat="38.129810700193048" lon="140.47720114700496">
        <ele>1367.1300000000001</ele>
        <time>2026-01-03T23:44:38Z</time>
      </trkpt>
      <trkpt lat="38.129754457622766" lon="140.47717440873384">
        <ele>1366.6500000000001</ele>
        <time>2026-01-03T23:44:55Z</time>
      </trkpt>
      <trkpt lat="38.129695951938629" lon="140.47714582644403">
        <ele>1366.6500000000001</ele>
        <time>2026-01-03T23:45:06Z</time>
      </trkpt>
      <trkpt lat="38.129679104313254" lon="140.47713761217892">
        <ele>1365.6900000000001</ele>
        <time>2026-01-03T23:45:10Z</time>
      </trkpt>
      <trkpt lat="38.129577180370688" lon="140.47710173763335">
        <ele>1368.0899999999999</ele>
        <time>2026-01-03T23:45:28Z</time>
      </trkpt>
      <trkpt lat="38.129526888951659" lon="140.4770884104073">
        <ele>1368.5699999999999</ele>
        <time>2026-01-03T23:45:38Z</time>
      </trkpt>
      <trkpt lat="38.129483303055167" lon="140.4770817887038">
        <ele>1367.1300000000001</ele>
        <time>2026-01-03T23:45:46Z</time>
      </trkpt>
      <trkpt lat="38.129455139860511" lon="140.47707525081933">
        <ele>1368.5699999999999</ele>
        <time>2026-01-03T23:45:51Z</time>
      </trkpt>
      <trkpt lat="38.129363358020782" lon="140.47703753225505">
        <ele>1370.02</ele>
        <time>2026-01-03T23:46:09Z</time>
      </trkpt>
      <trkpt lat="38.129339385777712" lon="140.4770299885422">
        <ele>1370.98</ele>
        <time>2026-01-03T23:46:15Z</time>
      </trkpt>
      <trkpt lat="38.129265708848834" lon="140.47700182534754">
        <ele>1373.8599999999999</ele>
        <time>2026-01-03T23:46:29Z</time>
      </trkpt>
      <trkpt lat="38.129252381622791" lon="140.47699830494821">
        <ele>1371.9400000000001</ele>
        <time>2026-01-03T23:46:31Z</time>
      </trkpt>
      <trkpt lat="38.129164120182395" lon="140.47697592526674">
        <ele>1371.46</ele>
        <time>2026-01-03T23:46:46Z</time>
      </trkpt>
      <trkpt lat="38.129152469336987" lon="140.47697198577225">
        <ele>1373.3800000000001</ele>
        <time>2026-01-03T23:46:48Z</time>
      </trkpt>
      <trkpt lat="38.129081558436155" lon="140.47694114036858">
        <ele>1372.4200000000001</ele>
        <time>2026-01-03T23:47:02Z</time>
      </trkpt>
      <trkpt lat="38.129071583971381" lon="140.47693351283669">
        <ele>1374.3399999999999</ele>
        <time>2026-01-03T23:47:04Z</time>
      </trkpt>
      <trkpt lat="38.129027243703604" lon="140.47691364772618">
        <ele>1375.78</ele>
        <time>2026-01-03T23:47:13Z</time>
      </trkpt>
      <trkpt lat="38.128942335024476" lon="140.47688263468444">
        <ele>1375.78</ele>
        <time>2026-01-03T23:47:29Z</time>
      </trkpt>
      <trkpt lat="38.128893300890923" lon="140.4768571536988">
        <ele>1377.23</ele>
        <time>2026-01-03T23:47:38Z</time>
      </trkpt>
      <trkpt lat="38.128779977560043" lon="140.47681482508779">
        <ele>1377.71</ele>
        <time>2026-01-03T23:47:56Z</time>
      </trkpt>
      <trkpt lat="38.128701606765389" lon="140.47677434049547">
        <ele>1379.6300000000001</ele>
        <time>2026-01-03T23:48:11Z</time>
      </trkpt>
      <trkpt lat="38.128596246242523" lon="140.47672832384706">
        <ele>1381.55</ele>
        <time>2026-01-03T23:48:27Z</time>
      </trkpt>
      <trkpt lat="38.128534471616149" lon="140.47672488726676">
        <ele>1380.5899999999999</ele>
        <time>2026-01-03T23:48:34Z</time>
      </trkpt>
      <trkpt lat="38.128406396135688" lon="140.47667669132352">
        <ele>1380.5899999999999</ele>
        <time>2026-01-03T23:48:49Z</time>
      </trkpt>
      <trkpt lat="38.128301538527012" lon="140.4766222089529">
        <ele>1380.5899999999999</ele>
        <time>2026-01-03T23:49:04Z</time>
      </trkpt>
      <trkpt lat="38.128281505778432" lon="140.47660645097494">
        <ele>1382.51</ele>
        <time>2026-01-03T23:49:07Z</time>
      </trkpt>
      <trkpt lat="38.128268262371421" lon="140.47659798525274">
        <ele>1381.0699999999999</ele>
        <time>2026-01-03T23:49:09Z</time>
      </trkpt>
      <trkpt lat="38.128157872706652" lon="140.47653847374022">
        <ele>1383.47</ele>
        <time>2026-01-03T23:49:26Z</time>
      </trkpt>
      <trkpt lat="38.128039855509996" lon="140.47652053646743">
        <ele>1383.96</ele>
        <time>2026-01-03T23:49:42Z</time>
      </trkpt>
      <trkpt lat="38.127930723130703" lon="140.476492960006">
        <ele>1385.8800000000001</ele>
        <time>2026-01-03T23:49:58Z</time>
      </trkpt>
      <trkpt lat="38.127811029553413" lon="140.4764860868454">
        <ele>1385.8800000000001</ele>
        <time>2026-01-03T23:50:15Z</time>
      </trkpt>
      <trkpt lat="38.127687647938728" lon="140.47649002633989">
        <ele>1386.8399999999999</ele>
        <time>2026-01-03T23:50:33Z</time>
      </trkpt>
      <trkpt lat="38.127573821693659" lon="140.47645549289882">
        <ele>1387.3199999999999</ele>
        <time>2026-01-03T23:50:50Z</time>
      </trkpt>
      <trkpt lat="38.127550603821874" lon="140.47643939964473">
        <ele>1388.76</ele>
        <time>2026-01-03T23:50:54Z</time>
      </trkpt>
      <trkpt lat="38.12752210535109" lon="140.47641484066844">
        <ele>1387.3199999999999</ele>
        <time>2026-01-03T23:50:58Z</time>
      </trkpt>
      <trkpt lat="38.12746737152338" lon="140.4763407446444">
        <ele>1388.28</ele>
        <time>2026-01-03T23:51:07Z</time>
      </trkpt>
      <trkpt lat="38.127406435087323" lon="140.47625189647079">
        <ele>1388.76</ele>
        <time>2026-01-03T23:51:19Z</time>
      </trkpt>
      <trkpt lat="38.127339128404856" lon="140.47612365335226">
        <ele>1389.24</ele>
        <time>2026-01-03T23:51:33Z</time>
      </trkpt>
      <trkpt lat="38.127262182533741" lon="140.4760042950511">
        <ele>1389.24</ele>
        <time>2026-01-03T23:51:48Z</time>
      </trkpt>
      <trkpt lat="38.127253046259284" lon="140.47598895616829">
        <ele>1387.3199999999999</ele>
        <time>2026-01-03T23:51:50Z</time>
      </trkpt>
      <trkpt lat="38.127240473404527" lon="140.47596791759133">
        <ele>1388.76</ele>
        <time>2026-01-03T23:51:53Z</time>
      </trkpt>
      <trkpt lat="38.127228068187833" lon="140.47594419680536">
        <ele>1390.6800000000001</ele>
        <time>2026-01-03T23:51:56Z</time>
      </trkpt>
      <trkpt lat="38.12721373513341" lon="140.47592181712389">
        <ele>1389.24</ele>
        <time>2026-01-03T23:51:59Z</time>
      </trkpt>
      <trkpt lat="38.127155983820558" lon="140.47580036334693">
        <ele>1389.72</ele>
        <time>2026-01-03T23:52:13Z</time>
      </trkpt>
      <trkpt lat="38.127131760120392" lon="140.47576054930687">
        <ele>1387.8</ele>
        <time>2026-01-03T23:52:18Z</time>
      </trkpt>
      <trkpt lat="38.127090102061629" lon="140.47569885849953">
        <ele>1391.1700000000001</ele>
        <time>2026-01-03T23:52:26Z</time>
      </trkpt>
      <trkpt lat="38.127080714330077" lon="140.47569022513926">
        <ele>1387.3199999999999</ele>
        <time>2026-01-03T23:52:28Z</time>
      </trkpt>
      <trkpt lat="38.127078283578157" lon="140.47568511217833">
        <ele>1387.3199999999999</ele>
        <time>2026-01-03T23:52:29Z</time>
      </trkpt>
      <trkpt lat="38.127070991322398" lon="140.47567513771355">
        <ele>1389.24</ele>
        <time>2026-01-03T23:52:31Z</time>
      </trkpt>
      <trkpt lat="38.127061687409878" lon="140.47566214576364">
        <ele>1385.8800000000001</ele>
        <time>2026-01-03T23:52:34Z</time>
      </trkpt>
      <trkpt lat="38.127015754580498" lon="140.47562216408551">
        <ele>1388.76</ele>
        <time>2026-01-03T23:52:42Z</time>
      </trkpt>
      <trkpt lat="38.12698507681489" lon="140.47556885518134">
        <ele>1385.8800000000001</ele>
        <time>2026-01-03T23:52:50Z</time>
      </trkpt>
      <trkpt lat="38.126979963853955" lon="140.4755536839366">
        <ele>1382.99</ele>
        <time>2026-01-03T23:52:53Z</time>
      </trkpt>
      <trkpt lat="38.12697434797883" lon="140.47553750686347">
        <ele>1386.3599999999999</ele>
        <time>2026-01-03T23:52:56Z</time>
      </trkpt>
      <trkpt lat="38.126971162855625" lon="140.47552837058902">
        <ele>1386.3599999999999</ele>
        <time>2026-01-03T23:52:57Z</time>
      </trkpt>
      <trkpt lat="38.126966385170817" lon="140.47549551352859">
        <ele>1387.3199999999999</ele>
        <time>2026-01-03T23:52:59Z</time>
      </trkpt>
      <trkpt lat="38.126962529495358" lon="140.47543533146381">
        <ele>1384.4400000000001</ele>
        <time>2026-01-03T23:53:02Z</time>
      </trkpt>
      <trkpt lat="38.126964205875993" lon="140.47542803920805">
        <ele>1384.4400000000001</ele>
        <time>2026-01-03T23:53:03Z</time>
      </trkpt>
      <trkpt lat="38.126968648284674" lon="140.47537179663777">
        <ele>1385.8800000000001</ele>
        <time>2026-01-03T23:53:11Z</time>
      </trkpt>
      <trkpt lat="38.126987172290683" lon="140.47523181885481">
        <ele>1384.9200000000001</ele>
        <time>2026-01-03T23:53:27Z</time>
      </trkpt>
      <trkpt lat="38.126987172290683" lon="140.47522318549454">
        <ele>1384.9200000000001</ele>
        <time>2026-01-03T23:53:28Z</time>
      </trkpt>
      <trkpt lat="38.126999996602535" lon="140.47509904950857">
        <ele>1386.8399999999999</ele>
        <time>2026-01-03T23:53:40Z</time>
      </trkpt>
      <trkpt lat="38.127004522830248" lon="140.47503643669188">
        <ele>1383.96</ele>
        <time>2026-01-03T23:53:46Z</time>
      </trkpt>
      <trkpt lat="38.127008210867643" lon="140.47500710003078">
        <ele>1387.3199999999999</ele>
        <time>2026-01-03T23:53:49Z</time>
      </trkpt>
      <trkpt lat="38.127017095685005" lon="140.47492546029389">
        <ele>1383.96</ele>
        <time>2026-01-03T23:53:57Z</time>
      </trkpt>
      <trkpt lat="38.127017598599195" lon="140.47491556964815">
        <ele>1383.96</ele>
        <time>2026-01-03T23:53:58Z</time>
      </trkpt>
      <trkpt lat="38.127021035179496" lon="140.47488237731159">
        <ele>1385.8800000000001</ele>
        <time>2026-01-03T23:54:01Z</time>
      </trkpt>
      <trkpt lat="38.127024304121733" lon="140.47485178336501">
        <ele>1384.9200000000001</ele>
        <time>2026-01-03T23:54:04Z</time>
      </trkpt>
      <trkpt lat="38.127033356577158" lon="140.47474801540375">
        <ele>1384.4400000000001</ele>
        <time>2026-01-03T23:54:14Z</time>
      </trkpt>
      <trkpt lat="38.127038553357124" lon="140.47465992160141">
        <ele>1387.8</ele>
        <time>2026-01-03T23:54:22Z</time>
      </trkpt>
      <trkpt lat="38.127044755965471" lon="140.47458917833865">
        <ele>1384.4400000000001</ele>
        <time>2026-01-03T23:54:29Z</time>
      </trkpt>
      <trkpt lat="38.127046348527074" lon="140.47455724328756">
        <ele>1388.28</ele>
        <time>2026-01-03T23:54:32Z</time>
      </trkpt>
      <trkpt lat="38.127047354355454" lon="140.47454718500376">
        <ele>1388.28</ele>
        <time>2026-01-03T23:54:33Z</time>
      </trkpt>
      <trkpt lat="38.127050790935755" lon="140.47449823468924">
        <ele>1386.3599999999999</ele>
        <time>2026-01-03T23:54:38Z</time>
      </trkpt>
      <trkpt lat="38.12705447897315" lon="140.474444758147">
        <ele>1387.8</ele>
        <time>2026-01-03T23:54:43Z</time>
      </trkpt>
      <trkpt lat="38.127061268314719" lon="140.47435062937438">
        <ele>1386.3599999999999</ele>
        <time>2026-01-03T23:54:52Z</time>
      </trkpt>
      <trkpt lat="38.127066884189844" lon="140.47429975122213">
        <ele>1384.9200000000001</ele>
        <time>2026-01-03T23:54:57Z</time>
      </trkpt>
      <trkpt lat="38.127070153132081" lon="140.4742668941617">
        <ele>1386.3599999999999</ele>
        <time>2026-01-03T23:55:00Z</time>
      </trkpt>
      <trkpt lat="38.127071410417557" lon="140.47423378564417">
        <ele>1387.8</ele>
        <time>2026-01-03T23:55:03Z</time>
      </trkpt>
      <trkpt lat="38.127098735421896" lon="140.47408517450094">
        <ele>1388.28</ele>
        <time>2026-01-03T23:55:17Z</time>
      </trkpt>
      <trkpt lat="38.127110805362463" lon="140.47405533492565">
        <ele>1386.8399999999999</ele>
        <time>2026-01-03T23:55:21Z</time>
      </trkpt>
      <trkpt lat="38.127168724313378" lon="140.47394653782248">
        <ele>1386.8399999999999</ele>
        <time>2026-01-03T23:55:36Z</time>
      </trkpt>
      <trkpt lat="38.127227397635579" lon="140.4738646466285">
        <ele>1386.8399999999999</ele>
        <time>2026-01-03T23:55:48Z</time>
      </trkpt>
      <trkpt lat="38.127250112593174" lon="140.47383983619511">
        <ele>1388.28</ele>
        <time>2026-01-03T23:55:52Z</time>
      </trkpt>
      <trkpt lat="38.127279616892338" lon="140.47379616647959">
        <ele>1387.8</ele>
        <time>2026-01-03T23:55:58Z</time>
      </trkpt>
      <trkpt lat="38.127348432317376" lon="140.47370589338243">
        <ele>1387.3199999999999</ele>
        <time>2026-01-03T23:56:12Z</time>
      </trkpt>
      <trkpt lat="38.127375589683652" lon="140.47367186285555">
        <ele>1388.76</ele>
        <time>2026-01-03T23:56:17Z</time>
      </trkpt>
      <trkpt lat="38.127448260784149" lon="140.47357982955873">
        <ele>1389.72</ele>
        <time>2026-01-03T23:56:31Z</time>
      </trkpt>
      <trkpt lat="38.127546412870288" lon="140.47348452731967">
        <ele>1387.8</ele>
        <time>2026-01-03T23:56:46Z</time>
      </trkpt>
      <trkpt lat="38.127562673762441" lon="140.47346600331366">
        <ele>1390.6800000000001</ele>
        <time>2026-01-03T23:56:49Z</time>
      </trkpt>
      <trkpt lat="38.127568541094661" lon="140.47346063889563">
        <ele>1390.6800000000001</ele>
        <time>2026-01-03T23:56:50Z</time>
      </trkpt>
      <trkpt lat="38.127598967403173" lon="140.47343507409096">
        <ele>1389.24</ele>
        <time>2026-01-03T23:56:54Z</time>
      </trkpt>
      <trkpt lat="38.127619586884975" lon="140.473419316113">
        <ele>1387.8</ele>
        <time>2026-01-03T23:56:57Z</time>
      </trkpt>
      <trkpt lat="38.127655545249581" lon="140.47339718788862">
        <ele>1392.1300000000001</ele>
        <time>2026-01-03T23:57:02Z</time>
      </trkpt>
      <trkpt lat="38.127661580219865" lon="140.47339333221316">
        <ele>1392.1300000000001</ele>
        <time>2026-01-03T23:57:03Z</time>
      </trkpt>
      <trkpt lat="38.127749506384134" lon="140.47333817929029">
        <ele>1391.1700000000001</ele>
        <time>2026-01-03T23:57:15Z</time>
      </trkpt>
      <trkpt lat="38.127788063138723" lon="140.47331462614238">
        <ele>1389.72</ele>
        <time>2026-01-03T23:57:20Z</time>
      </trkpt>
      <trkpt lat="38.12780792824924" lon="140.47330121509731">
        <ele>1391.6500000000001</ele>
        <time>2026-01-03T23:57:23Z</time>
      </trkpt>
      <trkpt lat="38.127854531630874" lon="140.47326190397143">
        <ele>1390.2</ele>
        <time>2026-01-03T23:57:30Z</time>
      </trkpt>
      <trkpt lat="38.12788269482553" lon="140.47323265112936">
        <ele>1392.1300000000001</ele>
        <time>2026-01-03T23:57:34Z</time>
      </trkpt>
      <trkpt lat="38.127954360097647" lon="140.47310994006693">
        <ele>1392.1300000000001</ele>
        <time>2026-01-03T23:57:49Z</time>
      </trkpt>
      <trkpt lat="38.127970285713673" lon="140.47307414934039">
        <ele>1390.6800000000001</ele>
        <time>2026-01-03T23:57:53Z</time>
      </trkpt>
      <trkpt lat="38.127978919073939" lon="140.47305570915341">
        <ele>1392.1300000000001</ele>
        <time>2026-01-03T23:57:55Z</time>
      </trkpt>
      <trkpt lat="38.128020158037543" lon="140.47296208329499">
        <ele>1394.53</ele>
        <time>2026-01-03T23:58:06Z</time>
      </trkpt>
      <trkpt lat="38.128053350374103" lon="140.47287348657846">
        <ele>1394.05</ele>
        <time>2026-01-03T23:58:16Z</time>
      </trkpt>
      <trkpt lat="38.128068270161748" lon="140.47283518128097">
        <ele>1394.53</ele>
        <time>2026-01-03T23:58:21Z</time>
      </trkpt>
      <trkpt lat="38.128139851614833" lon="140.47271724790335">
        <ele>1395.49</ele>
        <time>2026-01-03T23:58:37Z</time>
      </trkpt>
      <trkpt lat="38.128205481916666" lon="140.47262177802622">
        <ele>1396.45</ele>
        <time>2026-01-03T23:58:52Z</time>
      </trkpt>
      <trkpt lat="38.128280583769083" lon="140.47250778414309">
        <ele>1398.3699999999999</ele>
        <time>2026-01-03T23:59:08Z</time>
      </trkpt>
      <trkpt lat="38.128348896279931" lon="140.47239043749869">
        <ele>1398.8599999999999</ele>
        <time>2026-01-03T23:59:23Z</time>
      </trkpt>
      <trkpt lat="38.128396589308977" lon="140.47228541225195">
        <ele>1399.8199999999999</ele>
        <time>2026-01-03T23:59:36Z</time>
      </trkpt>
      <trkpt lat="38.128402875736356" lon="140.47226831316948">
        <ele>1398.3699999999999</ele>
        <time>2026-01-03T23:59:38Z</time>
      </trkpt>
      <trkpt lat="38.128428524360061" lon="140.47221542336047">
        <ele>1400.3</ele>
        <time>2026-01-03T23:59:45Z</time>
      </trkpt>
      <trkpt lat="38.128491723909974" lon="140.4720772895962">
        <ele>1400.78</ele>
        <time>2026-01-04T00:00:01Z</time>
      </trkpt>
      <trkpt lat="38.12850815244019" lon="140.47204485163093">
        <ele>1399.8199999999999</ele>
        <time>2026-01-04T00:00:05Z</time>
      </trkpt>
      <trkpt lat="38.128534220159054" lon="140.47199439257383">
        <ele>1401.26</ele>
        <time>2026-01-04T00:00:11Z</time>
      </trkpt>
      <trkpt lat="38.128551654517651" lon="140.47196052968502">
        <ele>1399.8199999999999</ele>
        <time>2026-01-04T00:00:15Z</time>
      </trkpt>
      <trkpt lat="38.128571687266231" lon="140.47191023826599">
        <ele>1402.22</ele>
        <time>2026-01-04T00:00:21Z</time>
      </trkpt>
      <trkpt lat="38.128605717793107" lon="140.47182767651975">
        <ele>1402.22</ele>
        <time>2026-01-04T00:00:31Z</time>
      </trkpt>
      <trkpt lat="38.128626924008131" lon="140.47178249806166">
        <ele>1403.6600000000001</ele>
        <time>2026-01-04T00:00:38Z</time>
      </trkpt>
      <trkpt lat="38.128645699471235" lon="140.47174419276416">
        <ele>1405.0999999999999</ele>
        <time>2026-01-04T00:00:43Z</time>
      </trkpt>
      <trkpt lat="38.128654081374407" lon="140.47172608785331">
        <ele>1403.1800000000001</ele>
        <time>2026-01-04T00:00:45Z</time>
      </trkpt>
      <trkpt lat="38.128694733604789" lon="140.4716198053211">
        <ele>1404.1400000000001</ele>
        <time>2026-01-04T00:00:57Z</time>
      </trkpt>
      <trkpt lat="38.128714263439178" lon="140.47156339511275">
        <ele>1404.1400000000001</ele>
        <time>2026-01-04T00:01:04Z</time>
      </trkpt>
      <trkpt lat="38.128720130771399" lon="140.47154805622995">
        <ele>1402.7</ele>
        <time>2026-01-04T00:01:06Z</time>
      </trkpt>
      <trkpt lat="38.128755418583751" lon="140.47142333351076">
        <ele>1402.7</ele>
        <time>2026-01-04T00:01:20Z</time>
      </trkpt>
      <trkpt lat="38.128761285915971" lon="140.4714020434767">
        <ele>1404.6199999999999</ele>
        <time>2026-01-04T00:01:22Z</time>
      </trkpt>
      <trkpt lat="38.128769667819142" lon="140.47137077897787">
        <ele>1403.1800000000001</ele>
        <time>2026-01-04T00:01:25Z</time>
      </trkpt>
      <trkpt lat="38.128773355856538" lon="140.47135133296251">
        <ele>1405.5799999999999</ele>
        <time>2026-01-04T00:01:27Z</time>
      </trkpt>
      <trkpt lat="38.128790957853198" lon="140.47120322473347">
        <ele>1406.55</ele>
        <time>2026-01-04T00:01:42Z</time>
      </trkpt>
      <trkpt lat="38.128797160461545" lon="140.47111085616052">
        <ele>1406.55</ele>
        <time>2026-01-04T00:01:51Z</time>
      </trkpt>
      <trkpt lat="38.128800010308623" lon="140.47104011289775">
        <ele>1405.5799999999999</ele>
        <time>2026-01-04T00:01:58Z</time>
      </trkpt>
      <trkpt lat="38.128810571506619" lon="140.47096953727305">
        <ele>1408.47</ele>
        <time>2026-01-04T00:02:05Z</time>
      </trkpt>
      <trkpt lat="38.128830855712295" lon="140.470898039639">
        <ele>1408.95</ele>
        <time>2026-01-04T00:02:12Z</time>
      </trkpt>
      <trkpt lat="38.128850385546684" lon="140.47086291946471">
        <ele>1409.4300000000001</ele>
        <time>2026-01-04T00:02:16Z</time>
      </trkpt>
      <trkpt lat="38.128873938694596" lon="140.47083157114685">
        <ele>1407.51</ele>
        <time>2026-01-04T00:02:20Z</time>
      </trkpt>
      <trkpt lat="38.128906628116965" lon="140.47079569660127">
        <ele>1409.9100000000001</ele>
        <time>2026-01-04T00:02:25Z</time>
      </trkpt>
      <trkpt lat="38.128919703885913" lon="140.47078287228942">
        <ele>1407.99</ele>
        <time>2026-01-04T00:02:27Z</time>
      </trkpt>
      <trkpt lat="38.12894300557673" lon="140.47076099552214">
        <ele>1409.4300000000001</ele>
        <time>2026-01-04T00:02:30Z</time>
      </trkpt>
      <trkpt lat="38.128956165164709" lon="140.47074783593416">
        <ele>1409.9100000000001</ele>
        <time>2026-01-04T00:02:32Z</time>
      </trkpt>
      <trkpt lat="38.128974353894591" lon="140.47073425725102">
        <ele>1408.47</ele>
        <time>2026-01-04T00:02:34Z</time>
      </trkpt>
      <trkpt lat="38.12906320206821" lon="140.47065890394151">
        <ele>1407.99</ele>
        <time>2026-01-04T00:02:46Z</time>
      </trkpt>
      <trkpt lat="38.129127491265535" lon="140.47060701996088">
        <ele>1409.4300000000001</ele>
        <time>2026-01-04T00:02:55Z</time>
      </trkpt>
      <trkpt lat="38.129234109073877" lon="140.4705299064517">
        <ele>1409.9100000000001</ele>
        <time>2026-01-04T00:03:10Z</time>
      </trkpt>
      <trkpt lat="38.12925229780376" lon="140.47051448374987">
        <ele>1411.3499999999999</ele>
        <time>2026-01-04T00:03:13Z</time>
      </trkpt>
      <trkpt lat="38.129289681091905" lon="140.47049176879227">
        <ele>1412.79</ele>
        <time>2026-01-04T00:03:21Z</time>
      </trkpt>
      <trkpt lat="38.129337709397078" lon="140.47045782208443">
        <ele>1410.8699999999999</ele>
        <time>2026-01-04T00:03:27Z</time>
      </trkpt>
      <trkpt lat="38.129378948360682" lon="140.47043083235621">
        <ele>1412.3099999999999</ele>
        <time>2026-01-04T00:03:32Z</time>
      </trkpt>
      <trkpt lat="38.129409877583385" lon="140.47040183097124">
        <ele>1410.8699999999999</ele>
        <time>2026-01-04T00:03:37Z</time>
      </trkpt>
      <trkpt lat="38.12944726087153" lon="140.47037023119628">
        <ele>1412.3099999999999</ele>
        <time>2026-01-04T00:03:44Z</time>
      </trkpt>
      <trkpt lat="38.129465281963348" lon="140.47035070136189">
        <ele>1412.3099999999999</ele>
        <time>2026-01-04T00:04:04Z</time>
      </trkpt>
      <trkpt lat="38.129544323310256" lon="140.47030862420797">
        <ele>1412.79</ele>
        <time>2026-01-04T00:04:17Z</time>
      </trkpt>
      <trkpt lat="38.129551447927952" lon="140.47030099667609">
        <ele>1413.28</ele>
        <time>2026-01-04T00:04:30Z</time>
      </trkpt>
      <trkpt lat="38.129534181207418" lon="140.47029387205839">
        <ele>1411.8299999999999</ele>
        <time>2026-01-04T00:04:43Z</time>
      </trkpt>
      <trkpt lat="38.129526721313596" lon="140.47028280794621">
        <ele>1412.79</ele>
        <time>2026-01-04T00:05:08Z</time>
      </trkpt>
      <trkpt lat="38.12952890060842" lon="140.47028196975589">
        <ele>1411.8299999999999</ele>
        <time>2026-01-04T00:05:10Z</time>
      </trkpt>
      <trkpt lat="38.129529152065516" lon="140.47027694061399">
        <ele>1412.3099999999999</ele>
        <time>2026-01-04T00:05:16Z</time>
      </trkpt>
      <trkpt lat="38.12952839769423" lon="140.47027526423335">
        <ele>1410.8699999999999</ele>
        <time>2026-01-04T00:05:18Z</time>
      </trkpt>
      <trkpt lat="38.129529990255833" lon="140.47027057036757">
        <ele>1412.3099999999999</ele>
        <time>2026-01-04T00:05:21Z</time>
      </trkpt>
      <trkpt lat="38.129573240876198" lon="140.47024114988744">
        <ele>1412.3099999999999</ele>
        <time>2026-01-04T00:05:36Z</time>
      </trkpt>
      <trkpt lat="38.129601655527949" lon="140.47021650709212">
        <ele>1411.8299999999999</ele>
        <time>2026-01-04T00:05:41Z</time>
      </trkpt>
      <trkpt lat="38.12970282509923" lon="140.47015020623803">
        <ele>1410.8699999999999</ele>
        <time>2026-01-04T00:05:56Z</time>
      </trkpt>
      <trkpt lat="38.129809023812413" lon="140.470070829615">
        <ele>1412.79</ele>
        <time>2026-01-04T00:06:11Z</time>
      </trkpt>
      <trkpt lat="38.129879431799054" lon="140.47001659870148">
        <ele>1411.8299999999999</ele>
        <time>2026-01-04T00:06:20Z</time>
      </trkpt>
      <trkpt lat="38.129906672984362" lon="140.46998675912619">
        <ele>1415.2</ele>
        <time>2026-01-04T00:06:24Z</time>
      </trkpt>
      <trkpt lat="38.129983954131603" lon="140.46989187598228">
        <ele>1412.3099999999999</ele>
        <time>2026-01-04T00:06:38Z</time>
      </trkpt>
      <trkpt lat="38.130022846162319" lon="140.46984124928713">
        <ele>1412.79</ele>
        <time>2026-01-04T00:06:46Z</time>
      </trkpt>
      <trkpt lat="38.130034497007728" lon="140.46981979161501">
        <ele>1414.24</ele>
        <time>2026-01-04T00:06:49Z</time>
      </trkpt>
      <trkpt lat="38.130134157836437" lon="140.46968584880233">
        <ele>1416.6400000000001</ele>
        <time>2026-01-04T00:07:06Z</time>
      </trkpt>
      <trkpt lat="38.130234405398369" lon="140.46957026235759">
        <ele>1414.72</ele>
        <time>2026-01-04T00:07:23Z</time>
      </trkpt>
      <trkpt lat="38.130321577191353" lon="140.46947370283306">
        <ele>1416.1600000000001</ele>
        <time>2026-01-04T00:07:37Z</time>
      </trkpt>
      <trkpt lat="38.130352003499866" lon="140.46942031010985">
        <ele>1416.6400000000001</ele>
        <time>2026-01-04T00:07:44Z</time>
      </trkpt>
      <trkpt lat="38.130413191393018" lon="140.46927312389016">
        <ele>1414.24</ele>
        <time>2026-01-04T00:07:59Z</time>
      </trkpt>
      <trkpt lat="38.130413861945271" lon="140.46923850663006">
        <ele>1415.6800000000001</ele>
        <time>2026-01-04T00:08:02Z</time>
      </trkpt>
      <trkpt lat="38.130403216928244" lon="140.46910028904676">
        <ele>1417.1199999999999</ele>
        <time>2026-01-04T00:08:15Z</time>
      </trkpt>
      <trkpt lat="38.130362899973989" lon="140.46895134262741">
        <ele>1418.5599999999999</ele>
        <time>2026-01-04T00:08:31Z</time>
      </trkpt>
      <trkpt lat="38.130300454795361" lon="140.46884170733392">
        <ele>1418.5599999999999</ele>
        <time>2026-01-04T00:08:45Z</time>
      </trkpt>
      <trkpt lat="38.130266088992357" lon="140.46879703179002">
        <ele>1417.5999999999999</ele>
        <time>2026-01-04T00:08:52Z</time>
      </trkpt>
      <trkpt lat="38.130237171426415" lon="140.46877129934728">
        <ele>1419.04</ele>
        <time>2026-01-04T00:08:57Z</time>
      </trkpt>
      <trkpt lat="38.130205990746617" lon="140.46872846782207">
        <ele>1419.04</ele>
        <time>2026-01-04T00:09:04Z</time>
      </trkpt>
      <trkpt lat="38.130153520032763" lon="140.46865780837834">
        <ele>1418.0799999999999</ele>
        <time>2026-01-04T00:09:14Z</time>
      </trkpt>
      <trkpt lat="38.130133738741279" lon="140.46861003153026">
        <ele>1419.04</ele>
        <time>2026-01-04T00:09:20Z</time>
      </trkpt>
      <trkpt lat="38.130098367109895" lon="140.46846510842443">
        <ele>1420</ele>
        <time>2026-01-04T00:09:34Z</time>
      </trkpt>
      <trkpt lat="38.130091996863484" lon="140.46843225136399">
        <ele>1418.5599999999999</ele>
        <time>2026-01-04T00:09:37Z</time>
      </trkpt>
      <trkpt lat="38.130081854760647" lon="140.46839101240039">
        <ele>1418.5599999999999</ele>
        <time>2026-01-04T00:09:41Z</time>
      </trkpt>
      <trkpt lat="38.130076993256807" lon="140.46836653724313">
        <ele>1420.97</ele>
        <time>2026-01-04T00:09:43Z</time>
      </trkpt>
      <trkpt lat="38.130072550848126" lon="140.46833577565849">
        <ele>1419.04</ele>
        <time>2026-01-04T00:09:46Z</time>
      </trkpt>
      <trkpt lat="38.130069114267826" lon="140.46828615479171">
        <ele>1423.3699999999999</ele>
        <time>2026-01-04T00:09:52Z</time>
      </trkpt>
      <trkpt lat="38.130065929144621" lon="140.4682779405266">
        <ele>1423.3699999999999</ele>
        <time>2026-01-04T00:09:53Z</time>
      </trkpt>
      <trkpt lat="38.130048494786024" lon="140.46821281313896">
        <ele>1421.45</ele>
        <time>2026-01-04T00:10:00Z</time>
      </trkpt>
      <trkpt lat="38.130024941638112" lon="140.46808649785817">
        <ele>1421.45</ele>
        <time>2026-01-04T00:10:13Z</time>
      </trkpt>
      <trkpt lat="38.130010943859816" lon="140.46801818534732">
        <ele>1421.45</ele>
        <time>2026-01-04T00:10:21Z</time>
      </trkpt>
      <trkpt lat="38.130008680745959" lon="140.46799739822745">
        <ele>1422.8900000000001</ele>
        <time>2026-01-04T00:10:23Z</time>
      </trkpt>
      <trkpt lat="38.129995185881853" lon="140.46792891807854">
        <ele>1422.4100000000001</ele>
        <time>2026-01-04T00:10:31Z</time>
      </trkpt>
      <trkpt lat="38.129991916939616" lon="140.46791466884315">
        <ele>1423.8499999999999</ele>
        <time>2026-01-04T00:10:33Z</time>
      </trkpt>
      <trkpt lat="38.12998479232192" lon="140.46785239130259">
        <ele>1423.8499999999999</ele>
        <time>2026-01-04T00:10:41Z</time>
      </trkpt>
      <trkpt lat="38.129976326599717" lon="140.46781651675701">
        <ele>1422.4100000000001</ele>
        <time>2026-01-04T00:10:45Z</time>
      </trkpt>
      <trkpt lat="38.129963083192706" lon="140.4677409119904">
        <ele>1423.3699999999999</ele>
        <time>2026-01-04T00:10:54Z</time>
      </trkpt>
      <trkpt lat="38.129960233345628" lon="140.46772649511695">
        <ele>1424.8099999999999</ele>
        <time>2026-01-04T00:10:56Z</time>
      </trkpt>
      <trkpt lat="38.129939865320921" lon="140.46758106909692">
        <ele>1426.73</ele>
        <time>2026-01-04T00:11:13Z</time>
      </trkpt>
      <trkpt lat="38.129933075979352" lon="140.46754737384617">
        <ele>1425.29</ele>
        <time>2026-01-04T00:11:17Z</time>
      </trkpt>
      <trkpt lat="38.129919497296214" lon="140.46746933832765">
        <ele>1427.21</ele>
        <time>2026-01-04T00:11:27Z</time>
      </trkpt>
      <trkpt lat="38.129909606650472" lon="140.46736230142415">
        <ele>1429.6199999999999</ele>
        <time>2026-01-04T00:11:41Z</time>
      </trkpt>
      <trkpt lat="38.12990952283144" lon="140.46735383570194">
        <ele>1429.6199999999999</ele>
        <time>2026-01-04T00:11:42Z</time>
      </trkpt>
      <trkpt lat="38.129913965240121" lon="140.46723078936338">
        <ele>1429.6199999999999</ele>
        <time>2026-01-04T00:11:58Z</time>
      </trkpt>
      <trkpt lat="38.129919078201056" lon="140.46718737110496">
        <ele>1428.6600000000001</ele>
        <time>2026-01-04T00:12:03Z</time>
      </trkpt>
      <trkpt lat="38.129931315779686" lon="140.467071197927">
        <ele>1431.54</ele>
        <time>2026-01-04T00:12:17Z</time>
      </trkpt>
      <trkpt lat="38.129933914169669" lon="140.46703507192433">
        <ele>1430.0999999999999</ele>
        <time>2026-01-04T00:12:21Z</time>
      </trkpt>
      <trkpt lat="38.129933746531606" lon="140.46701847575605">
        <ele>1431.54</ele>
        <time>2026-01-04T00:12:23Z</time>
      </trkpt>
      <trkpt lat="38.129939949139953" lon="140.46687623485923">
        <ele>1432.02</ele>
        <time>2026-01-04T00:12:39Z</time>
      </trkpt>
      <trkpt lat="38.129936512559652" lon="140.46675503253937">
        <ele>1432.02</ele>
        <time>2026-01-04T00:12:54Z</time>
      </trkpt>
      <trkpt lat="38.129931399598718" lon="140.46664933674037">
        <ele>1433.9400000000001</ele>
        <time>2026-01-04T00:13:07Z</time>
      </trkpt>
      <trkpt lat="38.129914049059153" lon="140.46651396900415">
        <ele>1434.4200000000001</ele>
        <time>2026-01-04T00:13:22Z</time>
      </trkpt>
      <trkpt lat="38.12989485450089" lon="140.46639611944556">
        <ele>1435.3900000000001</ele>
        <time>2026-01-04T00:13:37Z</time>
      </trkpt>
      <trkpt lat="38.129885299131274" lon="140.46630542725325">
        <ele>1434.4200000000001</ele>
        <time>2026-01-04T00:13:47Z</time>
      </trkpt>
      <trkpt lat="38.129886640235782" lon="140.46625538729131">
        <ele>1436.3499999999999</ele>
        <time>2026-01-04T00:13:52Z</time>
      </trkpt>
      <trkpt lat="38.129893345758319" lon="140.46621917746961">
        <ele>1437.3099999999999</ele>
        <time>2026-01-04T00:13:56Z</time>
      </trkpt>
      <trkpt lat="38.129897536709905" lon="140.46620325185359">
        <ele>1441.1500000000001</ele>
        <time>2026-01-04T00:13:58Z</time>
      </trkpt>
      <trkpt lat="38.129900051280856" lon="140.46619361266494">
        <ele>1441.1500000000001</ele>
        <time>2026-01-04T00:13:59Z</time>
      </trkpt>
      <trkpt lat="38.129905080422759" lon="140.4661763459444">
        <ele>1436.3499999999999</ele>
        <time>2026-01-04T00:14:01Z</time>
      </trkpt>
      <trkpt lat="38.129910780116916" lon="140.46616343781352">
        <ele>1432.98</ele>
        <time>2026-01-04T00:14:03Z</time>
      </trkpt>
      <trkpt lat="38.129913210868835" lon="140.46615145169199">
        <ele>1431.0599999999999</ele>
        <time>2026-01-04T00:14:05Z</time>
      </trkpt>
      <trkpt lat="38.129916479811072" lon="140.46614424325526">
        <ele>1433.9400000000001</ele>
        <time>2026-01-04T00:14:06Z</time>
      </trkpt>
      <trkpt lat="38.129921676591039" lon="140.46613527461886">
        <ele>1433.9400000000001</ele>
        <time>2026-01-04T00:14:07Z</time>
      </trkpt>
      <trkpt lat="38.129950007423759" lon="140.46609344892204">
        <ele>1435.8699999999999</ele>
        <time>2026-01-04T00:14:13Z</time>
      </trkpt>
      <trkpt lat="38.129962915554643" lon="140.46606964431703">
        <ele>1434.4200000000001</ele>
        <time>2026-01-04T00:14:16Z</time>
      </trkpt>
      <trkpt lat="38.129985462874174" lon="140.46603217720985">
        <ele>1437.79</ele>
        <time>2026-01-04T00:14:21Z</time>
      </trkpt>
      <trkpt lat="38.129990994930267" lon="140.46602530404925">
        <ele>1438.27</ele>
        <time>2026-01-04T00:14:22Z</time>
      </trkpt>
      <trkpt lat="38.130005914717913" lon="140.46600116416812">
        <ele>1438.27</ele>
        <time>2026-01-04T00:14:26Z</time>
      </trkpt>
      <trkpt lat="38.130086380988359" lon="140.46588214114308">
        <ele>1439.23</ele>
        <time>2026-01-04T00:14:42Z</time>
      </trkpt>
      <trkpt lat="38.130144970491529" lon="140.46575121581554">
        <ele>1440.1900000000001</ele>
        <time>2026-01-04T00:14:57Z</time>
      </trkpt>
      <trkpt lat="38.130180928856134" lon="140.46561467461288">
        <ele>1441.1500000000001</ele>
        <time>2026-01-04T00:15:11Z</time>
      </trkpt>
      <trkpt lat="38.130193753167987" lon="140.46553814783692">
        <ele>1440.6700000000001</ele>
        <time>2026-01-04T00:15:19Z</time>
      </trkpt>
      <trkpt lat="38.130196770653129" lon="140.46546916477382">
        <ele>1442.1099999999999</ele>
        <time>2026-01-04T00:15:26Z</time>
      </trkpt>
      <trkpt lat="38.1301982793957" lon="140.46539808623493">
        <ele>1443.5599999999999</ele>
        <time>2026-01-04T00:15:34Z</time>
      </trkpt>
      <trkpt lat="38.1301982793957" lon="140.46537956222892">
        <ele>1442.1099999999999</ele>
        <time>2026-01-04T00:15:36Z</time>
      </trkpt>
      <trkpt lat="38.130186209455132" lon="140.4652579408139">
        <ele>1441.6300000000001</ele>
        <time>2026-01-04T00:15:50Z</time>
      </trkpt>
      <trkpt lat="38.130180090665817" lon="140.46522290445864">
        <ele>1443.0799999999999</ele>
        <time>2026-01-04T00:15:54Z</time>
      </trkpt>
      <trkpt lat="38.13016558997333" lon="140.4650866985321">
        <ele>1444.52</ele>
        <time>2026-01-04T00:16:10Z</time>
      </trkpt>
      <trkpt lat="38.130168439820409" lon="140.4649918153882">
        <ele>1444.52</ele>
        <time>2026-01-04T00:16:21Z</time>
      </trkpt>
      <trkpt lat="38.130238261073828" lon="140.46488276682794">
        <ele>1445.96</ele>
        <time>2026-01-04T00:16:37Z</time>
      </trkpt>
      <trkpt lat="38.130313446745276" lon="140.46485083177686">
        <ele>1446.9200000000001</ele>
        <time>2026-01-04T00:16:50Z</time>
      </trkpt>
      <trkpt lat="38.130354015156627" lon="140.46485678292811">
        <ele>1444.52</ele>
        <time>2026-01-04T00:17:01Z</time>
      </trkpt>
      <trkpt lat="38.130350075662136" lon="140.4648588784039">
        <ele>1446.9200000000001</ele>
        <time>2026-01-04T00:17:04Z</time>
      </trkpt>
      <trkpt lat="38.130353428423405" lon="140.46485535800457">
        <ele>1445.48</ele>
        <time>2026-01-04T00:17:18Z</time>
      </trkpt>
      <trkpt lat="38.13035317696631" lon="140.46485510654747">
        <ele>1447.4000000000001</ele>
        <time>2026-01-04T00:17:21Z</time>
      </trkpt>
      <trkpt lat="38.130351835861802" lon="140.46485661529005">
        <ele>1445.48</ele>
        <time>2026-01-04T00:17:23Z</time>
      </trkpt>
      <trkpt lat="38.130347309634089" lon="140.46486089006066">
        <ele>1446.9200000000001</ele>
        <time>2026-01-04T00:17:30Z</time>
      </trkpt>
      <trkpt lat="38.130342196673155" lon="140.46485804021358">
        <ele>1446.4400000000001</ele>
        <time>2026-01-04T00:17:37Z</time>
      </trkpt>
      <trkpt lat="38.130373042076826" lon="140.46485024504364">
        <ele>1445</ele>
        <time>2026-01-04T00:17:58Z</time>
      </trkpt>
      <trkpt lat="38.130382681265473" lon="140.46484957449138">
        <ele>1447.8800000000001</ele>
        <time>2026-01-04T00:18:18Z</time>
      </trkpt>
      <trkpt lat="38.130382345989347" lon="140.46484898775816">
        <ele>1446.4400000000001</ele>
        <time>2026-01-04T00:18:20Z</time>
      </trkpt>
      <trkpt lat="38.130401875823736" lon="140.46484437771142">
        <ele>1446.4400000000001</ele>
        <time>2026-01-04T00:18:35Z</time>
      </trkpt>
      <trkpt lat="38.130404893308878" lon="140.4648435395211">
        <ele>1446.4400000000001</ele>
        <time>2026-01-04T00:18:42Z</time>
      </trkpt>
      <trkpt lat="38.130404725670815" lon="140.46483876183629">
        <ele>1447.8800000000001</ele>
        <time>2026-01-04T00:18:45Z</time>
      </trkpt>
      <trkpt lat="38.130412269383669" lon="140.46483373269439">
        <ele>1446.9200000000001</ele>
        <time>2026-01-04T00:19:02Z</time>
      </trkpt>
      <trkpt lat="38.13042257912457" lon="140.46483716927469">
        <ele>1447.4000000000001</ele>
        <time>2026-01-04T00:19:10Z</time>
      </trkpt>
      <trkpt lat="38.130417549982667" lon="140.46482183039188">
        <ele>1446.4400000000001</ele>
        <time>2026-01-04T00:19:18Z</time>
      </trkpt>
      <trkpt lat="38.130436912178993" lon="140.4648276977241">
        <ele>1446.9200000000001</ele>
        <time>2026-01-04T00:19:33Z</time>
      </trkpt>
      <trkpt lat="38.130437415093184" lon="140.46482820063829">
        <ele>1448.3599999999999</ele>
        <time>2026-01-04T00:19:36Z</time>
      </trkpt>
      <trkpt lat="38.130446216091514" lon="140.46482501551509">
        <ele>1448.8399999999999</ele>
        <time>2026-01-04T00:19:40Z</time>
      </trkpt>
      <trkpt lat="38.130450826138258" lon="140.46482141129673">
        <ele>1446.9200000000001</ele>
        <time>2026-01-04T00:19:43Z</time>
      </trkpt>
      <trkpt lat="38.130452334880829" lon="140.46482040546834">
        <ele>1448.8399999999999</ele>
        <time>2026-01-04T00:19:48Z</time>
      </trkpt>
      <trkpt lat="38.130452083423734" lon="140.46481998637319">
        <ele>1447.4000000000001</ele>
        <time>2026-01-04T00:19:50Z</time>
      </trkpt>
      <trkpt lat="38.13046658411622" lon="140.4648261051625">
        <ele>1448.8399999999999</ele>
        <time>2026-01-04T00:20:07Z</time>
      </trkpt>
      <trkpt lat="38.130469517782331" lon="140.46482719480991">
        <ele>1446.4400000000001</ele>
        <time>2026-01-04T00:20:09Z</time>
      </trkpt>
      <trkpt lat="38.130469098687172" lon="140.46483272686601">
        <ele>1448.3599999999999</ele>
        <time>2026-01-04T00:20:13Z</time>
      </trkpt>
      <trkpt lat="38.13046851195395" lon="140.46483473852277">
        <ele>1451.73</ele>
        <time>2026-01-04T00:20:14Z</time>
      </trkpt>
      <trkpt lat="38.130467003211379" lon="140.4648398514837">
        <ele>1451.73</ele>
        <time>2026-01-04T00:20:15Z</time>
      </trkpt>
      <trkpt lat="38.130464823916554" lon="140.46485183760524">
        <ele>1447.4000000000001</ele>
        <time>2026-01-04T00:20:17Z</time>
      </trkpt>
      <trkpt lat="38.130464488640428" lon="140.46486080624163">
        <ele>1447.4000000000001</ele>
        <time>2026-01-04T00:20:18Z</time>
      </trkpt>
      <trkpt lat="38.130475552752614" lon="140.46492417342961">
        <ele>1446.9200000000001</ele>
        <time>2026-01-04T00:20:24Z</time>
      </trkpt>
      <trkpt lat="38.130479995161295" lon="140.46500128693879">
        <ele>1445.48</ele>
        <time>2026-01-04T00:20:28Z</time>
      </trkpt>
      <trkpt lat="38.130493322387338" lon="140.46502073295414">
        <ele>1445.48</ele>
        <time>2026-01-04T00:20:30Z</time>
      </trkpt>
      <trkpt lat="38.130518468096852" lon="140.46506172046065">
        <ele>1445.48</ele>
        <time>2026-01-04T00:20:34Z</time>
      </trkpt>
      <trkpt lat="38.130592899397016" lon="140.46514621004462">
        <ele>1444.52</ele>
        <time>2026-01-04T00:20:42Z</time>
      </trkpt>
      <trkpt lat="38.130774702876806" lon="140.46523606404662">
        <ele>1444.04</ele>
        <time>2026-01-04T00:20:59Z</time>
      </trkpt>
      <trkpt lat="38.130899760872126" lon="140.46524176374078">
        <ele>1445.48</ele>
        <time>2026-01-04T00:21:10Z</time>
      </trkpt>
      <trkpt lat="38.131063962355256" lon="140.46523606404662">
        <ele>1446.9200000000001</ele>
        <time>2026-01-04T00:21:24Z</time>
      </trkpt>
      <trkpt lat="38.131171250715852" lon="140.46523505821824">
        <ele>1446.9200000000001</ele>
        <time>2026-01-04T00:21:33Z</time>
      </trkpt>
      <trkpt lat="38.131326651200652" lon="140.46522977761924">
        <ele>1448.8399999999999</ele>
        <time>2026-01-04T00:21:48Z</time>
      </trkpt>
      <trkpt lat="38.131440142169595" lon="140.46521519310772">
        <ele>1446.9200000000001</ele>
        <time>2026-01-04T00:22:03Z</time>
      </trkpt>
      <trkpt lat="38.131502587348223" lon="140.46518401242793">
        <ele>1446.9200000000001</ele>
        <time>2026-01-04T00:22:14Z</time>
      </trkpt>
      <trkpt lat="38.131516752764583" lon="140.46515140682459">
        <ele>1447.8800000000001</ele>
        <time>2026-01-04T00:22:25Z</time>
      </trkpt>
      <trkpt lat="38.131518261507154" lon="140.46510656364262">
        <ele>1444.52</ele>
        <time>2026-01-04T00:22:31Z</time>
      </trkpt>
      <trkpt lat="38.131513567641377" lon="140.46508518978953">
        <ele>1447.8800000000001</ele>
        <time>2026-01-04T00:22:33Z</time>
      </trkpt>
      <trkpt lat="38.131511975079775" lon="140.4650766402483">
        <ele>1447.8800000000001</ele>
        <time>2026-01-04T00:22:34Z</time>
      </trkpt>
      <trkpt lat="38.131499234586954" lon="140.4650504887104">
        <ele>1446.4400000000001</ele>
        <time>2026-01-04T00:22:37Z</time>
      </trkpt>
      <trkpt lat="38.131494792178273" lon="140.46502718701959">
        <ele>1448.8399999999999</ele>
        <time>2026-01-04T00:22:40Z</time>
      </trkpt>
      <trkpt lat="38.131486913189292" lon="140.46499399468303">
        <ele>1446.4400000000001</ele>
        <time>2026-01-04T00:22:44Z</time>
      </trkpt>
      <trkpt lat="38.131453385576606" lon="140.46489316038787">
        <ele>1447.4000000000001</ele>
        <time>2026-01-04T00:22:57Z</time>
      </trkpt>
      <trkpt lat="38.131430838257074" lon="140.46475955285132">
        <ele>1448.8399999999999</ele>
        <time>2026-01-04T00:23:12Z</time>
      </trkpt>
      <trkpt lat="38.131376523524523" lon="140.46467623673379">
        <ele>1448.3599999999999</ele>
        <time>2026-01-04T00:23:24Z</time>
      </trkpt>
      <trkpt lat="38.131365962326527" lon="140.46466525644064">
        <ele>1450.29</ele>
        <time>2026-01-04T00:23:26Z</time>
      </trkpt>
      <trkpt lat="38.131296643987298" lon="140.46456115320325">
        <ele>1451.73</ele>
        <time>2026-01-04T00:23:41Z</time>
      </trkpt>
      <trkpt lat="38.131229504942894" lon="140.46445277519524">
        <ele>1452.21</ele>
        <time>2026-01-04T00:23:55Z</time>
      </trkpt>
      <trkpt lat="38.131196480244398" lon="140.46439150348306">
        <ele>1454.6099999999999</ele>
        <time>2026-01-04T00:24:03Z</time>
      </trkpt>
      <trkpt lat="38.131138309836388" lon="140.46430399641395">
        <ele>1455.5699999999999</ele>
        <time>2026-01-04T00:24:16Z</time>
      </trkpt>
      <trkpt lat="38.131063459441066" lon="140.46425831504166">
        <ele>1455.0899999999999</ele>
        <time>2026-01-04T00:24:30Z</time>
      </trkpt>
      <trkpt lat="38.131049461662769" lon="140.4642478376627">
        <ele>1456.53</ele>
        <time>2026-01-04T00:24:35Z</time>
      </trkpt>
      <trkpt lat="38.131009228527546" lon="140.46420861035585">
        <ele>1455.0899999999999</ele>
        <time>2026-01-04T00:24:44Z</time>
      </trkpt>
      <trkpt lat="38.130989111959934" lon="140.46418631449342">
        <ele>1457.02</ele>
        <time>2026-01-04T00:24:48Z</time>
      </trkpt>
      <trkpt lat="38.130971929058433" lon="140.46416779048741">
        <ele>1458.46</ele>
        <time>2026-01-04T00:24:51Z</time>
      </trkpt>
      <trkpt lat="38.130948040634394" lon="140.46414608135819">
        <ele>1457.02</ele>
        <time>2026-01-04T00:24:56Z</time>
      </trkpt>
      <trkpt lat="38.130944184958935" lon="140.46414314769208">
        <ele>1460.3800000000001</ele>
        <time>2026-01-04T00:24:57Z</time>
      </trkpt>
      <trkpt lat="38.130939407274127" lon="140.46413937583566">
        <ele>1460.3800000000001</ele>
        <time>2026-01-04T00:24:58Z</time>
      </trkpt>
      <trkpt lat="38.130925074219704" lon="140.46413099393249">
        <ele>1458.46</ele>
        <time>2026-01-04T00:25:00Z</time>
      </trkpt>
      <trkpt lat="38.130915937945247" lon="140.46412856318057">
        <ele>1458.46</ele>
        <time>2026-01-04T00:25:01Z</time>
      </trkpt>
      <trkpt lat="38.130828766152263" lon="140.46407257206738">
        <ele>1459.9000000000001</ele>
        <time>2026-01-04T00:25:15Z</time>
      </trkpt>
      <trkpt lat="38.130766153335571" lon="140.46404776163399">
        <ele>1461.8199999999999</ele>
        <time>2026-01-04T00:25:29Z</time>
      </trkpt>
      <trkpt lat="38.130712760612369" lon="140.46403627842665">
        <ele>1462.78</ele>
        <time>2026-01-04T00:25:46Z</time>
      </trkpt>
      <trkpt lat="38.130620308220387" lon="140.46399520710111">
        <ele>1463.74</ele>
        <time>2026-01-04T00:26:01Z</time>
      </trkpt>
      <trkpt lat="38.130513522773981" lon="140.46394541859627">
        <ele>1464.71</ele>
        <time>2026-01-04T00:26:15Z</time>
      </trkpt>
      <trkpt lat="38.130406737327576" lon="140.46390434727073">
        <ele>1465.1900000000001</ele>
        <time>2026-01-04T00:26:30Z</time>
      </trkpt>
      <trkpt lat="38.130312105640769" lon="140.46388272196054">
        <ele>1466.6300000000001</ele>
        <time>2026-01-04T00:26:44Z</time>
      </trkpt>
      <trkpt lat="38.130207331851125" lon="140.46385774388909">
        <ele>1468.55</ele>
        <time>2026-01-04T00:27:00Z</time>
      </trkpt>
      <trkpt lat="38.130106665194035" lon="140.46383771114051">
        <ele>1470.47</ele>
        <time>2026-01-04T00:27:14Z</time>
      </trkpt>
      <trkpt lat="38.130007842555642" lon="140.46381331980228">
        <ele>1469.03</ele>
        <time>2026-01-04T00:27:27Z</time>
      </trkpt>
      <trkpt lat="38.129925616085529" lon="140.46381021849811">
        <ele>1470.95</ele>
        <time>2026-01-04T00:27:39Z</time>
      </trkpt>
      <trkpt lat="38.129843389615417" lon="140.46380267478526">
        <ele>1471.9200000000001</ele>
        <time>2026-01-04T00:27:52Z</time>
      </trkpt>
      <trkpt lat="38.129741800948977" lon="140.46379144303501">
        <ele>1473.3599999999999</ele>
        <time>2026-01-04T00:28:06Z</time>
      </trkpt>
      <trkpt lat="38.129686648026109" lon="140.46378515660763">
        <ele>1471.9200000000001</ele>
        <time>2026-01-04T00:28:15Z</time>
      </trkpt>
      <trkpt lat="38.129672901704907" lon="140.46378213912249">
        <ele>1473.3599999999999</ele>
        <time>2026-01-04T00:28:17Z</time>
      </trkpt>
      <trkpt lat="38.129585226997733" lon="140.46376780606806">
        <ele>1474.3199999999999</ele>
        <time>2026-01-04T00:28:31Z</time>
      </trkpt>
      <trkpt lat="38.129489086568356" lon="140.46375171281397">
        <ele>1475.28</ele>
        <time>2026-01-04T00:28:46Z</time>
      </trkpt>
      <trkpt lat="38.129393197596073" lon="140.46373109333217">
        <ele>1475.76</ele>
        <time>2026-01-04T00:29:01Z</time>
      </trkpt>
      <trkpt lat="38.129303343594074" lon="140.46370728872716">
        <ele>1477.2</ele>
        <time>2026-01-04T00:29:15Z</time>
      </trkpt>
      <trkpt lat="38.129284987226129" lon="140.46370100229979">
        <ele>1475.76</ele>
        <time>2026-01-04T00:29:18Z</time>
      </trkpt>
      <trkpt lat="38.129262691363692" lon="140.46369379386306">
        <ele>1477.2</ele>
        <time>2026-01-04T00:29:21Z</time>
      </trkpt>
      <trkpt lat="38.129180297255516" lon="140.46362464316189">
        <ele>1479.6099999999999</ele>
        <time>2026-01-04T00:29:36Z</time>
      </trkpt>
      <trkpt lat="38.129126653075218" lon="140.46351450495422">
        <ele>1480.5699999999999</ele>
        <time>2026-01-04T00:29:50Z</time>
      </trkpt>
      <trkpt lat="38.129101423546672" lon="140.46341828070581">
        <ele>1479.1300000000001</ele>
        <time>2026-01-04T00:30:02Z</time>
      </trkpt>
      <trkpt lat="38.129099747166038" lon="140.463384417817">
        <ele>1480.5699999999999</ele>
        <time>2026-01-04T00:30:06Z</time>
      </trkpt>
      <trkpt lat="38.129129922017455" lon="140.46327562071383">
        <ele>1481.53</ele>
        <time>2026-01-04T00:30:20Z</time>
      </trkpt>
      <trkpt lat="38.129156744107604" lon="140.46324192546308">
        <ele>1481.05</ele>
        <time>2026-01-04T00:30:26Z</time>
      </trkpt>
      <trkpt lat="38.129179459065199" lon="140.46321853995323">
        <ele>1483.45</ele>
        <time>2026-01-04T00:30:30Z</time>
      </trkpt>
      <trkpt lat="38.129193875938654" lon="140.4632065538317">
        <ele>1482.01</ele>
        <time>2026-01-04T00:30:33Z</time>
      </trkpt>
      <trkpt lat="38.129219440743327" lon="140.46318694017828">
        <ele>1483.45</ele>
        <time>2026-01-04T00:30:37Z</time>
      </trkpt>
      <trkpt lat="38.129316251724958" lon="140.46313807368279">
        <ele>1482.01</ele>
        <time>2026-01-04T00:30:51Z</time>
      </trkpt>
      <trkpt lat="38.129323543980718" lon="140.46313505619764">
        <ele>1482.01</ele>
        <time>2026-01-04T00:30:52Z</time>
      </trkpt>
      <trkpt lat="38.129368470981717" lon="140.46312575228512">
        <ele>1483.45</ele>
        <time>2026-01-04T00:30:58Z</time>
      </trkpt>
      <trkpt lat="38.129476010799408" lon="140.46311594545841">
        <ele>1485.8499999999999</ele>
        <time>2026-01-04T00:31:13Z</time>
      </trkpt>
      <trkpt lat="38.129575839266181" lon="140.46310052275658">
        <ele>1487.78</ele>
        <time>2026-01-04T00:31:27Z</time>
      </trkpt>
      <trkpt lat="38.129672398790717" lon="140.46310538426042">
        <ele>1487.78</ele>
        <time>2026-01-04T00:31:42Z</time>
      </trkpt>
      <trkpt lat="38.129778010770679" lon="140.46310102567077">
        <ele>1488.74</ele>
        <time>2026-01-04T00:31:57Z</time>
      </trkpt>
      <trkpt lat="38.129877503961325" lon="140.46306406147778">
        <ele>1490.1800000000001</ele>
        <time>2026-01-04T00:32:11Z</time>
      </trkpt>
      <trkpt lat="38.129952689632773" lon="140.46298460103571">
        <ele>1491.1400000000001</ele>
        <time>2026-01-04T00:32:25Z</time>
      </trkpt>
      <trkpt lat="38.129977500066161" lon="140.46282978728414">
        <ele>1491.6199999999999</ele>
        <time>2026-01-04T00:32:40Z</time>
      </trkpt>
      <trkpt lat="38.129960987716913" lon="140.46275284141302">
        <ele>1491.6199999999999</ele>
        <time>2026-01-04T00:32:48Z</time>
      </trkpt>
      <trkpt lat="38.12988898716867" lon="140.46266198158264">
        <ele>1492.0999999999999</ele>
        <time>2026-01-04T00:33:03Z</time>
      </trkpt>
      <trkpt lat="38.129830062389374" lon="140.46263155527413">
        <ele>1492.5799999999999</ele>
        <time>2026-01-04T00:33:12Z</time>
      </trkpt>
      <trkpt lat="38.129790164530277" lon="140.46261621639132">
        <ele>1494.51</ele>
        <time>2026-01-04T00:33:18Z</time>
      </trkpt>
      <trkpt lat="38.129737693816423" lon="140.4626069124788">
        <ele>1494.99</ele>
        <time>2026-01-04T00:33:26Z</time>
      </trkpt>
      <trkpt lat="38.129631327465177" lon="140.46258763410151">
        <ele>1496.9100000000001</ele>
        <time>2026-01-04T00:33:41Z</time>
      </trkpt>
      <trkpt lat="38.129584975540638" lon="140.46256802044809">
        <ele>1494.99</ele>
        <time>2026-01-04T00:33:56Z</time>
      </trkpt>
      <trkpt lat="38.12958262860775" lon="140.46256558969617">
        <ele>1495.47</ele>
        <time>2026-01-04T00:34:01Z</time>
      </trkpt>
      <trkpt lat="38.129570726305246" lon="140.46256156638265">
        <ele>1493.55</ele>
        <time>2026-01-04T00:34:04Z</time>
      </trkpt>
      <trkpt lat="38.12955035828054" lon="140.46255678869784">
        <ele>1495.47</ele>
        <time>2026-01-04T00:34:07Z</time>
      </trkpt>
      <trkpt lat="38.129497803747654" lon="140.46255243010819">
        <ele>1498.3499999999999</ele>
        <time>2026-01-04T00:34:14Z</time>
      </trkpt>
      <trkpt lat="38.129422534257174" lon="140.46253600157797">
        <ele>1499.3099999999999</ele>
        <time>2026-01-04T00:34:29Z</time>
      </trkpt>
      <trkpt lat="38.129429407417774" lon="140.46254144981503">
        <ele>1498.3499999999999</ele>
        <time>2026-01-04T00:34:38Z</time>
      </trkpt>
      <trkpt lat="38.129431586712599" lon="140.46254203654826">
        <ele>1500.76</ele>
        <time>2026-01-04T00:34:43Z</time>
      </trkpt>
      <trkpt lat="38.129419516772032" lon="140.46253868378699">
        <ele>1497.8699999999999</ele>
        <time>2026-01-04T00:34:50Z</time>
      </trkpt>
      <trkpt lat="38.129324298352003" lon="140.46251211315393">
        <ele>1497.8699999999999</ele>
        <time>2026-01-04T00:35:05Z</time>
      </trkpt>
      <trkpt lat="38.12923570163548" lon="140.46244698576629">
        <ele>1499.79</ele>
        <time>2026-01-04T00:35:19Z</time>
      </trkpt>
      <trkpt lat="38.129166634753346" lon="140.46231388114393">
        <ele>1499.3099999999999</ele>
        <time>2026-01-04T00:35:35Z</time>
      </trkpt>
      <trkpt lat="38.129161270335317" lon="140.46219309791923">
        <ele>1501.24</ele>
        <time>2026-01-04T00:35:49Z</time>
      </trkpt>
      <trkpt lat="38.129205442965031" lon="140.46209528110921">
        <ele>1502.6800000000001</ele>
        <time>2026-01-04T00:36:02Z</time>
      </trkpt>
      <trkpt lat="38.129278030246496" lon="140.46202738769352">
        <ele>1504.1199999999999</ele>
        <time>2026-01-04T00:36:16Z</time>
      </trkpt>
      <trkpt lat="38.129378277808428" lon="140.46197491697967">
        <ele>1506.04</ele>
        <time>2026-01-04T00:36:31Z</time>
      </trkpt>
      <trkpt lat="38.129404094070196" lon="140.4619681276381">
        <ele>1505.0799999999999</ele>
        <time>2026-01-04T00:36:35Z</time>
      </trkpt>
      <trkpt lat="38.129503168165684" lon="140.46193895861506">
        <ele>1506.04</ele>
        <time>2026-01-04T00:36:50Z</time>
      </trkpt>
      <trkpt lat="38.129606768488884" lon="140.46191666275263">
        <ele>1506.52</ele>
        <time>2026-01-04T00:37:05Z</time>
      </trkpt>
      <trkpt lat="38.129703076556325" lon="140.46188673935831">
        <ele>1508.45</ele>
        <time>2026-01-04T00:37:21Z</time>
      </trkpt>
      <trkpt lat="38.129800809547305" lon="140.46183619648218">
        <ele>1509.8900000000001</ele>
        <time>2026-01-04T00:37:39Z</time>
      </trkpt>
      <trkpt lat="38.129863254725933" lon="140.46173678711057">
        <ele>1508.45</ele>
        <time>2026-01-04T00:37:52Z</time>
      </trkpt>
      <trkpt lat="38.129882114008069" lon="140.46161097474396">
        <ele>1510.3699999999999</ele>
        <time>2026-01-04T00:38:05Z</time>
      </trkpt>
      <trkpt lat="38.129853196442127" lon="140.46148038469255">
        <ele>1510.3699999999999</ele>
        <time>2026-01-04T00:38:20Z</time>
      </trkpt>
      <trkpt lat="38.129798294976354" lon="140.46137049794197">
        <ele>1512.29</ele>
        <time>2026-01-04T00:38:34Z</time>
      </trkpt>
      <trkpt lat="38.129752278327942" lon="140.46129070222378">
        <ele>1515.6600000000001</ele>
        <time>2026-01-04T00:38:44Z</time>
      </trkpt>
      <trkpt lat="38.129713889211416" lon="140.46122264117002">
        <ele>1514.21</ele>
        <time>2026-01-04T00:38:53Z</time>
      </trkpt>
      <trkpt lat="38.129681115970016" lon="140.46117754653096">
        <ele>1515.6600000000001</ele>
        <time>2026-01-04T00:39:00Z</time>
      </trkpt>
      <trkpt lat="38.129661418497562" lon="140.46115114353597">
        <ele>1516.6199999999999</ele>
        <time>2026-01-04T00:39:04Z</time>
      </trkpt>
      <trkpt lat="38.129650605842471" lon="140.46113790012896">
        <ele>1513.25</ele>
        <time>2026-01-04T00:39:06Z</time>
      </trkpt>
      <trkpt lat="38.129646750167012" lon="140.46113186515868">
        <ele>1513.25</ele>
        <time>2026-01-04T00:39:07Z</time>
      </trkpt>
      <trkpt lat="38.129615988582373" lon="140.46109196729958">
        <ele>1513.73</ele>
        <time>2026-01-04T00:39:13Z</time>
      </trkpt>
      <trkpt lat="38.12954599969089" lon="140.46099088154733">
        <ele>1518.0599999999999</ele>
        <time>2026-01-04T00:39:27Z</time>
      </trkpt>
      <trkpt lat="38.12953133136034" lon="140.4609720222652">
        <ele>1516.1400000000001</ele>
        <time>2026-01-04T00:39:30Z</time>
      </trkpt>
      <trkpt lat="38.12951666302979" lon="140.46094972640276">
        <ele>1517.5799999999999</ele>
        <time>2026-01-04T00:39:34Z</time>
      </trkpt>
      <trkpt lat="38.129502832889557" lon="140.46092541888356">
        <ele>1519.02</ele>
        <time>2026-01-04T00:39:37Z</time>
      </trkpt>
      <trkpt lat="38.12949419952929" lon="140.4608990997076">
        <ele>1517.5799999999999</ele>
        <time>2026-01-04T00:39:41Z</time>
      </trkpt>
      <trkpt lat="38.129451787099242" lon="140.46079910360277">
        <ele>1518.54</ele>
        <time>2026-01-04T00:39:52Z</time>
      </trkpt>
      <trkpt lat="38.129403674975038" lon="140.46068033203483">
        <ele>1519.02</ele>
        <time>2026-01-04T00:40:06Z</time>
      </trkpt>
      <trkpt lat="38.129393365234137" lon="140.46065183356404">
        <ele>1517.5799999999999</ele>
        <time>2026-01-04T00:40:09Z</time>
      </trkpt>
      <trkpt lat="38.129366040229797" lon="140.46053071506321">
        <ele>1520.9400000000001</ele>
        <time>2026-01-04T00:40:23Z</time>
      </trkpt>
      <trkpt lat="38.129346761852503" lon="140.46041563153267">
        <ele>1521.9000000000001</ele>
        <time>2026-01-04T00:40:37Z</time>
      </trkpt>
      <trkpt lat="38.129331842064857" lon="140.46029543504119">
        <ele>1521.9000000000001</ele>
        <time>2026-01-04T00:40:50Z</time>
      </trkpt>
      <trkpt lat="38.129325220361352" lon="140.46024682000279">
        <ele>1520.46</ele>
        <time>2026-01-04T00:40:55Z</time>
      </trkpt>
      <trkpt lat="38.129314742982388" lon="140.46018957160413">
        <ele>1521.4200000000001</ele>
        <time>2026-01-04T00:41:02Z</time>
      </trkpt>
      <trkpt lat="38.129288172349334" lon="140.46007012948394">
        <ele>1522.3900000000001</ele>
        <time>2026-01-04T00:41:17Z</time>
      </trkpt>
      <trkpt lat="38.129268307238817" lon="140.45999645255506">
        <ele>1523.3499999999999</ele>
        <time>2026-01-04T00:41:27Z</time>
      </trkpt>
      <trkpt lat="38.129252633079886" lon="140.45995026826859">
        <ele>1524.79</ele>
        <time>2026-01-04T00:41:40Z</time>
      </trkpt>
      <trkpt lat="38.129250034689903" lon="140.45995093882084">
        <ele>1523.3499999999999</ele>
        <time>2026-01-04T00:41:47Z</time>
      </trkpt>
      <trkpt lat="38.129251040518284" lon="140.45995278283954">
        <ele>1524.79</ele>
        <time>2026-01-04T00:41:49Z</time>
      </trkpt>
      <trkpt lat="38.129252381622791" lon="140.45995471067727">
        <ele>1526.71</ele>
        <time>2026-01-04T00:41:52Z</time>
      </trkpt>
      <trkpt lat="38.129253638908267" lon="140.45995035208762">
        <ele>1525.27</ele>
        <time>2026-01-04T00:41:55Z</time>
      </trkpt>
      <trkpt lat="38.129252884536982" lon="140.45995973981917">
        <ele>1524.3099999999999</ele>
        <time>2026-01-04T00:42:21Z</time>
      </trkpt>
      <trkpt lat="38.129247520118952" lon="140.45995848253369">
        <ele>1523.8299999999999</ele>
        <time>2026-01-04T00:42:36Z</time>
      </trkpt>
      <trkpt lat="38.129243580624461" lon="140.45994197018445">
        <ele>1525.75</ele>
        <time>2026-01-04T00:43:00Z</time>
      </trkpt>
      <trkpt lat="38.129238300025463" lon="140.4599389526993">
        <ele>1525.27</ele>
        <time>2026-01-04T00:43:23Z</time>
      </trkpt>
      <trkpt lat="38.129240898415446" lon="140.45995119027793">
        <ele>1524.79</ele>
        <time>2026-01-04T00:43:42Z</time>
      </trkpt>
      <trkpt lat="38.129232432693243" lon="140.45991020277143">
        <ele>1525.27</ele>
        <time>2026-01-04T00:44:04Z</time>
      </trkpt>
      <trkpt lat="38.129228241741657" lon="140.45989628881216">
        <ele>1525.75</ele>
        <time>2026-01-04T00:44:25Z</time>
      </trkpt>
      <trkpt lat="38.12920200638473" lon="140.45980065129697">
        <ele>1529.1099999999999</ele>
        <time>2026-01-04T00:44:41Z</time>
      </trkpt>
      <trkpt lat="38.129179123789072" lon="140.45971733517945">
        <ele>1529.1099999999999</ele>
        <time>2026-01-04T00:44:57Z</time>
      </trkpt>
      <trkpt lat="38.129173675552011" lon="140.45969512313604">
        <ele>1530.5599999999999</ele>
        <time>2026-01-04T00:45:01Z</time>
      </trkpt>
      <trkpt lat="38.129155905917287" lon="140.45961247757077">
        <ele>1531.04</ele>
        <time>2026-01-04T00:45:17Z</time>
      </trkpt>
      <trkpt lat="38.129162527620792" lon="140.45951516367495">
        <ele>1533.9200000000001</ele>
        <time>2026-01-04T00:45:32Z</time>
      </trkpt>
      <trkpt lat="38.129176525399089" lon="140.45942413620651">
        <ele>1534.8800000000001</ele>
        <time>2026-01-04T00:45:49Z</time>
      </trkpt>
      <trkpt lat="38.129193289205432" lon="140.45934618450701">
        <ele>1537.29</ele>
        <time>2026-01-04T00:46:02Z</time>
      </trkpt>
      <trkpt lat="38.129202844575047" lon="140.45922875404358">
        <ele>1539.6900000000001</ele>
        <time>2026-01-04T00:46:20Z</time>
      </trkpt>
      <trkpt lat="38.129193121567369" lon="140.45914267189801">
        <ele>1541.6099999999999</ele>
        <time>2026-01-04T00:46:35Z</time>
      </trkpt>
      <trkpt lat="38.129169987514615" lon="140.45906128361821">
        <ele>1542.0899999999999</ele>
        <time>2026-01-04T00:46:49Z</time>
      </trkpt>
      <trkpt lat="38.129162611439824" lon="140.45897092670202">
        <ele>1546.4200000000001</ele>
        <time>2026-01-04T00:47:03Z</time>
      </trkpt>
      <trkpt lat="38.129151798784733" lon="140.45887679792941">
        <ele>1546.4200000000001</ele>
        <time>2026-01-04T00:47:18Z</time>
      </trkpt>
      <trkpt lat="38.129153894260526" lon="140.45879884622991">
        <ele>1549.3</ele>
        <time>2026-01-04T00:47:32Z</time>
      </trkpt>
      <trkpt lat="38.129173507913947" lon="140.45870387926698">
        <ele>1551.22</ele>
        <time>2026-01-04T00:47:49Z</time>
      </trkpt>
      <trkpt lat="38.129203515127301" lon="140.45860631391406">
        <ele>1551.71</ele>
        <time>2026-01-04T00:48:05Z</time>
      </trkpt>
      <trkpt lat="38.129205778241158" lon="140.45852794311941">
        <ele>1553.6300000000001</ele>
        <time>2026-01-04T00:48:21Z</time>
      </trkpt>
      <trkpt lat="38.129196809604764" lon="140.45849441550672">
        <ele>1555.55</ele>
        <time>2026-01-04T00:48:31Z</time>
      </trkpt>
      <trkpt lat="38.129187086597085" lon="140.4584177210927">
        <ele>1557.47</ele>
        <time>2026-01-04T00:48:48Z</time>
      </trkpt>
      <trkpt lat="38.129170993342996" lon="140.45833532698452">
        <ele>1558.9200000000001</ele>
        <time>2026-01-04T00:49:03Z</time>
      </trkpt>
      <trkpt lat="38.129164455458522" lon="140.4582953453064">
        <ele>1559.4000000000001</ele>
        <time>2026-01-04T00:49:12Z</time>
      </trkpt>
      <trkpt lat="38.129160180687904" lon="140.45827983878553">
        <ele>1560.8399999999999</ele>
        <time>2026-01-04T00:49:15Z</time>
      </trkpt>
      <trkpt lat="38.129134280607104" lon="140.45820121653378">
        <ele>1562.28</ele>
        <time>2026-01-04T00:49:33Z</time>
      </trkpt>
      <trkpt lat="38.129106955602765" lon="140.4581431299448">
        <ele>1565.1600000000001</ele>
        <time>2026-01-04T00:49:49Z</time>
      </trkpt>
      <trkpt lat="38.12905590981245" lon="140.45810633338988">
        <ele>1566.1199999999999</ele>
        <time>2026-01-04T00:50:09Z</time>
      </trkpt>
      <trkpt lat="38.129045600071549" lon="140.45810021460056">
        <ele>1567.5699999999999</ele>
        <time>2026-01-04T00:50:12Z</time>
      </trkpt>
      <trkpt lat="38.129016347229481" lon="140.45809367671609">
        <ele>1566.1199999999999</ele>
        <time>2026-01-04T00:50:25Z</time>
      </trkpt>
      <trkpt lat="38.129013329744339" lon="140.45808847993612">
        <ele>1567.5699999999999</ele>
        <time>2026-01-04T00:50:28Z</time>
      </trkpt>
      <trkpt lat="38.129016263410449" lon="140.45807708054781">
        <ele>1571.8900000000001</ele>
        <time>2026-01-04T00:50:31Z</time>
      </trkpt>
      <trkpt lat="38.129013329744339" lon="140.45807213522494">
        <ele>1571.8900000000001</ele>
        <time>2026-01-04T00:50:32Z</time>
      </trkpt>
      <trkpt lat="38.129032691940665" lon="140.45801077969372">
        <ele>1573.3299999999999</ele>
        <time>2026-01-04T00:50:52Z</time>
      </trkpt>
      <trkpt lat="38.129043588414788" lon="140.45797800645232">
        <ele>1568.05</ele>
        <time>2026-01-04T00:51:03Z</time>
      </trkpt>
      <trkpt lat="38.129046186804771" lon="140.45797633007169">
        <ele>1576.7</ele>
        <time>2026-01-04T00:51:04Z</time>
      </trkpt>
      <trkpt lat="38.129046522080898" lon="140.45797775499523">
        <ele>1573.3299999999999</ele>
        <time>2026-01-04T00:51:05Z</time>
      </trkpt>
      <trkpt lat="38.128983657807112" lon="140.45796702615917">
        <ele>1575.74</ele>
        <time>2026-01-04T00:51:22Z</time>
      </trkpt>
      <trkpt lat="38.128941580653191" lon="140.45795713551342">
        <ele>1575.26</ele>
        <time>2026-01-04T00:51:34Z</time>
      </trkpt>
      <trkpt lat="38.128941580653191" lon="140.45793810859323">
        <ele>1578.6199999999999</ele>
        <time>2026-01-04T00:51:37Z</time>
      </trkpt>
      <trkpt lat="38.128941748291254" lon="140.45793022960424">
        <ele>1578.6199999999999</ele>
        <time>2026-01-04T00:51:38Z</time>
      </trkpt>
      <trkpt lat="38.12895281240344" lon="140.45788329094648">
        <ele>1580.0599999999999</ele>
        <time>2026-01-04T00:51:48Z</time>
      </trkpt>
      <trkpt lat="38.128956081345677" lon="140.45787021517754">
        <ele>1579.0999999999999</ele>
        <time>2026-01-04T00:51:51Z</time>
      </trkpt>
      <trkpt lat="38.128970330581069" lon="140.45783249661326">
        <ele>1580.54</ele>
        <time>2026-01-04T00:52:00Z</time>
      </trkpt>
      <trkpt lat="38.128980221226811" lon="140.45780332759023">
        <ele>1582.47</ele>
        <time>2026-01-04T00:52:05Z</time>
      </trkpt>
      <trkpt lat="38.128962283954024" lon="140.45775379054248">
        <ele>1581.99</ele>
        <time>2026-01-04T00:52:20Z</time>
      </trkpt>
      <trkpt lat="38.128924649208784" lon="140.45772302895784">
        <ele>1585.3499999999999</ele>
        <time>2026-01-04T00:52:35Z</time>
      </trkpt>
      <trkpt lat="38.128875782713294" lon="140.45768346637487">
        <ele>1586.3099999999999</ele>
        <time>2026-01-04T00:52:50Z</time>
      </trkpt>
      <trkpt lat="38.128829766064882" lon="140.45763510279357">
        <ele>1587.27</ele>
        <time>2026-01-04T00:53:06Z</time>
      </trkpt>
      <trkpt lat="38.128827083855867" lon="140.45762378722429">
        <ele>1587.75</ele>
        <time>2026-01-04T00:53:08Z</time>
      </trkpt>
      <trkpt lat="38.128806883469224" lon="140.45756796374917">
        <ele>1590.6400000000001</ele>
        <time>2026-01-04T00:53:19Z</time>
      </trkpt>
      <trkpt lat="38.128790538758039" lon="140.45753611251712">
        <ele>1589.2</ele>
        <time>2026-01-04T00:53:26Z</time>
      </trkpt>
      <trkpt lat="38.128744438290596" lon="140.45743636786938">
        <ele>1589.2</ele>
        <time>2026-01-04T00:53:42Z</time>
      </trkpt>
      <trkpt lat="38.12872314825654" lon="140.45739035122097">
        <ele>1589.2</ele>
        <time>2026-01-04T00:53:57Z</time>
      </trkpt>
      <trkpt lat="38.128721890971065" lon="140.45738507062197">
        <ele>1589.2</ele>
        <time>2026-01-04T00:53:58Z</time>
      </trkpt>
      <trkpt lat="38.12872021459043" lon="140.45734617859125">
        <ele>1591.5999999999999</ele>
        <time>2026-01-04T00:54:13Z</time>
      </trkpt>
      <trkpt lat="38.12874217517674" lon="140.45727853663266">
        <ele>1593.52</ele>
        <time>2026-01-04T00:54:30Z</time>
      </trkpt>
      <trkpt lat="38.128744103014469" lon="140.45724978670478">
        <ele>1594.48</ele>
        <time>2026-01-04T00:54:37Z</time>
      </trkpt>
      <trkpt lat="38.128740666434169" lon="140.45724081806839">
        <ele>1593.04</ele>
        <time>2026-01-04T00:54:43Z</time>
      </trkpt>
      <trkpt lat="38.128743516281247" lon="140.4572263173759">
        <ele>1594.96</ele>
        <time>2026-01-04T00:54:47Z</time>
      </trkpt>
      <trkpt lat="38.128745276480913" lon="140.45721198432148">
        <ele>1594</ele>
        <time>2026-01-04T00:54:53Z</time>
      </trkpt>
      <trkpt lat="38.128741923719645" lon="140.45719304122031">
        <ele>1597.3699999999999</ele>
        <time>2026-01-04T00:54:59Z</time>
      </trkpt>
      <trkpt lat="38.128741169348359" lon="140.45714534819126">
        <ele>1600.73</ele>
        <time>2026-01-04T00:55:11Z</time>
      </trkpt>
      <trkpt lat="38.128742426633835" lon="140.45712137594819">
        <ele>1599.77</ele>
        <time>2026-01-04T00:55:16Z</time>
      </trkpt>
      <trkpt lat="38.128764973953366" lon="140.45705063268542">
        <ele>1601.21</ele>
        <time>2026-01-04T00:55:32Z</time>
      </trkpt>
      <trkpt lat="38.128800261765718" lon="140.45697444118559">
        <ele>1602.6600000000001</ele>
        <time>2026-01-04T00:55:48Z</time>
      </trkpt>
      <trkpt lat="38.128809230402112" lon="140.45689514838159">
        <ele>1604.0999999999999</ele>
        <time>2026-01-04T00:56:02Z</time>
      </trkpt>
      <trkpt lat="38.128800932317972" lon="140.45685717836022">
        <ele>1602.6600000000001</ele>
        <time>2026-01-04T00:56:09Z</time>
      </trkpt>
      <trkpt lat="38.128799591213465" lon="140.45684703625739">
        <ele>1604.0999999999999</ele>
        <time>2026-01-04T00:56:11Z</time>
      </trkpt>
      <trkpt lat="38.128801016137004" lon="140.45681895688176">
        <ele>1605.0599999999999</ele>
        <time>2026-01-04T00:56:18Z</time>
      </trkpt>
      <trkpt lat="38.128797663375735" lon="140.45676916837692">
        <ele>1603.1400000000001</ele>
        <time>2026-01-04T00:56:28Z</time>
      </trkpt>
      <trkpt lat="38.128796322271228" lon="140.45675240457058">
        <ele>1605.0599999999999</ele>
        <time>2026-01-04T00:56:31Z</time>
      </trkpt>
      <trkpt lat="38.128781067207456" lon="140.45666439458728">
        <ele>1607.9400000000001</ele>
        <time>2026-01-04T00:56:47Z</time>
      </trkpt>
      <trkpt lat="38.128777127712965" lon="140.45663002878428">
        <ele>1606.98</ele>
        <time>2026-01-04T00:56:52Z</time>
      </trkpt>
      <trkpt lat="38.128771595656872" lon="140.45660220086575">
        <ele>1608.4200000000001</ele>
        <time>2026-01-04T00:56:57Z</time>
      </trkpt>
      <trkpt lat="38.128775535151362" lon="140.45654243789613">
        <ele>1608.4200000000001</ele>
        <time>2026-01-04T00:57:10Z</time>
      </trkpt>
      <trkpt lat="38.128774110227823" lon="140.45648636296391">
        <ele>1609.3800000000001</ele>
        <time>2026-01-04T00:57:22Z</time>
      </trkpt>
      <trkpt lat="38.128778971731663" lon="140.45641704462469">
        <ele>1609.3800000000001</ele>
        <time>2026-01-04T00:57:34Z</time>
      </trkpt>
      <trkpt lat="38.128764554858208" lon="140.45639793388546">
        <ele>1610.8299999999999</ele>
        <time>2026-01-04T00:57:38Z</time>
      </trkpt>
      <trkpt lat="38.128748377785087" lon="140.45634521171451">
        <ele>1611.3099999999999</ele>
        <time>2026-01-04T00:57:50Z</time>
      </trkpt>
      <trkpt lat="38.128736140206456" lon="140.45630003325641">
        <ele>1610.3499999999999</ele>
        <time>2026-01-04T00:57:58Z</time>
      </trkpt>
      <trkpt lat="38.128729518502951" lon="140.45628050342202">
        <ele>1606.02</ele>
        <time>2026-01-04T00:58:01Z</time>
      </trkpt>
      <trkpt lat="38.128727087751031" lon="140.45627363026142">
        <ele>1607.46</ele>
        <time>2026-01-04T00:58:02Z</time>
      </trkpt>
      <trkpt lat="38.128727003931999" lon="140.45626315288246">
        <ele>1610.8299999999999</ele>
        <time>2026-01-04T00:58:04Z</time>
      </trkpt>
      <trkpt lat="38.128722980618477" lon="140.456259297207">
        <ele>1610.8299999999999</ele>
        <time>2026-01-04T00:58:05Z</time>
      </trkpt>
      <trkpt lat="38.128710491582751" lon="140.45624278485775">
        <ele>1612.75</ele>
        <time>2026-01-04T00:58:09Z</time>
      </trkpt>
      <trkpt lat="38.128706468269229" lon="140.4562333971262">
        <ele>1611.3099999999999</ele>
        <time>2026-01-04T00:58:11Z</time>
      </trkpt>
      <trkpt lat="38.128699511289597" lon="140.45622090809047">
        <ele>1612.75</ele>
        <time>2026-01-04T00:58:14Z</time>
      </trkpt>
      <trkpt lat="38.128686435520649" lon="140.45620003715158">
        <ele>1614.6700000000001</ele>
        <time>2026-01-04T00:58:20Z</time>
      </trkpt>
      <trkpt lat="38.128680400550365" lon="140.45619274489582">
        <ele>1611.3099999999999</ele>
        <time>2026-01-04T00:58:22Z</time>
      </trkpt>
      <trkpt lat="38.128677634522319" lon="140.45618746429682">
        <ele>1611.3099999999999</ele>
        <time>2026-01-04T00:58:23Z</time>
      </trkpt>
      <trkpt lat="38.12866497784853" lon="140.45617908239365">
        <ele>1614.6700000000001</ele>
        <time>2026-01-04T00:58:27Z</time>
      </trkpt>
      <trkpt lat="38.128663133829832" lon="140.45617388561368">
        <ele>1614.6700000000001</ele>
        <time>2026-01-04T00:58:28Z</time>
      </trkpt>
      <trkpt lat="38.128652656450868" lon="140.45616734772921">
        <ele>1618.52</ele>
        <time>2026-01-04T00:58:32Z</time>
      </trkpt>
      <trkpt lat="38.128651566803455" lon="140.45616592280567">
        <ele>1618.52</ele>
        <time>2026-01-04T00:58:33Z</time>
      </trkpt>
      <trkpt lat="38.128627678379416" lon="140.45611479319632">
        <ele>1616.5899999999999</ele>
        <time>2026-01-04T00:58:46Z</time>
      </trkpt>
      <trkpt lat="38.128624493256211" lon="140.45611278153956">
        <ele>1616.5899999999999</ele>
        <time>2026-01-04T00:58:47Z</time>
      </trkpt>
      <trkpt lat="38.128605801612139" lon="140.45609576627612">
        <ele>1618.04</ele>
        <time>2026-01-04T00:58:53Z</time>
      </trkpt>
      <trkpt lat="38.128572609275579" lon="140.45606265775859">
        <ele>1618.04</ele>
        <time>2026-01-04T00:59:09Z</time>
      </trkpt>
      <trkpt lat="38.12856774777174" lon="140.45605662278831">
        <ele>1617.0699999999999</ele>
        <time>2026-01-04T00:59:11Z</time>
      </trkpt>
      <trkpt lat="38.128569759428501" lon="140.45599426142871">
        <ele>1619.48</ele>
        <time>2026-01-04T00:59:28Z</time>
      </trkpt>
      <trkpt lat="38.128564227372408" lon="140.45597003772855">
        <ele>1619.96</ele>
        <time>2026-01-04T00:59:35Z</time>
      </trkpt>
      <trkpt lat="38.128559617325664" lon="140.45588563196361">
        <ele>1622.3599999999999</ele>
        <time>2026-01-04T00:59:50Z</time>
      </trkpt>
      <trkpt lat="38.128550732508302" lon="140.4558052495122">
        <ele>1623.3199999999999</ele>
        <time>2026-01-04T01:00:06Z</time>
      </trkpt>
      <trkpt lat="38.12854721210897" lon="140.45576979406178">
        <ele>1623.3199999999999</ele>
        <time>2026-01-04T01:00:17Z</time>
      </trkpt>
      <trkpt lat="38.128544865176082" lon="140.45576769858599">
        <ele>1624.77</ele>
        <time>2026-01-04T01:00:21Z</time>
      </trkpt>
      <trkpt lat="38.128537740558386" lon="140.45576250180602">
        <ele>1625.25</ele>
        <time>2026-01-04T01:00:40Z</time>
      </trkpt>
      <trkpt lat="38.128537070006132" lon="140.45576124452055">
        <ele>1628.6099999999999</ele>
        <time>2026-01-04T01:00:44Z</time>
      </trkpt>
      <trkpt lat="38.128539668396115" lon="140.4557584784925">
        <ele>1626.21</ele>
        <time>2026-01-04T01:00:48Z</time>
      </trkpt>
      <trkpt lat="38.128543524071574" lon="140.45575981959701">
        <ele>1627.1700000000001</ele>
        <time>2026-01-04T01:01:14Z</time>
      </trkpt>
      <trkpt lat="38.128547044470906" lon="140.45576124452055">
        <ele>1625.25</ele>
        <time>2026-01-04T01:01:30Z</time>
      </trkpt>
      <trkpt lat="38.128546960651875" lon="140.45576174743474">
        <ele>1626.21</ele>
        <time>2026-01-04T01:01:33Z</time>
      </trkpt>
      <trkpt lat="38.128546793013811" lon="140.45575655065477">
        <ele>1625.73</ele>
        <time>2026-01-04T01:01:43Z</time>
      </trkpt>
      <trkpt lat="38.128549475222826" lon="140.4557547904551">
        <ele>1627.6500000000001</ele>
        <time>2026-01-04T01:01:46Z</time>
      </trkpt>
      <trkpt lat="38.128549559041858" lon="140.45575286261737">
        <ele>1625.25</ele>
        <time>2026-01-04T01:01:50Z</time>
      </trkpt>
      <trkpt lat="38.12854478135705" lon="140.45575487427413">
        <ele>1625.25</ele>
        <time>2026-01-04T01:02:02Z</time>
      </trkpt>
      <trkpt lat="38.128545619547367" lon="140.45575898140669">
        <ele>1627.1700000000001</ele>
        <time>2026-01-04T01:02:06Z</time>
      </trkpt>
      <trkpt lat="38.128545032814145" lon="140.45575814321637">
        <ele>1625.73</ele>
        <time>2026-01-04T01:02:08Z</time>
      </trkpt>
      <trkpt lat="38.128545368090272" lon="140.45575638301671">
        <ele>1627.1700000000001</ele>
        <time>2026-01-04T01:02:12Z</time>
      </trkpt>
      <trkpt lat="38.128545200452209" lon="140.45575244352221">
        <ele>1625.73</ele>
        <time>2026-01-04T01:02:14Z</time>
      </trkpt>
      <trkpt lat="38.128543188795447" lon="140.45575076714158">
        <ele>1627.1700000000001</ele>
        <time>2026-01-04T01:02:24Z</time>
      </trkpt>
      <trkpt lat="38.128541009500623" lon="140.45575194060802">
        <ele>1625.25</ele>
        <time>2026-01-04T01:02:27Z</time>
      </trkpt>
      <trkpt lat="38.128536231815815" lon="140.45575395226479">
        <ele>1625.25</ele>
        <time>2026-01-04T01:02:34Z</time>
      </trkpt>
      <trkpt lat="38.128542937338352" lon="140.45576049014926">
        <ele>1623.8</ele>
        <time>2026-01-04T01:02:42Z</time>
      </trkpt>
      <trkpt lat="38.128548469394445" lon="140.45575956813991">
        <ele>1627.6500000000001</ele>
        <time>2026-01-04T01:02:46Z</time>
      </trkpt>
      <trkpt lat="38.128547966480255" lon="140.45575839467347">
        <ele>1627.6500000000001</ele>
        <time>2026-01-04T01:02:47Z</time>
      </trkpt>
      <trkpt lat="38.128547631204128" lon="140.45575303025544">
        <ele>1625.73</ele>
        <time>2026-01-04T01:02:50Z</time>
      </trkpt>
      <trkpt lat="38.128548301756382" lon="140.45575655065477">
        <ele>1627.1700000000001</ele>
        <time>2026-01-04T01:02:54Z</time>
      </trkpt>
      <trkpt lat="38.128550397232175" lon="140.45576266944408">
        <ele>1624.77</ele>
        <time>2026-01-04T01:02:57Z</time>
      </trkpt>
      <trkpt lat="38.12855115160346" lon="140.45576199889183">
        <ele>1628.1300000000001</ele>
        <time>2026-01-04T01:02:59Z</time>
      </trkpt>
      <trkpt lat="38.128551822155714" lon="140.45576208271086">
        <ele>1628.1300000000001</ele>
        <time>2026-01-04T01:03:00Z</time>
      </trkpt>
      <trkpt lat="38.128552325069904" lon="140.45576241798699">
        <ele>1626.21</ele>
        <time>2026-01-04T01:03:02Z</time>
      </trkpt>
      <trkpt lat="38.128551738336682" lon="140.45576669275761">
        <ele>1627.6500000000001</ele>
        <time>2026-01-04T01:03:07Z</time>
      </trkpt>
      <trkpt lat="38.12855115160346" lon="140.45576627366245">
        <ele>1619.96</ele>
        <time>2026-01-04T01:03:09Z</time>
      </trkpt>
      <trkpt lat="38.128550983965397" lon="140.45576971024275">
        <ele>1632.46</ele>
        <time>2026-01-04T01:03:11Z</time>
      </trkpt>
      <trkpt lat="38.128550732508302" lon="140.45577054843307">
        <ele>1624.77</ele>
        <time>2026-01-04T01:03:12Z</time>
      </trkpt>
      <trkpt lat="38.128549056127667" lon="140.45576903969049">
        <ele>1630.53</ele>
        <time>2026-01-04T01:03:14Z</time>
      </trkpt>
      <trkpt lat="38.128549978137016" lon="140.45576769858599">
        <ele>1635.3399999999999</ele>
        <time>2026-01-04T01:03:15Z</time>
      </trkpt>
      <trkpt lat="38.128551067784429" lon="140.45576795004308">
        <ele>1628.1300000000001</ele>
        <time>2026-01-04T01:03:16Z</time>
      </trkpt>
      <trkpt lat="38.128551822155714" lon="140.45576727949083">
        <ele>1624.28</ele>
        <time>2026-01-04T01:03:17Z</time>
      </trkpt>
      <trkpt lat="38.128552157431841" lon="140.45576761476696">
        <ele>1629.5699999999999</ele>
        <time>2026-01-04T01:03:18Z</time>
      </trkpt>
      <trkpt lat="38.128552911803126" lon="140.45576744712889">
        <ele>1626.21</ele>
        <time>2026-01-04T01:03:19Z</time>
      </trkpt>
      <trkpt lat="38.128554588183761" lon="140.45575353316963">
        <ele>1627.6500000000001</ele>
        <time>2026-01-04T01:03:22Z</time>
      </trkpt>
      <trkpt lat="38.128549642860889" lon="140.45575520955026">
        <ele>1625.25</ele>
        <time>2026-01-04T01:03:27Z</time>
      </trkpt>
      <trkpt lat="38.128544362261891" lon="140.45575722120702">
        <ele>1623.8</ele>
        <time>2026-01-04T01:03:30Z</time>
      </trkpt>
      <trkpt lat="38.128545535728335" lon="140.4557616636157">
        <ele>1626.21</ele>
        <time>2026-01-04T01:03:32Z</time>
      </trkpt>
      <trkpt lat="38.128546793013811" lon="140.45576300472021">
        <ele>1629.5699999999999</ele>
        <time>2026-01-04T01:03:34Z</time>
      </trkpt>
      <trkpt lat="38.128546206280589" lon="140.45576434582472">
        <ele>1629.5699999999999</ele>
        <time>2026-01-04T01:03:35Z</time>
      </trkpt>
      <trkpt lat="38.128545787185431" lon="140.45576317235827">
        <ele>1625.73</ele>
        <time>2026-01-04T01:03:38Z</time>
      </trkpt>
      <trkpt lat="38.128548385575414" lon="140.45575990341604">
        <ele>1628.6099999999999</ele>
        <time>2026-01-04T01:03:40Z</time>
      </trkpt>
      <trkpt lat="38.128548469394445" lon="140.4557619150728">
        <ele>1631.49</ele>
        <time>2026-01-04T01:03:42Z</time>
      </trkpt>
      <trkpt lat="38.128548469394445" lon="140.4557637590915">
        <ele>1628.6099999999999</ele>
        <time>2026-01-04T01:03:44Z</time>
      </trkpt>
      <trkpt lat="38.128549475222826" lon="140.45576308853924">
        <ele>1628.6099999999999</ele>
        <time>2026-01-04T01:03:45Z</time>
      </trkpt>
      <trkpt lat="38.128552576526999" lon="140.45576266944408">
        <ele>1626.21</ele>
        <time>2026-01-04T01:03:51Z</time>
      </trkpt>
      <trkpt lat="38.128558108583093" lon="140.45575965195894">
        <ele>1621.8800000000001</ele>
        <time>2026-01-04T01:03:59Z</time>
      </trkpt>
      <trkpt lat="38.12855844385922" lon="140.45575998723507">
        <ele>1621.8800000000001</ele>
        <time>2026-01-04T01:04:00Z</time>
      </trkpt>
      <trkpt lat="38.12855995260179" lon="140.45575814321637">
        <ele>1628.1300000000001</ele>
        <time>2026-01-04T01:04:01Z</time>
      </trkpt>
      <trkpt lat="38.128560120239854" lon="140.45575554482639">
        <ele>1628.1300000000001</ele>
        <time>2026-01-04T01:04:02Z</time>
      </trkpt>
      <trkpt lat="38.128559868782759" lon="140.45575261116028">
        <ele>1626.6900000000001</ele>
        <time>2026-01-04T01:04:04Z</time>
      </trkpt>
      <trkpt lat="38.128558527678251" lon="140.45575353316963">
        <ele>1625.25</ele>
        <time>2026-01-04T01:04:10Z</time>
      </trkpt>
      <trkpt lat="38.128558611497283" lon="140.45575445517898">
        <ele>1627.1700000000001</ele>
        <time>2026-01-04T01:04:12Z</time>
      </trkpt>
      <trkpt lat="38.128553498536348" lon="140.4557550419122">
        <ele>1624.77</ele>
        <time>2026-01-04T01:04:16Z</time>
      </trkpt>
      <trkpt lat="38.128553498536348" lon="140.45575537718832">
        <ele>1628.6099999999999</ele>
        <time>2026-01-04T01:04:17Z</time>
      </trkpt>
      <trkpt lat="38.128550983965397" lon="140.45575537718832">
        <ele>1629.5699999999999</ele>
        <time>2026-01-04T01:04:27Z</time>
      </trkpt>
      <trkpt lat="38.128552576526999" lon="140.45575227588415">
        <ele>1626.6900000000001</ele>
        <time>2026-01-04T01:04:32Z</time>
      </trkpt>
      <trkpt lat="38.128548469394445" lon="140.45575227588415">
        <ele>1623.3199999999999</ele>
        <time>2026-01-04T01:04:37Z</time>
      </trkpt>
      <trkpt lat="38.12854721210897" lon="140.45575194060802">
        <ele>1626.6900000000001</ele>
        <time>2026-01-04T01:04:39Z</time>
      </trkpt>
      <trkpt lat="38.128547128289938" lon="140.45575252734125">
        <ele>1626.6900000000001</ele>
        <time>2026-01-04T01:04:40Z</time>
      </trkpt>
      <trkpt lat="38.128554504364729" lon="140.45575378462672">
        <ele>1630.53</ele>
        <time>2026-01-04T01:04:56Z</time>
      </trkpt>
      <trkpt lat="38.128555091097951" lon="140.45575520955026">
        <ele>1630.53</ele>
        <time>2026-01-04T01:04:57Z</time>
      </trkpt>
      <trkpt lat="38.128551654517651" lon="140.45575872994959">
        <ele>1626.21</ele>
        <time>2026-01-04T01:05:02Z</time>
      </trkpt>
      <trkpt lat="38.128551486879587" lon="140.45575470663607">
        <ele>1629.0899999999999</ele>
        <time>2026-01-04T01:05:04Z</time>
      </trkpt>
      <trkpt lat="38.128549810498953" lon="140.4557495098561">
        <ele>1625.73</ele>
        <time>2026-01-04T01:05:09Z</time>
      </trkpt>
      <trkpt lat="38.128548804670572" lon="140.45574615709484">
        <ele>1626.21</ele>
        <time>2026-01-04T01:05:14Z</time>
      </trkpt>
      <trkpt lat="38.128559114411473" lon="140.45575261116028">
        <ele>1622.8399999999999</ele>
        <time>2026-01-04T01:05:26Z</time>
      </trkpt>
      <trkpt lat="38.128559282049537" lon="140.45576225034893">
        <ele>1625.73</ele>
        <time>2026-01-04T01:05:30Z</time>
      </trkpt>
      <trkpt lat="38.128556767478585" lon="140.45576417818666">
        <ele>1629.5699999999999</ele>
        <time>2026-01-04T01:05:32Z</time>
      </trkpt>
      <trkpt lat="38.128551486879587" lon="140.45576426200569">
        <ele>1631.01</ele>
        <time>2026-01-04T01:05:35Z</time>
      </trkpt>
      <trkpt lat="38.128549642860889" lon="140.45576116070151">
        <ele>1627.1700000000001</ele>
        <time>2026-01-04T01:05:38Z</time>
      </trkpt>
      <trkpt lat="38.128554001450539" lon="140.45575638301671">
        <ele>1630.05</ele>
        <time>2026-01-04T01:05:43Z</time>
      </trkpt>
      <trkpt lat="38.128564059734344" lon="140.45574640855193">
        <ele>1628.1300000000001</ele>
        <time>2026-01-04T01:06:00Z</time>
      </trkpt>
      <trkpt lat="38.128564730286598" lon="140.4557566344738">
        <ele>1629.0899999999999</ele>
        <time>2026-01-04T01:06:24Z</time>
      </trkpt>
      <trkpt lat="38.128568166866899" lon="140.45576157979667">
        <ele>1627.6500000000001</ele>
        <time>2026-01-04T01:06:27Z</time>
      </trkpt>
      <trkpt lat="38.128566825762391" lon="140.45575956813991">
        <ele>1629.5699999999999</ele>
        <time>2026-01-04T01:06:32Z</time>
      </trkpt>
      <trkpt lat="38.128561796620488" lon="140.45575127005577">
        <ele>1629.5699999999999</ele>
        <time>2026-01-04T01:06:45Z</time>
      </trkpt>
      <trkpt lat="38.128557354211807" lon="140.45575093477964">
        <ele>1631.01</ele>
        <time>2026-01-04T01:06:52Z</time>
      </trkpt>
      <trkpt lat="38.128560036420822" lon="140.45575219206512">
        <ele>1629.5699999999999</ele>
        <time>2026-01-04T01:06:54Z</time>
      </trkpt>
      <trkpt lat="38.128561964258552" lon="140.45574875548482">
        <ele>1626.21</ele>
        <time>2026-01-04T01:07:00Z</time>
      </trkpt>
      <trkpt lat="38.128561042249203" lon="140.4557479172945">
        <ele>1626.21</ele>
        <time>2026-01-04T01:07:01Z</time>
      </trkpt>
      <trkpt lat="38.128561042249203" lon="140.45574649237096">
        <ele>1629.5699999999999</ele>
        <time>2026-01-04T01:07:03Z</time>
      </trkpt>
      <trkpt lat="38.128560706973076" lon="140.45574640855193">
        <ele>1629.5699999999999</ele>
        <time>2026-01-04T01:07:04Z</time>
      </trkpt>
      <trkpt lat="38.128559533506632" lon="140.4557582270354">
        <ele>1629.5699999999999</ele>
        <time>2026-01-04T01:07:11Z</time>
      </trkpt>
      <trkpt lat="38.128558108583093" lon="140.45575219206512">
        <ele>1627.6500000000001</ele>
        <time>2026-01-04T01:07:19Z</time>
      </trkpt>
      <trkpt lat="38.128565652295947" lon="140.45574163086712">
        <ele>1626.21</ele>
        <time>2026-01-04T01:07:38Z</time>
      </trkpt>
      <trkpt lat="38.128563975915313" lon="140.45573869720101">
        <ele>1629.0899999999999</ele>
        <time>2026-01-04T01:07:41Z</time>
      </trkpt>
      <trkpt lat="38.128565568476915" lon="140.45573769137263">
        <ele>1625.73</ele>
        <time>2026-01-04T01:07:59Z</time>
      </trkpt>
      <trkpt lat="38.128567328676581" lon="140.45574054121971">
        <ele>1627.6500000000001</ele>
        <time>2026-01-04T01:08:02Z</time>
      </trkpt>
      <trkpt lat="38.128569172695279" lon="140.45574171468616">
        <ele>1631.49</ele>
        <time>2026-01-04T01:08:11Z</time>
      </trkpt>
      <trkpt lat="38.128570010885596" lon="140.45574204996228">
        <ele>1631.49</ele>
        <time>2026-01-04T01:08:12Z</time>
      </trkpt>
      <trkpt lat="38.128568418323994" lon="140.45573752373457">
        <ele>1627.6500000000001</ele>
        <time>2026-01-04T01:08:18Z</time>
      </trkpt>
      <trkpt lat="38.128564478829503" lon="140.45574012212455">
        <ele>1628.1300000000001</ele>
        <time>2026-01-04T01:08:28Z</time>
      </trkpt>
      <trkpt lat="38.128578728064895" lon="140.45571346767247">
        <ele>1625.25</ele>
        <time>2026-01-04T01:08:47Z</time>
      </trkpt>
      <trkpt lat="38.128576800227165" lon="140.45568597503006">
        <ele>1626.6900000000001</ele>
        <time>2026-01-04T01:08:53Z</time>
      </trkpt>
      <trkpt lat="38.128552911803126" lon="140.45561011880636">
        <ele>1625.25</ele>
        <time>2026-01-04T01:09:06Z</time>
      </trkpt>
      <trkpt lat="38.12854478135705" lon="140.45555672608316">
        <ele>1629.0899999999999</ele>
        <time>2026-01-04T01:09:14Z</time>
      </trkpt>
      <trkpt lat="38.128538662567735" lon="140.45546729117632">
        <ele>1630.05</ele>
        <time>2026-01-04T01:09:27Z</time>
      </trkpt>
      <trkpt lat="38.128539500758052" lon="140.45541037805378">
        <ele>1633.9000000000001</ele>
        <time>2026-01-04T01:09:37Z</time>
      </trkpt>
      <trkpt lat="38.128538243472576" lon="140.45540300197899">
        <ele>1633.9000000000001</ele>
        <time>2026-01-04T01:09:38Z</time>
      </trkpt>
      <trkpt lat="38.128541428595781" lon="140.45537986792624">
        <ele>1631.98</ele>
        <time>2026-01-04T01:09:42Z</time>
      </trkpt>
      <trkpt lat="38.128542602062225" lon="140.45534818433225">
        <ele>1632.9400000000001</ele>
        <time>2026-01-04T01:09:47Z</time>
      </trkpt>
      <trkpt lat="38.128536315634847" lon="140.45525715686381">
        <ele>1634.8599999999999</ele>
        <time>2026-01-04T01:10:02Z</time>
      </trkpt>
      <trkpt lat="38.128537740558386" lon="140.45524776913226">
        <ele>1633.4200000000001</ele>
        <time>2026-01-04T01:10:04Z</time>
      </trkpt>
      <trkpt lat="38.128541428595781" lon="140.45520753599703">
        <ele>1633.9000000000001</ele>
        <time>2026-01-04T01:10:11Z</time>
      </trkpt>
      <trkpt lat="38.128549139946699" lon="140.45514584518969">
        <ele>1636.78</ele>
        <time>2026-01-04T01:10:21Z</time>
      </trkpt>
      <trkpt lat="38.128548469394445" lon="140.45507627539337">
        <ele>1635.8199999999999</ele>
        <time>2026-01-04T01:10:33Z</time>
      </trkpt>
      <trkpt lat="38.128548553213477" lon="140.45497099868953">
        <ele>1638.7</ele>
        <time>2026-01-04T01:10:47Z</time>
      </trkpt>
      <trkpt lat="38.128551570698619" lon="140.454937890172">
        <ele>1640.1500000000001</ele>
        <time>2026-01-04T01:10:53Z</time>
      </trkpt>
      <trkpt lat="38.128553330898285" lon="140.45484283939004">
        <ele>1641.5899999999999</ele>
        <time>2026-01-04T01:11:09Z</time>
      </trkpt>
      <trkpt lat="38.128547631204128" lon="140.45474879443645">
        <ele>1642.0699999999999</ele>
        <time>2026-01-04T01:11:23Z</time>
      </trkpt>
      <trkpt lat="38.128551570698619" lon="140.45470093376935">
        <ele>1643.03</ele>
        <time>2026-01-04T01:11:32Z</time>
      </trkpt>
      <trkpt lat="38.128571100533009" lon="140.45462398789823">
        <ele>1644.95</ele>
        <time>2026-01-04T01:11:43Z</time>
      </trkpt>
      <trkpt lat="38.128572693094611" lon="140.45460211113095">
        <ele>1643.51</ele>
        <time>2026-01-04T01:11:46Z</time>
      </trkpt>
      <trkpt lat="38.128579733893275" lon="140.45450638979673">
        <ele>1644.95</ele>
        <time>2026-01-04T01:12:01Z</time>
      </trkpt>
      <trkpt lat="38.128580236807466" lon="140.45450177974999">
        <ele>1644.95</ele>
        <time>2026-01-04T01:12:02Z</time>
      </trkpt>
      <trkpt lat="38.128586271777749" lon="140.45445006340742">
        <ele>1645.9100000000001</ele>
        <time>2026-01-04T01:12:17Z</time>
      </trkpt>
      <trkpt lat="38.128591887652874" lon="140.4544267617166">
        <ele>1646.4000000000001</ele>
        <time>2026-01-04T01:12:23Z</time>
      </trkpt>
      <trkpt lat="38.128604544326663" lon="140.454330034554">
        <ele>1646.4000000000001</ele>
        <time>2026-01-04T01:12:38Z</time>
      </trkpt>
      <trkpt lat="38.128610830754042" lon="140.45427521690726">
        <ele>1645.9100000000001</ele>
        <time>2026-01-04T01:12:49Z</time>
      </trkpt>
      <trkpt lat="38.128608567640185" lon="140.45425510033965">
        <ele>1647.8399999999999</ele>
        <time>2026-01-04T01:12:52Z</time>
      </trkpt>
      <trkpt lat="38.128618458285928" lon="140.45415116474032">
        <ele>1649.76</ele>
        <time>2026-01-04T01:13:08Z</time>
      </trkpt>
      <trkpt lat="38.128617033362389" lon="140.4540382605046">
        <ele>1650.24</ele>
        <time>2026-01-04T01:13:23Z</time>
      </trkpt>
      <trkpt lat="38.128603873774409" lon="140.4539555311203">
        <ele>1650.72</ele>
        <time>2026-01-04T01:13:37Z</time>
      </trkpt>
      <trkpt lat="38.128592893481255" lon="140.4539140406996">
        <ele>1651.6800000000001</ele>
        <time>2026-01-04T01:13:48Z</time>
      </trkpt>
      <trkpt lat="38.12858585268259" lon="140.45387565158308">
        <ele>1649.76</ele>
        <time>2026-01-04T01:13:56Z</time>
      </trkpt>
      <trkpt lat="38.128579230979085" lon="140.45384547673166">
        <ele>1652.1600000000001</ele>
        <time>2026-01-04T01:14:01Z</time>
      </trkpt>
      <trkpt lat="38.128577470779419" lon="140.45382795855403">
        <ele>1650.72</ele>
        <time>2026-01-04T01:14:04Z</time>
      </trkpt>
      <trkpt lat="38.128573447465897" lon="140.45381513424218">
        <ele>1652.1600000000001</ele>
        <time>2026-01-04T01:14:06Z</time>
      </trkpt>
      <trkpt lat="38.128569591790438" lon="140.45377062633634">
        <ele>1651.6800000000001</ele>
        <time>2026-01-04T01:14:14Z</time>
      </trkpt>
      <trkpt lat="38.128568837419152" lon="140.45375939458609">
        <ele>1652.6400000000001</ele>
        <time>2026-01-04T01:14:16Z</time>
      </trkpt>
      <trkpt lat="38.128549056127667" lon="140.45365202240646">
        <ele>1655.53</ele>
        <time>2026-01-04T01:14:34Z</time>
      </trkpt>
      <trkpt lat="38.128547463566065" lon="140.45362947508693">
        <ele>1656.97</ele>
        <time>2026-01-04T01:14:38Z</time>
      </trkpt>
      <trkpt lat="38.128544110804796" lon="140.45356904156506">
        <ele>1658.4100000000001</ele>
        <time>2026-01-04T01:14:48Z</time>
      </trkpt>
      <trkpt lat="38.128554755821824" lon="140.4534705542028">
        <ele>1658.8900000000001</ele>
        <time>2026-01-04T01:15:02Z</time>
      </trkpt>
      <trkpt lat="38.128560455515981" lon="140.45341204851866">
        <ele>1660.3299999999999</ele>
        <time>2026-01-04T01:15:14Z</time>
      </trkpt>
      <trkpt lat="38.128577554598451" lon="140.45332848094404">
        <ele>1661.3</ele>
        <time>2026-01-04T01:15:27Z</time>
      </trkpt>
      <trkpt lat="38.128577554598451" lon="140.45327642932534">
        <ele>1660.8099999999999</ele>
        <time>2026-01-04T01:15:35Z</time>
      </trkpt>
      <trkpt lat="38.128580069169402" lon="140.45319948345423">
        <ele>1662.74</ele>
        <time>2026-01-04T01:15:50Z</time>
      </trkpt>
      <trkpt lat="38.128581158816814" lon="140.45319235883653">
        <ele>1662.74</ele>
        <time>2026-01-04T01:15:51Z</time>
      </trkpt>
      <trkpt lat="38.128582667559385" lon="140.45314743183553">
        <ele>1662.74</ele>
        <time>2026-01-04T01:15:59Z</time>
      </trkpt>
      <trkpt lat="38.128580991178751" lon="140.45306269079447">
        <ele>1665.1400000000001</ele>
        <time>2026-01-04T01:16:15Z</time>
      </trkpt>
      <trkpt lat="38.128589624539018" lon="140.45296956785023">
        <ele>1667.0599999999999</ele>
        <time>2026-01-04T01:16:31Z</time>
      </trkpt>
      <trkpt lat="38.128588534891605" lon="140.45288382098079">
        <ele>1668.02</ele>
        <time>2026-01-04T01:16:47Z</time>
      </trkpt>
      <trkpt lat="38.128595994785428" lon="140.4527881834656">
        <ele>1669.47</ele>
        <time>2026-01-04T01:17:02Z</time>
      </trkpt>
      <trkpt lat="38.128608735278249" lon="140.4527120757848">
        <ele>1670.4300000000001</ele>
        <time>2026-01-04T01:17:17Z</time>
      </trkpt>
      <trkpt lat="38.128612758591771" lon="140.45269950293005">
        <ele>1671.8699999999999</ele>
        <time>2026-01-04T01:17:20Z</time>
      </trkpt>
      <trkpt lat="38.128619799390435" lon="140.4526467807591">
        <ele>1670.9100000000001</ele>
        <time>2026-01-04T01:17:30Z</time>
      </trkpt>
      <trkpt lat="38.128621559590101" lon="140.45263789594173">
        <ele>1672.3499999999999</ele>
        <time>2026-01-04T01:17:32Z</time>
      </trkpt>
      <trkpt lat="38.128623990342021" lon="140.45258483849466">
        <ele>1674.27</ele>
        <time>2026-01-04T01:17:42Z</time>
      </trkpt>
      <trkpt lat="38.128627929836512" lon="140.45252021402121">
        <ele>1676.6800000000001</ele>
        <time>2026-01-04T01:17:57Z</time>
      </trkpt>
      <trkpt lat="38.128627678379416" lon="140.45251845382154">
        <ele>1675.23</ele>
        <time>2026-01-04T01:17:59Z</time>
      </trkpt>
      <trkpt lat="38.128627762198448" lon="140.45251694507897">
        <ele>1677.1600000000001</ele>
        <time>2026-01-04T01:18:01Z</time>
      </trkpt>
      <trkpt lat="38.128629606217146" lon="140.45249045826495">
        <ele>1675.72</ele>
        <time>2026-01-04T01:18:15Z</time>
      </trkpt>
      <trkpt lat="38.128623319789767" lon="140.45247319154441">
        <ele>1677.1600000000001</ele>
        <time>2026-01-04T01:18:20Z</time>
      </trkpt>
      <trkpt lat="38.12861954793334" lon="140.45246581546962">
        <ele>1675.72</ele>
        <time>2026-01-04T01:18:22Z</time>
      </trkpt>
      <trkpt lat="38.128615524619818" lon="140.45244771055877">
        <ele>1678.5999999999999</ele>
        <time>2026-01-04T01:18:27Z</time>
      </trkpt>
      <trkpt lat="38.128616781905293" lon="140.45239389874041">
        <ele>1679.5599999999999</ele>
        <time>2026-01-04T01:18:42Z</time>
      </trkpt>
      <trkpt lat="38.128610495477915" lon="140.45234612189233">
        <ele>1681</ele>
        <time>2026-01-04T01:19:00Z</time>
      </trkpt>
      <trkpt lat="38.128615440800786" lon="140.45231971889734">
        <ele>1681</ele>
        <time>2026-01-04T01:19:11Z</time>
      </trkpt>
      <trkpt lat="38.128617955371737" lon="140.45231301337481">
        <ele>1682.4400000000001</ele>
        <time>2026-01-04T01:19:15Z</time>
      </trkpt>
      <trkpt lat="38.128633629530668" lon="140.45225475914776">
        <ele>1683.8900000000001</ele>
        <time>2026-01-04T01:19:32Z</time>
      </trkpt>
      <trkpt lat="38.128643520176411" lon="140.45221662148833">
        <ele>1683.8900000000001</ele>
        <time>2026-01-04T01:19:43Z</time>
      </trkpt>
      <trkpt lat="38.128644023090601" lon="140.45221058651805">
        <ele>1685.3299999999999</ele>
        <time>2026-01-04T01:19:45Z</time>
      </trkpt>
      <trkpt lat="38.128656512126327" lon="140.45216591097414">
        <ele>1685.3299999999999</ele>
        <time>2026-01-04T01:20:05Z</time>
      </trkpt>
      <trkpt lat="38.128684088587761" lon="140.45208158902824">
        <ele>1687.25</ele>
        <time>2026-01-04T01:20:21Z</time>
      </trkpt>
      <trkpt lat="38.128657937049866" lon="140.45202090404928">
        <ele>1688.6900000000001</ele>
        <time>2026-01-04T01:20:34Z</time>
      </trkpt>
      <trkpt lat="38.128642095252872" lon="140.45194052159786">
        <ele>1692.0599999999999</ele>
        <time>2026-01-04T01:20:48Z</time>
      </trkpt>
      <trkpt lat="38.128638658672571" lon="140.45190883800387">
        <ele>1692.54</ele>
        <time>2026-01-04T01:20:53Z</time>
      </trkpt>
      <trkpt lat="38.128631785511971" lon="140.45183935202658">
        <ele>1693.5</ele>
        <time>2026-01-04T01:21:06Z</time>
      </trkpt>
      <trkpt lat="38.12861904501915" lon="140.45176081359386">
        <ele>1693.98</ele>
        <time>2026-01-04T01:21:21Z</time>
      </trkpt>
      <trkpt lat="38.128618458285928" lon="140.45174773782492">
        <ele>1695.4200000000001</ele>
        <time>2026-01-04T01:21:23Z</time>
      </trkpt>
      <trkpt lat="38.128608483821154" lon="140.45168923214078">
        <ele>1696.8599999999999</ele>
        <time>2026-01-04T01:21:33Z</time>
      </trkpt>
      <trkpt lat="38.128604292869568" lon="140.45168043114245">
        <ele>1693.02</ele>
        <time>2026-01-04T01:21:36Z</time>
      </trkpt>
      <trkpt lat="38.128599263727665" lon="140.45165671035647">
        <ele>1696.8599999999999</ele>
        <time>2026-01-04T01:21:40Z</time>
      </trkpt>
      <trkpt lat="38.128598006442189" lon="140.45164958573878">
        <ele>1696.8599999999999</ele>
        <time>2026-01-04T01:21:41Z</time>
      </trkpt>
      <trkpt lat="38.128591552376747" lon="140.4515706282109">
        <ele>1697.8299999999999</ele>
        <time>2026-01-04T01:21:55Z</time>
      </trkpt>
      <trkpt lat="38.128577638417482" lon="140.45150114223361">
        <ele>1698.79</ele>
        <time>2026-01-04T01:22:09Z</time>
      </trkpt>
      <trkpt lat="38.128562215715647" lon="140.45144875533879">
        <ele>1702.1500000000001</ele>
        <time>2026-01-04T01:22:21Z</time>
      </trkpt>
      <trkpt lat="38.128536734730005" lon="140.451425537467">
        <ele>1701.1900000000001</ele>
        <time>2026-01-04T01:22:30Z</time>
      </trkpt>
      <trkpt lat="38.128529358655214" lon="140.4514170717448">
        <ele>1703.1099999999999</ele>
        <time>2026-01-04T01:22:32Z</time>
      </trkpt>
      <trkpt lat="38.128515193238854" lon="140.45136049389839">
        <ele>1705.04</ele>
        <time>2026-01-04T01:22:50Z</time>
      </trkpt>
      <trkpt lat="38.128509493544698" lon="140.45129494741559">
        <ele>1708.8800000000001</ele>
        <time>2026-01-04T01:23:01Z</time>
      </trkpt>
      <trkpt lat="38.128509158268571" lon="140.45129008591175">
        <ele>1708.8800000000001</ele>
        <time>2026-01-04T01:23:02Z</time>
      </trkpt>
      <trkpt lat="38.128510164096951" lon="140.45127407647669">
        <ele>1706.96</ele>
        <time>2026-01-04T01:23:05Z</time>
      </trkpt>
      <trkpt lat="38.128507817164063" lon="140.45122839510441">
        <ele>1708.4000000000001</ele>
        <time>2026-01-04T01:23:14Z</time>
      </trkpt>
      <trkpt lat="38.12847294844687" lon="140.45119595713913">
        <ele>1709.3599999999999</ele>
        <time>2026-01-04T01:23:28Z</time>
      </trkpt>
      <trkpt lat="38.128483761101961" lon="140.45116133987904">
        <ele>1712.25</ele>
        <time>2026-01-04T01:23:37Z</time>
      </trkpt>
      <trkpt lat="38.128484515473247" lon="140.45115455053747">
        <ele>1712.25</ele>
        <time>2026-01-04T01:23:38Z</time>
      </trkpt>
      <trkpt lat="38.128489796072245" lon="140.45113359577954">
        <ele>1710.8</ele>
        <time>2026-01-04T01:23:42Z</time>
      </trkpt>
      <trkpt lat="38.128489209339023" lon="140.45112831518054">
        <ele>1712.73</ele>
        <time>2026-01-04T01:23:51Z</time>
      </trkpt>
      <trkpt lat="38.12849247828126" lon="140.45113074593246">
        <ele>1707.9200000000001</ele>
        <time>2026-01-04T01:23:53Z</time>
      </trkpt>
      <trkpt lat="38.128490634262562" lon="140.45113141648471">
        <ele>1716.5699999999999</ele>
        <time>2026-01-04T01:23:54Z</time>
      </trkpt>
      <trkpt lat="38.128472864627838" lon="140.45113351196051">
        <ele>1713.21</ele>
        <time>2026-01-04T01:23:59Z</time>
      </trkpt>
      <trkpt lat="38.128468841314316" lon="140.45113460160792">
        <ele>1716.0899999999999</ele>
        <time>2026-01-04T01:24:00Z</time>
      </trkpt>
      <trkpt lat="38.128432128578424" lon="140.4511097073555">
        <ele>1713.21</ele>
        <time>2026-01-04T01:24:11Z</time>
      </trkpt>
      <trkpt lat="38.128420226275921" lon="140.45105824247003">
        <ele>1716.0899999999999</ele>
        <time>2026-01-04T01:24:20Z</time>
      </trkpt>
      <trkpt lat="38.128423159942031" lon="140.45103661715984">
        <ele>1715.6099999999999</ele>
        <time>2026-01-04T01:24:25Z</time>
      </trkpt>
      <trkpt lat="38.128426009789109" lon="140.45102287083864">
        <ele>1718.49</ele>
        <time>2026-01-04T01:24:28Z</time>
      </trkpt>
      <trkpt lat="38.128436906263232" lon="140.45099001377821">
        <ele>1720.4200000000001</ele>
        <time>2026-01-04T01:24:40Z</time>
      </trkpt>
      <trkpt lat="38.12844411469996" lon="140.45098045840859">
        <ele>1718.97</ele>
        <time>2026-01-04T01:24:44Z</time>
      </trkpt>
      <trkpt lat="38.128432463854551" lon="140.45090929605067">
        <ele>1720.4200000000001</ele>
        <time>2026-01-04T01:24:59Z</time>
      </trkpt>
      <trkpt lat="38.128433553501964" lon="140.45090979896486">
        <ele>1719.46</ele>
        <time>2026-01-04T01:25:02Z</time>
      </trkpt>
      <trkpt lat="38.128401199355721" lon="140.45086797326803">
        <ele>1721.8599999999999</ele>
        <time>2026-01-04T01:25:15Z</time>
      </trkpt>
      <trkpt lat="38.128387033939362" lon="140.45084869489074">
        <ele>1722.3399999999999</ele>
        <time>2026-01-04T01:25:20Z</time>
      </trkpt>
      <trkpt lat="38.128389045596123" lon="140.45083100907505">
        <ele>1724.74</ele>
        <time>2026-01-04T01:25:29Z</time>
      </trkpt>
      <trkpt lat="38.128393739461899" lon="140.450822962448">
        <ele>1723.3</ele>
        <time>2026-01-04T01:25:32Z</time>
      </trkpt>
      <trkpt lat="38.128403378650546" lon="140.45080502517521">
        <ele>1726.6700000000001</ele>
        <time>2026-01-04T01:25:38Z</time>
      </trkpt>
      <trkpt lat="38.128404300659895" lon="140.45079974457622">
        <ele>1726.6700000000001</ele>
        <time>2026-01-04T01:25:39Z</time>
      </trkpt>
      <trkpt lat="38.128400947898626" lon="140.4507986549288">
        <ele>1725.22</ele>
        <time>2026-01-04T01:25:41Z</time>
      </trkpt>
      <trkpt lat="38.12840161845088" lon="140.45078574679792">
        <ele>1726.1800000000001</ele>
        <time>2026-01-04T01:25:45Z</time>
      </trkpt>
      <trkpt lat="38.128398768603802" lon="140.45076412148774">
        <ele>1723.3</ele>
        <time>2026-01-04T01:25:54Z</time>
      </trkpt>
      <trkpt lat="38.12839868478477" lon="140.4507624451071">
        <ele>1723.3</ele>
        <time>2026-01-04T01:25:55Z</time>
      </trkpt>
      <trkpt lat="38.128401786088943" lon="140.45075649395585">
        <ele>1725.22</ele>
        <time>2026-01-04T01:25:57Z</time>
      </trkpt>
      <trkpt lat="38.128399103879929" lon="140.45075532048941">
        <ele>1728.1099999999999</ele>
        <time>2026-01-04T01:25:58Z</time>
      </trkpt>
      <trkpt lat="38.128399103879929" lon="140.45075481757522">
        <ele>1728.1099999999999</ele>
        <time>2026-01-04T01:25:59Z</time>
      </trkpt>
      <trkpt lat="38.128379657864571" lon="140.45074266381562">
        <ele>1726.6700000000001</ele>
        <time>2026-01-04T01:26:07Z</time>
      </trkpt>
      <trkpt lat="38.128366582095623" lon="140.45072958804667">
        <ele>1728.5899999999999</ele>
        <time>2026-01-04T01:26:13Z</time>
      </trkpt>
      <trkpt lat="38.128335736691952" lon="140.45071802102029">
        <ele>1726.6700000000001</ele>
        <time>2026-01-04T01:26:21Z</time>
      </trkpt>
      <trkpt lat="38.128329198807478" lon="140.45071206986904">
        <ele>1728.5899999999999</ele>
        <time>2026-01-04T01:26:24Z</time>
      </trkpt>
      <trkpt lat="38.128290390595794" lon="140.45065239071846">
        <ele>1730.51</ele>
        <time>2026-01-04T01:26:37Z</time>
      </trkpt>
      <trkpt lat="38.128274129703641" lon="140.45059438794851">
        <ele>1731.95</ele>
        <time>2026-01-04T01:26:51Z</time>
      </trkpt>
      <trkpt lat="38.128272788599133" lon="140.45058365911245">
        <ele>1732.9100000000001</ele>
        <time>2026-01-04T01:26:53Z</time>
      </trkpt>
      <trkpt lat="38.128278404474258" lon="140.4505158495158">
        <ele>1734.3599999999999</ele>
        <time>2026-01-04T01:27:08Z</time>
      </trkpt>
      <trkpt lat="38.128276560455561" lon="140.45051082037389">
        <ele>1730.51</ele>
        <time>2026-01-04T01:27:11Z</time>
      </trkpt>
      <trkpt lat="38.128276895731688" lon="140.4505089763552">
        <ele>1730.51</ele>
        <time>2026-01-04T01:27:12Z</time>
      </trkpt>
      <trkpt lat="38.128278069198132" lon="140.45050403103232">
        <ele>1732.9100000000001</ele>
        <time>2026-01-04T01:27:14Z</time>
      </trkpt>
      <trkpt lat="38.128273878246546" lon="140.45047511346638">
        <ele>1735.8</ele>
        <time>2026-01-04T01:27:21Z</time>
      </trkpt>
      <trkpt lat="38.128273542970419" lon="140.45047234743834">
        <ele>1735.8</ele>
        <time>2026-01-04T01:27:22Z</time>
      </trkpt>
      <trkpt lat="38.128275638446212" lon="140.45046471990645">
        <ele>1739.6400000000001</ele>
        <time>2026-01-04T01:27:25Z</time>
      </trkpt>
      <trkpt lat="38.12827748246491" lon="140.45046178624034">
        <ele>1736.76</ele>
        <time>2026-01-04T01:27:26Z</time>
      </trkpt>
      <trkpt lat="38.128271950408816" lon="140.450445022434">
        <ele>1734.3599999999999</ele>
        <time>2026-01-04T01:27:30Z</time>
      </trkpt>
      <trkpt lat="38.128253594040871" lon="140.45040973462164">
        <ele>1733.8800000000001</ele>
        <time>2026-01-04T01:27:41Z</time>
      </trkpt>
      <trkpt lat="38.128249486908317" lon="140.45040336437523">
        <ele>1735.8</ele>
        <time>2026-01-04T01:27:43Z</time>
      </trkpt>
      <trkpt lat="38.12823892571032" lon="140.45037344098091">
        <ele>1739.1600000000001</ele>
        <time>2026-01-04T01:27:52Z</time>
      </trkpt>
      <trkpt lat="38.128236997872591" lon="140.45036572962999">
        <ele>1740.1199999999999</ele>
        <time>2026-01-04T01:27:54Z</time>
      </trkpt>
      <trkpt lat="38.128232723101974" lon="140.45035692863166">
        <ele>1737.24</ele>
        <time>2026-01-04T01:27:56Z</time>
      </trkpt>
      <trkpt lat="38.12823012471199" lon="140.45035315677524">
        <ele>1737.24</ele>
        <time>2026-01-04T01:27:57Z</time>
      </trkpt>
      <trkpt lat="38.128211600705981" lon="140.45033027417958">
        <ele>1740.5999999999999</ele>
        <time>2026-01-04T01:28:04Z</time>
      </trkpt>
      <trkpt lat="38.12819542363286" lon="140.45032289810479">
        <ele>1742.05</ele>
        <time>2026-01-04T01:28:07Z</time>
      </trkpt>
      <trkpt lat="38.128165416419506" lon="140.450304960832">
        <ele>1738.2</ele>
        <time>2026-01-04T01:28:15Z</time>
      </trkpt>
      <trkpt lat="38.128162566572428" lon="140.45030227862298">
        <ele>1742.05</ele>
        <time>2026-01-04T01:28:16Z</time>
      </trkpt>
      <trkpt lat="38.128146389499307" lon="140.45027671381831">
        <ele>1740.1199999999999</ele>
        <time>2026-01-04T01:28:26Z</time>
      </trkpt>
      <trkpt lat="38.128146221861243" lon="140.45027554035187">
        <ele>1743.49</ele>
        <time>2026-01-04T01:28:27Z</time>
      </trkpt>
      <trkpt lat="38.12814555130899" lon="140.45027361251414">
        <ele>1743.49</ele>
        <time>2026-01-04T01:28:28Z</time>
      </trkpt>
      <trkpt lat="38.12814898788929" lon="140.45026145875454">
        <ele>1742.05</ele>
        <time>2026-01-04T01:28:31Z</time>
      </trkpt>
      <trkpt lat="38.12815141864121" lon="140.45026171021163">
        <ele>1737.72</ele>
        <time>2026-01-04T01:28:39Z</time>
      </trkpt>
      <trkpt lat="38.128149658441544" lon="140.45026103965938">
        <ele>1737.72</ele>
        <time>2026-01-04T01:28:40Z</time>
      </trkpt>
      <trkpt lat="38.1281484849751" lon="140.45026078820229">
        <ele>1741.0799999999999</ele>
        <time>2026-01-04T01:28:41Z</time>
      </trkpt>
      <trkpt lat="38.12814898788929" lon="140.45026171021163">
        <ele>1742.53</ele>
        <time>2026-01-04T01:28:43Z</time>
      </trkpt>
      <trkpt lat="38.128148820251226" lon="140.45026388950646">
        <ele>1746.8499999999999</ele>
        <time>2026-01-04T01:28:45Z</time>
      </trkpt>
      <trkpt lat="38.128146221861243" lon="140.45026439242065">
        <ele>1745.8900000000001</ele>
        <time>2026-01-04T01:28:46Z</time>
      </trkpt>
      <trkpt lat="38.128148820251226" lon="140.45026833191514">
        <ele>1741.0799999999999</ele>
        <time>2026-01-04T01:28:49Z</time>
      </trkpt>
      <trkpt lat="38.128148401156068" lon="140.45026791281998">
        <ele>1741.0799999999999</ele>
        <time>2026-01-04T01:28:50Z</time>
      </trkpt>
      <trkpt lat="38.128147562965751" lon="140.45026883482933">
        <ele>1743.01</ele>
        <time>2026-01-04T01:28:52Z</time>
      </trkpt>
      <trkpt lat="38.128148149698973" lon="140.4502721875906">
        <ele>1741.5699999999999</ele>
        <time>2026-01-04T01:28:54Z</time>
      </trkpt>
      <trkpt lat="38.128145635128021" lon="140.45027939602733">
        <ele>1742.05</ele>
        <time>2026-01-04T01:29:07Z</time>
      </trkpt>
      <trkpt lat="38.128149826079607" lon="140.45028677210212">
        <ele>1743.49</ele>
        <time>2026-01-04T01:29:11Z</time>
      </trkpt>
      <trkpt lat="38.128146976232529" lon="140.45028995722532">
        <ele>1740.5999999999999</ele>
        <time>2026-01-04T01:29:14Z</time>
      </trkpt>
      <trkpt lat="38.128144713118672" lon="140.45029054395854">
        <ele>1743.97</ele>
        <time>2026-01-04T01:29:17Z</time>
      </trkpt>
      <trkpt lat="38.128144294023514" lon="140.4502909630537">
        <ele>1743.01</ele>
        <time>2026-01-04T01:29:18Z</time>
      </trkpt>
      <trkpt lat="38.128143036738038" lon="140.4502928070724">
        <ele>1743.49</ele>
        <time>2026-01-04T01:29:22Z</time>
      </trkpt>
      <trkpt lat="38.128128787502646" lon="140.45025936327875">
        <ele>1744.45</ele>
        <time>2026-01-04T01:29:33Z</time>
      </trkpt>
      <trkpt lat="38.128124261274934" lon="140.45024888589978">
        <ele>1742.53</ele>
        <time>2026-01-04T01:29:39Z</time>
      </trkpt>
      <trkpt lat="38.12810892239213" lon="140.45024360530078">
        <ele>1742.53</ele>
        <time>2026-01-04T01:29:43Z</time>
      </trkpt>
      <trkpt lat="38.128101881593466" lon="140.4502425994724">
        <ele>1745.8900000000001</ele>
        <time>2026-01-04T01:29:45Z</time>
      </trkpt>
      <trkpt lat="38.128095595166087" lon="140.45024033635855">
        <ele>1746.3699999999999</ele>
        <time>2026-01-04T01:29:47Z</time>
      </trkpt>
      <trkpt lat="38.128098696470261" lon="140.45023966580629">
        <ele>1743.01</ele>
        <time>2026-01-04T01:29:50Z</time>
      </trkpt>
      <trkpt lat="38.1281069945544" lon="140.45024611987174">
        <ele>1744.45</ele>
        <time>2026-01-04T01:29:53Z</time>
      </trkpt>
      <trkpt lat="38.128106743097305" lon="140.45024234801531">
        <ele>1745.8900000000001</ele>
        <time>2026-01-04T01:29:55Z</time>
      </trkpt>
      <trkpt lat="38.128108168020844" lon="140.45023849233985">
        <ele>1743.97</ele>
        <time>2026-01-04T01:29:57Z</time>
      </trkpt>
      <trkpt lat="38.128108670935035" lon="140.45023321174085">
        <ele>1747.8099999999999</ele>
        <time>2026-01-04T01:29:59Z</time>
      </trkpt>
      <trkpt lat="38.128109844401479" lon="140.45022868551314">
        <ele>1746.8499999999999</ele>
        <time>2026-01-04T01:30:00Z</time>
      </trkpt>
      <trkpt lat="38.128107413649559" lon="140.45021032914519">
        <ele>1744.9300000000001</ele>
        <time>2026-01-04T01:30:04Z</time>
      </trkpt>
      <trkpt lat="38.128109257668257" lon="140.45018694363534">
        <ele>1746.3699999999999</ele>
        <time>2026-01-04T01:30:08Z</time>
      </trkpt>
      <trkpt lat="38.12810942530632" lon="140.45017898082733">
        <ele>1744.45</ele>
        <time>2026-01-04T01:30:10Z</time>
      </trkpt>
      <trkpt lat="38.128102971240878" lon="140.45012349262834">
        <ele>1747.8099999999999</ele>
        <time>2026-01-04T01:30:28Z</time>
      </trkpt>
      <trkpt lat="38.128104228526354" lon="140.45011879876256">
        <ele>1748.29</ele>
        <time>2026-01-04T01:30:29Z</time>
      </trkpt>
      <trkpt lat="38.128108168020844" lon="140.45010714791715">
        <ele>1748.29</ele>
        <time>2026-01-04T01:30:36Z</time>
      </trkpt>
      <trkpt lat="38.128112023696303" lon="140.45010010711849">
        <ele>1747.3299999999999</ele>
        <time>2026-01-04T01:30:42Z</time>
      </trkpt>
      <trkpt lat="38.128109090030193" lon="140.45009491033852">
        <ele>1746.3699999999999</ele>
        <time>2026-01-04T01:30:50Z</time>
      </trkpt>
      <trkpt lat="38.128110431134701" lon="140.45009465888143">
        <ele>1748.29</ele>
        <time>2026-01-04T01:30:54Z</time>
      </trkpt>
      <trkpt lat="38.128109173849225" lon="140.45008552260697">
        <ele>1747.3299999999999</ele>
        <time>2026-01-04T01:30:59Z</time>
      </trkpt>
      <trkpt lat="38.128102384507656" lon="140.45008317567408">
        <ele>1750.7</ele>
        <time>2026-01-04T01:31:06Z</time>
      </trkpt>
      <trkpt lat="38.12808251939714" lon="140.45006699860096">
        <ele>1753.0999999999999</ele>
        <time>2026-01-04T01:31:20Z</time>
      </trkpt>
      <trkpt lat="38.128060642629862" lon="140.45006917789578">
        <ele>1753.5799999999999</ele>
        <time>2026-01-04T01:31:35Z</time>
      </trkpt>
      <trkpt lat="38.128051506355405" lon="140.45006867498159">
        <ele>1755.02</ele>
        <time>2026-01-04T01:31:40Z</time>
      </trkpt>
      <trkpt lat="38.128038682043552" lon="140.45006850734353">
        <ele>1756.95</ele>
        <time>2026-01-04T01:31:48Z</time>
      </trkpt>
      <trkpt lat="38.128032814711332" lon="140.45006892643869">
        <ele>1755.02</ele>
        <time>2026-01-04T01:31:50Z</time>
      </trkpt>
      <trkpt lat="38.128030216321349" lon="140.45006917789578">
        <ele>1757.4300000000001</ele>
        <time>2026-01-04T01:31:53Z</time>
      </trkpt>
      <trkpt lat="38.128030886873603" lon="140.45006968080997">
        <ele>1755.02</ele>
        <time>2026-01-04T01:31:57Z</time>
      </trkpt>
      <trkpt lat="38.128032060340047" lon="140.45006934553385">
        <ele>1757.9100000000001</ele>
        <time>2026-01-04T01:32:00Z</time>
      </trkpt>
      <trkpt lat="38.128016470000148" lon="140.45006322674453">
        <ele>1755.02</ele>
        <time>2026-01-04T01:32:28Z</time>
      </trkpt>
      <trkpt lat="38.127994677051902" lon="140.45007496140897">
        <ele>1755.02</ele>
        <time>2026-01-04T01:32:36Z</time>
      </trkpt>
      <trkpt lat="38.127992497757077" lon="140.45007940381765">
        <ele>1758.8699999999999</ele>
        <time>2026-01-04T01:32:40Z</time>
      </trkpt>
      <trkpt lat="38.127990150824189" lon="140.45007999055088">
        <ele>1758.8699999999999</ele>
        <time>2026-01-04T01:32:41Z</time>
      </trkpt>
      <trkpt lat="38.12798528932035" lon="140.45007940381765">
        <ele>1757.4300000000001</ele>
        <time>2026-01-04T01:32:44Z</time>
      </trkpt>
      <trkpt lat="38.127948911860585" lon="140.4500892944634">
        <ele>1753.0999999999999</ele>
        <time>2026-01-04T01:33:00Z</time>
      </trkpt>
      <trkpt lat="38.127947570756078" lon="140.45008543878794">
        <ele>1752.1400000000001</ele>
        <time>2026-01-04T01:33:02Z</time>
      </trkpt>
      <trkpt lat="38.127947822213173" lon="140.45008225366473">
        <ele>1754.54</ele>
        <time>2026-01-04T01:33:04Z</time>
      </trkpt>
      <trkpt lat="38.127945894375443" lon="140.45007336884737">
        <ele>1752.6199999999999</ele>
        <time>2026-01-04T01:33:09Z</time>
      </trkpt>
      <trkpt lat="38.127944385632873" lon="140.45006750151515">
        <ele>1754.54</ele>
        <time>2026-01-04T01:33:11Z</time>
      </trkpt>
      <trkpt lat="38.1279291305691" lon="140.45002810657024">
        <ele>1755.5</ele>
        <time>2026-01-04T01:33:29Z</time>
      </trkpt>
      <trkpt lat="38.127929633483291" lon="140.45002634637058">
        <ele>1752.1400000000001</ele>
        <time>2026-01-04T01:33:34Z</time>
      </trkpt>
      <trkpt lat="38.127929633483291" lon="140.45002617873251">
        <ele>1752.1400000000001</ele>
        <time>2026-01-04T01:33:35Z</time>
      </trkpt>
      <trkpt lat="38.127931896597147" lon="140.45002651400864">
        <ele>1754.0599999999999</ele>
        <time>2026-01-04T01:33:37Z</time>
      </trkpt>
      <trkpt lat="38.127930723130703" lon="140.45001653954387">
        <ele>1757.4300000000001</ele>
        <time>2026-01-04T01:33:40Z</time>
      </trkpt>
      <trkpt lat="38.127929968759418" lon="140.44998426921666">
        <ele>1755.99</ele>
        <time>2026-01-04T01:33:47Z</time>
      </trkpt>
      <trkpt lat="38.127910774201155" lon="140.44995233416557">
        <ele>1760.3099999999999</ele>
        <time>2026-01-04T01:33:58Z</time>
      </trkpt>
      <trkpt lat="38.127912702038884" lon="140.44995233416557">
        <ele>1755.5</ele>
        <time>2026-01-04T01:34:00Z</time>
      </trkpt>
      <trkpt lat="38.127911696210504" lon="140.44994822703302">
        <ele>1759.3499999999999</ele>
        <time>2026-01-04T01:34:04Z</time>
      </trkpt>
      <trkpt lat="38.127911277115345" lon="140.44994864612818">
        <ele>1754.54</ele>
        <time>2026-01-04T01:34:05Z</time>
      </trkpt>
      <trkpt lat="38.127912366762757" lon="140.44995216652751">
        <ele>1755.99</ele>
        <time>2026-01-04T01:34:08Z</time>
      </trkpt>
      <trkpt lat="38.127917228266597" lon="140.44996096752584">
        <ele>1759.3499999999999</ele>
        <time>2026-01-04T01:34:12Z</time>
      </trkpt>
      <trkpt lat="38.127917312085629" lon="140.44996289536357">
        <ele>1759.3499999999999</ele>
        <time>2026-01-04T01:34:13Z</time>
      </trkpt>
      <trkpt lat="38.127910355105996" lon="140.4499576985836">
        <ele>1756.95</ele>
        <time>2026-01-04T01:34:15Z</time>
      </trkpt>
      <trkpt lat="38.127881437540054" lon="140.44993473216891">
        <ele>1755.02</ele>
        <time>2026-01-04T01:34:21Z</time>
      </trkpt>
      <trkpt lat="38.127866517752409" lon="140.449927020818">
        <ele>1757.9100000000001</ele>
        <time>2026-01-04T01:34:25Z</time>
      </trkpt>
      <trkpt lat="38.127860901877284" lon="140.44991847127676">
        <ele>1759.3499999999999</ele>
        <time>2026-01-04T01:34:29Z</time>
      </trkpt>
      <trkpt lat="38.127813376486301" lon="140.44986943714321">
        <ele>1758.8699999999999</ele>
        <time>2026-01-04T01:34:47Z</time>
      </trkpt>
      <trkpt lat="38.127812957391143" lon="140.44987111352384">
        <ele>1758.8699999999999</ele>
        <time>2026-01-04T01:34:48Z</time>
      </trkpt>
      <trkpt lat="38.127812286838889" lon="140.44987329281867">
        <ele>1760.3099999999999</ele>
        <time>2026-01-04T01:34:50Z</time>
      </trkpt>
      <trkpt lat="38.12780256383121" lon="140.44988452456892">
        <ele>1760.79</ele>
        <time>2026-01-04T01:34:58Z</time>
      </trkpt>
      <trkpt lat="38.127801725640893" lon="140.44987161643803">
        <ele>1762.71</ele>
        <time>2026-01-04T01:35:03Z</time>
      </trkpt>
      <trkpt lat="38.127785716205835" lon="140.44979425147176">
        <ele>1764.1600000000001</ele>
        <time>2026-01-04T01:35:15Z</time>
      </trkpt>
      <trkpt lat="38.127779848873615" lon="140.4497782420367">
        <ele>1761.27</ele>
        <time>2026-01-04T01:35:18Z</time>
      </trkpt>
      <trkpt lat="38.127777837216854" lon="140.44978519901633">
        <ele>1761.27</ele>
        <time>2026-01-04T01:35:25Z</time>
      </trkpt>
      <trkpt lat="38.127776496112347" lon="140.44978654012084">
        <ele>1758.8699999999999</ele>
        <time>2026-01-04T01:35:28Z</time>
      </trkpt>
      <trkpt lat="38.127771802246571" lon="140.44977371580899">
        <ele>1762.71</ele>
        <time>2026-01-04T01:35:31Z</time>
      </trkpt>
      <trkpt lat="38.127771047875285" lon="140.44976809993386">
        <ele>1762.71</ele>
        <time>2026-01-04T01:35:32Z</time>
      </trkpt>
      <trkpt lat="38.127768784761429" lon="140.44975653290749">
        <ele>1760.3099999999999</ele>
        <time>2026-01-04T01:35:36Z</time>
      </trkpt>
      <trkpt lat="38.127789236605167" lon="140.44975586235523">
        <ele>1761.27</ele>
        <time>2026-01-04T01:35:47Z</time>
      </trkpt>
      <trkpt lat="38.127792254090309" lon="140.44975527562201">
        <ele>1759.3499999999999</ele>
        <time>2026-01-04T01:35:49Z</time>
      </trkpt>
      <trkpt lat="38.127803234383464" lon="140.44975209049881">
        <ele>1755.99</ele>
        <time>2026-01-04T01:35:55Z</time>
      </trkpt>
      <trkpt lat="38.127809185534716" lon="140.44975116848946">
        <ele>1763.2</ele>
        <time>2026-01-04T01:35:58Z</time>
      </trkpt>
      <trkpt lat="38.127809436991811" lon="140.44975276105106">
        <ele>1764.6400000000001</ele>
        <time>2026-01-04T01:36:00Z</time>
      </trkpt>
      <trkpt lat="38.127808095887303" lon="140.44975686818361">
        <ele>1761.75</ele>
        <time>2026-01-04T01:36:04Z</time>
      </trkpt>
      <trkpt lat="38.127813627943397" lon="140.44975686818361">
        <ele>1758.3900000000001</ele>
        <time>2026-01-04T01:36:08Z</time>
      </trkpt>
      <trkpt lat="38.127815220504999" lon="140.4497560299933">
        <ele>1758.3900000000001</ele>
        <time>2026-01-04T01:36:09Z</time>
      </trkpt>
      <trkpt lat="38.127815974876285" lon="140.44975552707911">
        <ele>1762.23</ele>
        <time>2026-01-04T01:36:11Z</time>
      </trkpt>
      <trkpt lat="38.127815304324031" lon="140.44975628145039">
        <ele>1762.23</ele>
        <time>2026-01-04T01:36:12Z</time>
      </trkpt>
      <trkpt lat="38.127814047038555" lon="140.44975519180298">
        <ele>1759.8299999999999</ele>
        <time>2026-01-04T01:36:14Z</time>
      </trkpt>
      <trkpt lat="38.127795187756419" lon="140.44971353374422">
        <ele>1761.27</ele>
        <time>2026-01-04T01:36:20Z</time>
      </trkpt>
      <trkpt lat="38.127769203856587" lon="140.44960356317461">
        <ele>1764.6400000000001</ele>
        <time>2026-01-04T01:36:35Z</time>
      </trkpt>
      <trkpt lat="38.127738609910011" lon="140.4495329875499">
        <ele>1766.0799999999999</ele>
        <time>2026-01-04T01:36:50Z</time>
      </trkpt>
      <trkpt lat="38.12772436067462" lon="140.44946425594389">
        <ele>1767.04</ele>
        <time>2026-01-04T01:37:08Z</time>
      </trkpt>
      <trkpt lat="38.127709524706006" lon="140.44947188347578">
        <ele>1767.04</ele>
        <time>2026-01-04T01:37:25Z</time>
      </trkpt>
      <trkpt lat="38.127710781991482" lon="140.44941782020032">
        <ele>1768</ele>
        <time>2026-01-04T01:37:33Z</time>
      </trkpt>
      <trkpt lat="38.127722097560763" lon="140.44936073943973">
        <ele>1768.96</ele>
        <time>2026-01-04T01:37:42Z</time>
      </trkpt>
      <trkpt lat="38.127743639051914" lon="140.44928731396794">
        <ele>1770.4100000000001</ele>
        <time>2026-01-04T01:37:53Z</time>
      </trkpt>
      <trkpt lat="38.127750847488642" lon="140.44927608221769">
        <ele>1768</ele>
        <time>2026-01-04T01:38:02Z</time>
      </trkpt>
      <trkpt lat="38.127752020955086" lon="140.44925504364073">
        <ele>1770.8900000000001</ele>
        <time>2026-01-04T01:38:09Z</time>
      </trkpt>
      <trkpt lat="38.127752523869276" lon="140.44924532063305">
        <ele>1770.8900000000001</ele>
        <time>2026-01-04T01:38:10Z</time>
      </trkpt>
      <trkpt lat="38.127752523869276" lon="140.44922755099833">
        <ele>1769.4400000000001</ele>
        <time>2026-01-04T01:38:12Z</time>
      </trkpt>
      <trkpt lat="38.127756211906672" lon="140.44915940612555">
        <ele>1771.3699999999999</ele>
        <time>2026-01-04T01:38:25Z</time>
      </trkpt>
      <trkpt lat="38.127756547182798" lon="140.44915756210685">
        <ele>1771.3699999999999</ele>
        <time>2026-01-04T01:38:26Z</time>
      </trkpt>
      <trkpt lat="38.127758810296655" lon="140.44914926402271">
        <ele>1768.96</ele>
        <time>2026-01-04T01:38:29Z</time>
      </trkpt>
      <trkpt lat="38.127767778933048" lon="140.44912721961737">
        <ele>1764.6400000000001</ele>
        <time>2026-01-04T01:38:37Z</time>
      </trkpt>
      <trkpt lat="38.127767108380795" lon="140.44912562705576">
        <ele>1775.6900000000001</ele>
        <time>2026-01-04T01:38:38Z</time>
      </trkpt>
      <trkpt lat="38.127767024561763" lon="140.44912160374224">
        <ele>1770.8900000000001</ele>
        <time>2026-01-04T01:38:39Z</time>
      </trkpt>
      <trkpt lat="38.127760989591479" lon="140.44910634867847">
        <ele>1764.1600000000001</ele>
        <time>2026-01-04T01:38:44Z</time>
      </trkpt>
      <trkpt lat="38.127764593809843" lon="140.44910391792655">
        <ele>1767.52</ele>
        <time>2026-01-04T01:38:45Z</time>
      </trkpt>
      <trkpt lat="38.12776442617178" lon="140.44909486547112">
        <ele>1772.8099999999999</ele>
        <time>2026-01-04T01:38:47Z</time>
      </trkpt>
      <trkpt lat="38.127762917429209" lon="140.4490910936147">
        <ele>1770.4100000000001</ele>
        <time>2026-01-04T01:38:48Z</time>
      </trkpt>
      <trkpt lat="38.127759816125035" lon="140.44908304698765">
        <ele>1766.5599999999999</ele>
        <time>2026-01-04T01:38:50Z</time>
      </trkpt>
      <trkpt lat="38.127760235220194" lon="140.44908095151186">
        <ele>1768</ele>
        <time>2026-01-04T01:38:51Z</time>
      </trkpt>
      <trkpt lat="38.127758475020528" lon="140.44908220879734">
        <ele>1759.8299999999999</ele>
        <time>2026-01-04T01:38:53Z</time>
      </trkpt>
      <trkpt lat="38.127760402858257" lon="140.44908204115927">
        <ele>1767.52</ele>
        <time>2026-01-04T01:38:54Z</time>
      </trkpt>
      <trkpt lat="38.127761743962765" lon="140.44908346608281">
        <ele>1774.25</ele>
        <time>2026-01-04T01:38:55Z</time>
      </trkpt>
      <trkpt lat="38.127761408686638" lon="140.4490823764354">
        <ele>1771.3699999999999</ele>
        <time>2026-01-04T01:38:56Z</time>
      </trkpt>
      <trkpt lat="38.127760905772448" lon="140.44908128678799">
        <ele>1767.52</ele>
        <time>2026-01-04T01:38:57Z</time>
      </trkpt>
      <trkpt lat="38.127757385373116" lon="140.44908095151186">
        <ele>1768.96</ele>
        <time>2026-01-04T01:39:01Z</time>
      </trkpt>
      <trkpt lat="38.127755708992481" lon="140.44907910749316">
        <ele>1767.04</ele>
        <time>2026-01-04T01:39:09Z</time>
      </trkpt>
      <trkpt lat="38.127755122259259" lon="140.44906955212355">
        <ele>1771.3699999999999</ele>
        <time>2026-01-04T01:39:15Z</time>
      </trkpt>
      <trkpt lat="38.12775663100183" lon="140.4490615054965">
        <ele>1771.3699999999999</ele>
        <time>2026-01-04T01:39:16Z</time>
      </trkpt>
      <trkpt lat="38.127767695114017" lon="140.4490289837122">
        <ele>1770.8900000000001</ele>
        <time>2026-01-04T01:39:22Z</time>
      </trkpt>
      <trkpt lat="38.127781609073281" lon="140.44897592626512">
        <ele>1768</ele>
        <time>2026-01-04T01:39:30Z</time>
      </trkpt>
      <trkpt lat="38.127788817510009" lon="140.44894927181304">
        <ele>1769.4400000000001</ele>
        <time>2026-01-04T01:39:33Z</time>
      </trkpt>
      <trkpt lat="38.127832654863596" lon="140.44885179027915">
        <ele>1771.8499999999999</ele>
        <time>2026-01-04T01:39:46Z</time>
      </trkpt>
      <trkpt lat="38.127845982089639" lon="140.44881180860102">
        <ele>1771.3699999999999</ele>
        <time>2026-01-04T01:39:52Z</time>
      </trkpt>
      <trkpt lat="38.127860650420189" lon="140.44872078113258">
        <ele>1769.9200000000001</ele>
        <time>2026-01-04T01:40:06Z</time>
      </trkpt>
      <trkpt lat="38.127860315144062" lon="140.44865456409752">
        <ele>1770.8900000000001</ele>
        <time>2026-01-04T01:40:20Z</time>
      </trkpt>
      <trkpt lat="38.127855621278286" lon="140.44860578142107">
        <ele>1769.9200000000001</ele>
        <time>2026-01-04T01:40:27Z</time>
      </trkpt>
      <trkpt lat="38.127852603793144" lon="140.44858625158668">
        <ele>1771.3699999999999</ele>
        <time>2026-01-04T01:40:31Z</time>
      </trkpt>
      <trkpt lat="38.127852939069271" lon="140.44853746891022">
        <ele>1769.9200000000001</ele>
        <time>2026-01-04T01:40:41Z</time>
      </trkpt>
      <trkpt lat="38.127855118364096" lon="140.44852942228317">
        <ele>1769.9200000000001</ele>
        <time>2026-01-04T01:40:45Z</time>
      </trkpt>
      <trkpt lat="38.127859896048903" lon="140.44851039536297">
        <ele>1771.8499999999999</ele>
        <time>2026-01-04T01:40:49Z</time>
      </trkpt>
      <trkpt lat="38.127862829715014" lon="140.44850301928818">
        <ele>1770.4100000000001</ele>
        <time>2026-01-04T01:40:51Z</time>
      </trkpt>
      <trkpt lat="38.127857465296984" lon="140.4484898597002">
        <ele>1771.8499999999999</ele>
        <time>2026-01-04T01:40:54Z</time>
      </trkpt>
      <trkpt lat="38.127860147505999" lon="140.44846295379102">
        <ele>1770.4100000000001</ele>
        <time>2026-01-04T01:41:01Z</time>
      </trkpt>
      <trkpt lat="38.127859141677618" lon="140.4484623670578">
        <ele>1771.8499999999999</ele>
        <time>2026-01-04T01:41:05Z</time>
      </trkpt>
      <trkpt lat="38.127859057858586" lon="140.44847200624645">
        <ele>1771.3699999999999</ele>
        <time>2026-01-04T01:41:26Z</time>
      </trkpt>
      <trkpt lat="38.127857884392142" lon="140.44847032986581">
        <ele>1772.3299999999999</ele>
        <time>2026-01-04T01:41:47Z</time>
      </trkpt>
      <trkpt lat="38.127857549116015" lon="140.44846354052424">
        <ele>1769.9200000000001</ele>
        <time>2026-01-04T01:41:52Z</time>
      </trkpt>
      <trkpt lat="38.127857884392142" lon="140.44845717027783">
        <ele>1771.8499999999999</ele>
        <time>2026-01-04T01:41:54Z</time>
      </trkpt>
      <trkpt lat="38.127873223274946" lon="140.44842096045613">
        <ele>1768.96</ele>
        <time>2026-01-04T01:42:02Z</time>
      </trkpt>
      <trkpt lat="38.127867691218853" lon="140.4484071303159">
        <ele>1771.3699999999999</ele>
        <time>2026-01-04T01:42:05Z</time>
      </trkpt>
      <trkpt lat="38.127862578257918" lon="140.44838818721473">
        <ele>1770.4100000000001</ele>
        <time>2026-01-04T01:42:10Z</time>
      </trkpt>
      <trkpt lat="38.127855118364096" lon="140.44837544672191">
        <ele>1773.77</ele>
        <time>2026-01-04T01:42:23Z</time>
      </trkpt>
      <trkpt lat="38.127854866907001" lon="140.44837368652225">
        <ele>1768.96</ele>
        <time>2026-01-04T01:42:24Z</time>
      </trkpt>
      <trkpt lat="38.127855202183127" lon="140.44837326742709">
        <ele>1772.8099999999999</ele>
        <time>2026-01-04T01:42:26Z</time>
      </trkpt>
      <trkpt lat="38.127857130020857" lon="140.44837418943644">
        <ele>1774.25</ele>
        <time>2026-01-04T01:42:28Z</time>
      </trkpt>
      <trkpt lat="38.127855286002159" lon="140.44837234541774">
        <ele>1772.8099999999999</ele>
        <time>2026-01-04T01:42:32Z</time>
      </trkpt>
      <trkpt lat="38.127852268517017" lon="140.44836044311523">
        <ele>1772.8099999999999</ele>
        <time>2026-01-04T01:42:41Z</time>
      </trkpt>
      <trkpt lat="38.127850759774446" lon="140.44835558161139">
        <ele>1771.8499999999999</ele>
        <time>2026-01-04T01:42:44Z</time>
      </trkpt>
      <trkpt lat="38.127850256860256" lon="140.44835323467851">
        <ele>1769.9200000000001</ele>
        <time>2026-01-04T01:42:52Z</time>
      </trkpt>
      <trkpt lat="38.127848831936717" lon="140.44835281558335">
        <ele>1767.04</ele>
        <time>2026-01-04T01:42:53Z</time>
      </trkpt>
      <trkpt lat="38.127847155556083" lon="140.44835323467851">
        <ele>1767.04</ele>
        <time>2026-01-04T01:42:54Z</time>
      </trkpt>
      <trkpt lat="38.127847239375114" lon="140.4483537375927">
        <ele>1770.8900000000001</ele>
        <time>2026-01-04T01:42:55Z</time>
      </trkpt>
      <trkpt lat="38.127846652641892" lon="140.44835667125881">
        <ele>1768.96</ele>
        <time>2026-01-04T01:42:58Z</time>
      </trkpt>
      <trkpt lat="38.127847239375114" lon="140.44835885055363">
        <ele>1772.8099999999999</ele>
        <time>2026-01-04T01:42:59Z</time>
      </trkpt>
      <trkpt lat="38.1278514303267" lon="140.44835759326816">
        <ele>1775.21</ele>
        <time>2026-01-04T01:43:01Z</time>
      </trkpt>
      <trkpt lat="38.127855621278286" lon="140.44835113920271">
        <ele>1770.4100000000001</ele>
        <time>2026-01-04T01:43:02Z</time>
      </trkpt>
      <trkpt lat="38.127858722582459" lon="140.44833957217634">
        <ele>1770.4100000000001</ele>
        <time>2026-01-04T01:43:03Z</time>
      </trkpt>
      <trkpt lat="38.127851346507668" lon="140.4482776299119">
        <ele>1773.29</ele>
        <time>2026-01-04T01:43:08Z</time>
      </trkpt>
      <trkpt lat="38.127851514145732" lon="140.44824452139437">
        <ele>1777.1300000000001</ele>
        <time>2026-01-04T01:43:11Z</time>
      </trkpt>
      <trkpt lat="38.127854112535715" lon="140.44822474010289">
        <ele>1779.54</ele>
        <time>2026-01-04T01:43:14Z</time>
      </trkpt>
      <trkpt lat="38.12786023132503" lon="140.44820361770689">
        <ele>1778.5799999999999</ele>
        <time>2026-01-04T01:43:17Z</time>
      </trkpt>
      <trkpt lat="38.127864506095648" lon="140.44818048365414">
        <ele>1777.6099999999999</ele>
        <time>2026-01-04T01:43:25Z</time>
      </trkpt>
      <trkpt lat="38.12786903232336" lon="140.44816782698035">
        <ele>1779.54</ele>
        <time>2026-01-04T01:43:27Z</time>
      </trkpt>
      <trkpt lat="38.127862494438887" lon="140.44815139845014">
        <ele>1778.5799999999999</ele>
        <time>2026-01-04T01:43:33Z</time>
      </trkpt>
      <trkpt lat="38.127846401184797" lon="140.44814184308052">
        <ele>1777.1300000000001</ele>
        <time>2026-01-04T01:43:52Z</time>
      </trkpt>
      <trkpt lat="38.127839611843228" lon="140.44813287444413">
        <ele>1773.77</ele>
        <time>2026-01-04T01:44:00Z</time>
      </trkpt>
      <trkpt lat="38.127838606014848" lon="140.44813362881541">
        <ele>1775.6900000000001</ele>
        <time>2026-01-04T01:44:01Z</time>
      </trkpt>
      <trkpt lat="38.127837097272277" lon="140.44813312590122">
        <ele>1776.1700000000001</ele>
        <time>2026-01-04T01:44:03Z</time>
      </trkpt>
      <trkpt lat="38.127836426720023" lon="140.44813371263444">
        <ele>1778.5799999999999</ele>
        <time>2026-01-04T01:44:05Z</time>
      </trkpt>
      <trkpt lat="38.127839947119355" lon="140.4481396637857">
        <ele>1780.02</ele>
        <time>2026-01-04T01:44:10Z</time>
      </trkpt>
      <trkpt lat="38.127829218283296" lon="140.44813496991992">
        <ele>1779.54</ele>
        <time>2026-01-04T01:44:20Z</time>
      </trkpt>
      <trkpt lat="38.127829385921359" lon="140.44813228771091">
        <ele>1778.0999999999999</ele>
        <time>2026-01-04T01:44:23Z</time>
      </trkpt>
      <trkpt lat="38.12784899957478" lon="140.44812440872192">
        <ele>1777.1300000000001</ele>
        <time>2026-01-04T01:44:33Z</time>
      </trkpt>
      <trkpt lat="38.127852268517017" lon="140.44812357053161">
        <ele>1778.5799999999999</ele>
        <time>2026-01-04T01:44:39Z</time>
      </trkpt>
      <trkpt lat="38.12785729765892" lon="140.44812005013227">
        <ele>1777.1300000000001</ele>
        <time>2026-01-04T01:44:43Z</time>
      </trkpt>
      <trkpt lat="38.127864003181458" lon="140.44812172651291">
        <ele>1777.1300000000001</ele>
        <time>2026-01-04T01:44:48Z</time>
      </trkpt>
      <trkpt lat="38.127882862463593" lon="140.44820252805948">
        <ele>1777.1300000000001</ele>
        <time>2026-01-04T01:45:07Z</time>
      </trkpt>
      <trkpt lat="38.127896022051573" lon="140.44821535237134">
        <ele>1778.0999999999999</ele>
        <time>2026-01-04T01:45:14Z</time>
      </trkpt>
      <trkpt lat="38.127892753109336" lon="140.44822029769421">
        <ele>1775.21</ele>
        <time>2026-01-04T01:45:21Z</time>
      </trkpt>
      <trkpt lat="38.127888729795814" lon="140.44821275398135">
        <ele>1776.6500000000001</ele>
        <time>2026-01-04T01:45:27Z</time>
      </trkpt>
      <trkpt lat="38.127889903262258" lon="140.44820831157267">
        <ele>1775.21</ele>
        <time>2026-01-04T01:45:38Z</time>
      </trkpt>
      <trkpt lat="38.127890070900321" lon="140.44820018112659">
        <ele>1777.6099999999999</ele>
        <time>2026-01-04T01:45:52Z</time>
      </trkpt>
      <trkpt lat="38.127896189689636" lon="140.44820588082075">
        <ele>1775.21</ele>
        <time>2026-01-04T01:46:04Z</time>
      </trkpt>
      <trkpt lat="38.127899961546063" lon="140.44820847921073">
        <ele>1775.21</ele>
        <time>2026-01-04T01:46:12Z</time>
      </trkpt>
      <trkpt lat="38.127896189689636" lon="140.4482086468488">
        <ele>1776.1700000000001</ele>
        <time>2026-01-04T01:46:20Z</time>
      </trkpt>
      <trkpt lat="38.127895435318351" lon="140.44820898212492">
        <ele>1774.73</ele>
        <time>2026-01-04T01:46:22Z</time>
      </trkpt>
      <trkpt lat="38.127890825271606" lon="140.44820688664913">
        <ele>1775.6900000000001</ele>
        <time>2026-01-04T01:46:26Z</time>
      </trkpt>
      <trkpt lat="38.12788562849164" lon="140.44822172261775">
        <ele>1774.73</ele>
        <time>2026-01-04T01:46:51Z</time>
      </trkpt>
      <trkpt lat="38.127898536622524" lon="140.44822968542576">
        <ele>1776.6500000000001</ele>
        <time>2026-01-04T01:46:58Z</time>
      </trkpt>
      <trkpt lat="38.127888143062592" lon="140.44819540344179">
        <ele>1775.21</ele>
        <time>2026-01-04T01:47:18Z</time>
      </trkpt>
      <trkpt lat="38.127888226881623" lon="140.44818920083344">
        <ele>1774.73</ele>
        <time>2026-01-04T01:47:26Z</time>
      </trkpt>
      <trkpt lat="38.127889651805162" lon="140.44816380366683">
        <ele>1776.1700000000001</ele>
        <time>2026-01-04T01:47:53Z</time>
      </trkpt>
      <trkpt lat="38.127886634320021" lon="140.44816975481808">
        <ele>1775.21</ele>
        <time>2026-01-04T01:48:07Z</time>
      </trkpt>
      <trkpt lat="38.127884035930037" lon="140.44817369431257">
        <ele>1776.1700000000001</ele>
        <time>2026-01-04T01:48:12Z</time>
      </trkpt>
      <trkpt lat="38.127891076728702" lon="140.44818341732025">
        <ele>1774.73</ele>
        <time>2026-01-04T01:48:18Z</time>
      </trkpt>
      <trkpt lat="38.127888897433877" lon="140.44818568043411">
        <ele>1776.1700000000001</ele>
        <time>2026-01-04T01:48:24Z</time>
      </trkpt>
      <trkpt lat="38.127890070900321" lon="140.4481843393296">
        <ele>1774.73</ele>
        <time>2026-01-04T01:48:27Z</time>
      </trkpt>
      <trkpt lat="38.127900799736381" lon="140.44819984585047">
        <ele>1776.6500000000001</ele>
        <time>2026-01-04T01:48:37Z</time>
      </trkpt>
      <trkpt lat="38.127908427268267" lon="140.44821233488619">
        <ele>1775.21</ele>
        <time>2026-01-04T01:48:51Z</time>
      </trkpt>
      <trkpt lat="38.127910187467933" lon="140.44821543619037">
        <ele>1776.1700000000001</ele>
        <time>2026-01-04T01:48:59Z</time>
      </trkpt>
      <trkpt lat="38.127901135012507" lon="140.44822591356933">
        <ele>1773.29</ele>
        <time>2026-01-04T01:49:13Z</time>
      </trkpt>
      <trkpt lat="38.127877917140722" lon="140.44824971817434">
        <ele>1776.1700000000001</ele>
        <time>2026-01-04T01:49:18Z</time>
      </trkpt>
      <trkpt lat="38.127874312922359" lon="140.44825248420238">
        <ele>1774.73</ele>
        <time>2026-01-04T01:49:22Z</time>
      </trkpt>
      <trkpt lat="38.127874983474612" lon="140.4482533223927">
        <ele>1776.6500000000001</ele>
        <time>2026-01-04T01:49:24Z</time>
      </trkpt>
      <trkpt lat="38.127873977646232" lon="140.44825214892626">
        <ele>1775.6900000000001</ele>
        <time>2026-01-04T01:49:29Z</time>
      </trkpt>
      <trkpt lat="38.127860901877284" lon="140.44826111756265">
        <ele>1776.1700000000001</ele>
        <time>2026-01-04T01:49:34Z</time>
      </trkpt>
      <trkpt lat="38.127860650420189" lon="140.44826379977167">
        <ele>1774.73</ele>
        <time>2026-01-04T01:49:38Z</time>
      </trkpt>
      <trkpt lat="38.127864170819521" lon="140.44827058911324">
        <ele>1776.1700000000001</ele>
        <time>2026-01-04T01:49:43Z</time>
      </trkpt>
      <trkpt lat="38.127870121970773" lon="140.44827528297901">
        <ele>1775.21</ele>
        <time>2026-01-04T01:50:00Z</time>
      </trkpt>
      <trkpt lat="38.127870541065931" lon="140.44827494770288">
        <ele>1773.77</ele>
        <time>2026-01-04T01:50:02Z</time>
      </trkpt>
      <trkpt lat="38.127863332629204" lon="140.44826581142843">
        <ele>1774.25</ele>
        <time>2026-01-04T01:50:19Z</time>
      </trkpt>
      <trkpt lat="38.127861153334379" lon="140.44826027937233">
        <ele>1775.21</ele>
        <time>2026-01-04T01:50:44Z</time>
      </trkpt>
      <trkpt lat="38.127856375649571" lon="140.44826866127551">
        <ele>1773.77</ele>
        <time>2026-01-04T01:51:00Z</time>
      </trkpt>
      <trkpt lat="38.127857632935047" lon="140.44826078228652">
        <ele>1773.77</ele>
        <time>2026-01-04T01:51:11Z</time>
      </trkpt>
      <trkpt lat="38.12786802649498" lon="140.44823991134763">
        <ele>1774.73</ele>
        <time>2026-01-04T01:51:27Z</time>
      </trkpt>
      <trkpt lat="38.127869702875614" lon="140.44819632545114">
        <ele>1776.6500000000001</ele>
        <time>2026-01-04T01:51:36Z</time>
      </trkpt>
      <trkpt lat="38.127868277952075" lon="140.44819707982242">
        <ele>1775.21</ele>
        <time>2026-01-04T01:51:43Z</time>
      </trkpt>
      <trkpt lat="38.127865344285965" lon="140.44819691218436">
        <ele>1776.1700000000001</ele>
        <time>2026-01-04T01:51:47Z</time>
      </trkpt>
      <trkpt lat="38.12786802649498" lon="140.44820604845881">
        <ele>1777.1300000000001</ele>
        <time>2026-01-04T01:51:55Z</time>
      </trkpt>
      <trkpt lat="38.127869870513678" lon="140.44820638373494">
        <ele>1776.6500000000001</ele>
        <time>2026-01-04T01:52:06Z</time>
      </trkpt>
      <trkpt lat="38.127843383699656" lon="140.44823094271123">
        <ele>1777.1300000000001</ele>
        <time>2026-01-04T01:52:16Z</time>
      </trkpt>
      <trkpt lat="38.127836426720023" lon="140.44822163879871">
        <ele>1773.29</ele>
        <time>2026-01-04T01:52:19Z</time>
      </trkpt>
      <trkpt lat="38.127841791138053" lon="140.44822121970356">
        <ele>1773.29</ele>
        <time>2026-01-04T01:52:20Z</time>
      </trkpt>
      <trkpt lat="38.1278445571661" lon="140.44821836985648">
        <ele>1776.6500000000001</ele>
        <time>2026-01-04T01:52:21Z</time>
      </trkpt>
      <trkpt lat="38.127847407013178" lon="140.44821677729487">
        <ele>1776.6500000000001</ele>
        <time>2026-01-04T01:52:22Z</time>
      </trkpt>
      <trkpt lat="38.127832654863596" lon="140.4482255782932">
        <ele>1774.25</ele>
        <time>2026-01-04T01:52:44Z</time>
      </trkpt>
      <trkpt lat="38.12783382833004" lon="140.44822289608419">
        <ele>1776.1700000000001</ele>
        <time>2026-01-04T01:52:50Z</time>
      </trkpt>
      <trkpt lat="38.127834247425199" lon="140.44822549447417">
        <ele>1775.21</ele>
        <time>2026-01-04T01:53:00Z</time>
      </trkpt>
      <trkpt lat="38.127835337072611" lon="140.44822524301708">
        <ele>1773.77</ele>
        <time>2026-01-04T01:53:02Z</time>
      </trkpt>
      <trkpt lat="38.127834247425199" lon="140.44822264462709">
        <ele>1776.6500000000001</ele>
        <time>2026-01-04T01:53:06Z</time>
      </trkpt>
      <trkpt lat="38.127835588529706" lon="140.44822289608419">
        <ele>1775.21</ele>
        <time>2026-01-04T01:53:08Z</time>
      </trkpt>
      <trkpt lat="38.127836678177118" lon="140.44822348281741">
        <ele>1773.29</ele>
        <time>2026-01-04T01:53:10Z</time>
      </trkpt>
      <trkpt lat="38.127838103100657" lon="140.44822675175965">
        <ele>1775.21</ele>
        <time>2026-01-04T01:53:13Z</time>
      </trkpt>
      <trkpt lat="38.127845730632544" lon="140.44822909869254">
        <ele>1773.77</ele>
        <time>2026-01-04T01:53:25Z</time>
      </trkpt>
      <trkpt lat="38.127847071737051" lon="140.44823362492025">
        <ele>1773.29</ele>
        <time>2026-01-04T01:53:32Z</time>
      </trkpt>
      <trkpt lat="38.127850508317351" lon="140.44823831878603">
        <ele>1774.25</ele>
        <time>2026-01-04T01:53:40Z</time>
      </trkpt>
      <trkpt lat="38.127839947119355" lon="140.44823781587183">
        <ele>1771.3699999999999</ele>
        <time>2026-01-04T01:53:58Z</time>
      </trkpt>
      <trkpt lat="38.12784313224256" lon="140.44823789969087">
        <ele>1775.6900000000001</ele>
        <time>2026-01-04T01:53:59Z</time>
      </trkpt>
      <trkpt lat="38.127861153334379" lon="140.4482482932508">
        <ele>1774.73</ele>
        <time>2026-01-04T01:54:04Z</time>
      </trkpt>
      <trkpt lat="38.12786903232336" lon="140.44825541786849">
        <ele>1772.3299999999999</ele>
        <time>2026-01-04T01:54:06Z</time>
      </trkpt>
      <trkpt lat="38.127882024273276" lon="140.44822968542576">
        <ele>1774.25</ele>
        <time>2026-01-04T01:54:19Z</time>
      </trkpt>
      <trkpt lat="38.127883952111006" lon="140.44821937568486">
        <ele>1772.8099999999999</ele>
        <time>2026-01-04T01:54:23Z</time>
      </trkpt>
      <trkpt lat="38.127865260466933" lon="140.44822541065514">
        <ele>1772.3299999999999</ele>
        <time>2026-01-04T01:54:34Z</time>
      </trkpt>
      <trkpt lat="38.127866685390472" lon="140.44827964156866">
        <ele>1771.8499999999999</ele>
        <time>2026-01-04T01:54:41Z</time>
      </trkpt>
      <trkpt lat="38.127865344285965" lon="140.44831685721874">
        <ele>1769.4400000000001</ele>
        <time>2026-01-04T01:54:44Z</time>
      </trkpt>
      <trkpt lat="38.127854615449905" lon="140.44835893437266">
        <ele>1770.4100000000001</ele>
        <time>2026-01-04T01:54:50Z</time>
      </trkpt>
      <trkpt lat="38.12784899957478" lon="140.44836002402008">
        <ele>1765.5999999999999</ele>
        <time>2026-01-04T01:55:01Z</time>
      </trkpt>
      <trkpt lat="38.127848245203495" lon="140.44836077839136">
        <ele>1767.04</ele>
        <time>2026-01-04T01:55:02Z</time>
      </trkpt>
      <trkpt lat="38.127846149727702" lon="140.44836262241006">
        <ele>1767.52</ele>
        <time>2026-01-04T01:55:04Z</time>
      </trkpt>
      <trkpt lat="38.127843216061592" lon="140.44836354441941">
        <ele>1769.4400000000001</ele>
        <time>2026-01-04T01:55:08Z</time>
      </trkpt>
      <trkpt lat="38.127843299880624" lon="140.44836069457233">
        <ele>1767.04</ele>
        <time>2026-01-04T01:55:10Z</time>
      </trkpt>
      <trkpt lat="38.127846233546734" lon="140.44835172593594">
        <ele>1768</ele>
        <time>2026-01-04T01:55:19Z</time>
      </trkpt>
      <trkpt lat="38.127841288223863" lon="140.4483516421169">
        <ele>1769.9200000000001</ele>
        <time>2026-01-04T01:55:26Z</time>
      </trkpt>
      <trkpt lat="38.127840030938387" lon="140.44835130684078">
        <ele>1767.52</ele>
        <time>2026-01-04T01:55:28Z</time>
      </trkpt>
      <trkpt lat="38.127841707319021" lon="140.44835147447884">
        <ele>1768.48</ele>
        <time>2026-01-04T01:55:35Z</time>
      </trkpt>
      <trkpt lat="38.127838270738721" lon="140.4483706690371">
        <ele>1771.3699999999999</ele>
        <time>2026-01-04T01:55:52Z</time>
      </trkpt>
      <trkpt lat="38.12783625908196" lon="140.44837972149253">
        <ele>1768.48</ele>
        <time>2026-01-04T01:55:55Z</time>
      </trkpt>
      <trkpt lat="38.127836845815182" lon="140.44838919304311">
        <ele>1770.4100000000001</ele>
        <time>2026-01-04T01:55:57Z</time>
      </trkpt>
      <trkpt lat="38.12782502733171" lon="140.44853428378701">
        <ele>1767.04</ele>
        <time>2026-01-04T01:56:13Z</time>
      </trkpt>
      <trkpt lat="38.127825278788805" lon="140.4485709965229">
        <ele>1768.48</ele>
        <time>2026-01-04T01:56:17Z</time>
      </trkpt>
      <trkpt lat="38.127818070352077" lon="140.44865674339235">
        <ele>1768.48</ele>
        <time>2026-01-04T01:56:26Z</time>
      </trkpt>
      <trkpt lat="38.127800635993481" lon="140.44884835369885">
        <ele>1767.52</ele>
        <time>2026-01-04T01:56:43Z</time>
      </trkpt>
      <trkpt lat="38.127799462527037" lon="140.44886930845678">
        <ele>1768.96</ele>
        <time>2026-01-04T01:56:45Z</time>
      </trkpt>
      <trkpt lat="38.127789152786136" lon="140.44891314581037">
        <ele>1767.52</ele>
        <time>2026-01-04T01:56:49Z</time>
      </trkpt>
      <trkpt lat="38.12777859158814" lon="140.44896117411554">
        <ele>1767.52</ele>
        <time>2026-01-04T01:56:54Z</time>
      </trkpt>
      <trkpt lat="38.127763085067272" lon="140.44903384521604">
        <ele>1767.52</ele>
        <time>2026-01-04T01:57:01Z</time>
      </trkpt>
      <trkpt lat="38.127712877467275" lon="140.44919662177563">
        <ele>1766.0799999999999</ele>
        <time>2026-01-04T01:57:14Z</time>
      </trkpt>
      <trkpt lat="38.12771706841886" lon="140.44920357875526">
        <ele>1767.52</ele>
        <time>2026-01-04T01:57:16Z</time>
      </trkpt>
      <trkpt lat="38.127704914659262" lon="140.44926560483873">
        <ele>1765.5999999999999</ele>
        <time>2026-01-04T01:57:26Z</time>
      </trkpt>
      <trkpt lat="38.127696113660932" lon="140.44938135892153">
        <ele>1763.2</ele>
        <time>2026-01-04T01:57:32Z</time>
      </trkpt>
      <trkpt lat="38.127701226621866" lon="140.44941170141101">
        <ele>1764.6400000000001</ele>
        <time>2026-01-04T01:57:36Z</time>
      </trkpt>
      <trkpt lat="38.127692844718695" lon="140.4494502581656">
        <ele>1762.71</ele>
        <time>2026-01-04T01:57:40Z</time>
      </trkpt>
      <trkpt lat="38.127688905224204" lon="140.44948437251151">
        <ele>1764.6400000000001</ele>
        <time>2026-01-04T01:57:43Z</time>
      </trkpt>
      <trkpt lat="38.127685971558094" lon="140.44949602335691">
        <ele>1764.6400000000001</ele>
        <time>2026-01-04T01:57:44Z</time>
      </trkpt>
      <trkpt lat="38.127675913274288" lon="140.44953424483538">
        <ele>1762.71</ele>
        <time>2026-01-04T01:57:47Z</time>
      </trkpt>
      <trkpt lat="38.127656551077962" lon="140.44959710910916">
        <ele>1760.3099999999999</ele>
        <time>2026-01-04T01:57:50Z</time>
      </trkpt>
      <trkpt lat="38.12765252776444" lon="140.44960306026042">
        <ele>1761.27</ele>
        <time>2026-01-04T01:57:53Z</time>
      </trkpt>
      <trkpt lat="38.127653198316693" lon="140.44960808940232">
        <ele>1760.79</ele>
        <time>2026-01-04T01:57:57Z</time>
      </trkpt>
      <trkpt lat="38.127610702067614" lon="140.44970314018428">
        <ele>1757.4300000000001</ele>
        <time>2026-01-04T01:58:06Z</time>
      </trkpt>
      <trkpt lat="38.127599889412522" lon="140.44972149655223">
        <ele>1756.95</ele>
        <time>2026-01-04T01:58:09Z</time>
      </trkpt>
      <trkpt lat="38.12759050168097" lon="140.44973633252084">
        <ele>1756.95</ele>
        <time>2026-01-04T01:58:10Z</time>
      </trkpt>
      <trkpt lat="38.127582622691989" lon="140.44975284487009">
        <ele>1756.95</ele>
        <time>2026-01-04T01:58:11Z</time>
      </trkpt>
      <trkpt lat="38.127577425912023" lon="140.44977162033319">
        <ele>1756.95</ele>
        <time>2026-01-04T01:58:12Z</time>
      </trkpt>
      <trkpt lat="38.127580108121037" lon="140.44978788122535">
        <ele>1758.8699999999999</ele>
        <time>2026-01-04T01:58:17Z</time>
      </trkpt>
      <trkpt lat="38.127586813643575" lon="140.44979953207076">
        <ele>1756.95</ele>
        <time>2026-01-04T01:58:22Z</time>
      </trkpt>
      <trkpt lat="38.127581868320704" lon="140.44982149265707">
        <ele>1758.8699999999999</ele>
        <time>2026-01-04T01:58:28Z</time>
      </trkpt>
      <trkpt lat="38.127590836957097" lon="140.4498385079205">
        <ele>1760.3099999999999</ele>
        <time>2026-01-04T01:58:33Z</time>
      </trkpt>
      <trkpt lat="38.127595698460937" lon="140.44984504580498">
        <ele>1758.8699999999999</ele>
        <time>2026-01-04T01:58:35Z</time>
      </trkpt>
      <trkpt lat="38.127614138647914" lon="140.44987119734287">
        <ele>1755.99</ele>
        <time>2026-01-04T01:58:42Z</time>
      </trkpt>
      <trkpt lat="38.127640206366777" lon="140.44988351874053">
        <ele>1756.95</ele>
        <time>2026-01-04T01:58:49Z</time>
      </trkpt>
      <trkpt lat="38.127642888575792" lon="140.44989667832851">
        <ele>1758.8699999999999</ele>
        <time>2026-01-04T01:58:52Z</time>
      </trkpt>
      <trkpt lat="38.127649845555425" lon="140.44989542104304">
        <ele>1763.2</ele>
        <time>2026-01-04T01:58:55Z</time>
      </trkpt>
      <trkpt lat="38.127652779221535" lon="140.4498921521008">
        <ele>1762.71</ele>
        <time>2026-01-04T01:58:56Z</time>
      </trkpt>
      <trkpt lat="38.127653449773788" lon="140.44988678768277">
        <ele>1756.95</ele>
        <time>2026-01-04T01:58:58Z</time>
      </trkpt>
      <trkpt lat="38.127651857212186" lon="140.44988016597927">
        <ele>1751.6600000000001</ele>
        <time>2026-01-04T01:59:00Z</time>
      </trkpt>
      <trkpt lat="38.127653282135725" lon="140.44987597502768">
        <ele>1750.22</ele>
        <time>2026-01-04T01:59:02Z</time>
      </trkpt>
      <trkpt lat="38.127649426460266" lon="140.44987002387643">
        <ele>1751.6600000000001</ele>
        <time>2026-01-04T01:59:06Z</time>
      </trkpt>
      <trkpt lat="38.127643726766109" lon="140.44986256398261">
        <ele>1751.1800000000001</ele>
        <time>2026-01-04T01:59:16Z</time>
      </trkpt>
      <trkpt lat="38.127644564956427" lon="140.44986365363002">
        <ele>1753.0999999999999</ele>
        <time>2026-01-04T01:59:18Z</time>
      </trkpt>
      <trkpt lat="38.127641128376126" lon="140.44986415654421">
        <ele>1756.47</ele>
        <time>2026-01-04T01:59:19Z</time>
      </trkpt>
      <trkpt lat="38.127642385661602" lon="140.44986616820097">
        <ele>1751.1800000000001</ele>
        <time>2026-01-04T01:59:20Z</time>
      </trkpt>
      <trkpt lat="38.127642385661602" lon="140.44986675493419">
        <ele>1757.9100000000001</ele>
        <time>2026-01-04T01:59:21Z</time>
      </trkpt>
      <trkpt lat="38.127648252993822" lon="140.44986792840064">
        <ele>1754.54</ele>
        <time>2026-01-04T01:59:24Z</time>
      </trkpt>
      <trkpt lat="38.127652611583471" lon="140.44986382126808">
        <ele>1753.5799999999999</ele>
        <time>2026-01-04T01:59:26Z</time>
      </trkpt>
      <trkpt lat="38.127660490572453" lon="140.44985636137426">
        <ele>1749.74</ele>
        <time>2026-01-04T01:59:29Z</time>
      </trkpt>
      <trkpt lat="38.127656299620867" lon="140.44985175132751">
        <ele>1755.5</ele>
        <time>2026-01-04T01:59:32Z</time>
      </trkpt>
      <trkpt lat="38.127656718716025" lon="140.4498527571559">
        <ele>1760.3099999999999</ele>
        <time>2026-01-04T01:59:33Z</time>
      </trkpt>
      <trkpt lat="38.12765646725893" lon="140.44985258951783">
        <ele>1758.3900000000001</ele>
        <time>2026-01-04T01:59:34Z</time>
      </trkpt>
      <trkpt lat="38.127655293792486" lon="140.44985326007009">
        <ele>1761.75</ele>
        <time>2026-01-04T01:59:38Z</time>
      </trkpt>
      <trkpt lat="38.127655042335391" lon="140.44985476881266">
        <ele>1759.8299999999999</ele>
        <time>2026-01-04T01:59:39Z</time>
      </trkpt>
      <trkpt lat="38.127654455602169" lon="140.44985610991716">
        <ele>1755.99</ele>
        <time>2026-01-04T01:59:42Z</time>
      </trkpt>
      <trkpt lat="38.127652695402503" lon="140.44985652901232">
        <ele>1754.0599999999999</ele>
        <time>2026-01-04T01:59:44Z</time>
      </trkpt>
      <trkpt lat="38.127651521936059" lon="140.44985929504037">
        <ele>1757.9100000000001</ele>
        <time>2026-01-04T01:59:45Z</time>
      </trkpt>
      <trkpt lat="38.127651270478964" lon="140.4498596303165">
        <ele>1758.8699999999999</ele>
        <time>2026-01-04T01:59:47Z</time>
      </trkpt>
      <trkpt lat="38.127644984051585" lon="140.44986013323069">
        <ele>1756.95</ele>
        <time>2026-01-04T01:59:49Z</time>
      </trkpt>
      <trkpt lat="38.127640960738063" lon="140.44985652901232">
        <ele>1758.8699999999999</ele>
        <time>2026-01-04T01:59:51Z</time>
      </trkpt>
      <trkpt lat="38.127643307670951" lon="140.44985024258494">
        <ele>1757.4300000000001</ele>
        <time>2026-01-04T01:59:56Z</time>
      </trkpt>
      <trkpt lat="38.12763836234808" lon="140.44985476881266">
        <ele>1755.02</ele>
        <time>2026-01-04T02:00:00Z</time>
      </trkpt>
      <trkpt lat="38.127634171396494" lon="140.44986625202">
        <ele>1755.5</ele>
        <time>2026-01-04T02:00:06Z</time>
      </trkpt>
      <trkpt lat="38.1276442296803" lon="140.44988117180765">
        <ele>1758.8699999999999</ele>
        <time>2026-01-04T02:00:12Z</time>
      </trkpt>
      <trkpt lat="38.127647330984473" lon="140.44987974688411">
        <ele>1755.5</ele>
        <time>2026-01-04T02:00:14Z</time>
      </trkpt>
      <trkpt lat="38.127645738422871" lon="140.44987622648478">
        <ele>1750.22</ele>
        <time>2026-01-04T02:00:16Z</time>
      </trkpt>
      <trkpt lat="38.12764473259449" lon="140.44987538829446">
        <ele>1751.6600000000001</ele>
        <time>2026-01-04T02:00:17Z</time>
      </trkpt>
      <trkpt lat="38.127644481137395" lon="140.44987429864705">
        <ele>1756.47</ele>
        <time>2026-01-04T02:00:19Z</time>
      </trkpt>
      <trkpt lat="38.127644397318363" lon="140.44987538829446">
        <ele>1756.47</ele>
        <time>2026-01-04T02:00:20Z</time>
      </trkpt>
      <trkpt lat="38.127646325156093" lon="140.44987899251282">
        <ele>1752.6199999999999</ele>
        <time>2026-01-04T02:00:25Z</time>
      </trkpt>
      <trkpt lat="38.127646744251251" lon="140.44987966306508">
        <ele>1755.02</ele>
        <time>2026-01-04T02:00:26Z</time>
      </trkpt>
      <trkpt lat="38.127642720937729" lon="140.44987211935222">
        <ele>1751.6600000000001</ele>
        <time>2026-01-04T02:00:37Z</time>
      </trkpt>
      <trkpt lat="38.127644145861268" lon="140.44986960478127">
        <ele>1755.5</ele>
        <time>2026-01-04T02:00:38Z</time>
      </trkpt>
      <trkpt lat="38.127644900232553" lon="140.44986926950514">
        <ele>1760.3099999999999</ele>
        <time>2026-01-04T02:00:39Z</time>
      </trkpt>
      <trkpt lat="38.12764473259449" lon="140.44987195171416">
        <ele>1757.4300000000001</ele>
        <time>2026-01-04T02:00:40Z</time>
      </trkpt>
      <trkpt lat="38.127645822241902" lon="140.44987320899963">
        <ele>1755.99</ele>
        <time>2026-01-04T02:00:43Z</time>
      </trkpt>
      <trkpt lat="38.127646073698997" lon="140.4498696886003">
        <ele>1752.6199999999999</ele>
        <time>2026-01-04T02:00:45Z</time>
      </trkpt>
      <trkpt lat="38.127642888575792" lon="140.449876813218">
        <ele>1759.8299999999999</ele>
        <time>2026-01-04T02:00:48Z</time>
      </trkpt>
      <trkpt lat="38.127642134204507" lon="140.44987723231316">
        <ele>1758.3900000000001</ele>
        <time>2026-01-04T02:00:49Z</time>
      </trkpt>
      <trkpt lat="38.127651186659932" lon="140.44986742548645">
        <ele>1755.99</ele>
        <time>2026-01-04T02:00:58Z</time>
      </trkpt>
      <trkpt lat="38.127660322934389" lon="140.4498680960387">
        <ele>1756.47</ele>
        <time>2026-01-04T02:01:08Z</time>
      </trkpt>
      <trkpt lat="38.12765889801085" lon="140.44986801221967">
        <ele>1755.02</ele>
        <time>2026-01-04T02:01:10Z</time>
      </trkpt>
      <trkpt lat="38.12765546143055" lon="140.4498630668968">
        <ele>1757.9100000000001</ele>
        <time>2026-01-04T02:01:15Z</time>
      </trkpt>
      <trkpt lat="38.12765403650701" lon="140.44986289925873">
        <ele>1755.5</ele>
        <time>2026-01-04T02:01:17Z</time>
      </trkpt>
      <trkpt lat="38.127651354297996" lon="140.44986491091549">
        <ele>1753.0999999999999</ele>
        <time>2026-01-04T02:01:20Z</time>
      </trkpt>
      <trkpt lat="38.127652024850249" lon="140.44986817985773">
        <ele>1752.1400000000001</ele>
        <time>2026-01-04T02:01:24Z</time>
      </trkpt>
      <trkpt lat="38.127652276307344" lon="140.44986750930548">
        <ele>1753.0999999999999</ele>
        <time>2026-01-04T02:01:28Z</time>
      </trkpt>
      <trkpt lat="38.1276511028409" lon="140.44986507855356">
        <ele>1750.22</ele>
        <time>2026-01-04T02:01:31Z</time>
      </trkpt>
      <trkpt lat="38.127650180831552" lon="140.44986331835389">
        <ele>1756.47</ele>
        <time>2026-01-04T02:01:34Z</time>
      </trkpt>
      <trkpt lat="38.127649426460266" lon="140.44986264780164">
        <ele>1756.47</ele>
        <time>2026-01-04T02:01:35Z</time>
      </trkpt>
      <trkpt lat="38.127648336812854" lon="140.44986574910581">
        <ele>1753.0999999999999</ele>
        <time>2026-01-04T02:01:40Z</time>
      </trkpt>
      <trkpt lat="38.127648252993822" lon="140.44986449182034">
        <ele>1759.8299999999999</ele>
        <time>2026-01-04T02:01:41Z</time>
      </trkpt>
      <trkpt lat="38.127649510279298" lon="140.44985996559262">
        <ele>1756.47</ele>
        <time>2026-01-04T02:01:43Z</time>
      </trkpt>
      <trkpt lat="38.127650264650583" lon="140.44985904358327">
        <ele>1756.47</ele>
        <time>2026-01-04T02:01:44Z</time>
      </trkpt>
      <trkpt lat="38.127649091184139" lon="140.44985954649746">
        <ele>1755.02</ele>
        <time>2026-01-04T02:01:52Z</time>
      </trkpt>
      <trkpt lat="38.127650264650583" lon="140.44986231252551">
        <ele>1756.47</ele>
        <time>2026-01-04T02:01:54Z</time>
      </trkpt>
      <trkpt lat="38.127650013193488" lon="140.44986507855356">
        <ele>1758.8699999999999</ele>
        <time>2026-01-04T02:01:56Z</time>
      </trkpt>
      <trkpt lat="38.127647414803505" lon="140.44987278990448">
        <ele>1752.1400000000001</ele>
        <time>2026-01-04T02:01:58Z</time>
      </trkpt>
      <trkpt lat="38.127649258822203" lon="140.44987706467509">
        <ele>1752.6199999999999</ele>
        <time>2026-01-04T02:01:59Z</time>
      </trkpt>
      <trkpt lat="38.127649175003171" lon="140.44988041743636">
        <ele>1756.95</ele>
        <time>2026-01-04T02:02:01Z</time>
      </trkpt>
      <trkpt lat="38.127649929374456" lon="140.44988167472184">
        <ele>1756.95</ele>
        <time>2026-01-04T02:02:02Z</time>
      </trkpt>
      <trkpt lat="38.127635177224874" lon="140.44988192617893">
        <ele>1755.02</ele>
        <time>2026-01-04T02:02:14Z</time>
      </trkpt>
      <trkpt lat="38.127630231902003" lon="140.44987010769546">
        <ele>1752.1400000000001</ele>
        <time>2026-01-04T02:02:21Z</time>
      </trkpt>
      <trkpt lat="38.127627968788147" lon="140.44986633583903">
        <ele>1756.95</ele>
        <time>2026-01-04T02:02:25Z</time>
      </trkpt>
      <trkpt lat="38.127630818635225" lon="140.44987639412284">
        <ele>1755.99</ele>
        <time>2026-01-04T02:02:50Z</time>
      </trkpt>
      <trkpt lat="38.127615479752421" lon="140.44986633583903">
        <ele>1755.99</ele>
        <time>2026-01-04T02:03:12Z</time>
      </trkpt>
      <trkpt lat="38.127625118941069" lon="140.44986583292484">
        <ele>1756.47</ele>
        <time>2026-01-04T02:03:36Z</time>
      </trkpt>
      <trkpt lat="38.127627465873957" lon="140.44986088760197">
        <ele>1758.3900000000001</ele>
        <time>2026-01-04T02:03:39Z</time>
      </trkpt>
      <trkpt lat="38.127629309892654" lon="140.44985862448812">
        <ele>1756.47</ele>
        <time>2026-01-04T02:03:41Z</time>
      </trkpt>
      <trkpt lat="38.127632243558764" lon="140.44985116459429">
        <ele>1757.9100000000001</ele>
        <time>2026-01-04T02:03:47Z</time>
      </trkpt>
      <trkpt lat="38.127644816413522" lon="140.44983901083469">
        <ele>1756.47</ele>
        <time>2026-01-04T02:04:07Z</time>
      </trkpt>
      <trkpt lat="38.127654287964106" lon="140.4498094227165">
        <ele>1755.99</ele>
        <time>2026-01-04T02:04:29Z</time>
      </trkpt>
      <trkpt lat="38.127679098397493" lon="140.44974312186241">
        <ele>1757.9100000000001</ele>
        <time>2026-01-04T02:04:43Z</time>
      </trkpt>
      <trkpt lat="38.127616653218865" lon="140.45002793893218">
        <ele>1763.6800000000001</ele>
        <time>2026-01-04T02:32:53Z</time>
      </trkpt>
      <trkpt lat="38.127628723159432" lon="140.4499545134604">
        <ele>1760.3099999999999</ele>
        <time>2026-01-04T02:32:55Z</time>
      </trkpt>
      <trkpt lat="38.127642469480634" lon="140.44990832917392">
        <ele>1758.8699999999999</ele>
        <time>2026-01-04T02:33:00Z</time>
      </trkpt>
      <trkpt lat="38.127651438117027" lon="140.44989156536758">
        <ele>1762.23</ele>
        <time>2026-01-04T02:33:03Z</time>
      </trkpt>
      <trkpt lat="38.127672057598829" lon="140.44988536275923">
        <ele>1757.4300000000001</ele>
        <time>2026-01-04T02:33:08Z</time>
      </trkpt>
      <trkpt lat="38.127665687352419" lon="140.44989231973886">
        <ele>1760.79</ele>
        <time>2026-01-04T02:33:10Z</time>
      </trkpt>
      <trkpt lat="38.127667615190148" lon="140.44989181682467">
        <ele>1756.47</ele>
        <time>2026-01-04T02:33:15Z</time>
      </trkpt>
      <trkpt lat="38.127670213580132" lon="140.44989248737693">
        <ele>1759.3499999999999</ele>
        <time>2026-01-04T02:33:16Z</time>
      </trkpt>
      <trkpt lat="38.127673733979464" lon="140.44989642687142">
        <ele>1764.1600000000001</ele>
        <time>2026-01-04T02:33:18Z</time>
      </trkpt>
      <trkpt lat="38.1276735663414" lon="140.4498958401382">
        <ele>1764.1600000000001</ele>
        <time>2026-01-04T02:33:19Z</time>
      </trkpt>
      <trkpt lat="38.127672644332051" lon="140.4498955886811">
        <ele>1755.99</ele>
        <time>2026-01-04T02:33:20Z</time>
      </trkpt>
      <trkpt lat="38.127671470865607" lon="140.4498955886811">
        <ele>1755.99</ele>
        <time>2026-01-04T02:33:21Z</time>
      </trkpt>
      <trkpt lat="38.127671973779798" lon="140.44989944435656">
        <ele>1764.1600000000001</ele>
        <time>2026-01-04T02:33:23Z</time>
      </trkpt>
      <trkpt lat="38.127673398703337" lon="140.44989843852818">
        <ele>1762.71</ele>
        <time>2026-01-04T02:33:24Z</time>
      </trkpt>
      <trkpt lat="38.127673817798495" lon="140.44989868998528">
        <ele>1750.7</ele>
        <time>2026-01-04T02:33:25Z</time>
      </trkpt>
      <trkpt lat="38.127673817798495" lon="140.44989734888077">
        <ele>1754.0599999999999</ele>
        <time>2026-01-04T02:33:26Z</time>
      </trkpt>
      <trkpt lat="38.127677338197827" lon="140.44989525340497">
        <ele>1758.8699999999999</ele>
        <time>2026-01-04T02:33:31Z</time>
      </trkpt>
      <trkpt lat="38.127678679302335" lon="140.44989466667175">
        <ele>1767.52</ele>
        <time>2026-01-04T02:33:33Z</time>
      </trkpt>
      <trkpt lat="38.127679349854589" lon="140.44989516958594">
        <ele>1761.75</ele>
        <time>2026-01-04T02:33:34Z</time>
      </trkpt>
      <trkpt lat="38.127680607140064" lon="140.4498921521008">
        <ele>1756.95</ele>
        <time>2026-01-04T02:33:36Z</time>
      </trkpt>
      <trkpt lat="38.127681529149413" lon="140.44988980516791">
        <ele>1756.95</ele>
        <time>2026-01-04T02:33:37Z</time>
      </trkpt>
      <trkpt lat="38.12768186442554" lon="140.44988779351115">
        <ele>1760.3099999999999</ele>
        <time>2026-01-04T02:33:38Z</time>
      </trkpt>
      <trkpt lat="38.127682115882635" lon="140.44988578185439">
        <ele>1766.0799999999999</ele>
        <time>2026-01-04T02:33:39Z</time>
      </trkpt>
      <trkpt lat="38.127682534977794" lon="140.44988485984504">
        <ele>1766.0799999999999</ele>
        <time>2026-01-04T02:33:40Z</time>
      </trkpt>
      <trkpt lat="38.127684546634555" lon="140.44988402165473">
        <ele>1761.75</ele>
        <time>2026-01-04T02:33:41Z</time>
      </trkpt>
      <trkpt lat="38.12768722884357" lon="140.44988200999796">
        <ele>1765.5999999999999</ele>
        <time>2026-01-04T02:33:42Z</time>
      </trkpt>
      <trkpt lat="38.127688486129045" lon="140.44988159090281">
        <ele>1771.8499999999999</ele>
        <time>2026-01-04T02:33:43Z</time>
      </trkpt>
      <trkpt lat="38.127689491957426" lon="140.44988385401666">
        <ele>1762.71</ele>
        <time>2026-01-04T02:33:44Z</time>
      </trkpt>
      <trkpt lat="38.127692257985473" lon="140.44988544657826">
        <ele>1757.4300000000001</ele>
        <time>2026-01-04T02:33:45Z</time>
      </trkpt>
      <trkpt lat="38.127695694565773" lon="140.44988444074988">
        <ele>1761.75</ele>
        <time>2026-01-04T02:33:46Z</time>
      </trkpt>
      <trkpt lat="38.127700053155422" lon="140.44988946989179">
        <ele>1771.3699999999999</ele>
        <time>2026-01-04T02:33:50Z</time>
      </trkpt>
      <trkpt lat="38.127703070640564" lon="140.44989324174821">
        <ele>1768.96</ele>
        <time>2026-01-04T02:33:51Z</time>
      </trkpt>
      <trkpt lat="38.127701813355088" lon="140.44989609159529">
        <ele>1760.79</ele>
        <time>2026-01-04T02:33:52Z</time>
      </trkpt>
      <trkpt lat="38.127704495564103" lon="140.44989952817559">
        <ele>1752.6199999999999</ele>
        <time>2026-01-04T02:33:53Z</time>
      </trkpt>
      <trkpt lat="38.127702567726374" lon="140.44990028254688">
        <ele>1768.48</ele>
        <time>2026-01-04T02:33:54Z</time>
      </trkpt>
      <trkpt lat="38.127702903002501" lon="140.44990137219429">
        <ele>1760.3099999999999</ele>
        <time>2026-01-04T02:33:55Z</time>
      </trkpt>
      <trkpt lat="38.127701142802835" lon="140.44990162365139">
        <ele>1755.99</ele>
        <time>2026-01-04T02:33:56Z</time>
      </trkpt>
      <trkpt lat="38.127700639888644" lon="140.44990028254688">
        <ele>1745.8900000000001</ele>
        <time>2026-01-04T02:33:59Z</time>
      </trkpt>
      <trkpt lat="38.127699382603168" lon="140.44989885762334">
        <ele>1763.6800000000001</ele>
        <time>2026-01-04T02:34:00Z</time>
      </trkpt>
      <trkpt lat="38.127698628231883" lon="140.4498971812427">
        <ele>1757.9100000000001</ele>
        <time>2026-01-04T02:34:01Z</time>
      </trkpt>
      <trkpt lat="38.127698544412851" lon="140.44989500194788">
        <ele>1768</ele>
        <time>2026-01-04T02:34:03Z</time>
      </trkpt>
      <trkpt lat="38.127699214965105" lon="140.44989181682467">
        <ele>1771.3699999999999</ele>
        <time>2026-01-04T02:34:04Z</time>
      </trkpt>
      <trkpt lat="38.12769996933639" lon="140.44988838024437">
        <ele>1759.8299999999999</ele>
        <time>2026-01-04T02:34:05Z</time>
      </trkpt>
      <trkpt lat="38.127699717879295" lon="140.44988620094955">
        <ele>1755.99</ele>
        <time>2026-01-04T02:34:07Z</time>
      </trkpt>
      <trkpt lat="38.127699550241232" lon="140.44988779351115">
        <ele>1755.99</ele>
        <time>2026-01-04T02:34:08Z</time>
      </trkpt>
      <trkpt lat="38.127701058983803" lon="140.44989617541432">
        <ele>1759.3499999999999</ele>
        <time>2026-01-04T02:34:10Z</time>
      </trkpt>
      <trkpt lat="38.127699634060264" lon="140.4499008692801">
        <ele>1759.3499999999999</ele>
        <time>2026-01-04T02:34:11Z</time>
      </trkpt>
      <trkpt lat="38.127691671252251" lon="140.44990606606007">
        <ele>1763.2</ele>
        <time>2026-01-04T02:34:14Z</time>
      </trkpt>
      <trkpt lat="38.127683792263269" lon="140.4499130230397">
        <ele>1764.6400000000001</ele>
        <time>2026-01-04T02:34:19Z</time>
      </trkpt>
      <trkpt lat="38.127682115882635" lon="140.44990975409746">
        <ele>1762.23</ele>
        <time>2026-01-04T02:34:22Z</time>
      </trkpt>
      <trkpt lat="38.127680188044906" lon="140.4499148670584">
        <ele>1765.1199999999999</ele>
        <time>2026-01-04T02:34:25Z</time>
      </trkpt>
      <trkpt lat="38.127678511664271" lon="140.44991536997259">
        <ele>1754.0599999999999</ele>
        <time>2026-01-04T02:34:27Z</time>
      </trkpt>
      <trkpt lat="38.127677254378796" lon="140.44991671107709">
        <ele>1760.79</ele>
        <time>2026-01-04T02:34:28Z</time>
      </trkpt>
      <trkpt lat="38.127676667645574" lon="140.44991687871516">
        <ele>1766.0799999999999</ele>
        <time>2026-01-04T02:34:29Z</time>
      </trkpt>
      <trkpt lat="38.127676416188478" lon="140.44991645962">
        <ele>1771.8499999999999</ele>
        <time>2026-01-04T02:34:30Z</time>
      </trkpt>
      <trkpt lat="38.127676332369447" lon="140.44991780072451">
        <ele>1765.5999999999999</ele>
        <time>2026-01-04T02:34:31Z</time>
      </trkpt>
      <trkpt lat="38.12767599709332" lon="140.4499183036387">
        <ele>1762.23</ele>
        <time>2026-01-04T02:34:33Z</time>
      </trkpt>
      <trkpt lat="38.127676835283637" lon="140.44991645962">
        <ele>1743.97</ele>
        <time>2026-01-04T02:34:34Z</time>
      </trkpt>
      <trkpt lat="38.127677505835891" lon="140.44991411268711">
        <ele>1759.8299999999999</ele>
        <time>2026-01-04T02:34:35Z</time>
      </trkpt>
      <trkpt lat="38.12767599709332" lon="140.44991226866841">
        <ele>1768.48</ele>
        <time>2026-01-04T02:34:37Z</time>
      </trkpt>
      <trkpt lat="38.127675745636225" lon="140.44990925118327">
        <ele>1763.2</ele>
        <time>2026-01-04T02:34:40Z</time>
      </trkpt>
      <trkpt lat="38.127674991264939" lon="140.44991042464972">
        <ele>1763.2</ele>
        <time>2026-01-04T02:34:41Z</time>
      </trkpt>
      <trkpt lat="38.127690497785807" lon="140.4499304573983">
        <ele>1751.6600000000001</ele>
        <time>2026-01-04T02:34:53Z</time>
      </trkpt>
      <trkpt lat="38.127690581604838" lon="140.44993489980698">
        <ele>1761.75</ele>
        <time>2026-01-04T02:34:55Z</time>
      </trkpt>
      <trkpt lat="38.127691755071282" lon="140.44993607327342">
        <ele>1755.02</ele>
        <time>2026-01-04T02:34:56Z</time>
      </trkpt>
      <trkpt lat="38.127692341804504" lon="140.4499405156821">
        <ele>1748.29</ele>
        <time>2026-01-04T02:34:58Z</time>
      </trkpt>
      <trkpt lat="38.127692006528378" lon="140.44994336552918">
        <ele>1773.29</ele>
        <time>2026-01-04T02:34:59Z</time>
      </trkpt>
      <trkpt lat="38.127690749242902" lon="140.44994856230915">
        <ele>1779.0599999999999</ele>
        <time>2026-01-04T02:35:00Z</time>
      </trkpt>
      <trkpt lat="38.12769116833806" lon="140.44995727948844">
        <ele>1766.5599999999999</ele>
        <time>2026-01-04T02:35:01Z</time>
      </trkpt>
      <trkpt lat="38.127694018185139" lon="140.44996473938227">
        <ele>1766.5599999999999</ele>
        <time>2026-01-04T02:35:02Z</time>
      </trkpt>
      <trkpt lat="38.127697706222534" lon="140.44996557757258">
        <ele>1764.1600000000001</ele>
        <time>2026-01-04T02:35:04Z</time>
      </trkpt>
      <trkpt lat="38.127700053155422" lon="140.449961386621">
        <ele>1762.23</ele>
        <time>2026-01-04T02:35:08Z</time>
      </trkpt>
      <trkpt lat="38.127699634060264" lon="140.44996415264904">
        <ele>1764.1600000000001</ele>
        <time>2026-01-04T02:35:10Z</time>
      </trkpt>
      <trkpt lat="38.127696868032217" lon="140.44996038079262">
        <ele>1762.71</ele>
        <time>2026-01-04T02:35:13Z</time>
      </trkpt>
      <trkpt lat="38.127692509442568" lon="140.4499492328614">
        <ele>1761.75</ele>
        <time>2026-01-04T02:35:20Z</time>
      </trkpt>
      <trkpt lat="38.127691587433219" lon="140.44993137940764">
        <ele>1762.71</ele>
        <time>2026-01-04T02:35:35Z</time>
      </trkpt>
      <trkpt lat="38.127689994871616" lon="140.4499283619225">
        <ele>1764.1600000000001</ele>
        <time>2026-01-04T02:35:37Z</time>
      </trkpt>
      <trkpt lat="38.127680774778128" lon="140.44992467388511">
        <ele>1761.27</ele>
        <time>2026-01-04T02:35:51Z</time>
      </trkpt>
      <trkpt lat="38.127665016800165" lon="140.44992500916123">
        <ele>1755.99</ele>
        <time>2026-01-04T02:35:56Z</time>
      </trkpt>
      <trkpt lat="38.12766426242888" lon="140.44992408715189">
        <ele>1763.6800000000001</ele>
        <time>2026-01-04T02:35:57Z</time>
      </trkpt>
      <trkpt lat="38.127664346247911" lon="140.44992350041866">
        <ele>1762.23</ele>
        <time>2026-01-04T02:35:58Z</time>
      </trkpt>
      <trkpt lat="38.127663759514689" lon="140.44992324896157">
        <ele>1760.3099999999999</ele>
        <time>2026-01-04T02:36:08Z</time>
      </trkpt>
      <trkpt lat="38.12766183167696" lon="140.44992769137025">
        <ele>1759.8299999999999</ele>
        <time>2026-01-04T02:36:12Z</time>
      </trkpt>
      <trkpt lat="38.127664010971785" lon="140.44991922564805">
        <ele>1761.75</ele>
        <time>2026-01-04T02:36:16Z</time>
      </trkpt>
      <trkpt lat="38.127665854990482" lon="140.44991671107709">
        <ele>1759.8299999999999</ele>
        <time>2026-01-04T02:36:18Z</time>
      </trkpt>
      <trkpt lat="38.12766426242888" lon="140.4499077424407">
        <ele>1760.79</ele>
        <time>2026-01-04T02:36:30Z</time>
      </trkpt>
      <trkpt lat="38.127669040113688" lon="140.44990497641265">
        <ele>1759.8299999999999</ele>
        <time>2026-01-04T02:36:43Z</time>
      </trkpt>
      <trkpt lat="38.127667112275958" lon="140.44991193339229">
        <ele>1761.75</ele>
        <time>2026-01-04T02:36:45Z</time>
      </trkpt>
      <trkpt lat="38.127654874697328" lon="140.44992534443736">
        <ele>1759.8299999999999</ele>
        <time>2026-01-04T02:37:10Z</time>
      </trkpt>
      <trkpt lat="38.127648755908012" lon="140.44992375187576">
        <ele>1761.27</ele>
        <time>2026-01-04T02:37:16Z</time>
      </trkpt>
      <trkpt lat="38.127647079527378" lon="140.44992618262768">
        <ele>1759.3499999999999</ele>
        <time>2026-01-04T02:37:25Z</time>
      </trkpt>
      <trkpt lat="38.127649929374456" lon="140.44993791729212">
        <ele>1758.8699999999999</ele>
        <time>2026-01-04T02:37:53Z</time>
      </trkpt>
      <trkpt lat="38.127648755908012" lon="140.44993691146374">
        <ele>1761.27</ele>
        <time>2026-01-04T02:37:55Z</time>
      </trkpt>
      <trkpt lat="38.127644648775458" lon="140.44993967749178">
        <ele>1761.27</ele>
        <time>2026-01-04T02:37:59Z</time>
      </trkpt>
      <trkpt lat="38.127640122547746" lon="140.44995015487075">
        <ele>1759.8299999999999</ele>
        <time>2026-01-04T02:38:10Z</time>
      </trkpt>
      <trkpt lat="38.127633081749082" lon="140.44998577795923">
        <ele>1760.79</ele>
        <time>2026-01-04T02:38:12Z</time>
      </trkpt>
      <trkpt lat="38.127642637118697" lon="140.45000539161265">
        <ele>1756.95</ele>
        <time>2026-01-04T02:38:13Z</time>
      </trkpt>
      <trkpt lat="38.127647330984473" lon="140.45001016929746">
        <ele>1756.95</ele>
        <time>2026-01-04T02:38:14Z</time>
      </trkpt>
      <trkpt lat="38.12766233459115" lon="140.45003095641732">
        <ele>1758.3900000000001</ele>
        <time>2026-01-04T02:38:19Z</time>
      </trkpt>
      <trkpt lat="38.127673650160432" lon="140.45004612766206">
        <ele>1758.8699999999999</ele>
        <time>2026-01-04T02:38:21Z</time>
      </trkpt>
      <trkpt lat="38.127706758677959" lon="140.45007806271315">
        <ele>1758.8699999999999</ele>
        <time>2026-01-04T02:38:34Z</time>
      </trkpt>
      <trkpt lat="38.1276994664222" lon="140.45006297528744">
        <ele>1755.5</ele>
        <time>2026-01-04T02:38:42Z</time>
      </trkpt>
      <trkpt lat="38.127697538584471" lon="140.45006071217358">
        <ele>1755.5</ele>
        <time>2026-01-04T02:38:43Z</time>
      </trkpt>
      <trkpt lat="38.127689743414521" lon="140.45005769468844">
        <ele>1755.02</ele>
        <time>2026-01-04T02:38:48Z</time>
      </trkpt>
      <trkpt lat="38.127683037891984" lon="140.45005048625171">
        <ele>1755.99</ele>
        <time>2026-01-04T02:38:56Z</time>
      </trkpt>
      <trkpt lat="38.127682451158762" lon="140.45005358755589">
        <ele>1759.3499999999999</ele>
        <time>2026-01-04T02:38:58Z</time>
      </trkpt>
      <trkpt lat="38.127683540806174" lon="140.45005643740296">
        <ele>1757.4300000000001</ele>
        <time>2026-01-04T02:38:59Z</time>
      </trkpt>
      <trkpt lat="38.127709021791816" lon="140.45008845627308">
        <ele>1756.95</ele>
        <time>2026-01-04T02:39:09Z</time>
      </trkpt>
      <trkpt lat="38.127709524706006" lon="140.45008988119662">
        <ele>1759.8299999999999</ele>
        <time>2026-01-04T02:39:11Z</time>
      </trkpt>
      <trkpt lat="38.127708937972784" lon="140.45009030029178">
        <ele>1759.8299999999999</ele>
        <time>2026-01-04T02:39:12Z</time>
      </trkpt>
      <trkpt lat="38.127727210521698" lon="140.45010329224169">
        <ele>1759.3499999999999</ele>
        <time>2026-01-04T02:39:19Z</time>
      </trkpt>
      <trkpt lat="38.127741795033216" lon="140.45014285482466">
        <ele>1756.47</ele>
        <time>2026-01-04T02:39:22Z</time>
      </trkpt>
      <trkpt lat="38.127731066197157" lon="140.45015777461231">
        <ele>1754.0599999999999</ele>
        <time>2026-01-04T02:39:23Z</time>
      </trkpt>
      <trkpt lat="38.127728970721364" lon="140.45016280375421">
        <ele>1753.5799999999999</ele>
        <time>2026-01-04T02:39:24Z</time>
      </trkpt>
      <trkpt lat="38.127722768113017" lon="140.45016825199127">
        <ele>1749.26</ele>
        <time>2026-01-04T02:39:25Z</time>
      </trkpt>
      <trkpt lat="38.127733748406172" lon="140.45016179792583">
        <ele>1749.74</ele>
        <time>2026-01-04T02:39:26Z</time>
      </trkpt>
      <trkpt lat="38.127749422565103" lon="140.4501479677856">
        <ele>1752.1400000000001</ele>
        <time>2026-01-04T02:39:34Z</time>
      </trkpt>
      <trkpt lat="38.127749590203166" lon="140.45012441463768">
        <ele>1749.26</ele>
        <time>2026-01-04T02:39:41Z</time>
      </trkpt>
      <trkpt lat="38.1277443934232" lon="140.45010698027909">
        <ele>1752.6199999999999</ele>
        <time>2026-01-04T02:39:49Z</time>
      </trkpt>
      <trkpt lat="38.127743303775787" lon="140.45010572299361">
        <ele>1752.6199999999999</ele>
        <time>2026-01-04T02:39:50Z</time>
      </trkpt>
      <trkpt lat="38.127751434221864" lon="140.45009851455688">
        <ele>1750.22</ele>
        <time>2026-01-04T02:39:57Z</time>
      </trkpt>
      <trkpt lat="38.127754786983132" lon="140.45009172521532">
        <ele>1750.7</ele>
        <time>2026-01-04T02:40:04Z</time>
      </trkpt>
      <trkpt lat="38.127762582153082" lon="140.45008996501565">
        <ele>1755.02</ele>
        <time>2026-01-04T02:40:09Z</time>
      </trkpt>
      <trkpt lat="38.127764007076621" lon="140.45009038411081">
        <ele>1754.0599999999999</ele>
        <time>2026-01-04T02:40:10Z</time>
      </trkpt>
      <trkpt lat="38.127765599638224" lon="140.45008694753051">
        <ele>1751.1800000000001</ele>
        <time>2026-01-04T02:40:12Z</time>
      </trkpt>
      <trkpt lat="38.127774568274617" lon="140.45007320120931">
        <ele>1747.8099999999999</ele>
        <time>2026-01-04T02:40:24Z</time>
      </trkpt>
      <trkpt lat="38.127775490283966" lon="140.45007328502834">
        <ele>1749.26</ele>
        <time>2026-01-04T02:40:25Z</time>
      </trkpt>
      <trkpt lat="38.127789823338389" lon="140.45006850734353">
        <ele>1748.78</ele>
        <time>2026-01-04T02:40:35Z</time>
      </trkpt>
      <trkpt lat="38.127797869965434" lon="140.45006699860096">
        <ele>1751.1800000000001</ele>
        <time>2026-01-04T02:40:42Z</time>
      </trkpt>
      <trkpt lat="38.127800216898322" lon="140.45006632804871">
        <ele>1749.26</ele>
        <time>2026-01-04T02:40:44Z</time>
      </trkpt>
      <trkpt lat="38.12780155800283" lon="140.45006557367742">
        <ele>1745.8900000000001</ele>
        <time>2026-01-04T02:40:46Z</time>
      </trkpt>
      <trkpt lat="38.127800803631544" lon="140.45006465166807">
        <ele>1749.74</ele>
        <time>2026-01-04T02:40:48Z</time>
      </trkpt>
      <trkpt lat="38.127800887450576" lon="140.45006507076323">
        <ele>1749.74</ele>
        <time>2026-01-04T02:40:49Z</time>
      </trkpt>
      <trkpt lat="38.127800635993481" lon="140.45007127337158">
        <ele>1755.5</ele>
        <time>2026-01-04T02:40:56Z</time>
      </trkpt>
      <trkpt lat="38.127798708155751" lon="140.45007571578026">
        <ele>1754.0599999999999</ele>
        <time>2026-01-04T02:40:57Z</time>
      </trkpt>
      <trkpt lat="38.127795020118356" lon="140.45008921064436">
        <ele>1755.99</ele>
        <time>2026-01-04T02:41:00Z</time>
      </trkpt>
      <trkpt lat="38.127792673185468" lon="140.45009348541498">
        <ele>1757.9100000000001</ele>
        <time>2026-01-04T02:41:03Z</time>
      </trkpt>
      <trkpt lat="38.127792421728373" lon="140.45009046792984">
        <ele>1750.7</ele>
        <time>2026-01-04T02:41:04Z</time>
      </trkpt>
      <trkpt lat="38.127791751176119" lon="140.4500871989876">
        <ele>1750.7</ele>
        <time>2026-01-04T02:41:05Z</time>
      </trkpt>
      <trkpt lat="38.127794433385134" lon="140.45007563196123">
        <ele>1753.0999999999999</ele>
        <time>2026-01-04T02:41:09Z</time>
      </trkpt>
      <trkpt lat="38.127797450870275" lon="140.45006968080997">
        <ele>1749.74</ele>
        <time>2026-01-04T02:41:12Z</time>
      </trkpt>
      <trkpt lat="38.127799378708005" lon="140.45006917789578">
        <ele>1755.5</ele>
        <time>2026-01-04T02:41:16Z</time>
      </trkpt>
      <trkpt lat="38.127799043431878" lon="140.4500700160861">
        <ele>1755.5</ele>
        <time>2026-01-04T02:41:17Z</time>
      </trkpt>
      <trkpt lat="38.127795606851578" lon="140.45008074492216">
        <ele>1752.1400000000001</ele>
        <time>2026-01-04T02:41:23Z</time>
      </trkpt>
      <trkpt lat="38.127793092280626" lon="140.45007621869445">
        <ele>1750.7</ele>
        <time>2026-01-04T02:41:29Z</time>
      </trkpt>
      <trkpt lat="38.127792086452246" lon="140.45007269829512">
        <ele>1752.1400000000001</ele>
        <time>2026-01-04T02:41:31Z</time>
      </trkpt>
      <trkpt lat="38.127791248261929" lon="140.45007144100964">
        <ele>1755.99</ele>
        <time>2026-01-04T02:41:33Z</time>
      </trkpt>
      <trkpt lat="38.127788146957755" lon="140.45007890090346">
        <ele>1757.4300000000001</ele>
        <time>2026-01-04T02:41:37Z</time>
      </trkpt>
      <trkpt lat="38.127791583538055" lon="140.4500768892467">
        <ele>1751.6600000000001</ele>
        <time>2026-01-04T02:41:40Z</time>
      </trkpt>
      <trkpt lat="38.127805246040225" lon="140.45006305910647">
        <ele>1749.74</ele>
        <time>2026-01-04T02:41:57Z</time>
      </trkpt>
      <trkpt lat="38.127805748954415" lon="140.45006213709712">
        <ele>1755.02</ele>
        <time>2026-01-04T02:41:59Z</time>
      </trkpt>
      <trkpt lat="38.127804743126035" lon="140.45006523840129">
        <ele>1751.6600000000001</ele>
        <time>2026-01-04T02:42:03Z</time>
      </trkpt>
      <trkpt lat="38.12780549749732" lon="140.45006649568677">
        <ele>1751.6600000000001</ele>
        <time>2026-01-04T02:42:04Z</time>
      </trkpt>
      <trkpt lat="38.1278030667454" lon="140.45006649568677">
        <ele>1752.1400000000001</ele>
        <time>2026-01-04T02:42:09Z</time>
      </trkpt>
      <trkpt lat="38.127791751176119" lon="140.45006993226707">
        <ele>1755.99</ele>
        <time>2026-01-04T02:42:18Z</time>
      </trkpt>
      <trkpt lat="38.127790996804833" lon="140.45007395558059">
        <ele>1755.99</ele>
        <time>2026-01-04T02:42:19Z</time>
      </trkpt>
      <trkpt lat="38.127789236605167" lon="140.45007630251348">
        <ele>1751.6600000000001</ele>
        <time>2026-01-04T02:42:21Z</time>
      </trkpt>
      <trkpt lat="38.127787224948406" lon="140.45008191838861">
        <ele>1747.8099999999999</ele>
        <time>2026-01-04T02:42:25Z</time>
      </trkpt>
      <trkpt lat="38.127786638215184" lon="140.45008393004537">
        <ele>1752.6199999999999</ele>
        <time>2026-01-04T02:42:26Z</time>
      </trkpt>
      <trkpt lat="38.127787476405501" lon="140.45008535496891">
        <ele>1752.6199999999999</ele>
        <time>2026-01-04T02:42:30Z</time>
      </trkpt>
      <trkpt lat="38.127782866358757" lon="140.450090887025">
        <ele>1757.4300000000001</ele>
        <time>2026-01-04T02:42:32Z</time>
      </trkpt>
      <trkpt lat="38.127782614901662" lon="140.45009071938694">
        <ele>1755.99</ele>
        <time>2026-01-04T02:42:33Z</time>
      </trkpt>
      <trkpt lat="38.127781692892313" lon="140.45009030029178">
        <ele>1753.0999999999999</ele>
        <time>2026-01-04T02:42:34Z</time>
      </trkpt>
      <trkpt lat="38.127782363444567" lon="140.45008812099695">
        <ele>1750.22</ele>
        <time>2026-01-04T02:42:36Z</time>
      </trkpt>
      <trkpt lat="38.127783536911011" lon="140.45007864944637">
        <ele>1751.6600000000001</ele>
        <time>2026-01-04T02:42:41Z</time>
      </trkpt>
      <trkpt lat="38.127778759226203" lon="140.45007479377091">
        <ele>1755.5</ele>
        <time>2026-01-04T02:42:47Z</time>
      </trkpt>
      <trkpt lat="38.12777666375041" lon="140.45007630251348">
        <ele>1752.1400000000001</ele>
        <time>2026-01-04T02:42:49Z</time>
      </trkpt>
      <trkpt lat="38.127777082845569" lon="140.45007705688477">
        <ele>1752.1400000000001</ele>
        <time>2026-01-04T02:42:50Z</time>
      </trkpt>
      <trkpt lat="38.127775155007839" lon="140.45008108019829">
        <ele>1755.02</ele>
        <time>2026-01-04T02:42:52Z</time>
      </trkpt>
      <trkpt lat="38.127762665972114" lon="140.45009633526206">
        <ele>1755.99</ele>
        <time>2026-01-04T02:43:11Z</time>
      </trkpt>
      <trkpt lat="38.127764174714684" lon="140.45010262168944">
        <ele>1751.6600000000001</ele>
        <time>2026-01-04T02:43:14Z</time>
      </trkpt>
      <trkpt lat="38.127763923257589" lon="140.45010471716523">
        <ele>1751.1800000000001</ele>
        <time>2026-01-04T02:43:16Z</time>
      </trkpt>
      <trkpt lat="38.127751685678959" lon="140.45009683817625">
        <ele>1751.6600000000001</ele>
        <time>2026-01-04T02:43:24Z</time>
      </trkpt>
      <trkpt lat="38.127745147794485" lon="140.45009423978627">
        <ele>1754.0599999999999</ele>
        <time>2026-01-04T02:43:30Z</time>
      </trkpt>
      <trkpt lat="38.127744561061263" lon="140.45010102912784">
        <ele>1759.3499999999999</ele>
        <time>2026-01-04T02:43:33Z</time>
      </trkpt>
      <trkpt lat="38.127750931307673" lon="140.45011125504971">
        <ele>1755.5</ele>
        <time>2026-01-04T02:43:35Z</time>
      </trkpt>
      <trkpt lat="38.127757636830211" lon="140.45011695474386">
        <ele>1750.7</ele>
        <time>2026-01-04T02:43:38Z</time>
      </trkpt>
      <trkpt lat="38.127758055925369" lon="140.45011737383902">
        <ele>1750.7</ele>
        <time>2026-01-04T02:43:39Z</time>
      </trkpt>
      <trkpt lat="38.127758307382464" lon="140.45012114569545">
        <ele>1753.5799999999999</ele>
        <time>2026-01-04T02:43:43Z</time>
      </trkpt>
      <trkpt lat="38.12775906175375" lon="140.45012583956122">
        <ele>1752.1400000000001</ele>
        <time>2026-01-04T02:43:47Z</time>
      </trkpt>
      <trkpt lat="38.127758391201496" lon="140.45012759976089">
        <ele>1753.5799999999999</ele>
        <time>2026-01-04T02:43:49Z</time>
      </trkpt>
      <trkpt lat="38.127756714820862" lon="140.45013103634119">
        <ele>1751.6600000000001</ele>
        <time>2026-01-04T02:43:51Z</time>
      </trkpt>
      <trkpt lat="38.127756798639894" lon="140.45014511793852">
        <ele>1755.5</ele>
        <time>2026-01-04T02:44:00Z</time>
      </trkpt>
      <trkpt lat="38.127752607688308" lon="140.45014218427241">
        <ele>1754.0599999999999</ele>
        <time>2026-01-04T02:44:14Z</time>
      </trkpt>
      <trkpt lat="38.12775076366961" lon="140.45014897361398">
        <ele>1755.5</ele>
        <time>2026-01-04T02:44:20Z</time>
      </trkpt>
      <trkpt lat="38.127748919650912" lon="140.45014687813818">
        <ele>1751.1800000000001</ele>
        <time>2026-01-04T02:44:25Z</time>
      </trkpt>
      <trkpt lat="38.127749925479293" lon="140.45014704577625">
        <ele>1751.1800000000001</ele>
        <time>2026-01-04T02:44:26Z</time>
      </trkpt>
      <trkpt lat="38.127751182764769" lon="140.45014528557658">
        <ele>1755.5</ele>
        <time>2026-01-04T02:44:28Z</time>
      </trkpt>
      <trkpt lat="38.127751434221864" lon="140.45014436356723">
        <ele>1751.6600000000001</ele>
        <time>2026-01-04T02:44:31Z</time>
      </trkpt>
      <trkpt lat="38.127752020955086" lon="140.45014436356723">
        <ele>1754.54</ele>
        <time>2026-01-04T02:44:33Z</time>
      </trkpt>
      <trkpt lat="38.127752607688308" lon="140.45014218427241">
        <ele>1755.99</ele>
        <time>2026-01-04T02:44:37Z</time>
      </trkpt>
      <trkpt lat="38.127750176936388" lon="140.45014394447207">
        <ele>1752.1400000000001</ele>
        <time>2026-01-04T02:44:41Z</time>
      </trkpt>
      <trkpt lat="38.127748081460595" lon="140.45014469884336">
        <ele>1756.47</ele>
        <time>2026-01-04T02:44:43Z</time>
      </trkpt>
      <trkpt lat="38.127746907994151" lon="140.45014511793852">
        <ele>1756.47</ele>
        <time>2026-01-04T02:44:44Z</time>
      </trkpt>
      <trkpt lat="38.127745985984802" lon="140.45014469884336">
        <ele>1752.6199999999999</ele>
        <time>2026-01-04T02:44:45Z</time>
      </trkpt>
      <trkpt lat="38.127739783376455" lon="140.45013715513051">
        <ele>1755.99</ele>
        <time>2026-01-04T02:44:54Z</time>
      </trkpt>
      <trkpt lat="38.127739112824202" lon="140.45015073381364">
        <ele>1759.3499999999999</ele>
        <time>2026-01-04T02:45:05Z</time>
      </trkpt>
      <trkpt lat="38.127744728699327" lon="140.45016372576356">
        <ele>1755.99</ele>
        <time>2026-01-04T02:45:12Z</time>
      </trkpt>
      <trkpt lat="38.12774539925158" lon="140.45016682706773">
        <ele>1754.54</ele>
        <time>2026-01-04T02:45:15Z</time>
      </trkpt>
      <trkpt lat="38.127746572718024" lon="140.45016783289611">
        <ele>1756.95</ele>
        <time>2026-01-04T02:45:18Z</time>
      </trkpt>
      <trkpt lat="38.1277512665838" lon="140.45017160475254">
        <ele>1754.0599999999999</ele>
        <time>2026-01-04T02:45:32Z</time>
      </trkpt>
      <trkpt lat="38.127752020955086" lon="140.45017328113317">
        <ele>1755.5</ele>
        <time>2026-01-04T02:45:34Z</time>
      </trkpt>
      <trkpt lat="38.127751350402832" lon="140.45017772354186">
        <ele>1754.0599999999999</ele>
        <time>2026-01-04T02:45:38Z</time>
      </trkpt>
      <trkpt lat="38.127751518040895" lon="140.45017981901765">
        <ele>1756.95</ele>
        <time>2026-01-04T02:45:40Z</time>
      </trkpt>
      <trkpt lat="38.127754284068942" lon="140.45017370022833">
        <ele>1755.5</ele>
        <time>2026-01-04T02:45:44Z</time>
      </trkpt>
      <trkpt lat="38.127759480848908" lon="140.45017185620964">
        <ele>1758.3900000000001</ele>
        <time>2026-01-04T02:45:50Z</time>
      </trkpt>
      <trkpt lat="38.127759983763099" lon="140.45017269439995">
        <ele>1758.3900000000001</ele>
        <time>2026-01-04T02:45:51Z</time>
      </trkpt>
      <trkpt lat="38.127758977934718" lon="140.45016909018159">
        <ele>1756.47</ele>
        <time>2026-01-04T02:45:53Z</time>
      </trkpt>
      <trkpt lat="38.127758726477623" lon="140.45016473159194">
        <ele>1755.02</ele>
        <time>2026-01-04T02:45:56Z</time>
      </trkpt>
      <trkpt lat="38.12776149250567" lon="140.4501527454704">
        <ele>1756.47</ele>
        <time>2026-01-04T02:46:03Z</time>
      </trkpt>
      <trkpt lat="38.127762749791145" lon="140.45014830306172">
        <ele>1753.5799999999999</ele>
        <time>2026-01-04T02:46:05Z</time>
      </trkpt>
      <trkpt lat="38.127765264362097" lon="140.45013589784503">
        <ele>1755.5</ele>
        <time>2026-01-04T02:46:09Z</time>
      </trkpt>
      <trkpt lat="38.127751937136054" lon="140.45009826309979">
        <ele>1759.8299999999999</ele>
        <time>2026-01-04T02:46:34Z</time>
      </trkpt>
      <trkpt lat="38.127746740356088" lon="140.45010874047875">
        <ele>1762.23</ele>
        <time>2026-01-04T02:46:42Z</time>
      </trkpt>
      <trkpt lat="38.127706842496991" lon="140.450170179829">
        <ele>1761.75</ele>
        <time>2026-01-04T02:46:46Z</time>
      </trkpt>
      <trkpt lat="38.127699801698327" lon="140.450209826231">
        <ele>1760.79</ele>
        <time>2026-01-04T02:46:47Z</time>
      </trkpt>
      <trkpt lat="38.127706842496991" lon="140.45024679042399">
        <ele>1759.3499999999999</ele>
        <time>2026-01-04T02:46:48Z</time>
      </trkpt>
      <trkpt lat="38.127727881073952" lon="140.45028945431113">
        <ele>1758.8699999999999</ele>
        <time>2026-01-04T02:46:49Z</time>
      </trkpt>
      <trkpt lat="38.127754954621196" lon="140.45031652785838">
        <ele>1756.47</ele>
        <time>2026-01-04T02:46:50Z</time>
      </trkpt>
      <trkpt lat="38.12776543200016" lon="140.4503274243325">
        <ele>1756.47</ele>
        <time>2026-01-04T02:46:51Z</time>
      </trkpt>
      <trkpt lat="38.127772640436888" lon="140.45033974573016">
        <ele>1756.47</ele>
        <time>2026-01-04T02:46:52Z</time>
      </trkpt>
      <trkpt lat="38.127856124192476" lon="140.45041325502098">
        <ele>1753.5799999999999</ele>
        <time>2026-01-04T02:47:01Z</time>
      </trkpt>
      <trkpt lat="38.127927789464593" lon="140.45043546706438">
        <ele>1752.1400000000001</ele>
        <time>2026-01-04T02:47:08Z</time>
      </trkpt>
      <trkpt lat="38.127929046750069" lon="140.45046555809677">
        <ele>1752.1400000000001</ele>
        <time>2026-01-04T02:47:18Z</time>
      </trkpt>
      <trkpt lat="38.127927370369434" lon="140.45048240572214">
        <ele>1751.1800000000001</ele>
        <time>2026-01-04T02:47:19Z</time>
      </trkpt>
      <trkpt lat="38.127896524965763" lon="140.45050981454551">
        <ele>1749.26</ele>
        <time>2026-01-04T02:47:22Z</time>
      </trkpt>
      <trkpt lat="38.127884706482291" lon="140.45051677152514">
        <ele>1750.22</ele>
        <time>2026-01-04T02:47:24Z</time>
      </trkpt>
      <trkpt lat="38.127888897433877" lon="140.45053261332214">
        <ele>1750.22</ele>
        <time>2026-01-04T02:47:32Z</time>
      </trkpt>
      <trkpt lat="38.127889819443226" lon="140.45058659277856">
        <ele>1748.78</ele>
        <time>2026-01-04T02:47:34Z</time>
      </trkpt>
      <trkpt lat="38.1279774941504" lon="140.45063068158925">
        <ele>1745.8900000000001</ele>
        <time>2026-01-04T02:47:38Z</time>
      </trkpt>
      <trkpt lat="38.128013787791133" lon="140.45064107514918">
        <ele>1744.9300000000001</ele>
        <time>2026-01-04T02:47:44Z</time>
      </trkpt>
      <trkpt lat="38.128083692863584" lon="140.45072422362864">
        <ele>1742.53</ele>
        <time>2026-01-04T02:47:49Z</time>
      </trkpt>
      <trkpt lat="38.12808059155941" lon="140.45073369517922">
        <ele>1742.05</ele>
        <time>2026-01-04T02:47:54Z</time>
      </trkpt>
      <trkpt lat="38.128087045624852" lon="140.45074962079525">
        <ele>1741.0799999999999</ele>
        <time>2026-01-04T02:47:55Z</time>
      </trkpt>
      <trkpt lat="38.128094840794802" lon="140.4507658816874">
        <ele>1740.5999999999999</ele>
        <time>2026-01-04T02:47:56Z</time>
      </trkpt>
      <trkpt lat="38.128096684813499" lon="140.45078566297889">
        <ele>1740.5999999999999</ele>
        <time>2026-01-04T02:48:09Z</time>
      </trkpt>
      <trkpt lat="38.128108084201813" lon="140.45079303905368">
        <ele>1742.53</ele>
        <time>2026-01-04T02:48:16Z</time>
      </trkpt>
      <trkpt lat="38.128110850229859" lon="140.4507954698056">
        <ele>1740.5999999999999</ele>
        <time>2026-01-04T02:48:18Z</time>
      </trkpt>
      <trkpt lat="38.128110179677606" lon="140.45082958415151">
        <ele>1739.1600000000001</ele>
        <time>2026-01-04T02:48:22Z</time>
      </trkpt>
      <trkpt lat="38.128082770854235" lon="140.45084148645401">
        <ele>1737.72</ele>
        <time>2026-01-04T02:48:24Z</time>
      </trkpt>
      <trkpt lat="38.128077574074268" lon="140.45084307901561">
        <ele>1736.28</ele>
        <time>2026-01-04T02:48:28Z</time>
      </trkpt>
      <trkpt lat="38.128075562417507" lon="140.45084668323398">
        <ele>1736.28</ele>
        <time>2026-01-04T02:48:29Z</time>
      </trkpt>
      <trkpt lat="38.128092661499977" lon="140.45089781284332">
        <ele>1736.28</ele>
        <time>2026-01-04T02:48:33Z</time>
      </trkpt>
      <trkpt lat="38.128117891028523" lon="140.45092832297087">
        <ele>1734.3599999999999</ele>
        <time>2026-01-04T02:48:35Z</time>
      </trkpt>
      <trkpt lat="38.128145970404148" lon="140.45094357803464">
        <ele>1732.4300000000001</ele>
        <time>2026-01-04T02:48:38Z</time>
      </trkpt>
      <trkpt lat="38.128182431682944" lon="140.45098062604666">
        <ele>1730.03</ele>
        <time>2026-01-04T02:48:44Z</time>
      </trkpt>
      <trkpt lat="38.128237752243876" lon="140.45104315504432">
        <ele>1727.6300000000001</ele>
        <time>2026-01-04T02:48:57Z</time>
      </trkpt>
      <trkpt lat="38.128237584605813" lon="140.45105128549039">
        <ele>1728.1099999999999</ele>
        <time>2026-01-04T02:49:07Z</time>
      </trkpt>
      <trkpt lat="38.128234734758735" lon="140.45105111785233">
        <ele>1726.6700000000001</ele>
        <time>2026-01-04T02:49:12Z</time>
      </trkpt>
      <trkpt lat="38.128262395039201" lon="140.45106343924999">
        <ele>1726.6700000000001</ele>
        <time>2026-01-04T02:49:16Z</time>
      </trkpt>
      <trkpt lat="38.128287373110652" lon="140.4510684683919">
        <ele>1724.74</ele>
        <time>2026-01-04T02:49:17Z</time>
      </trkpt>
      <trkpt lat="38.128295755013824" lon="140.45106779783964">
        <ele>1721.3800000000001</ele>
        <time>2026-01-04T02:49:18Z</time>
      </trkpt>
      <trkpt lat="38.128301622346044" lon="140.45106997713447">
        <ele>1725.7</ele>
        <time>2026-01-04T02:49:19Z</time>
      </trkpt>
      <trkpt lat="38.128303801640868" lon="140.45107643119991">
        <ele>1723.78</ele>
        <time>2026-01-04T02:49:26Z</time>
      </trkpt>
      <trkpt lat="38.128299862146378" lon="140.45109889470041">
        <ele>1722.8199999999999</ele>
        <time>2026-01-04T02:49:27Z</time>
      </trkpt>
      <trkpt lat="38.128286367282271" lon="140.45111808925867">
        <ele>1721.8599999999999</ele>
        <time>2026-01-04T02:49:28Z</time>
      </trkpt>
      <trkpt lat="38.12827899120748" lon="140.45112437568605">
        <ele>1721.8599999999999</ele>
        <time>2026-01-04T02:49:29Z</time>
      </trkpt>
      <trkpt lat="38.128283685073256" lon="140.45112823136151">
        <ele>1720.9000000000001</ele>
        <time>2026-01-04T02:49:31Z</time>
      </trkpt>
      <trkpt lat="38.128288043662906" lon="140.45113342814147">
        <ele>1720.9000000000001</ele>
        <time>2026-01-04T02:49:35Z</time>
      </trkpt>
      <trkpt lat="38.128288798034191" lon="140.45115245506167">
        <ele>1719.9400000000001</ele>
        <time>2026-01-04T02:49:36Z</time>
      </trkpt>
      <trkpt lat="38.128301287069917" lon="140.45117114670575">
        <ele>1718.97</ele>
        <time>2026-01-04T02:49:37Z</time>
      </trkpt>
      <trkpt lat="38.128320649266243" lon="140.45119134709239">
        <ele>1714.6500000000001</ele>
        <time>2026-01-04T02:49:38Z</time>
      </trkpt>
      <trkpt lat="38.128346633166075" lon="140.45121364295483">
        <ele>1718.49</ele>
        <time>2026-01-04T02:49:39Z</time>
      </trkpt>
      <trkpt lat="38.128364235162735" lon="140.45122613199055">
        <ele>1721.8599999999999</ele>
        <time>2026-01-04T02:49:41Z</time>
      </trkpt>
      <trkpt lat="38.128360630944371" lon="140.45122998766601">
        <ele>1718.01</ele>
        <time>2026-01-04T02:49:42Z</time>
      </trkpt>
      <trkpt lat="38.12835275195539" lon="140.45124440453947">
        <ele>1718.01</ele>
        <time>2026-01-04T02:49:49Z</time>
      </trkpt>
      <trkpt lat="38.128357194364071" lon="140.45127181336284">
        <ele>1718.01</ele>
        <time>2026-01-04T02:49:50Z</time>
      </trkpt>
      <trkpt lat="38.128375299274921" lon="140.45133995823562">
        <ele>1716.0899999999999</ele>
        <time>2026-01-04T02:49:52Z</time>
      </trkpt>
      <trkpt lat="38.128422740846872" lon="140.45138739980757">
        <ele>1715.1300000000001</ele>
        <time>2026-01-04T02:50:00Z</time>
      </trkpt>
      <trkpt lat="38.128436570987105" lon="140.45140550471842">
        <ele>1713.21</ele>
        <time>2026-01-04T02:50:04Z</time>
      </trkpt>
      <trkpt lat="38.128433721140027" lon="140.45142377726734">
        <ele>1712.73</ele>
        <time>2026-01-04T02:50:05Z</time>
      </trkpt>
      <trkpt lat="38.128422824665904" lon="140.45143492519855">
        <ele>1712.73</ele>
        <time>2026-01-04T02:50:06Z</time>
      </trkpt>
      <trkpt lat="38.12841335311532" lon="140.45144012197852">
        <ele>1712.25</ele>
        <time>2026-01-04T02:50:07Z</time>
      </trkpt>
      <trkpt lat="38.128410084173083" lon="140.45145764015615">
        <ele>1710.8</ele>
        <time>2026-01-04T02:50:08Z</time>
      </trkpt>
      <trkpt lat="38.128420980647206" lon="140.45147867873311">
        <ele>1711.76</ele>
        <time>2026-01-04T02:50:09Z</time>
      </trkpt>
      <trkpt lat="38.128440007567406" lon="140.45149896293879">
        <ele>1709.8399999999999</ele>
        <time>2026-01-04T02:50:10Z</time>
      </trkpt>
      <trkpt lat="38.128469092771411" lon="140.45152561739087">
        <ele>1709.3599999999999</ele>
        <time>2026-01-04T02:50:12Z</time>
      </trkpt>
      <trkpt lat="38.128490382805467" lon="140.45157465152442">
        <ele>1707.9200000000001</ele>
        <time>2026-01-04T02:50:16Z</time>
      </trkpt>
      <trkpt lat="38.128481078892946" lon="140.45159175060689">
        <ele>1707.4400000000001</ele>
        <time>2026-01-04T02:50:17Z</time>
      </trkpt>
      <trkpt lat="38.128469260409474" lon="140.45159434899688">
        <ele>1706.96</ele>
        <time>2026-01-04T02:50:18Z</time>
      </trkpt>
      <trkpt lat="38.128457861021161" lon="140.45159250497818">
        <ele>1702.6300000000001</ele>
        <time>2026-01-04T02:50:19Z</time>
      </trkpt>
      <trkpt lat="38.128467332571745" lon="140.45158848166466">
        <ele>1704.55</ele>
        <time>2026-01-04T02:50:20Z</time>
      </trkpt>
      <trkpt lat="38.128470936790109" lon="140.45158294960856">
        <ele>1708.4000000000001</ele>
        <time>2026-01-04T02:50:22Z</time>
      </trkpt>
      <trkpt lat="38.12847244553268" lon="140.45157724991441">
        <ele>1706.96</ele>
        <time>2026-01-04T02:50:23Z</time>
      </trkpt>
      <trkpt lat="38.128476804122329" lon="140.45161848887801">
        <ele>1706.48</ele>
        <time>2026-01-04T02:50:28Z</time>
      </trkpt>
      <trkpt lat="38.128488203510642" lon="140.45164371840656">
        <ele>1706.48</ele>
        <time>2026-01-04T02:50:29Z</time>
      </trkpt>
      <trkpt lat="38.128497675061226" lon="140.45166710391641">
        <ele>1706</ele>
        <time>2026-01-04T02:50:30Z</time>
      </trkpt>
      <trkpt lat="38.128501949831843" lon="140.45169275254011">
        <ele>1706</ele>
        <time>2026-01-04T02:50:31Z</time>
      </trkpt>
      <trkpt lat="38.128503207117319" lon="140.45172292739153">
        <ele>1706</ele>
        <time>2026-01-04T02:50:32Z</time>
      </trkpt>
      <trkpt lat="38.128526592627168" lon="140.45182786881924">
        <ele>1702.6300000000001</ele>
        <time>2026-01-04T02:50:35Z</time>
      </trkpt>
      <trkpt lat="38.12857654877007" lon="140.45197220519185">
        <ele>1699.75</ele>
        <time>2026-01-04T02:50:39Z</time>
      </trkpt>
      <trkpt lat="38.128585517406464" lon="140.45198477804661">
        <ele>1699.75</ele>
        <time>2026-01-04T02:50:40Z</time>
      </trkpt>
      <trkpt lat="38.128580236807466" lon="140.4520040564239">
        <ele>1700.71</ele>
        <time>2026-01-04T02:50:55Z</time>
      </trkpt>
      <trkpt lat="38.128579566255212" lon="140.45204261317849">
        <ele>1701.1900000000001</ele>
        <time>2026-01-04T02:51:01Z</time>
      </trkpt>
      <trkpt lat="38.128583086654544" lon="140.45205577276647">
        <ele>1701.1900000000001</ele>
        <time>2026-01-04T02:51:02Z</time>
      </trkpt>
      <trkpt lat="38.12858585268259" lon="140.45207018963993">
        <ele>1699.75</ele>
        <time>2026-01-04T02:51:03Z</time>
      </trkpt>
      <trkpt lat="38.128590798005462" lon="140.45208804309368">
        <ele>1698.79</ele>
        <time>2026-01-04T02:51:04Z</time>
      </trkpt>
      <trkpt lat="38.128601359203458" lon="140.45210564509034">
        <ele>1698.79</ele>
        <time>2026-01-04T02:51:05Z</time>
      </trkpt>
      <trkpt lat="38.128620386123657" lon="140.45211947523057">
        <ele>1696.8599999999999</ele>
        <time>2026-01-04T02:51:08Z</time>
      </trkpt>
      <trkpt lat="38.128630947321653" lon="140.45213079079986">
        <ele>1693.98</ele>
        <time>2026-01-04T02:51:17Z</time>
      </trkpt>
      <trkpt lat="38.128688279539347" lon="140.45218359678984">
        <ele>1693.98</ele>
        <time>2026-01-04T02:51:27Z</time>
      </trkpt>
      <trkpt lat="38.128693141043186" lon="140.45219742693007">
        <ele>1693.5</ele>
        <time>2026-01-04T02:51:37Z</time>
      </trkpt>
      <trkpt lat="38.128716023638844" lon="140.45224168337882">
        <ele>1694.9400000000001</ele>
        <time>2026-01-04T02:51:43Z</time>
      </trkpt>
      <trkpt lat="38.12872214242816" lon="140.45224679633975">
        <ele>1694.9400000000001</ele>
        <time>2026-01-04T02:51:44Z</time>
      </trkpt>
      <trkpt lat="38.128724992275238" lon="140.45228334143758">
        <ele>1691.5799999999999</ele>
        <time>2026-01-04T02:51:46Z</time>
      </trkpt>
      <trkpt lat="38.128703366965055" lon="140.45232089236379">
        <ele>1689.6500000000001</ele>
        <time>2026-01-04T02:51:49Z</time>
      </trkpt>
      <trkpt lat="38.12869917601347" lon="140.45232868753374">
        <ele>1689.1700000000001</ele>
        <time>2026-01-04T02:51:50Z</time>
      </trkpt>
      <trkpt lat="38.128698002547026" lon="140.45238694176078">
        <ele>1690.6199999999999</ele>
        <time>2026-01-04T02:51:55Z</time>
      </trkpt>
      <trkpt lat="38.128691632300615" lon="140.45243212021887">
        <ele>1687.73</ele>
        <time>2026-01-04T02:51:57Z</time>
      </trkpt>
      <trkpt lat="38.128682998940349" lon="140.45245449990034">
        <ele>1686.77</ele>
        <time>2026-01-04T02:51:59Z</time>
      </trkpt>
      <trkpt lat="38.128673443570733" lon="140.45247042551637">
        <ele>1687.73</ele>
        <time>2026-01-04T02:52:07Z</time>
      </trkpt>
      <trkpt lat="38.128699762746692" lon="140.45251644216478">
        <ele>1685.3299999999999</ele>
        <time>2026-01-04T02:52:11Z</time>
      </trkpt>
      <trkpt lat="38.128700517117977" lon="140.4525151848793">
        <ele>1683.8900000000001</ele>
        <time>2026-01-04T02:52:15Z</time>
      </trkpt>
      <trkpt lat="38.128680316731334" lon="140.45259271748364">
        <ele>1681.96</ele>
        <time>2026-01-04T02:52:21Z</time>
      </trkpt>
      <trkpt lat="38.128679310902953" lon="140.45259355567396">
        <ele>1684.3699999999999</ele>
        <time>2026-01-04T02:52:23Z</time>
      </trkpt>
      <trkpt lat="38.128663888201118" lon="140.45260646380484">
        <ele>1681.48</ele>
        <time>2026-01-04T02:52:28Z</time>
      </trkpt>
      <trkpt lat="38.128654332831502" lon="140.4526084754616">
        <ele>1683.4100000000001</ele>
        <time>2026-01-04T02:52:34Z</time>
      </trkpt>
      <trkpt lat="38.128663301467896" lon="140.45264041051269">
        <ele>1681.96</ele>
        <time>2026-01-04T02:52:37Z</time>
      </trkpt>
      <trkpt lat="38.128669001162052" lon="140.4527102317661">
        <ele>1683.4100000000001</ele>
        <time>2026-01-04T02:52:48Z</time>
      </trkpt>
      <trkpt lat="38.128680232912302" lon="140.45271065086126">
        <ele>1680.52</ele>
        <time>2026-01-04T02:52:52Z</time>
      </trkpt>
      <trkpt lat="38.128688530996442" lon="140.45273713767529">
        <ele>1681.96</ele>
        <time>2026-01-04T02:53:14Z</time>
      </trkpt>
      <trkpt lat="38.128690039739013" lon="140.45273956842721">
        <ele>1681.96</ele>
        <time>2026-01-04T02:53:15Z</time>
      </trkpt>
      <trkpt lat="38.128691464662552" lon="140.45274057425559">
        <ele>1678.1199999999999</ele>
        <time>2026-01-04T02:53:17Z</time>
      </trkpt>
      <trkpt lat="38.128660032525659" lon="140.45279036276042">
        <ele>1680.04</ele>
        <time>2026-01-04T02:53:28Z</time>
      </trkpt>
      <trkpt lat="38.128658439964056" lon="140.45281928032637">
        <ele>1678.5999999999999</ele>
        <time>2026-01-04T02:53:29Z</time>
      </trkpt>
      <trkpt lat="38.12863664701581" lon="140.4529279936105">
        <ele>1676.6800000000001</ele>
        <time>2026-01-04T02:53:33Z</time>
      </trkpt>
      <trkpt lat="38.128628768026829" lon="140.45298147015274">
        <ele>1675.23</ele>
        <time>2026-01-04T02:53:36Z</time>
      </trkpt>
      <trkpt lat="38.128632036969066" lon="140.45303897000849">
        <ele>1673.3099999999999</ele>
        <time>2026-01-04T02:53:39Z</time>
      </trkpt>
      <trkpt lat="38.128628935664892" lon="140.45306704938412">
        <ele>1673.3099999999999</ele>
        <time>2026-01-04T02:53:40Z</time>
      </trkpt>
      <trkpt lat="38.128627929836512" lon="140.45309093780816">
        <ele>1671.8699999999999</ele>
        <time>2026-01-04T02:53:42Z</time>
      </trkpt>
      <trkpt lat="38.128622900694609" lon="140.45318246819079">
        <ele>1670.4300000000001</ele>
        <time>2026-01-04T02:53:45Z</time>
      </trkpt>
      <trkpt lat="38.128616698086262" lon="140.45320392586291">
        <ele>1669.95</ele>
        <time>2026-01-04T02:53:46Z</time>
      </trkpt>
      <trkpt lat="38.12862298451364" lon="140.45322957448661">
        <ele>1671.3900000000001</ele>
        <time>2026-01-04T02:53:49Z</time>
      </trkpt>
      <trkpt lat="38.128630109131336" lon="140.45330467633903">
        <ele>1668.99</ele>
        <time>2026-01-04T02:53:52Z</time>
      </trkpt>
      <trkpt lat="38.128624577075243" lon="140.45340039767325">
        <ele>1667.54</ele>
        <time>2026-01-04T02:53:58Z</time>
      </trkpt>
      <trkpt lat="38.128626001998782" lon="140.4534322489053">
        <ele>1667.0599999999999</ele>
        <time>2026-01-04T02:53:59Z</time>
      </trkpt>
      <trkpt lat="38.128619128838181" lon="140.45346979983151">
        <ele>1667.0599999999999</ele>
        <time>2026-01-04T02:54:00Z</time>
      </trkpt>
      <trkpt lat="38.128612339496613" lon="140.4534909222275">
        <ele>1665.1400000000001</ele>
        <time>2026-01-04T02:54:01Z</time>
      </trkpt>
      <trkpt lat="38.128608819097281" lon="140.45352076180279">
        <ele>1667.54</ele>
        <time>2026-01-04T02:54:04Z</time>
      </trkpt>
      <trkpt lat="38.128606891259551" lon="140.45354364439845">
        <ele>1667.54</ele>
        <time>2026-01-04T02:54:05Z</time>
      </trkpt>
      <trkpt lat="38.128606472164392" lon="140.45357792638242">
        <ele>1666.0999999999999</ele>
        <time>2026-01-04T02:54:06Z</time>
      </trkpt>
      <trkpt lat="38.128615356981754" lon="140.45361681841314">
        <ele>1663.7</ele>
        <time>2026-01-04T02:54:07Z</time>
      </trkpt>
      <trkpt lat="38.128624744713306" lon="140.4536566324532">
        <ele>1663.7</ele>
        <time>2026-01-04T02:54:08Z</time>
      </trkpt>
      <trkpt lat="38.128624744713306" lon="140.45370323583484">
        <ele>1662.74</ele>
        <time>2026-01-04T02:54:09Z</time>
      </trkpt>
      <trkpt lat="38.128617955371737" lon="140.45374346897006">
        <ele>1662.74</ele>
        <time>2026-01-04T02:54:10Z</time>
      </trkpt>
      <trkpt lat="38.12861074693501" lon="140.45376811176538">
        <ele>1662.74</ele>
        <time>2026-01-04T02:54:11Z</time>
      </trkpt>
      <trkpt lat="38.128611166030169" lon="140.45380189083517">
        <ele>1664.6600000000001</ele>
        <time>2026-01-04T02:54:15Z</time>
      </trkpt>
      <trkpt lat="38.128614937886596" lon="140.45379602350295">
        <ele>1663.22</ele>
        <time>2026-01-04T02:54:17Z</time>
      </trkpt>
      <trkpt lat="38.128626001998782" lon="140.45379241928458">
        <ele>1659.8499999999999</ele>
        <time>2026-01-04T02:54:20Z</time>
      </trkpt>
      <trkpt lat="38.128627510741353" lon="140.45379250310361">
        <ele>1664.1800000000001</ele>
        <time>2026-01-04T02:54:21Z</time>
      </trkpt>
      <trkpt lat="38.128626421093941" lon="140.45379334129393">
        <ele>1663.22</ele>
        <time>2026-01-04T02:54:22Z</time>
      </trkpt>
      <trkpt lat="38.128601778298616" lon="140.45382376760244">
        <ele>1661.3</ele>
        <time>2026-01-04T02:54:37Z</time>
      </trkpt>
      <trkpt lat="38.12863907776773" lon="140.45391554944217">
        <ele>1658.4100000000001</ele>
        <time>2026-01-04T02:54:40Z</time>
      </trkpt>
      <trkpt lat="38.128639832139015" lon="140.45394790358841">
        <ele>1658.4100000000001</ele>
        <time>2026-01-04T02:54:41Z</time>
      </trkpt>
      <trkpt lat="38.128646202385426" lon="140.453962655738">
        <ele>1654.5699999999999</ele>
        <time>2026-01-04T02:54:43Z</time>
      </trkpt>
      <trkpt lat="38.128662295639515" lon="140.45397095382214">
        <ele>1653.1199999999999</ele>
        <time>2026-01-04T02:54:47Z</time>
      </trkpt>
      <trkpt lat="38.128667240962386" lon="140.45397807843983">
        <ele>1656.49</ele>
        <time>2026-01-04T02:54:49Z</time>
      </trkpt>
      <trkpt lat="38.128662211820483" lon="140.45398252084851">
        <ele>1658.8900000000001</ele>
        <time>2026-01-04T02:54:51Z</time>
      </trkpt>
      <trkpt lat="38.128653494641185" lon="140.45402208343148">
        <ele>1656.49</ele>
        <time>2026-01-04T02:54:57Z</time>
      </trkpt>
      <trkpt lat="38.128657517954707" lon="140.45403901487589">
        <ele>1656.49</ele>
        <time>2026-01-04T02:54:58Z</time>
      </trkpt>
      <trkpt lat="38.128655171021819" lon="140.45426784083247">
        <ele>1653.5999999999999</ele>
        <time>2026-01-04T02:55:05Z</time>
      </trkpt>
      <trkpt lat="38.128662630915642" lon="140.45424453914165">
        <ele>1657.45</ele>
        <time>2026-01-04T02:55:14Z</time>
      </trkpt>
      <trkpt lat="38.128658356145024" lon="140.45423607341945">
        <ele>1655.53</ele>
        <time>2026-01-04T02:55:15Z</time>
      </trkpt>
      <trkpt lat="38.128638491034508" lon="140.45420623384416">
        <ele>1657.45</ele>
        <time>2026-01-04T02:55:19Z</time>
      </trkpt>
      <trkpt lat="38.128631450235844" lon="140.45419307425618">
        <ele>1656.01</ele>
        <time>2026-01-04T02:55:21Z</time>
      </trkpt>
      <trkpt lat="38.12862147577107" lon="140.45419458299875">
        <ele>1653.5999999999999</ele>
        <time>2026-01-04T02:55:28Z</time>
      </trkpt>
      <trkpt lat="38.128612339496613" lon="140.4541783221066">
        <ele>1648.3199999999999</ele>
        <time>2026-01-04T02:55:38Z</time>
      </trkpt>
      <trkpt lat="38.128617787733674" lon="140.45417153276503">
        <ele>1659.3699999999999</ele>
        <time>2026-01-04T02:55:39Z</time>
      </trkpt>
      <trkpt lat="38.128613261505961" lon="140.45417639426887">
        <ele>1659.3699999999999</ele>
        <time>2026-01-04T02:55:40Z</time>
      </trkpt>
      <trkpt lat="38.128612842410803" lon="140.45417656190693">
        <ele>1646.8800000000001</ele>
        <time>2026-01-04T02:55:41Z</time>
      </trkpt>
      <trkpt lat="38.128612255677581" lon="140.45417572371662">
        <ele>1646.8800000000001</ele>
        <time>2026-01-04T02:55:42Z</time>
      </trkpt>
      <trkpt lat="38.128612339496613" lon="140.4541764780879">
        <ele>1648.8</ele>
        <time>2026-01-04T02:55:44Z</time>
      </trkpt>
      <trkpt lat="38.128617368638515" lon="140.45417907647789">
        <ele>1654.0899999999999</ele>
        <time>2026-01-04T02:55:45Z</time>
      </trkpt>
      <trkpt lat="38.128617787733674" lon="140.45418100431561">
        <ele>1654.0899999999999</ele>
        <time>2026-01-04T02:55:46Z</time>
      </trkpt>
      <trkpt lat="38.128630612045527" lon="140.45417203567922">
        <ele>1654.5699999999999</ele>
        <time>2026-01-04T02:55:50Z</time>
      </trkpt>
      <trkpt lat="38.128661792725325" lon="140.45422475785017">
        <ele>1656.01</ele>
        <time>2026-01-04T02:55:57Z</time>
      </trkpt>
      <trkpt lat="38.128663469105959" lon="140.45440622605383">
        <ele>1652.6400000000001</ele>
        <time>2026-01-04T02:56:03Z</time>
      </trkpt>
      <trkpt lat="38.128628265112638" lon="140.45460202731192">
        <ele>1649.76</ele>
        <time>2026-01-04T02:56:08Z</time>
      </trkpt>
      <trkpt lat="38.128628684207797" lon="140.45463806949556">
        <ele>1647.8399999999999</ele>
        <time>2026-01-04T02:56:09Z</time>
      </trkpt>
      <trkpt lat="38.128629606217146" lon="140.45466908253729">
        <ele>1649.28</ele>
        <time>2026-01-04T02:56:10Z</time>
      </trkpt>
      <trkpt lat="38.128623655065894" lon="140.45469883829355">
        <ele>1649.28</ele>
        <time>2026-01-04T02:56:11Z</time>
      </trkpt>
      <trkpt lat="38.128612423315644" lon="140.45473186299205">
        <ele>1649.28</ele>
        <time>2026-01-04T02:56:12Z</time>
      </trkpt>
      <trkpt lat="38.128604795783758" lon="140.45476882718503">
        <ele>1649.28</ele>
        <time>2026-01-04T02:56:13Z</time>
      </trkpt>
      <trkpt lat="38.128601778298616" lon="140.45480847358704">
        <ele>1647.8399999999999</ele>
        <time>2026-01-04T02:56:14Z</time>
      </trkpt>
      <trkpt lat="38.128602029755712" lon="140.45484652742743">
        <ele>1646.8800000000001</ele>
        <time>2026-01-04T02:56:15Z</time>
      </trkpt>
      <trkpt lat="38.128599431365728" lon="140.45488340780139">
        <ele>1646.4000000000001</ele>
        <time>2026-01-04T02:56:16Z</time>
      </trkpt>
      <trkpt lat="38.128596497699618" lon="140.4549243953079">
        <ele>1646.4000000000001</ele>
        <time>2026-01-04T02:56:17Z</time>
      </trkpt>
      <trkpt lat="38.128599850460887" lon="140.455112317577">
        <ele>1643.99</ele>
        <time>2026-01-04T02:56:21Z</time>
      </trkpt>
      <trkpt lat="38.128603287041187" lon="140.45515020377934">
        <ele>1643.51</ele>
        <time>2026-01-04T02:56:22Z</time>
      </trkpt>
      <trkpt lat="38.128591552376747" lon="140.45518163591623">
        <ele>1642.55</ele>
        <time>2026-01-04T02:56:23Z</time>
      </trkpt>
      <trkpt lat="38.128579314798117" lon="140.45521507970989">
        <ele>1642.0699999999999</ele>
        <time>2026-01-04T02:56:24Z</time>
      </trkpt>
      <trkpt lat="38.128564646467566" lon="140.45526042580605">
        <ele>1641.5899999999999</ele>
        <time>2026-01-04T02:56:25Z</time>
      </trkpt>
      <trkpt lat="38.128560623154044" lon="140.4553092084825">
        <ele>1639.6700000000001</ele>
        <time>2026-01-04T02:56:26Z</time>
      </trkpt>
      <trkpt lat="38.128562215715647" lon="140.45534583739936">
        <ele>1638.7</ele>
        <time>2026-01-04T02:56:27Z</time>
      </trkpt>
      <trkpt lat="38.128563808277249" lon="140.45538313686848">
        <ele>1638.7</ele>
        <time>2026-01-04T02:56:28Z</time>
      </trkpt>
      <trkpt lat="38.128550397232175" lon="140.45558966696262">
        <ele>1635.8199999999999</ele>
        <time>2026-01-04T02:56:34Z</time>
      </trkpt>
      <trkpt lat="38.128559784963727" lon="140.45566233806312">
        <ele>1633.9000000000001</ele>
        <time>2026-01-04T02:56:36Z</time>
      </trkpt>
      <trkpt lat="38.128566741943359" lon="140.45567843131721">
        <ele>1634.8599999999999</ele>
        <time>2026-01-04T02:56:38Z</time>
      </trkpt>
      <trkpt lat="38.128578728064895" lon="140.4557392001152">
        <ele>1633.4200000000001</ele>
        <time>2026-01-04T02:56:42Z</time>
      </trkpt>
      <trkpt lat="38.1285784766078" lon="140.45576786622405">
        <ele>1632.46</ele>
        <time>2026-01-04T02:56:43Z</time>
      </trkpt>
      <trkpt lat="38.128574034199119" lon="140.45577893033624">
        <ele>1632.46</ele>
        <time>2026-01-04T02:56:44Z</time>
      </trkpt>
      <trkpt lat="38.128552660346031" lon="140.45580893754959">
        <ele>1631.98</ele>
        <time>2026-01-04T02:56:48Z</time>
      </trkpt>
      <trkpt lat="38.128562299534678" lon="140.45581958256662">
        <ele>1631.01</ele>
        <time>2026-01-04T02:56:49Z</time>
      </trkpt>
      <trkpt lat="38.128573196008801" lon="140.45580734498799">
        <ele>1631.98</ele>
        <time>2026-01-04T02:56:54Z</time>
      </trkpt>
      <trkpt lat="38.128549642860889" lon="140.45580390840769">
        <ele>1631.01</ele>
        <time>2026-01-04T02:57:13Z</time>
      </trkpt>
      <trkpt lat="38.128549139946699" lon="140.4557875636965">
        <ele>1632.46</ele>
        <time>2026-01-04T02:57:24Z</time>
      </trkpt>
      <trkpt lat="38.128542182967067" lon="140.45578672550619">
        <ele>1630.05</ele>
        <time>2026-01-04T02:57:29Z</time>
      </trkpt>
      <trkpt lat="38.128540338948369" lon="140.45579150319099">
        <ele>1632.9400000000001</ele>
        <time>2026-01-04T02:57:31Z</time>
      </trkpt>
      <trkpt lat="38.128544362261891" lon="140.45578949153423">
        <ele>1631.49</ele>
        <time>2026-01-04T02:57:36Z</time>
      </trkpt>
      <trkpt lat="38.128562718629837" lon="140.4557928442955">
        <ele>1631.01</ele>
        <time>2026-01-04T02:57:55Z</time>
      </trkpt>
      <trkpt lat="38.128561964258552" lon="140.45580969192088">
        <ele>1630.53</ele>
        <time>2026-01-04T02:58:16Z</time>
      </trkpt>
      <trkpt lat="38.128555174916983" lon="140.4558221809566">
        <ele>1630.05</ele>
        <time>2026-01-04T02:58:45Z</time>
      </trkpt>
      <trkpt lat="38.12855064868927" lon="140.45581958256662">
        <ele>1631.98</ele>
        <time>2026-01-04T02:58:58Z</time>
      </trkpt>
      <trkpt lat="38.128548134118319" lon="140.45581564307213">
        <ele>1629.5699999999999</ele>
        <time>2026-01-04T02:59:02Z</time>
      </trkpt>
      <trkpt lat="38.128552073612809" lon="140.45582544989884">
        <ele>1631.01</ele>
        <time>2026-01-04T02:59:18Z</time>
      </trkpt>
      <trkpt lat="38.128538159653544" lon="140.45581388287246">
        <ele>1631.49</ele>
        <time>2026-01-04T02:59:48Z</time>
      </trkpt>
      <trkpt lat="38.128538159653544" lon="140.45581622980535">
        <ele>1630.53</ele>
        <time>2026-01-04T02:59:50Z</time>
      </trkpt>
      <trkpt lat="38.128542182967067" lon="140.45581321232021">
        <ele>1630.05</ele>
        <time>2026-01-04T03:00:09Z</time>
      </trkpt>
      <trkpt lat="38.128559784963727" lon="140.45581413432956">
        <ele>1629.5699999999999</ele>
        <time>2026-01-04T03:00:33Z</time>
      </trkpt>
      <trkpt lat="38.128546290099621" lon="140.45581304468215">
        <ele>1629.0899999999999</ele>
        <time>2026-01-04T03:00:59Z</time>
      </trkpt>
      <trkpt lat="38.128545619547367" lon="140.45581480488181">
        <ele>1624.77</ele>
        <time>2026-01-04T03:01:01Z</time>
      </trkpt>
      <trkpt lat="38.128547631204128" lon="140.45581111684442">
        <ele>1631.49</ele>
        <time>2026-01-04T03:01:02Z</time>
      </trkpt>
      <trkpt lat="38.128546206280589" lon="140.45580893754959">
        <ele>1626.21</ele>
        <time>2026-01-04T03:01:04Z</time>
      </trkpt>
      <trkpt lat="38.128545703366399" lon="140.45580709353089">
        <ele>1635.3399999999999</ele>
        <time>2026-01-04T03:01:07Z</time>
      </trkpt>
      <trkpt lat="38.128550313413143" lon="140.45580374076962">
        <ele>1631.49</ele>
        <time>2026-01-04T03:01:08Z</time>
      </trkpt>
      <trkpt lat="38.128546206280589" lon="140.45580592006445">
        <ele>1629.5699999999999</ele>
        <time>2026-01-04T03:01:10Z</time>
      </trkpt>
      <trkpt lat="38.128539836034179" lon="140.45582880266011">
        <ele>1629.0899999999999</ele>
        <time>2026-01-04T03:01:37Z</time>
      </trkpt>
      <trkpt lat="38.128546541556716" lon="140.45584129169583">
        <ele>1630.53</ele>
        <time>2026-01-04T03:01:59Z</time>
      </trkpt>
      <trkpt lat="38.128546373918653" lon="140.45583575963974">
        <ele>1625.73</ele>
        <time>2026-01-04T03:02:04Z</time>
      </trkpt>
      <trkpt lat="38.128550061956048" lon="140.45583559200168">
        <ele>1633.4200000000001</ele>
        <time>2026-01-04T03:02:05Z</time>
      </trkpt>
      <trkpt lat="38.128548972308636" lon="140.45583081431687">
        <ele>1631.01</ele>
        <time>2026-01-04T03:02:06Z</time>
      </trkpt>
      <trkpt lat="38.12854528427124" lon="140.45581396669149">
        <ele>1631.01</ele>
        <time>2026-01-04T03:02:33Z</time>
      </trkpt>
      <trkpt lat="38.128538746386766" lon="140.45582008548081">
        <ele>1629.5699999999999</ele>
        <time>2026-01-04T03:02:46Z</time>
      </trkpt>
      <trkpt lat="38.128521898761392" lon="140.45581480488181">
        <ele>1631.49</ele>
        <time>2026-01-04T03:03:16Z</time>
      </trkpt>
      <trkpt lat="38.128533717244864" lon="140.45581958256662">
        <ele>1631.49</ele>
        <time>2026-01-04T03:03:36Z</time>
      </trkpt>
      <trkpt lat="38.12853648327291" lon="140.45582368969917">
        <ele>1630.05</ele>
        <time>2026-01-04T03:03:45Z</time>
      </trkpt>
      <trkpt lat="38.128541763871908" lon="140.45585830695927">
        <ele>1630.53</ele>
        <time>2026-01-04T03:04:12Z</time>
      </trkpt>
      <trkpt lat="38.128537572920322" lon="140.45587071217597">
        <ele>1629.5699999999999</ele>
        <time>2026-01-04T03:04:20Z</time>
      </trkpt>
      <trkpt lat="38.128532711416483" lon="140.45589191839099">
        <ele>1629.5699999999999</ele>
        <time>2026-01-04T03:04:21Z</time>
      </trkpt>
      <trkpt lat="38.128534136340022" lon="140.45592729002237">
        <ele>1629.5699999999999</ele>
        <time>2026-01-04T03:04:22Z</time>
      </trkpt>
      <trkpt lat="38.128544362261891" lon="140.45595746487379">
        <ele>1628.1300000000001</ele>
        <time>2026-01-04T03:04:23Z</time>
      </trkpt>
      <trkpt lat="38.128560036420822" lon="140.45597305521369">
        <ele>1627.1700000000001</ele>
        <time>2026-01-04T03:04:24Z</time>
      </trkpt>
      <trkpt lat="38.128569005057216" lon="140.45598059892654">
        <ele>1627.1700000000001</ele>
        <time>2026-01-04T03:04:25Z</time>
      </trkpt>
      <trkpt lat="38.128578644245863" lon="140.45599560253322">
        <ele>1627.1700000000001</ele>
        <time>2026-01-04T03:04:26Z</time>
      </trkpt>
      <trkpt lat="38.128584511578083" lon="140.4560172278434">
        <ele>1627.1700000000001</ele>
        <time>2026-01-04T03:04:27Z</time>
      </trkpt>
      <trkpt lat="38.128585098311305" lon="140.45604354701936">
        <ele>1627.1700000000001</ele>
        <time>2026-01-04T03:04:28Z</time>
      </trkpt>
      <trkpt lat="38.128579817712307" lon="140.45608478598297">
        <ele>1626.21</ele>
        <time>2026-01-04T03:04:29Z</time>
      </trkpt>
      <trkpt lat="38.128572776913643" lon="140.45611697249115">
        <ele>1621.4000000000001</ele>
        <time>2026-01-04T03:04:30Z</time>
      </trkpt>
      <trkpt lat="38.128558695316315" lon="140.45614387840033">
        <ele>1629.0899999999999</ele>
        <time>2026-01-04T03:04:31Z</time>
      </trkpt>
      <trkpt lat="38.128561126068234" lon="140.45616734772921">
        <ele>1625.25</ele>
        <time>2026-01-04T03:04:32Z</time>
      </trkpt>
      <trkpt lat="38.128570597618818" lon="140.45617958530784">
        <ele>1623.8</ele>
        <time>2026-01-04T03:04:33Z</time>
      </trkpt>
      <trkpt lat="38.128577638417482" lon="140.45619685202837">
        <ele>1623.8</ele>
        <time>2026-01-04T03:04:34Z</time>
      </trkpt>
      <trkpt lat="38.128590043634176" lon="140.45622199773788">
        <ele>1622.8399999999999</ele>
        <time>2026-01-04T03:04:35Z</time>
      </trkpt>
      <trkpt lat="38.128603454679251" lon="140.45624102465808">
        <ele>1621.4000000000001</ele>
        <time>2026-01-04T03:04:36Z</time>
      </trkpt>
      <trkpt lat="38.128618458285928" lon="140.45629399828613">
        <ele>1620.9200000000001</ele>
        <time>2026-01-04T03:04:42Z</time>
      </trkpt>
      <trkpt lat="38.128611417487264" lon="140.45631579123437">
        <ele>1620.9200000000001</ele>
        <time>2026-01-04T03:04:44Z</time>
      </trkpt>
      <trkpt lat="38.128602532669902" lon="140.45633037574589">
        <ele>1620.9200000000001</ele>
        <time>2026-01-04T03:04:45Z</time>
      </trkpt>
      <trkpt lat="38.128592725843191" lon="140.45635250397027">
        <ele>1620.9200000000001</ele>
        <time>2026-01-04T03:04:46Z</time>
      </trkpt>
      <trkpt lat="38.128585182130337" lon="140.45638184063137">
        <ele>1619.96</ele>
        <time>2026-01-04T03:04:47Z</time>
      </trkpt>
      <trkpt lat="38.1285853497684" lon="140.45641511678696">
        <ele>1610.3499999999999</ele>
        <time>2026-01-04T03:04:48Z</time>
      </trkpt>
      <trkpt lat="38.128591049462557" lon="140.45645233243704">
        <ele>1615.6300000000001</ele>
        <time>2026-01-04T03:04:49Z</time>
      </trkpt>
      <trkpt lat="38.128600185737014" lon="140.45650346204638">
        <ele>1624.28</ele>
        <time>2026-01-04T03:04:50Z</time>
      </trkpt>
      <trkpt lat="38.128613764420152" lon="140.45654696412385">
        <ele>1616.5899999999999</ele>
        <time>2026-01-04T03:04:51Z</time>
      </trkpt>
      <trkpt lat="38.128624493256211" lon="140.45656414702535">
        <ele>1617.5599999999999</ele>
        <time>2026-01-04T03:04:52Z</time>
      </trkpt>
      <trkpt lat="38.128638658672571" lon="140.45657956972718">
        <ele>1613.71</ele>
        <time>2026-01-04T03:04:53Z</time>
      </trkpt>
      <trkpt lat="38.128677047789097" lon="140.45661619864404">
        <ele>1609.3800000000001</ele>
        <time>2026-01-04T03:04:59Z</time>
      </trkpt>
      <trkpt lat="38.128676544874907" lon="140.45661527663469">
        <ele>1605.0599999999999</ele>
        <time>2026-01-04T03:05:00Z</time>
      </trkpt>
      <trkpt lat="38.12867620959878" lon="140.45661401934922">
        <ele>1605.0599999999999</ele>
        <time>2026-01-04T03:05:01Z</time>
      </trkpt>
      <trkpt lat="38.128676125779748" lon="140.45661276206374">
        <ele>1612.27</ele>
        <time>2026-01-04T03:05:02Z</time>
      </trkpt>
      <trkpt lat="38.128675958141685" lon="140.45661175623536">
        <ele>1612.27</ele>
        <time>2026-01-04T03:05:03Z</time>
      </trkpt>
      <trkpt lat="38.128677047789097" lon="140.4566099960357">
        <ele>1618.04</ele>
        <time>2026-01-04T03:05:04Z</time>
      </trkpt>
      <trkpt lat="38.128676628693938" lon="140.45660580508411">
        <ele>1624.77</ele>
        <time>2026-01-04T03:05:05Z</time>
      </trkpt>
      <trkpt lat="38.128676796332002" lon="140.45660513453186">
        <ele>1616.5899999999999</ele>
        <time>2026-01-04T03:05:06Z</time>
      </trkpt>
      <trkpt lat="38.128676293417811" lon="140.45661267824471">
        <ele>1613.23</ele>
        <time>2026-01-04T03:05:08Z</time>
      </trkpt>
      <trkpt lat="38.128679227083921" lon="140.45662315562367">
        <ele>1612.75</ele>
        <time>2026-01-04T03:05:09Z</time>
      </trkpt>
      <trkpt lat="38.128686351701617" lon="140.45664260163903">
        <ele>1612.75</ele>
        <time>2026-01-04T03:05:10Z</time>
      </trkpt>
      <trkpt lat="38.128754748031497" lon="140.45676112174988">
        <ele>1608.9000000000001</ele>
        <time>2026-01-04T03:05:17Z</time>
      </trkpt>
      <trkpt lat="38.128760028630495" lon="140.45677210204303">
        <ele>1611.79</ele>
        <time>2026-01-04T03:05:19Z</time>
      </trkpt>
      <trkpt lat="38.128765309229493" lon="140.45678777620196">
        <ele>1611.79</ele>
        <time>2026-01-04T03:05:20Z</time>
      </trkpt>
      <trkpt lat="38.128773523494601" lon="140.45682365074754">
        <ele>1606.02</ele>
        <time>2026-01-04T03:05:22Z</time>
      </trkpt>
      <trkpt lat="38.128778133541346" lon="140.45684410259128">
        <ele>1608.4200000000001</ele>
        <time>2026-01-04T03:05:23Z</time>
      </trkpt>
      <trkpt lat="38.128778217360377" lon="140.45689531601965">
        <ele>1609.8599999999999</ele>
        <time>2026-01-04T03:05:25Z</time>
      </trkpt>
      <trkpt lat="38.128804201260209" lon="140.45698542147875">
        <ele>1606.98</ele>
        <time>2026-01-04T03:05:28Z</time>
      </trkpt>
      <trkpt lat="38.128820965066552" lon="140.4570035263896">
        <ele>1606.98</ele>
        <time>2026-01-04T03:05:29Z</time>
      </trkpt>
      <trkpt lat="38.128840075805783" lon="140.45702045783401">
        <ele>1606.98</ele>
        <time>2026-01-04T03:05:30Z</time>
      </trkpt>
      <trkpt lat="38.128858264535666" lon="140.45703252777457">
        <ele>1606.02</ele>
        <time>2026-01-04T03:05:31Z</time>
      </trkpt>
      <trkpt lat="38.128875782713294" lon="140.45704149641097">
        <ele>1606.02</ele>
        <time>2026-01-04T03:05:32Z</time>
      </trkpt>
      <trkpt lat="38.128938227891922" lon="140.4570862557739">
        <ele>1605.54</ele>
        <time>2026-01-04T03:05:44Z</time>
      </trkpt>
      <trkpt lat="38.128967564553022" lon="140.45712808147073">
        <ele>1604.0999999999999</ele>
        <time>2026-01-04T03:05:46Z</time>
      </trkpt>
      <trkpt lat="38.128971755504608" lon="140.45716244727373">
        <ele>1604.0999999999999</ele>
        <time>2026-01-04T03:05:47Z</time>
      </trkpt>
      <trkpt lat="38.128967480733991" lon="140.45722388662398">
        <ele>1602.6600000000001</ele>
        <time>2026-01-04T03:05:49Z</time>
      </trkpt>
      <trkpt lat="38.128970833495259" lon="140.45725800096989">
        <ele>1590.6400000000001</ele>
        <time>2026-01-04T03:05:50Z</time>
      </trkpt>
      <trkpt lat="38.128976030275226" lon="140.45728750526905">
        <ele>1606.98</ele>
        <time>2026-01-04T03:05:51Z</time>
      </trkpt>
      <trkpt lat="38.128973767161369" lon="140.45726864598691">
        <ele>1602.1700000000001</ele>
        <time>2026-01-04T03:05:52Z</time>
      </trkpt>
      <trkpt lat="38.128958428278565" lon="140.45725263655186">
        <ele>1597.3699999999999</ele>
        <time>2026-01-04T03:06:07Z</time>
      </trkpt>
      <trkpt lat="38.128960020840168" lon="140.45725104399025">
        <ele>1604.0999999999999</ele>
        <time>2026-01-04T03:06:08Z</time>
      </trkpt>
      <trkpt lat="38.128961278125644" lon="140.45724936760962">
        <ele>1601.6900000000001</ele>
        <time>2026-01-04T03:06:09Z</time>
      </trkpt>
      <trkpt lat="38.128962451592088" lon="140.45724819414318">
        <ele>1596.8900000000001</ele>
        <time>2026-01-04T03:06:12Z</time>
      </trkpt>
      <trkpt lat="38.128964714705944" lon="140.45724861323833">
        <ele>1602.6600000000001</ele>
        <time>2026-01-04T03:06:13Z</time>
      </trkpt>
      <trkpt lat="38.128957338631153" lon="140.45724811032414">
        <ele>1599.29</ele>
        <time>2026-01-04T03:06:17Z</time>
      </trkpt>
      <trkpt lat="38.12896303832531" lon="140.45724299736321">
        <ele>1602.6600000000001</ele>
        <time>2026-01-04T03:06:19Z</time>
      </trkpt>
      <trkpt lat="38.128966391086578" lon="140.45723838731647">
        <ele>1601.6900000000001</ele>
        <time>2026-01-04T03:06:23Z</time>
      </trkpt>
      <trkpt lat="38.128966391086578" lon="140.45723721385002">
        <ele>1596.4100000000001</ele>
        <time>2026-01-04T03:06:25Z</time>
      </trkpt>
      <trkpt lat="38.128966726362705" lon="140.45723696239293">
        <ele>1603.6199999999999</ele>
        <time>2026-01-04T03:06:26Z</time>
      </trkpt>
      <trkpt lat="38.12896940857172" lon="140.45723604038358">
        <ele>1600.25</ele>
        <time>2026-01-04T03:06:29Z</time>
      </trkpt>
      <trkpt lat="38.128969743847847" lon="140.45723562128842">
        <ele>1600.25</ele>
        <time>2026-01-04T03:06:30Z</time>
      </trkpt>
      <trkpt lat="38.128973934799433" lon="140.45723645947874">
        <ele>1603.1400000000001</ele>
        <time>2026-01-04T03:06:34Z</time>
      </trkpt>
      <trkpt lat="38.128975946456194" lon="140.45723394490778">
        <ele>1601.21</ele>
        <time>2026-01-04T03:06:37Z</time>
      </trkpt>
      <trkpt lat="38.128969827666879" lon="140.45722967013717">
        <ele>1601.6900000000001</ele>
        <time>2026-01-04T03:06:42Z</time>
      </trkpt>
      <trkpt lat="38.128968989476562" lon="140.45722782611847">
        <ele>1603.1400000000001</ele>
        <time>2026-01-04T03:06:46Z</time>
      </trkpt>
      <trkpt lat="38.128965804353356" lon="140.4572313465178">
        <ele>1596.4100000000001</ele>
        <time>2026-01-04T03:06:48Z</time>
      </trkpt>
      <trkpt lat="38.128964547067881" lon="140.4572350345552">
        <ele>1583.4300000000001</ele>
        <time>2026-01-04T03:06:49Z</time>
      </trkpt>
      <trkpt lat="38.128968486562371" lon="140.4572363756597">
        <ele>1600.25</ele>
        <time>2026-01-04T03:06:50Z</time>
      </trkpt>
      <trkpt lat="38.128971252590418" lon="140.4572382196784">
        <ele>1618.04</ele>
        <time>2026-01-04T03:06:51Z</time>
      </trkpt>
      <trkpt lat="38.128975024446845" lon="140.45724157243967">
        <ele>1607.9400000000001</ele>
        <time>2026-01-04T03:06:52Z</time>
      </trkpt>
      <trkpt lat="38.128978461027145" lon="140.45724442228675">
        <ele>1603.6199999999999</ele>
        <time>2026-01-04T03:06:53Z</time>
      </trkpt>
      <trkpt lat="38.128984160721302" lon="140.45725263655186">
        <ele>1602.1700000000001</ele>
        <time>2026-01-04T03:06:56Z</time>
      </trkpt>
      <trkpt lat="38.128987262025476" lon="140.45729462988675">
        <ele>1603.1400000000001</ele>
        <time>2026-01-04T03:07:13Z</time>
      </trkpt>
      <trkpt lat="38.128985837101936" lon="140.45730368234217">
        <ele>1603.1400000000001</ele>
        <time>2026-01-04T03:07:14Z</time>
      </trkpt>
      <trkpt lat="38.129044510424137" lon="140.45742723159492">
        <ele>1597.3699999999999</ele>
        <time>2026-01-04T03:07:21Z</time>
      </trkpt>
      <trkpt lat="38.129059514030814" lon="140.45743687078357">
        <ele>1597.3699999999999</ele>
        <time>2026-01-04T03:07:22Z</time>
      </trkpt>
      <trkpt lat="38.129072673618793" lon="140.45743997208774">
        <ele>1599.29</ele>
        <time>2026-01-04T03:07:24Z</time>
      </trkpt>
      <trkpt lat="38.129090191796422" lon="140.45743569731712">
        <ele>1595.9300000000001</ele>
        <time>2026-01-04T03:07:28Z</time>
      </trkpt>
      <trkpt lat="38.129088347777724" lon="140.45743494294584">
        <ele>1597.3699999999999</ele>
        <time>2026-01-04T03:07:31Z</time>
      </trkpt>
      <trkpt lat="38.129084743559361" lon="140.45742924325168">
        <ele>1595.9300000000001</ele>
        <time>2026-01-04T03:07:34Z</time>
      </trkpt>
      <trkpt lat="38.129080720245838" lon="140.45743586495519">
        <ele>1595.9300000000001</ele>
        <time>2026-01-04T03:07:46Z</time>
      </trkpt>
      <trkpt lat="38.129079295322299" lon="140.45744089409709">
        <ele>1598.3299999999999</ele>
        <time>2026-01-04T03:07:49Z</time>
      </trkpt>
      <trkpt lat="38.129075188189745" lon="140.45744441449642">
        <ele>1596.8900000000001</ele>
        <time>2026-01-04T03:07:52Z</time>
      </trkpt>
      <trkpt lat="38.129076613113284" lon="140.45745790936053">
        <ele>1596.8900000000001</ele>
        <time>2026-01-04T03:07:56Z</time>
      </trkpt>
      <trkpt lat="38.129075691103935" lon="140.45752370730042">
        <ele>1595.45</ele>
        <time>2026-01-04T03:08:04Z</time>
      </trkpt>
      <trkpt lat="38.129069488495588" lon="140.45754482969642">
        <ele>1596.8900000000001</ele>
        <time>2026-01-04T03:08:06Z</time>
      </trkpt>
      <trkpt lat="38.129110895097256" lon="140.45762705616653">
        <ele>1593.52</ele>
        <time>2026-01-04T03:08:09Z</time>
      </trkpt>
      <trkpt lat="38.129070997238159" lon="140.45775169506669">
        <ele>1589.6800000000001</ele>
        <time>2026-01-04T03:08:14Z</time>
      </trkpt>
      <trkpt lat="38.129115169867873" lon="140.45784414745867">
        <ele>1585.3499999999999</ele>
        <time>2026-01-04T03:08:16Z</time>
      </trkpt>
      <trkpt lat="38.129133358597755" lon="140.4579221829772">
        <ele>1582.95</ele>
        <time>2026-01-04T03:08:21Z</time>
      </trkpt>
      <trkpt lat="38.129154397174716" lon="140.45790759846568">
        <ele>1581.03</ele>
        <time>2026-01-04T03:08:36Z</time>
      </trkpt>
      <trkpt lat="38.129168646410108" lon="140.45790910720825">
        <ele>1583.4300000000001</ele>
        <time>2026-01-04T03:08:44Z</time>
      </trkpt>
      <trkpt lat="38.129161521792412" lon="140.4579153098166">
        <ele>1581.99</ele>
        <time>2026-01-04T03:08:48Z</time>
      </trkpt>
      <trkpt lat="38.129137633368373" lon="140.45793525874615">
        <ele>1581.99</ele>
        <time>2026-01-04T03:08:51Z</time>
      </trkpt>
      <trkpt lat="38.129123384132981" lon="140.45799334533513">
        <ele>1577.1800000000001</ele>
        <time>2026-01-04T03:08:53Z</time>
      </trkpt>
      <trkpt lat="38.129142578691244" lon="140.45802712440491">
        <ele>1579.0999999999999</ele>
        <time>2026-01-04T03:08:54Z</time>
      </trkpt>
      <trkpt lat="38.129145596176386" lon="140.45809962786734">
        <ele>1571.4100000000001</ele>
        <time>2026-01-04T03:08:56Z</time>
      </trkpt>
      <trkpt lat="38.129141237586737" lon="140.4581291321665">
        <ele>1573.3299999999999</ele>
        <time>2026-01-04T03:08:57Z</time>
      </trkpt>
      <trkpt lat="38.129122378304601" lon="140.45810541138053">
        <ele>1571.8900000000001</ele>
        <time>2026-01-04T03:09:03Z</time>
      </trkpt>
      <trkpt lat="38.129106033593416" lon="140.45810415409505">
        <ele>1571.4100000000001</ele>
        <time>2026-01-04T03:09:12Z</time>
      </trkpt>
      <trkpt lat="38.129102429375052" lon="140.45810306444764">
        <ele>1572.8499999999999</ele>
        <time>2026-01-04T03:09:14Z</time>
      </trkpt>
      <trkpt lat="38.129077451303601" lon="140.45810541138053">
        <ele>1568.53</ele>
        <time>2026-01-04T03:09:30Z</time>
      </trkpt>
      <trkpt lat="38.129075355827808" lon="140.45810792595148">
        <ele>1574.3</ele>
        <time>2026-01-04T03:09:31Z</time>
      </trkpt>
      <trkpt lat="38.12907543964684" lon="140.4581085126847">
        <ele>1567.5699999999999</ele>
        <time>2026-01-04T03:09:34Z</time>
      </trkpt>
      <trkpt lat="38.129074517637491" lon="140.4581071715802">
        <ele>1569.49</ele>
        <time>2026-01-04T03:09:35Z</time>
      </trkpt>
      <trkpt lat="38.129073511809111" lon="140.45810675248504">
        <ele>1572.8499999999999</ele>
        <time>2026-01-04T03:09:36Z</time>
      </trkpt>
      <trkpt lat="38.129072086885571" lon="140.45810666866601">
        <ele>1556.51</ele>
        <time>2026-01-04T03:09:41Z</time>
      </trkpt>
      <trkpt lat="38.129076445475221" lon="140.45810381881893">
        <ele>1571.4100000000001</ele>
        <time>2026-01-04T03:09:42Z</time>
      </trkpt>
      <trkpt lat="38.129082648083568" lon="140.45810231007636">
        <ele>1589.2</ele>
        <time>2026-01-04T03:09:43Z</time>
      </trkpt>
      <trkpt lat="38.129085665568709" lon="140.45810063369572">
        <ele>1577.1800000000001</ele>
        <time>2026-01-04T03:09:44Z</time>
      </trkpt>
      <trkpt lat="38.129087593406439" lon="140.4580997955054">
        <ele>1574.3</ele>
        <time>2026-01-04T03:09:45Z</time>
      </trkpt>
      <trkpt lat="38.129092957824469" lon="140.45809803530574">
        <ele>1573.3299999999999</ele>
        <time>2026-01-04T03:09:47Z</time>
      </trkpt>
      <trkpt lat="38.129103435203433" lon="140.45810415409505">
        <ele>1573.3299999999999</ele>
        <time>2026-01-04T03:09:56Z</time>
      </trkpt>
      <trkpt lat="38.129105446860194" lon="140.45810574665666">
        <ele>1569.01</ele>
        <time>2026-01-04T03:10:00Z</time>
      </trkpt>
      <trkpt lat="38.129105782136321" lon="140.45810624957085">
        <ele>1570.9300000000001</ele>
        <time>2026-01-04T03:10:01Z</time>
      </trkpt>
      <trkpt lat="38.12910427339375" lon="140.45810574665666">
        <ele>1578.1400000000001</ele>
        <time>2026-01-04T03:10:04Z</time>
      </trkpt>
      <trkpt lat="38.129103854298592" lon="140.45810616575181">
        <ele>1574.78</ele>
        <time>2026-01-04T03:10:05Z</time>
      </trkpt>
      <trkpt lat="38.12910133972764" lon="140.45810817740858">
        <ele>1572.8499999999999</ele>
        <time>2026-01-04T03:10:08Z</time>
      </trkpt>
      <trkpt lat="38.129082564264536" lon="140.45812552794814">
        <ele>1572.3699999999999</ele>
        <time>2026-01-04T03:10:24Z</time>
      </trkpt>
      <trkpt lat="38.129132939502597" lon="140.458196522668">
        <ele>1569.01</ele>
        <time>2026-01-04T03:10:27Z</time>
      </trkpt>
      <trkpt lat="38.129219943657517" lon="140.45836525037885">
        <ele>1566.6099999999999</ele>
        <time>2026-01-04T03:10:32Z</time>
      </trkpt>
      <trkpt lat="38.129169987514615" lon="140.45846801251173">
        <ele>1559.8800000000001</ele>
        <time>2026-01-04T03:10:34Z</time>
      </trkpt>
      <trkpt lat="38.129122881218791" lon="140.45849592424929">
        <ele>1545.9400000000001</ele>
        <time>2026-01-04T03:10:39Z</time>
      </trkpt>
      <trkpt lat="38.129123887047172" lon="140.45849475078285">
        <ele>1556.99</ele>
        <time>2026-01-04T03:10:40Z</time>
      </trkpt>
      <trkpt lat="38.129132268950343" lon="140.45849500223994">
        <ele>1572.3699999999999</ele>
        <time>2026-01-04T03:10:41Z</time>
      </trkpt>
      <trkpt lat="38.129130844026804" lon="140.4584887996316">
        <ele>1558.4300000000001</ele>
        <time>2026-01-04T03:10:42Z</time>
      </trkpt>
      <trkpt lat="38.129134196788073" lon="140.45848268084228">
        <ele>1554.1099999999999</ele>
        <time>2026-01-04T03:10:44Z</time>
      </trkpt>
      <trkpt lat="38.129142411053181" lon="140.45847513712943">
        <ele>1563.72</ele>
        <time>2026-01-04T03:10:45Z</time>
      </trkpt>
      <trkpt lat="38.129147524014115" lon="140.45847446657717">
        <ele>1567.0899999999999</ele>
        <time>2026-01-04T03:10:46Z</time>
      </trkpt>
      <trkpt lat="38.129149535670877" lon="140.45847681351006">
        <ele>1562.28</ele>
        <time>2026-01-04T03:10:47Z</time>
      </trkpt>
      <trkpt lat="38.129151463508606" lon="140.45848762616515">
        <ele>1554.5899999999999</ele>
        <time>2026-01-04T03:11:00Z</time>
      </trkpt>
      <trkpt lat="38.129151295870543" lon="140.45848846435547">
        <ele>1554.5899999999999</ele>
        <time>2026-01-04T03:11:01Z</time>
      </trkpt>
      <trkpt lat="38.129151128232479" lon="140.4584887996316">
        <ele>1560.8399999999999</ele>
        <time>2026-01-04T03:11:02Z</time>
      </trkpt>
      <trkpt lat="38.12915213406086" lon="140.4584885481745">
        <ele>1573.8199999999999</ele>
        <time>2026-01-04T03:11:03Z</time>
      </trkpt>
      <trkpt lat="38.129154145717621" lon="140.45849005691707">
        <ele>1564.6800000000001</ele>
        <time>2026-01-04T03:11:04Z</time>
      </trkpt>
      <trkpt lat="38.129152888432145" lon="140.45849055983126">
        <ele>1560.8399999999999</ele>
        <time>2026-01-04T03:11:06Z</time>
      </trkpt>
      <trkpt lat="38.129152720794082" lon="140.45849173329771">
        <ele>1560.8399999999999</ele>
        <time>2026-01-04T03:11:07Z</time>
      </trkpt>
      <trkpt lat="38.129151044413447" lon="140.4584954213351">
        <ele>1562.28</ele>
        <time>2026-01-04T03:11:09Z</time>
      </trkpt>
      <trkpt lat="38.12914970330894" lon="140.45851880684495">
        <ele>1560.3599999999999</ele>
        <time>2026-01-04T03:11:14Z</time>
      </trkpt>
      <trkpt lat="38.129131766036153" lon="140.45868610963225">
        <ele>1556.99</ele>
        <time>2026-01-04T03:11:19Z</time>
      </trkpt>
      <trkpt lat="38.12910720705986" lon="140.4587581101805">
        <ele>1555.0699999999999</ele>
        <time>2026-01-04T03:11:21Z</time>
      </trkpt>
      <trkpt lat="38.129097484052181" lon="140.45879666693509">
        <ele>1556.51</ele>
        <time>2026-01-04T03:11:29Z</time>
      </trkpt>
      <trkpt lat="38.129094298928976" lon="140.45879842713475">
        <ele>1554.5899999999999</ele>
        <time>2026-01-04T03:11:42Z</time>
      </trkpt>
      <trkpt lat="38.129094131290913" lon="140.4587993491441">
        <ele>1556.03</ele>
        <time>2026-01-04T03:11:44Z</time>
      </trkpt>
      <trkpt lat="38.129087593406439" lon="140.45880052261055">
        <ele>1554.1099999999999</ele>
        <time>2026-01-04T03:11:55Z</time>
      </trkpt>
      <trkpt lat="38.129088850691915" lon="140.45879985205829">
        <ele>1556.51</ele>
        <time>2026-01-04T03:11:57Z</time>
      </trkpt>
      <trkpt lat="38.129089353606105" lon="140.45880932360888">
        <ele>1555.0699999999999</ele>
        <time>2026-01-04T03:12:11Z</time>
      </trkpt>
      <trkpt lat="38.129086839035153" lon="140.45882457867265">
        <ele>1553.1500000000001</ele>
        <time>2026-01-04T03:12:29Z</time>
      </trkpt>
      <trkpt lat="38.129085246473551" lon="140.458825500682">
        <ele>1555.55</ele>
        <time>2026-01-04T03:12:31Z</time>
      </trkpt>
      <trkpt lat="38.129081474617124" lon="140.45882105827332">
        <ele>1554.1099999999999</ele>
        <time>2026-01-04T03:12:57Z</time>
      </trkpt>
      <trkpt lat="38.129082145169377" lon="140.45882441103458">
        <ele>1556.51</ele>
        <time>2026-01-04T03:13:03Z</time>
      </trkpt>
      <trkpt lat="38.129083821550012" lon="140.45882374048233">
        <ele>1554.5899999999999</ele>
        <time>2026-01-04T03:13:05Z</time>
      </trkpt>
      <trkpt lat="38.129081726074219" lon="140.458825500682">
        <ele>1555.0699999999999</ele>
        <time>2026-01-04T03:13:15Z</time>
      </trkpt>
      <trkpt lat="38.129077702760696" lon="140.45883337967098">
        <ele>1554.5899999999999</ele>
        <time>2026-01-04T03:13:35Z</time>
      </trkpt>
      <trkpt lat="38.12907543964684" lon="140.45884167775512">
        <ele>1554.5899999999999</ele>
        <time>2026-01-04T03:13:36Z</time>
      </trkpt>
      <trkpt lat="38.129064291715622" lon="140.45893035829067">
        <ele>1552.6700000000001</ele>
        <time>2026-01-04T03:13:40Z</time>
      </trkpt>
      <trkpt lat="38.129044342786074" lon="140.45896547846496">
        <ele>1551.22</ele>
        <time>2026-01-04T03:13:43Z</time>
      </trkpt>
      <trkpt lat="38.129043839871883" lon="140.45896598137915">
        <ele>1551.71</ele>
        <time>2026-01-04T03:13:45Z</time>
      </trkpt>
      <trkpt lat="38.129100920632482" lon="140.4590620379895">
        <ele>1550.26</ele>
        <time>2026-01-04T03:13:50Z</time>
      </trkpt>
      <trkpt lat="38.129115337505937" lon="140.45909883454442">
        <ele>1546.9000000000001</ele>
        <time>2026-01-04T03:13:51Z</time>
      </trkpt>
      <trkpt lat="38.129154983907938" lon="140.45917460694909">
        <ele>1547.3800000000001</ele>
        <time>2026-01-04T03:13:53Z</time>
      </trkpt>
      <trkpt lat="38.129174849018455" lon="140.45926144346595">
        <ele>1547.3800000000001</ele>
        <time>2026-01-04T03:13:55Z</time>
      </trkpt>
      <trkpt lat="38.129170574247837" lon="140.45930762775242">
        <ele>1544.01</ele>
        <time>2026-01-04T03:13:56Z</time>
      </trkpt>
      <trkpt lat="38.129144674167037" lon="140.45945707708597">
        <ele>1541.1300000000001</ele>
        <time>2026-01-04T03:14:04Z</time>
      </trkpt>
      <trkpt lat="38.129143500700593" lon="140.45947124250233">
        <ele>1541.1300000000001</ele>
        <time>2026-01-04T03:14:06Z</time>
      </trkpt>
      <trkpt lat="38.129164455458522" lon="140.4595607612282">
        <ele>1536.8</ele>
        <time>2026-01-04T03:14:09Z</time>
      </trkpt>
      <trkpt lat="38.129165796563029" lon="140.4596022516489">
        <ele>1538.25</ele>
        <time>2026-01-04T03:14:10Z</time>
      </trkpt>
      <trkpt lat="38.129162359982729" lon="140.45973317697644">
        <ele>1535.3599999999999</ele>
        <time>2026-01-04T03:14:14Z</time>
      </trkpt>
      <trkpt lat="38.129174262285233" lon="140.4597766790539">
        <ele>1533.9200000000001</ele>
        <time>2026-01-04T03:14:15Z</time>
      </trkpt>
      <trkpt lat="38.129184739664197" lon="140.45982068404555">
        <ele>1532.96</ele>
        <time>2026-01-04T03:14:16Z</time>
      </trkpt>
      <trkpt lat="38.129195300862193" lon="140.45984524302185">
        <ele>1530.0799999999999</ele>
        <time>2026-01-04T03:14:17Z</time>
      </trkpt>
      <trkpt lat="38.129204520955682" lon="140.45985379256308">
        <ele>1531.04</ele>
        <time>2026-01-04T03:14:18Z</time>
      </trkpt>
      <trkpt lat="38.129208292812109" lon="140.45985865406692">
        <ele>1534.4000000000001</ele>
        <time>2026-01-04T03:14:20Z</time>
      </trkpt>
      <trkpt lat="38.129217429086566" lon="140.45988824218512">
        <ele>1532</ele>
        <time>2026-01-04T03:14:21Z</time>
      </trkpt>
      <trkpt lat="38.129225894808769" lon="140.45993098989129">
        <ele>1530.5599999999999</ele>
        <time>2026-01-04T03:14:22Z</time>
      </trkpt>
      <trkpt lat="38.129245257005095" lon="140.4600581433624">
        <ele>1527.6700000000001</ele>
        <time>2026-01-04T03:14:25Z</time>
      </trkpt>
      <trkpt lat="38.129234779626131" lon="140.46006702817976">
        <ele>1528.1500000000001</ele>
        <time>2026-01-04T03:14:26Z</time>
      </trkpt>
      <trkpt lat="38.129204688593745" lon="140.46006007120013">
        <ele>1526.71</ele>
        <time>2026-01-04T03:14:40Z</time>
      </trkpt>
      <trkpt lat="38.12920980155468" lon="140.46007264405489">
        <ele>1526.71</ele>
        <time>2026-01-04T03:14:56Z</time>
      </trkpt>
      <trkpt lat="38.129211729392409" lon="140.46007406897843">
        <ele>1526.71</ele>
        <time>2026-01-04T03:15:10Z</time>
      </trkpt>
      <trkpt lat="38.129217177629471" lon="140.46007071621716">
        <ele>1526.23</ele>
        <time>2026-01-04T03:15:20Z</time>
      </trkpt>
      <trkpt lat="38.129215417429805" lon="140.46007582917809">
        <ele>1527.6700000000001</ele>
        <time>2026-01-04T03:15:33Z</time>
      </trkpt>
      <trkpt lat="38.129215585067868" lon="140.46007725410163">
        <ele>1527.1900000000001</ele>
        <time>2026-01-04T03:15:55Z</time>
      </trkpt>
      <trkpt lat="38.129240227863193" lon="140.46011279337108">
        <ele>1528.1500000000001</ele>
        <time>2026-01-04T03:16:07Z</time>
      </trkpt>
      <trkpt lat="38.129264954477549" lon="140.46016844920814">
        <ele>1526.23</ele>
        <time>2026-01-04T03:16:12Z</time>
      </trkpt>
      <trkpt lat="38.129300242289901" lon="140.46029954217374">
        <ele>1526.23</ele>
        <time>2026-01-04T03:16:19Z</time>
      </trkpt>
      <trkpt lat="38.129357742145658" lon="140.46063054352999">
        <ele>1524.3099999999999</ele>
        <time>2026-01-04T03:16:33Z</time>
      </trkpt>
      <trkpt lat="38.129518171772361" lon="140.46105466783047">
        <ele>1520.9400000000001</ele>
        <time>2026-01-04T03:16:47Z</time>
      </trkpt>
      <trkpt lat="38.129572151228786" lon="140.46111367642879">
        <ele>1519.98</ele>
        <time>2026-01-04T03:16:49Z</time>
      </trkpt>
      <trkpt lat="38.129765773192048" lon="140.46136647462845">
        <ele>1517.5799999999999</ele>
        <time>2026-01-04T03:16:57Z</time>
      </trkpt>
      <trkpt lat="38.129873648285866" lon="140.46164148487151">
        <ele>1514.21</ele>
        <time>2026-01-04T03:17:04Z</time>
      </trkpt>
      <trkpt lat="38.129878845065832" lon="140.46169328503311">
        <ele>1513.73</ele>
        <time>2026-01-04T03:17:05Z</time>
      </trkpt>
      <trkpt lat="38.12987482175231" lon="140.4617437440902">
        <ele>1513.73</ele>
        <time>2026-01-04T03:17:06Z</time>
      </trkpt>
      <trkpt lat="38.129861745983362" lon="140.46178422868252">
        <ele>1513.73</ele>
        <time>2026-01-04T03:17:07Z</time>
      </trkpt>
      <trkpt lat="38.129820255562663" lon="140.46184969134629">
        <ele>1513.73</ele>
        <time>2026-01-04T03:17:09Z</time>
      </trkpt>
      <trkpt lat="38.129724366590381" lon="140.46193468384445">
        <ele>1511.8099999999999</ele>
        <time>2026-01-04T03:17:13Z</time>
      </trkpt>
      <trkpt lat="38.129617916420102" lon="140.46196418814361">
        <ele>1509.8900000000001</ele>
        <time>2026-01-04T03:17:16Z</time>
      </trkpt>
      <trkpt lat="38.129447009414434" lon="140.4619874060154">
        <ele>1507.48</ele>
        <time>2026-01-04T03:17:20Z</time>
      </trkpt>
      <trkpt lat="38.129411051049829" lon="140.46200333163142">
        <ele>1507.48</ele>
        <time>2026-01-04T03:17:21Z</time>
      </trkpt>
      <trkpt lat="38.129222877323627" lon="140.46215864829719">
        <ele>1505.5599999999999</ele>
        <time>2026-01-04T03:17:30Z</time>
      </trkpt>
      <trkpt lat="38.129182979464531" lon="140.4623412899673">
        <ele>1505.0799999999999</ele>
        <time>2026-01-04T03:17:36Z</time>
      </trkpt>
      <trkpt lat="38.129191529005766" lon="140.46237490139902">
        <ele>1504.5999999999999</ele>
        <time>2026-01-04T03:17:37Z</time>
      </trkpt>
      <trkpt lat="38.12920494005084" lon="140.46240624971688">
        <ele>1504.5999999999999</ele>
        <time>2026-01-04T03:17:38Z</time>
      </trkpt>
      <trkpt lat="38.129423875361681" lon="140.46257531270385">
        <ele>1501.24</ele>
        <time>2026-01-04T03:17:47Z</time>
      </trkpt>
      <trkpt lat="38.129583550617099" lon="140.46260456554592">
        <ele>1499.79</ele>
        <time>2026-01-04T03:17:51Z</time>
      </trkpt>
      <trkpt lat="38.129724198952317" lon="140.46264002099633">
        <ele>1498.3499999999999</ele>
        <time>2026-01-04T03:17:55Z</time>
      </trkpt>
      <trkpt lat="38.129861745983362" lon="140.46270288527012">
        <ele>1496.9100000000001</ele>
        <time>2026-01-04T03:18:00Z</time>
      </trkpt>
      <trkpt lat="38.129938105121255" lon="140.46299709007144">
        <ele>1493.55</ele>
        <time>2026-01-04T03:18:10Z</time>
      </trkpt>
      <trkpt lat="38.129922347143292" lon="140.46303036622703">
        <ele>1493.55</ele>
        <time>2026-01-04T03:18:11Z</time>
      </trkpt>
      <trkpt lat="38.129813633859158" lon="140.46311737038195">
        <ele>1491.6199999999999</ele>
        <time>2026-01-04T03:18:15Z</time>
      </trkpt>
      <trkpt lat="38.129653288051486" lon="140.46313907951117">
        <ele>1490.1800000000001</ele>
        <time>2026-01-04T03:18:19Z</time>
      </trkpt>
      <trkpt lat="38.129438040778041" lon="140.46315525658429">
        <ele>1487.78</ele>
        <time>2026-01-04T03:18:24Z</time>
      </trkpt>
      <trkpt lat="38.129395209252834" lon="140.46316238120198">
        <ele>1487.3</ele>
        <time>2026-01-04T03:18:25Z</time>
      </trkpt>
      <trkpt lat="38.129357406869531" lon="140.46317394822836">
        <ele>1487.3</ele>
        <time>2026-01-04T03:18:26Z</time>
      </trkpt>
      <trkpt lat="38.129318682476878" lon="140.46319205313921">
        <ele>1487.3</ele>
        <time>2026-01-04T03:18:27Z</time>
      </trkpt>
      <trkpt lat="38.129283059388399" lon="140.46321250498295">
        <ele>1487.3</ele>
        <time>2026-01-04T03:18:28Z</time>
      </trkpt>
      <trkpt lat="38.129245592281222" lon="140.46322985552251">
        <ele>1486.8199999999999</ele>
        <time>2026-01-04T03:18:29Z</time>
      </trkpt>
      <trkpt lat="38.1292122323066" lon="140.46324578113854">
        <ele>1486.8199999999999</ele>
        <time>2026-01-04T03:18:30Z</time>
      </trkpt>
      <trkpt lat="38.129181638360023" lon="140.4632652271539">
        <ele>1485.8499999999999</ele>
        <time>2026-01-04T03:18:31Z</time>
      </trkpt>
      <trkpt lat="38.129157833755016" lon="140.46328542754054">
        <ele>1485.8499999999999</ele>
        <time>2026-01-04T03:18:32Z</time>
      </trkpt>
      <trkpt lat="38.129140231758356" lon="140.46331023797393">
        <ele>1485.8499999999999</ele>
        <time>2026-01-04T03:18:33Z</time>
      </trkpt>
      <trkpt lat="38.129129922017455" lon="140.46333613805473">
        <ele>1485.3699999999999</ele>
        <time>2026-01-04T03:18:34Z</time>
      </trkpt>
      <trkpt lat="38.129122965037823" lon="140.46336580999196">
        <ele>1485.3699999999999</ele>
        <time>2026-01-04T03:18:35Z</time>
      </trkpt>
      <trkpt lat="38.129205107688904" lon="140.46367401257157">
        <ele>1482.01</ele>
        <time>2026-01-04T03:18:44Z</time>
      </trkpt>
      <trkpt lat="38.129235785454512" lon="140.46369538642466">
        <ele>1482.01</ele>
        <time>2026-01-04T03:18:45Z</time>
      </trkpt>
      <trkpt lat="38.129273755475879" lon="140.46371290460229">
        <ele>1482.01</ele>
        <time>2026-01-04T03:18:46Z</time>
      </trkpt>
      <trkpt lat="38.129397220909595" lon="140.46375405974686">
        <ele>1479.1300000000001</ele>
        <time>2026-01-04T03:18:49Z</time>
      </trkpt>
      <trkpt lat="38.129440555348992" lon="140.46376143582165">
        <ele>1478.1600000000001</ele>
        <time>2026-01-04T03:18:50Z</time>
      </trkpt>
      <trkpt lat="38.129486152902246" lon="140.46376428566873">
        <ele>1478.1600000000001</ele>
        <time>2026-01-04T03:18:51Z</time>
      </trkpt>
      <trkpt lat="38.129728892818093" lon="140.46379940584302">
        <ele>1475.76</ele>
        <time>2026-01-04T03:18:56Z</time>
      </trkpt>
      <trkpt lat="38.129984959959984" lon="140.4638368729502">
        <ele>1473.8399999999999</ele>
        <time>2026-01-04T03:19:01Z</time>
      </trkpt>
      <trkpt lat="38.130077747628093" lon="140.46385187655687">
        <ele>1471.4400000000001</ele>
        <time>2026-01-04T03:19:03Z</time>
      </trkpt>
      <trkpt lat="38.130118818953633" lon="140.46385187655687">
        <ele>1471.4400000000001</ele>
        <time>2026-01-04T03:19:04Z</time>
      </trkpt>
      <trkpt lat="38.130161231383681" lon="140.46384567394853">
        <ele>1470.95</ele>
        <time>2026-01-04T03:19:05Z</time>
      </trkpt>
      <trkpt lat="38.130199955776334" lon="140.4638437461108">
        <ele>1470.95</ele>
        <time>2026-01-04T03:19:06Z</time>
      </trkpt>
      <trkpt lat="38.130230633541942" lon="140.46385665424168">
        <ele>1470.47</ele>
        <time>2026-01-04T03:19:07Z</time>
      </trkpt>
      <trkpt lat="38.130249325186014" lon="140.46389822848141">
        <ele>1469.99</ele>
        <time>2026-01-04T03:19:15Z</time>
      </trkpt>
      <trkpt lat="38.130246391519904" lon="140.46391976997256">
        <ele>1469.51</ele>
        <time>2026-01-04T03:19:35Z</time>
      </trkpt>
      <trkpt lat="38.130234405398369" lon="140.46393410302699">
        <ele>1472.8800000000001</ele>
        <time>2026-01-04T03:19:39Z</time>
      </trkpt>
      <trkpt lat="38.130164332687855" lon="140.46403753571212">
        <ele>1469.99</ele>
        <time>2026-01-04T03:19:58Z</time>
      </trkpt>
      <trkpt lat="38.130175396800041" lon="140.46410836279392">
        <ele>1469.99</ele>
        <time>2026-01-04T03:20:07Z</time>
      </trkpt>
      <trkpt lat="38.130198363214731" lon="140.46417416073382">
        <ele>1468.55</ele>
        <time>2026-01-04T03:20:12Z</time>
      </trkpt>
      <trkpt lat="38.130206828936934" lon="140.46420140191913">
        <ele>1469.99</ele>
        <time>2026-01-04T03:20:16Z</time>
      </trkpt>
      <trkpt lat="38.13024178147316" lon="140.46423484571278">
        <ele>1469.03</ele>
        <time>2026-01-04T03:20:21Z</time>
      </trkpt>
      <trkpt lat="38.130293246358633" lon="140.46425890177488">
        <ele>1466.6300000000001</ele>
        <time>2026-01-04T03:20:23Z</time>
      </trkpt>
      <trkpt lat="38.130390727892518" lon="140.46426979824901">
        <ele>1464.71</ele>
        <time>2026-01-04T03:20:26Z</time>
      </trkpt>
      <trkpt lat="38.130431715399027" lon="140.46433459036052">
        <ele>1461.3399999999999</ele>
        <time>2026-01-04T03:20:29Z</time>
      </trkpt>
      <trkpt lat="38.130444288253784" lon="140.46437423676252">
        <ele>1459.4200000000001</ele>
        <time>2026-01-04T03:20:39Z</time>
      </trkpt>
      <trkpt lat="38.130392571911216" lon="140.46445445157588">
        <ele>1455.5699999999999</ele>
        <time>2026-01-04T03:20:42Z</time>
      </trkpt>
      <trkpt lat="38.130376981571317" lon="140.46446995809674">
        <ele>1450.29</ele>
        <time>2026-01-04T03:20:43Z</time>
      </trkpt>
      <trkpt lat="38.130377400666475" lon="140.46447104774415">
        <ele>1452.6900000000001</ele>
        <time>2026-01-04T03:20:44Z</time>
      </trkpt>
      <trkpt lat="38.130382597446442" lon="140.4644703771919">
        <ele>1456.53</ele>
        <time>2026-01-04T03:20:45Z</time>
      </trkpt>
      <trkpt lat="38.130380418151617" lon="140.46447079628706">
        <ele>1455.5699999999999</ele>
        <time>2026-01-04T03:20:46Z</time>
      </trkpt>
      <trkpt lat="38.130363570526242" lon="140.46452192589641">
        <ele>1453.6500000000001</ele>
        <time>2026-01-04T03:20:56Z</time>
      </trkpt>
      <trkpt lat="38.13035418279469" lon="140.46455796808004">
        <ele>1453.6500000000001</ele>
        <time>2026-01-04T03:20:59Z</time>
      </trkpt>
      <trkpt lat="38.130353009328246" lon="140.46458688564599">
        <ele>1454.1300000000001</ele>
        <time>2026-01-04T03:21:01Z</time>
      </trkpt>
      <trkpt lat="38.130355020985007" lon="140.46463047154248">
        <ele>1452.21</ele>
        <time>2026-01-04T03:21:04Z</time>
      </trkpt>
      <trkpt lat="38.13036491163075" lon="140.46468805521727">
        <ele>1452.6900000000001</ele>
        <time>2026-01-04T03:21:10Z</time>
      </trkpt>
      <trkpt lat="38.130347225815058" lon="140.46474421396852">
        <ele>1450.77</ele>
        <time>2026-01-04T03:21:13Z</time>
      </trkpt>
      <trkpt lat="38.130309088155627" lon="140.4648744687438">
        <ele>1449.8099999999999</ele>
        <time>2026-01-04T03:21:25Z</time>
      </trkpt>
      <trkpt lat="38.130302131175995" lon="140.46490506269038">
        <ele>1448.3599999999999</ele>
        <time>2026-01-04T03:21:37Z</time>
      </trkpt>
      <trkpt lat="38.130296096205711" lon="140.46490757726133">
        <ele>1448.3599999999999</ele>
        <time>2026-01-04T03:21:54Z</time>
      </trkpt>
      <trkpt lat="38.130236081779003" lon="140.46491864137352">
        <ele>1448.3599999999999</ele>
        <time>2026-01-04T03:22:09Z</time>
      </trkpt>
      <trkpt lat="38.130226107314229" lon="140.46494781039655">
        <ele>1447.4000000000001</ele>
        <time>2026-01-04T03:22:23Z</time>
      </trkpt>
      <trkpt lat="38.130230130627751" lon="140.46495334245265">
        <ele>1448.3599999999999</ele>
        <time>2026-01-04T03:22:36Z</time>
      </trkpt>
      <trkpt lat="38.130242200568318" lon="140.46494890004396">
        <ele>1448.8399999999999</ele>
        <time>2026-01-04T03:22:59Z</time>
      </trkpt>
      <trkpt lat="38.130234992131591" lon="140.46496851369739">
        <ele>1450.29</ele>
        <time>2026-01-04T03:23:03Z</time>
      </trkpt>
      <trkpt lat="38.130167685449123" lon="140.46512600965798">
        <ele>1448.3599999999999</ele>
        <time>2026-01-04T03:23:16Z</time>
      </trkpt>
      <trkpt lat="38.130183191969991" lon="140.46554544009268">
        <ele>1445.48</ele>
        <time>2026-01-04T03:23:34Z</time>
      </trkpt>
      <trkpt lat="38.130096774548292" lon="140.46592488884926">
        <ele>1443.5599999999999</ele>
        <time>2026-01-04T03:23:48Z</time>
      </trkpt>
      <trkpt lat="38.129941374063492" lon="140.4662022460252">
        <ele>1441.1500000000001</ele>
        <time>2026-01-04T03:24:03Z</time>
      </trkpt>
      <trkpt lat="38.129937015473843" lon="140.46659317798913">
        <ele>1437.79</ele>
        <time>2026-01-04T03:24:15Z</time>
      </trkpt>
      <trkpt lat="38.129941122606397" lon="140.46664246357977">
        <ele>1437.79</ele>
        <time>2026-01-04T03:24:16Z</time>
      </trkpt>
      <trkpt lat="38.129955539479852" lon="140.46696441248059">
        <ele>1436.8299999999999</ele>
        <time>2026-01-04T03:24:22Z</time>
      </trkpt>
      <trkpt lat="38.129951851442456" lon="140.46702031977475">
        <ele>1435.8699999999999</ele>
        <time>2026-01-04T03:24:23Z</time>
      </trkpt>
      <trkpt lat="38.129927376285195" lon="140.46726800501347">
        <ele>1434.4200000000001</ele>
        <time>2026-01-04T03:24:27Z</time>
      </trkpt>
      <trkpt lat="38.129917904734612" lon="140.46745760366321">
        <ele>1432.5</ele>
        <time>2026-01-04T03:24:30Z</time>
      </trkpt>
      <trkpt lat="38.12992318533361" lon="140.46752667054534">
        <ele>1431.54</ele>
        <time>2026-01-04T03:24:31Z</time>
      </trkpt>
      <trkpt lat="38.129976578056812" lon="140.4678793810308">
        <ele>1429.1400000000001</ele>
        <time>2026-01-04T03:24:36Z</time>
      </trkpt>
      <trkpt lat="38.130035838112235" lon="140.46819613315165">
        <ele>1425.77</ele>
        <time>2026-01-04T03:24:40Z</time>
      </trkpt>
      <trkpt lat="38.130112867802382" lon="140.46850886195898">
        <ele>1423.8499999999999</ele>
        <time>2026-01-04T03:24:44Z</time>
      </trkpt>
      <trkpt lat="38.130183191969991" lon="140.46871421858668">
        <ele>1422.8900000000001</ele>
        <time>2026-01-04T03:24:47Z</time>
      </trkpt>
      <trkpt lat="38.130213199183345" lon="140.46876727603376">
        <ele>1422.4100000000001</ele>
        <time>2026-01-04T03:24:48Z</time>
      </trkpt>
      <trkpt lat="38.130366923287511" lon="140.46903365291655">
        <ele>1420.49</ele>
        <time>2026-01-04T03:24:53Z</time>
      </trkpt>
      <trkpt lat="38.130385866388679" lon="140.46909433789551">
        <ele>1420.49</ele>
        <time>2026-01-04T03:24:54Z</time>
      </trkpt>
      <trkpt lat="38.130398523062468" lon="140.46916164457798">
        <ele>1420.49</ele>
        <time>2026-01-04T03:24:55Z</time>
      </trkpt>
      <trkpt lat="38.130412185564637" lon="140.46928502619267">
        <ele>1419.52</ele>
        <time>2026-01-04T03:24:57Z</time>
      </trkpt>
      <trkpt lat="38.130405899137259" lon="140.4693313781172">
        <ele>1419.52</ele>
        <time>2026-01-04T03:24:58Z</time>
      </trkpt>
      <trkpt lat="38.130400283262134" lon="140.46936465427279">
        <ele>1419.52</ele>
        <time>2026-01-04T03:24:59Z</time>
      </trkpt>
      <trkpt lat="38.130392236635089" lon="140.46941553242505">
        <ele>1419.52</ele>
        <time>2026-01-04T03:25:07Z</time>
      </trkpt>
      <trkpt lat="38.130381172522902" lon="140.46942240558565">
        <ele>1420.97</ele>
        <time>2026-01-04T03:25:10Z</time>
      </trkpt>
      <trkpt lat="38.130371449515224" lon="140.469441851601">
        <ele>1420.97</ele>
        <time>2026-01-04T03:25:14Z</time>
      </trkpt>
      <trkpt lat="38.130353763699532" lon="140.46947227790952">
        <ele>1419.04</ele>
        <time>2026-01-04T03:25:17Z</time>
      </trkpt>
      <trkpt lat="38.130342029035091" lon="140.46949105337262">
        <ele>1420</ele>
        <time>2026-01-04T03:25:19Z</time>
      </trkpt>
      <trkpt lat="38.13029651530087" lon="140.46955274417996">
        <ele>1418.5599999999999</ele>
        <time>2026-01-04T03:25:23Z</time>
      </trkpt>
      <trkpt lat="38.130252342671156" lon="140.46961108222604">
        <ele>1417.1199999999999</ele>
        <time>2026-01-04T03:25:26Z</time>
      </trkpt>
      <trkpt lat="38.130223257467151" lon="140.46965039335191">
        <ele>1418.5599999999999</ele>
        <time>2026-01-04T03:25:28Z</time>
      </trkpt>
      <trkpt lat="38.13002921640873" lon="140.46990863978863">
        <ele>1417.1199999999999</ele>
        <time>2026-01-04T03:25:42Z</time>
      </trkpt>
      <trkpt lat="38.129856213927269" lon="140.47011776827276">
        <ele>1416.6400000000001</ele>
        <time>2026-01-04T03:25:56Z</time>
      </trkpt>
      <trkpt lat="38.129811622202396" lon="140.47015800140798">
        <ele>1411.8299999999999</ele>
        <time>2026-01-04T03:26:00Z</time>
      </trkpt>
      <trkpt lat="38.129799133166671" lon="140.47016831114888">
        <ele>1417.1199999999999</ele>
        <time>2026-01-04T03:26:01Z</time>
      </trkpt>
      <trkpt lat="38.129753032699227" lon="140.47020141966641">
        <ele>1413.28</ele>
        <time>2026-01-04T03:26:04Z</time>
      </trkpt>
      <trkpt lat="38.129736771807075" lon="140.47021198086441">
        <ele>1419.04</ele>
        <time>2026-01-04T03:26:05Z</time>
      </trkpt>
      <trkpt lat="38.129702657461166" lon="140.47023586928844">
        <ele>1415.2</ele>
        <time>2026-01-04T03:26:07Z</time>
      </trkpt>
      <trkpt lat="38.12968329526484" lon="140.47025053761899">
        <ele>1415.2</ele>
        <time>2026-01-04T03:26:08Z</time>
      </trkpt>
      <trkpt lat="38.129419181495905" lon="140.47043862752616">
        <ele>1414.24</ele>
        <time>2026-01-04T03:26:22Z</time>
      </trkpt>
      <trkpt lat="38.129284903407097" lon="140.47055069357157">
        <ele>1412.79</ele>
        <time>2026-01-04T03:26:29Z</time>
      </trkpt>
      <trkpt lat="38.129040990024805" lon="140.47073995694518">
        <ele>1409.4300000000001</ele>
        <time>2026-01-04T03:26:40Z</time>
      </trkpt>
      <trkpt lat="38.12883647158742" lon="140.47114337794483">
        <ele>1408.47</ele>
        <time>2026-01-04T03:26:54Z</time>
      </trkpt>
      <trkpt lat="38.128728177398443" lon="140.47168434597552">
        <ele>1405.0999999999999</ele>
        <time>2026-01-04T03:27:08Z</time>
      </trkpt>
      <trkpt lat="38.12849398702383" lon="140.47220611944795">
        <ele>1401.74</ele>
        <time>2026-01-04T03:27:19Z</time>
      </trkpt>
      <trkpt lat="38.128384603187442" lon="140.47241524793208">
        <ele>1400.3</ele>
        <time>2026-01-04T03:27:23Z</time>
      </trkpt>
      <trkpt lat="38.128163991495967" lon="140.47275865450501">
        <ele>1396.9300000000001</ele>
        <time>2026-01-04T03:27:30Z</time>
      </trkpt>
      <trkpt lat="38.128107078373432" lon="140.47286720015109">
        <ele>1395.97</ele>
        <time>2026-01-04T03:27:32Z</time>
      </trkpt>
      <trkpt lat="38.128010183572769" lon="140.47311823815107">
        <ele>1395.97</ele>
        <time>2026-01-04T03:27:36Z</time>
      </trkpt>
      <trkpt lat="38.12798336148262" lon="140.47317297197878">
        <ele>1394.05</ele>
        <time>2026-01-04T03:27:37Z</time>
      </trkpt>
      <trkpt lat="38.127947067841887" lon="140.47322695143521">
        <ele>1393.5699999999999</ele>
        <time>2026-01-04T03:27:38Z</time>
      </trkpt>
      <trkpt lat="38.127912869676948" lon="140.47326886095107">
        <ele>1392.6099999999999</ele>
        <time>2026-01-04T03:27:39Z</time>
      </trkpt>
      <trkpt lat="38.127871714532375" lon="140.47330842353404">
        <ele>1392.6099999999999</ele>
        <time>2026-01-04T03:27:40Z</time>
      </trkpt>
      <trkpt lat="38.127834415063262" lon="140.47333725728095">
        <ele>1392.6099999999999</ele>
        <time>2026-01-04T03:27:41Z</time>
      </trkpt>
      <trkpt lat="38.127791415899992" lon="140.47336600720882">
        <ele>1392.6099999999999</ele>
        <time>2026-01-04T03:27:42Z</time>
      </trkpt>
      <trkpt lat="38.127663508057594" lon="140.47345602884889">
        <ele>1392.1300000000001</ele>
        <time>2026-01-04T03:27:45Z</time>
      </trkpt>
      <trkpt lat="38.127482961863279" lon="140.4736402630806">
        <ele>1389.72</ele>
        <time>2026-01-04T03:27:50Z</time>
      </trkpt>
      <trkpt lat="38.127143746241927" lon="140.47418097965419">
        <ele>1387.8</ele>
        <time>2026-01-04T03:28:05Z</time>
      </trkpt>
      <trkpt lat="38.127137962728739" lon="140.47421266324818">
        <ele>1387.8</ele>
        <time>2026-01-04T03:28:06Z</time>
      </trkpt>
      <trkpt lat="38.127104770392179" lon="140.47445439733565">
        <ele>1383.47</ele>
        <time>2026-01-04T03:28:14Z</time>
      </trkpt>
      <trkpt lat="38.127101082354784" lon="140.47449060715735">
        <ele>1386.3599999999999</ele>
        <time>2026-01-04T03:28:15Z</time>
      </trkpt>
      <trkpt lat="38.127098735421896" lon="140.4745483584702">
        <ele>1382.51</ele>
        <time>2026-01-04T03:28:17Z</time>
      </trkpt>
      <trkpt lat="38.127091359347105" lon="140.47460963018239">
        <ele>1387.8</ele>
        <time>2026-01-04T03:28:19Z</time>
      </trkpt>
      <trkpt lat="38.127078115940094" lon="140.47471289522946">
        <ele>1380.5899999999999</ele>
        <time>2026-01-04T03:28:22Z</time>
      </trkpt>
      <trkpt lat="38.12707451172173" lon="140.474748685956">
        <ele>1390.6800000000001</ele>
        <time>2026-01-04T03:28:23Z</time>
      </trkpt>
      <trkpt lat="38.127071242779493" lon="140.47478053718805">
        <ele>1385.4000000000001</ele>
        <time>2026-01-04T03:28:24Z</time>
      </trkpt>
      <trkpt lat="38.127054562792182" lon="140.47496502287686">
        <ele>1381.55</ele>
        <time>2026-01-04T03:28:30Z</time>
      </trkpt>
      <trkpt lat="38.12705053947866" lon="140.4749939404428">
        <ele>1387.8</ele>
        <time>2026-01-04T03:28:31Z</time>
      </trkpt>
      <trkpt lat="38.127044504508376" lon="140.47504741698503">
        <ele>1384.4400000000001</ele>
        <time>2026-01-04T03:28:33Z</time>
      </trkpt>
      <trkpt lat="38.127033021301031" lon="140.47514716163278">
        <ele>1384.4400000000001</ele>
        <time>2026-01-04T03:28:37Z</time>
      </trkpt>
      <trkpt lat="38.126969486474991" lon="140.47547967173159">
        <ele>1385.4000000000001</ele>
        <time>2026-01-04T03:28:48Z</time>
      </trkpt>
      <trkpt lat="38.126971162855625" lon="140.47550305724144">
        <ele>1383.96</ele>
        <time>2026-01-04T03:28:49Z</time>
      </trkpt>
      <trkpt lat="38.12697091139853" lon="140.47552258707583">
        <ele>1383.96</ele>
        <time>2026-01-04T03:28:50Z</time>
      </trkpt>
      <trkpt lat="38.126970324665308" lon="140.47554002143443">
        <ele>1383.96</ele>
        <time>2026-01-04T03:28:51Z</time>
      </trkpt>
      <trkpt lat="38.126966301351786" lon="140.4755605570972">
        <ele>1386.3599999999999</ele>
        <time>2026-01-04T03:28:54Z</time>
      </trkpt>
      <trkpt lat="38.126963283866644" lon="140.47558696009219">
        <ele>1384.9200000000001</ele>
        <time>2026-01-04T03:28:59Z</time>
      </trkpt>
      <trkpt lat="38.126962697133422" lon="140.47565971501172">
        <ele>1386.3599999999999</ele>
        <time>2026-01-04T03:29:08Z</time>
      </trkpt>
      <trkpt lat="38.127001840621233" lon="140.4757193941623">
        <ele>1386.8399999999999</ele>
        <time>2026-01-04T03:29:23Z</time>
      </trkpt>
      <trkpt lat="38.127050371840596" lon="140.47578980214894">
        <ele>1387.3199999999999</ele>
        <time>2026-01-04T03:29:37Z</time>
      </trkpt>
      <trkpt lat="38.12709940597415" lon="140.47585375607014">
        <ele>1387.3199999999999</ele>
        <time>2026-01-04T03:29:52Z</time>
      </trkpt>
      <trkpt lat="38.127153050154448" lon="140.47593438997865">
        <ele>1388.28</ele>
        <time>2026-01-04T03:30:02Z</time>
      </trkpt>
      <trkpt lat="38.127159839496017" lon="140.47594469971955">
        <ele>1388.28</ele>
        <time>2026-01-04T03:30:03Z</time>
      </trkpt>
      <trkpt lat="38.127165790647268" lon="140.47595551237464">
        <ele>1388.28</ele>
        <time>2026-01-04T03:30:04Z</time>
      </trkpt>
      <trkpt lat="38.127188505604863" lon="140.4759974218905">
        <ele>1391.6500000000001</ele>
        <time>2026-01-04T03:30:07Z</time>
      </trkpt>
      <trkpt lat="38.127197474241257" lon="140.47601359896362">
        <ele>1388.76</ele>
        <time>2026-01-04T03:30:08Z</time>
      </trkpt>
      <trkpt lat="38.127215160056949" lon="140.4760423488915">
        <ele>1385.4000000000001</ele>
        <time>2026-01-04T03:30:10Z</time>
      </trkpt>
      <trkpt lat="38.127227062359452" lon="140.47605860978365">
        <ele>1386.8399999999999</ele>
        <time>2026-01-04T03:30:11Z</time>
      </trkpt>
      <trkpt lat="38.127254135906696" lon="140.47609507106245">
        <ele>1387.8</ele>
        <time>2026-01-04T03:30:13Z</time>
      </trkpt>
      <trkpt lat="38.127315742895007" lon="140.47618735581636">
        <ele>1384.9200000000001</ele>
        <time>2026-01-04T03:30:17Z</time>
      </trkpt>
      <trkpt lat="38.127375757321715" lon="140.47628433443606">
        <ele>1387.3199999999999</ele>
        <time>2026-01-04T03:30:21Z</time>
      </trkpt>
      <trkpt lat="38.127391180023551" lon="140.47630327753723">
        <ele>1384.4400000000001</ele>
        <time>2026-01-04T03:30:22Z</time>
      </trkpt>
      <trkpt lat="38.127453709021211" lon="140.47638474963605">
        <ele>1386.3599999999999</ele>
        <time>2026-01-04T03:30:27Z</time>
      </trkpt>
      <trkpt lat="38.127491679042578" lon="140.47643336467445">
        <ele>1385.8800000000001</ele>
        <time>2026-01-04T03:30:32Z</time>
      </trkpt>
      <trkpt lat="38.127635512501001" lon="140.47653872519732">
        <ele>1384.9200000000001</ele>
        <time>2026-01-04T03:30:47Z</time>
      </trkpt>
      <trkpt lat="38.127658478915691" lon="140.47654266469181">
        <ele>1379.6300000000001</ele>
        <time>2026-01-04T03:30:48Z</time>
      </trkpt>
      <trkpt lat="38.127684714272618" lon="140.4765500407666">
        <ele>1387.8</ele>
        <time>2026-01-04T03:30:49Z</time>
      </trkpt>
      <trkpt lat="38.127709859982133" lon="140.47655314207077">
        <ele>1382.99</ele>
        <time>2026-01-04T03:30:50Z</time>
      </trkpt>
      <trkpt lat="38.127741543576121" lon="140.47655305825174">
        <ele>1386.3599999999999</ele>
        <time>2026-01-04T03:30:51Z</time>
      </trkpt>
      <trkpt lat="38.127811448648572" lon="140.47655305825174">
        <ele>1382.99</ele>
        <time>2026-01-04T03:30:53Z</time>
      </trkpt>
      <trkpt lat="38.128099786117673" lon="140.4765896871686">
        <ele>1380.1099999999999</ele>
        <time>2026-01-04T03:31:01Z</time>
      </trkpt>
      <trkpt lat="38.128184694796801" lon="140.47660804353654">
        <ele>1379.1500000000001</ele>
        <time>2026-01-04T03:31:03Z</time>
      </trkpt>
      <trkpt lat="38.12823154963553" lon="140.47661801800132">
        <ele>1379.1500000000001</ele>
        <time>2026-01-04T03:31:04Z</time>
      </trkpt>
      <trkpt lat="38.128609824925661" lon="140.47677802853286">
        <ele>1378.1900000000001</ele>
        <time>2026-01-04T03:31:15Z</time>
      </trkpt>
      <trkpt lat="38.128876453265548" lon="140.47688825055957">
        <ele>1375.3</ele>
        <time>2026-01-04T03:31:26Z</time>
      </trkpt>
      <trkpt lat="38.12895180657506" lon="140.47692831605673">
        <ele>1374.3399999999999</ele>
        <time>2026-01-04T03:31:28Z</time>
      </trkpt>
      <trkpt lat="38.129127742722631" lon="140.4770247079432">
        <ele>1370.02</ele>
        <time>2026-01-04T03:31:32Z</time>
      </trkpt>
      <trkpt lat="38.129276856780052" lon="140.47706846147776">
        <ele>1368.5699999999999</ele>
        <time>2026-01-04T03:31:35Z</time>
      </trkpt>
      <trkpt lat="38.129441644996405" lon="140.47714591026306">
        <ele>1364.73</ele>
        <time>2026-01-04T03:31:38Z</time>
      </trkpt>
      <trkpt lat="38.12951180152595" lon="140.47717172652483">
        <ele>1364.73</ele>
        <time>2026-01-04T03:31:39Z</time>
      </trkpt>
      <trkpt lat="38.129701232537627" lon="140.47722369432449">
        <ele>1362.8099999999999</ele>
        <time>2026-01-04T03:31:42Z</time>
      </trkpt>
      <trkpt lat="38.129924777895212" lon="140.47745671123266">
        <ele>1358.48</ele>
        <time>2026-01-04T03:31:47Z</time>
      </trkpt>
      <trkpt lat="38.129913127049804" lon="140.47768025659025">
        <ele>1354.1500000000001</ele>
        <time>2026-01-04T03:31:50Z</time>
      </trkpt>
      <trkpt lat="38.130035670474172" lon="140.47780481167138">
        <ele>1349.8299999999999</ele>
        <time>2026-01-04T03:31:53Z</time>
      </trkpt>
      <trkpt lat="38.130082609131932" lon="140.47799055464566">
        <ele>1346.9400000000001</ele>
        <time>2026-01-04T03:31:59Z</time>
      </trkpt>
      <trkpt lat="38.130074143409729" lon="140.47799566760659">
        <ele>1346.9400000000001</ele>
        <time>2026-01-04T03:32:00Z</time>
      </trkpt>
      <trkpt lat="38.130068946629763" lon="140.4779795743525">
        <ele>1344.54</ele>
        <time>2026-01-04T03:32:12Z</time>
      </trkpt>
      <trkpt lat="38.130068192258477" lon="140.47797990962863">
        <ele>1347.9100000000001</ele>
        <time>2026-01-04T03:32:13Z</time>
      </trkpt>
      <trkpt lat="38.130067689344287" lon="140.47798016108572">
        <ele>1347.9100000000001</ele>
        <time>2026-01-04T03:32:14Z</time>
      </trkpt>
      <trkpt lat="38.130068695172668" lon="140.47799063846469">
        <ele>1348.3900000000001</ele>
        <time>2026-01-04T03:32:19Z</time>
      </trkpt>
      <trkpt lat="38.130090739578009" lon="140.47802190296352">
        <ele>1346.46</ele>
        <time>2026-01-04T03:32:21Z</time>
      </trkpt>
      <trkpt lat="38.130132397636771" lon="140.47802031040192">
        <ele>1344.0599999999999</ele>
        <time>2026-01-04T03:32:24Z</time>
      </trkpt>
      <trkpt lat="38.130133738741279" lon="140.47801452688873">
        <ele>1343.0999999999999</ele>
        <time>2026-01-04T03:32:31Z</time>
      </trkpt>
      <trkpt lat="38.130133990198374" lon="140.47801536507905">
        <ele>1339.73</ele>
        <time>2026-01-04T03:32:34Z</time>
      </trkpt>
      <trkpt lat="38.130133235827088" lon="140.47801502980292">
        <ele>1339.73</ele>
        <time>2026-01-04T03:32:35Z</time>
      </trkpt>
      <trkpt lat="38.130132565274835" lon="140.47801586799324">
        <ele>1354.1500000000001</ele>
        <time>2026-01-04T03:32:37Z</time>
      </trkpt>
      <trkpt lat="38.130133487284184" lon="140.47801586799324">
        <ele>1350.3099999999999</ele>
        <time>2026-01-04T03:32:38Z</time>
      </trkpt>
      <trkpt lat="38.130134409293532" lon="140.47801595181227">
        <ele>1346.46</ele>
        <time>2026-01-04T03:32:39Z</time>
      </trkpt>
      <trkpt lat="38.130137342959642" lon="140.47801687382162">
        <ele>1345.5</ele>
        <time>2026-01-04T03:32:41Z</time>
      </trkpt>
      <trkpt lat="38.130148071795702" lon="140.47801528126001">
        <ele>1345.5</ele>
        <time>2026-01-04T03:33:12Z</time>
      </trkpt>
      <trkpt lat="38.130148909986019" lon="140.47801687382162">
        <ele>1345.5</ele>
        <time>2026-01-04T03:33:13Z</time>
      </trkpt>
      <trkpt lat="38.13015871681273" lon="140.47801813110709">
        <ele>1345.5</ele>
        <time>2026-01-04T03:33:17Z</time>
      </trkpt>
      <trkpt lat="38.130171960219741" lon="140.47805786132812">
        <ele>1344.0599999999999</ele>
        <time>2026-01-04T03:33:20Z</time>
      </trkpt>
      <trkpt lat="38.130125189200044" lon="140.47811946831644">
        <ele>1342.6199999999999</ele>
        <time>2026-01-04T03:33:25Z</time>
      </trkpt>
      <trkpt lat="38.130079675465822" lon="140.47817126847804">
        <ele>1341.6600000000001</ele>
        <time>2026-01-04T03:33:34Z</time>
      </trkpt>
      <trkpt lat="38.130086632445455" lon="140.47823077999055">
        <ele>1338.77</ele>
        <time>2026-01-04T03:33:37Z</time>
      </trkpt>
      <trkpt lat="38.130110185593367" lon="140.47824771143496">
        <ele>1338.29</ele>
        <time>2026-01-04T03:33:38Z</time>
      </trkpt>
      <trkpt lat="38.130087638273835" lon="140.47830822877586">
        <ele>1335.4100000000001</ele>
        <time>2026-01-04T03:33:40Z</time>
      </trkpt>
      <trkpt lat="38.130066096782684" lon="140.47833831980824">
        <ele>1335.4100000000001</ele>
        <time>2026-01-04T03:33:41Z</time>
      </trkpt>
      <trkpt lat="38.130071125924587" lon="140.47838056460023">
        <ele>1332.04</ele>
        <time>2026-01-04T03:33:42Z</time>
      </trkpt>
      <trkpt lat="38.130114292725921" lon="140.47845952212811">
        <ele>1328.6800000000001</ele>
        <time>2026-01-04T03:33:44Z</time>
      </trkpt>
      <trkpt lat="38.130074143409729" lon="140.47857879661024">
        <ele>1325.3099999999999</ele>
        <time>2026-01-04T03:33:46Z</time>
      </trkpt>
      <trkpt lat="38.130093421787024" lon="140.47863302752376">
        <ele>1318.5899999999999</ele>
        <time>2026-01-04T03:33:47Z</time>
      </trkpt>
      <trkpt lat="38.13013524748385" lon="140.47866890206933">
        <ele>1314.74</ele>
        <time>2026-01-04T03:33:48Z</time>
      </trkpt>
      <trkpt lat="38.130180761218071" lon="140.47868709079921">
        <ele>1314.74</ele>
        <time>2026-01-04T03:33:49Z</time>
      </trkpt>
      <trkpt lat="38.130221078172326" lon="140.47871198505163">
        <ele>1311.8599999999999</ele>
        <time>2026-01-04T03:33:50Z</time>
      </trkpt>
      <trkpt lat="38.130224850028753" lon="140.47875045798719">
        <ele>1311.8599999999999</ele>
        <time>2026-01-04T03:33:51Z</time>
      </trkpt>
      <trkpt lat="38.130217138677835" lon="140.47892874106765">
        <ele>1304.1700000000001</ele>
        <time>2026-01-04T03:33:54Z</time>
      </trkpt>
      <trkpt lat="38.130230633541942" lon="140.47899646684527">
        <ele>1304.1700000000001</ele>
        <time>2026-01-04T03:33:55Z</time>
      </trkpt>
      <trkpt lat="38.130187131464481" lon="140.47914432361722">
        <ele>1301.28</ele>
        <time>2026-01-04T03:33:57Z</time>
      </trkpt>
      <trkpt lat="38.130130721256137" lon="140.4792629275471">
        <ele>1297.4400000000001</ele>
        <time>2026-01-04T03:33:59Z</time>
      </trkpt>
      <trkpt lat="38.130164248868823" lon="140.47937968745828">
        <ele>1295.51</ele>
        <time>2026-01-04T03:34:01Z</time>
      </trkpt>
      <trkpt lat="38.130173301324248" lon="140.4796929191798">
        <ele>1290.23</ele>
        <time>2026-01-04T03:34:06Z</time>
      </trkpt>
      <trkpt lat="38.130221581086516" lon="140.47985368408263">
        <ele>1287.8199999999999</ele>
        <time>2026-01-04T03:34:09Z</time>
      </trkpt>
      <trkpt lat="38.130237758159637" lon="140.48006440512836">
        <ele>1283.5</ele>
        <time>2026-01-04T03:34:12Z</time>
      </trkpt>
      <trkpt lat="38.130253767594695" lon="140.48036422580481">
        <ele>1277.73</ele>
        <time>2026-01-04T03:34:16Z</time>
      </trkpt>
      <trkpt lat="38.130248738452792" lon="140.48058835789561">
        <ele>1273.4000000000001</ele>
        <time>2026-01-04T03:34:19Z</time>
      </trkpt>
      <trkpt lat="38.130268268287182" lon="140.48073730431497">
        <ele>1270.04</ele>
        <time>2026-01-04T03:34:21Z</time>
      </trkpt>
      <trkpt lat="38.130303388461471" lon="140.48103704117239">
        <ele>1263.79</ele>
        <time>2026-01-04T03:34:25Z</time>
      </trkpt>
      <trkpt lat="38.130269106477499" lon="140.48123016022146">
        <ele>1258.98</ele>
        <time>2026-01-04T03:34:28Z</time>
      </trkpt>
      <trkpt lat="38.130321074277163" lon="140.48135756514966">
        <ele>1255.6199999999999</ele>
        <time>2026-01-04T03:34:30Z</time>
      </trkpt>
      <trkpt lat="38.130263490602374" lon="140.48150835558772">
        <ele>1252.25</ele>
        <time>2026-01-04T03:34:33Z</time>
      </trkpt>
      <trkpt lat="38.130233064293861" lon="140.48170918598771">
        <ele>1248.4100000000001</ele>
        <time>2026-01-04T03:34:36Z</time>
      </trkpt>
      <trkpt lat="38.130224598571658" lon="140.48180507495999">
        <ele>1246.49</ele>
        <time>2026-01-04T03:34:37Z</time>
      </trkpt>
      <trkpt lat="38.130191154778004" lon="140.4820706974715">
        <ele>1239.28</ele>
        <time>2026-01-04T03:34:39Z</time>
      </trkpt>
      <trkpt lat="38.13016751781106" lon="140.48222098499537">
        <ele>1222.9300000000001</ele>
        <time>2026-01-04T03:34:40Z</time>
      </trkpt>
      <trkpt lat="38.130138851702213" lon="140.48235978931189">
        <ele>1235.9100000000001</ele>
        <time>2026-01-04T03:34:41Z</time>
      </trkpt>
      <trkpt lat="38.130096606910229" lon="140.4826180357486">
        <ele>1238.8</ele>
        <time>2026-01-04T03:34:44Z</time>
      </trkpt>
      <trkpt lat="38.130113622173667" lon="140.48276295885444">
        <ele>1240.24</ele>
        <time>2026-01-04T03:34:52Z</time>
      </trkpt>
      <trkpt lat="38.130140695720911" lon="140.48284786753356">
        <ele>1239.76</ele>
        <time>2026-01-04T03:35:08Z</time>
      </trkpt>
      <trkpt lat="38.130132732912898" lon="140.48284510150552">
        <ele>1239.28</ele>
        <time>2026-01-04T03:35:34Z</time>
      </trkpt>
      <trkpt lat="38.130163243040442" lon="140.48287753947079">
        <ele>1239.28</ele>
        <time>2026-01-04T03:35:44Z</time>
      </trkpt>
      <trkpt lat="38.130248486995697" lon="140.48287217505276">
        <ele>1238.3199999999999</ele>
        <time>2026-01-04T03:35:57Z</time>
      </trkpt>
      <trkpt lat="38.130261143669486" lon="140.48287376761436">
        <ele>1237.8299999999999</ele>
        <time>2026-01-04T03:36:14Z</time>
      </trkpt>
      <trkpt lat="38.130277488380671" lon="140.48288952559233">
        <ele>1210.9200000000001</ele>
        <time>2026-01-04T03:36:16Z</time>
      </trkpt>
      <trkpt lat="38.130285451188684" lon="140.4828910343349">
        <ele>1236.8699999999999</ele>
        <time>2026-01-04T03:36:17Z</time>
      </trkpt>
      <trkpt lat="38.13028478063643" lon="140.48289153724909">
        <ele>1232.55</ele>
        <time>2026-01-04T03:36:18Z</time>
      </trkpt>
      <trkpt lat="38.130285115912557" lon="140.48289136961102">
        <ele>1226.3</ele>
        <time>2026-01-04T03:36:19Z</time>
      </trkpt>
      <trkpt lat="38.130282517522573" lon="140.48288650810719">
        <ele>1239.28</ele>
        <time>2026-01-04T03:36:20Z</time>
      </trkpt>
      <trkpt lat="38.130278745666146" lon="140.48287980258465">
        <ele>1248.8900000000001</ele>
        <time>2026-01-04T03:36:21Z</time>
      </trkpt>
      <trkpt lat="38.130275560542941" lon="140.48287644982338">
        <ele>1246.01</ele>
        <time>2026-01-04T03:36:22Z</time>
      </trkpt>
      <trkpt lat="38.130273129791021" lon="140.48287619836628">
        <ele>1238.3199999999999</ele>
        <time>2026-01-04T03:36:23Z</time>
      </trkpt>
      <trkpt lat="38.130274387076497" lon="140.4828772880137">
        <ele>1265.71</ele>
        <time>2026-01-04T03:36:24Z</time>
      </trkpt>
      <trkpt lat="38.130271537229419" lon="140.48287100158632">
        <ele>1240.72</ele>
        <time>2026-01-04T03:36:25Z</time>
      </trkpt>
      <trkpt lat="38.130262233316898" lon="140.48286052420735">
        <ele>1238.8</ele>
        <time>2026-01-04T03:36:28Z</time>
      </trkpt>
      <trkpt lat="38.130257120355964" lon="140.48286261968315">
        <ele>1240.24</ele>
        <time>2026-01-04T03:36:30Z</time>
      </trkpt>
      <trkpt lat="38.1302828527987" lon="140.48281207680702">
        <ele>1239.28</ele>
        <time>2026-01-04T03:36:46Z</time>
      </trkpt>
      <trkpt lat="38.130259970203042" lon="140.48274342902005">
        <ele>1237.8299999999999</ele>
        <time>2026-01-04T03:37:10Z</time>
      </trkpt>
      <trkpt lat="38.130263742059469" lon="140.48273144289851">
        <ele>1239.28</ele>
        <time>2026-01-04T03:37:20Z</time>
      </trkpt>
      <trkpt lat="38.130270196124911" lon="140.4827475361526">
        <ele>1237.8299999999999</ele>
        <time>2026-01-04T03:37:30Z</time>
      </trkpt>
      <trkpt lat="38.130251923575997" lon="140.48279606737196">
        <ele>1238.8</ele>
        <time>2026-01-04T03:37:46Z</time>
      </trkpt>
      <trkpt lat="38.130227196961641" lon="140.48279816284776">
        <ele>1237.3499999999999</ele>
        <time>2026-01-04T03:37:58Z</time>
      </trkpt>
      <trkpt lat="38.130273800343275" lon="140.48281358554959">
        <ele>1238.8</ele>
        <time>2026-01-04T03:38:22Z</time>
      </trkpt>
      <trkpt lat="38.130269860848784" lon="140.48284392803907">
        <ele>1237.3499999999999</ele>
        <time>2026-01-04T03:38:31Z</time>
      </trkpt>
      <trkpt lat="38.13022518530488" lon="140.48283177427948">
        <ele>1237.3499999999999</ele>
        <time>2026-01-04T03:38:47Z</time>
      </trkpt>
      <trkpt lat="38.130209175869823" lon="140.48292372375727">
        <ele>1237.3499999999999</ele>
        <time>2026-01-04T03:39:14Z</time>
      </trkpt>
      <trkpt lat="38.130159471184015" lon="140.4829134978354">
        <ele>1235.4300000000001</ele>
        <time>2026-01-04T03:39:39Z</time>
      </trkpt>
      <trkpt lat="38.130204565823078" lon="140.48284443095326">
        <ele>1235.4300000000001</ele>
        <time>2026-01-04T03:39:59Z</time>
      </trkpt>
      <trkpt lat="38.130220659077168" lon="140.48269808292389">
        <ele>1235.4300000000001</ele>
        <time>2026-01-04T03:40:24Z</time>
      </trkpt>
      <trkpt lat="38.130212528631091" lon="140.48267872072756">
        <ele>1236.8699999999999</ele>
        <time>2026-01-04T03:40:37Z</time>
      </trkpt>
      <trkpt lat="38.130223844200373" lon="140.48271727748215">
        <ele>1235.9100000000001</ele>
        <time>2026-01-04T03:40:59Z</time>
      </trkpt>
      <trkpt lat="38.130229795351624" lon="140.48272046260536">
        <ele>1234.95</ele>
        <time>2026-01-04T03:41:17Z</time>
      </trkpt>
      <trkpt lat="38.130242871120572" lon="140.48274552449584">
        <ele>1235.9100000000001</ele>
        <time>2026-01-04T03:41:47Z</time>
      </trkpt>
      <trkpt lat="38.130250666290522" lon="140.48274971544743">
        <ele>1236.3900000000001</ele>
        <time>2026-01-04T03:42:13Z</time>
      </trkpt>
      <trkpt lat="38.130226777866483" lon="140.48273940570652">
        <ele>1234.95</ele>
        <time>2026-01-04T03:42:46Z</time>
      </trkpt>
      <trkpt lat="38.13023691996932" lon="140.48267779871821">
        <ele>1234.95</ele>
        <time>2026-01-04T03:43:09Z</time>
      </trkpt>
      <trkpt lat="38.130237590521574" lon="140.4827060457319">
        <ele>1234.95</ele>
        <time>2026-01-04T03:43:25Z</time>
      </trkpt>
      <trkpt lat="38.130245553329587" lon="140.48273186199367">
        <ele>1234.95</ele>
        <time>2026-01-04T03:43:47Z</time>
      </trkpt>
      <trkpt lat="38.13024471513927" lon="140.48270872794092">
        <ele>1234.95</ele>
        <time>2026-01-04T03:44:15Z</time>
      </trkpt>
      <trkpt lat="38.130247732624412" lon="140.4827042017132">
        <ele>1226.78</ele>
        <time>2026-01-04T03:44:33Z</time>
      </trkpt>
      <trkpt lat="38.130249157547951" lon="140.48270193859935">
        <ele>1239.28</ele>
        <time>2026-01-04T03:44:34Z</time>
      </trkpt>
      <trkpt lat="38.130250917747617" lon="140.48270210623741">
        <ele>1235.4300000000001</ele>
        <time>2026-01-04T03:44:35Z</time>
      </trkpt>
      <trkpt lat="38.130250414833426" lon="140.48270101659">
        <ele>1231.5899999999999</ele>
        <time>2026-01-04T03:44:37Z</time>
      </trkpt>
      <trkpt lat="38.130248235538602" lon="140.48269975930452">
        <ele>1233.03</ele>
        <time>2026-01-04T03:44:38Z</time>
      </trkpt>
      <trkpt lat="38.130243122577667" lon="140.48269523307681">
        <ele>1233.99</ele>
        <time>2026-01-04T03:44:40Z</time>
      </trkpt>
      <trkpt lat="38.13022811897099" lon="140.48266363330185">
        <ele>1234.47</ele>
        <time>2026-01-04T03:44:50Z</time>
      </trkpt>
      <trkpt lat="38.130216551944613" lon="140.48265910707414">
        <ele>1234.47</ele>
        <time>2026-01-04T03:44:56Z</time>
      </trkpt>
      <trkpt lat="38.130207499489188" lon="140.48266396857798">
        <ele>1233.03</ele>
        <time>2026-01-04T03:44:59Z</time>
      </trkpt>
      <trkpt lat="38.130203895270824" lon="140.48266589641571">
        <ele>1235.4300000000001</ele>
        <time>2026-01-04T03:45:00Z</time>
      </trkpt>
      <trkpt lat="38.130196519196033" lon="140.48266782425344">
        <ele>1233.99</ele>
        <time>2026-01-04T03:45:02Z</time>
      </trkpt>
      <trkpt lat="38.13019048422575" lon="140.482690455392">
        <ele>1234.95</ele>
        <time>2026-01-04T03:45:20Z</time>
      </trkpt>
      <trkpt lat="38.130191490054131" lon="140.48268626444042">
        <ele>1233.51</ele>
        <time>2026-01-04T03:45:21Z</time>
      </trkpt>
      <trkpt lat="38.130193753167987" lon="140.48267947509885">
        <ele>1234.95</ele>
        <time>2026-01-04T03:45:23Z</time>
      </trkpt>
      <trkpt lat="38.130195345729589" lon="140.48267578706145">
        <ele>1233.03</ele>
        <time>2026-01-04T03:45:24Z</time>
      </trkpt>
      <trkpt lat="38.130196770653129" lon="140.48266522586346">
        <ele>1233.99</ele>
        <time>2026-01-04T03:45:29Z</time>
      </trkpt>
      <trkpt lat="38.130191741511226" lon="140.48267000354826">
        <ele>1235.4300000000001</ele>
        <time>2026-01-04T03:45:32Z</time>
      </trkpt>
      <trkpt lat="38.130189478397369" lon="140.48267578706145">
        <ele>1233.99</ele>
        <time>2026-01-04T03:45:33Z</time>
      </trkpt>
      <trkpt lat="38.130175732076168" lon="140.48272104933858">
        <ele>1235.9100000000001</ele>
        <time>2026-01-04T03:45:39Z</time>
      </trkpt>
      <trkpt lat="38.130176989361644" lon="140.48272616229951">
        <ele>1233.03</ele>
        <time>2026-01-04T03:45:40Z</time>
      </trkpt>
      <trkpt lat="38.130178162828088" lon="140.482730101794">
        <ele>1235.9100000000001</ele>
        <time>2026-01-04T03:45:41Z</time>
      </trkpt>
      <trkpt lat="38.130180090665817" lon="140.4827337898314">
        <ele>1233.51</ele>
        <time>2026-01-04T03:45:42Z</time>
      </trkpt>
      <trkpt lat="38.130187382921576" lon="140.48274334520102">
        <ele>1236.3900000000001</ele>
        <time>2026-01-04T03:45:48Z</time>
      </trkpt>
      <trkpt lat="38.13018704764545" lon="140.48274175263941">
        <ele>1232.0699999999999</ele>
        <time>2026-01-04T03:45:49Z</time>
      </trkpt>
      <trkpt lat="38.130186880007386" lon="140.482740662992">
        <ele>1234.95</ele>
        <time>2026-01-04T03:45:50Z</time>
      </trkpt>
      <trkpt lat="38.130190735682845" lon="140.48268534243107">
        <ele>1233.03</ele>
        <time>2026-01-04T03:45:59Z</time>
      </trkpt>
      <trkpt lat="38.130240859463811" lon="140.4826510604471">
        <ele>1235.9100000000001</ele>
        <time>2026-01-04T03:46:11Z</time>
      </trkpt>
      <trkpt lat="38.130243206396699" lon="140.48262700438499">
        <ele>1232.0699999999999</ele>
        <time>2026-01-04T03:46:14Z</time>
      </trkpt>
      <trkpt lat="38.130254689604044" lon="140.48261216841638">
        <ele>1232.55</ele>
        <time>2026-01-04T03:46:18Z</time>
      </trkpt>
      <trkpt lat="38.130311351269484" lon="140.48258978873491">
        <ele>1233.99</ele>
        <time>2026-01-04T03:46:31Z</time>
      </trkpt>
      <trkpt lat="38.13033901154995" lon="140.48259724862874">
        <ele>1233.03</ele>
        <time>2026-01-04T03:46:38Z</time>
      </trkpt>
      <trkpt lat="38.130339598283172" lon="140.48258995637298">
        <ele>1228.7</ele>
        <time>2026-01-04T03:46:43Z</time>
      </trkpt>
      <trkpt lat="38.130338424816728" lon="140.48258945345879">
        <ele>1228.7</ele>
        <time>2026-01-04T03:46:44Z</time>
      </trkpt>
      <trkpt lat="38.130336748436093" lon="140.48258836381137">
        <ele>1232.0699999999999</ele>
        <time>2026-01-04T03:46:45Z</time>
      </trkpt>
      <trkpt lat="38.130333730950952" lon="140.48258727416396">
        <ele>1239.28</ele>
        <time>2026-01-04T03:46:46Z</time>
      </trkpt>
      <trkpt lat="38.130323672667146" lon="140.4825834184885">
        <ele>1233.99</ele>
        <time>2026-01-04T03:46:48Z</time>
      </trkpt>
      <trkpt lat="38.130225017666817" lon="140.48269749619067">
        <ele>1233.99</ele>
        <time>2026-01-04T03:47:10Z</time>
      </trkpt>
      <trkpt lat="38.130260892212391" lon="140.48271627165377">
        <ele>1230.1400000000001</ele>
        <time>2026-01-04T03:47:19Z</time>
      </trkpt>
      <trkpt lat="38.130267011001706" lon="140.48272331245244">
        <ele>1233.99</ele>
        <time>2026-01-04T03:47:20Z</time>
      </trkpt>
      <trkpt lat="38.130283439531922" lon="140.48273756168783">
        <ele>1232.55</ele>
        <time>2026-01-04T03:47:23Z</time>
      </trkpt>
      <trkpt lat="38.130281763151288" lon="140.48280050978065">
        <ele>1229.6600000000001</ele>
        <time>2026-01-04T03:47:31Z</time>
      </trkpt>
      <trkpt lat="38.130284612998366" lon="140.48280738294125">
        <ele>1235.9100000000001</ele>
        <time>2026-01-04T03:47:32Z</time>
      </trkpt>
      <trkpt lat="38.130287965759635" lon="140.48281299881637">
        <ele>1233.03</ele>
        <time>2026-01-04T03:47:33Z</time>
      </trkpt>
      <trkpt lat="38.130316464230418" lon="140.48281224444509">
        <ele>1225.8199999999999</ele>
        <time>2026-01-04T03:47:41Z</time>
      </trkpt>
      <trkpt lat="38.130317386239767" lon="140.48281115479767">
        <ele>1235.4300000000001</ele>
        <time>2026-01-04T03:47:42Z</time>
      </trkpt>
      <trkpt lat="38.130317972972989" lon="140.48281115479767">
        <ele>1235.4300000000001</ele>
        <time>2026-01-04T03:47:43Z</time>
      </trkpt>
      <trkpt lat="38.130317972972989" lon="140.48281241208315">
        <ele>1232.0699999999999</ele>
        <time>2026-01-04T03:47:44Z</time>
      </trkpt>
      <trkpt lat="38.130316715687513" lon="140.48281601630151">
        <ele>1233.99</ele>
        <time>2026-01-04T03:47:45Z</time>
      </trkpt>
      <trkpt lat="38.130253264680505" lon="140.48286412842572">
        <ele>1233.03</ele>
        <time>2026-01-04T03:47:55Z</time>
      </trkpt>
      <trkpt lat="38.13021001406014" lon="140.48286060802639">
        <ele>1233.03</ele>
        <time>2026-01-04T03:47:59Z</time>
      </trkpt>
      <trkpt lat="38.130018068477511" lon="140.48275474458933">
        <ele>1232.0699999999999</ele>
        <time>2026-01-04T03:48:15Z</time>
      </trkpt>
      <trkpt lat="38.130269777029753" lon="140.48266958445311">
        <ele>1232.55</ele>
        <time>2026-01-04T03:57:10Z</time>
      </trkpt>
      <trkpt lat="38.130071964114904" lon="140.48262784257531">
        <ele>1233.51</ele>
        <time>2026-01-04T03:57:26Z</time>
      </trkpt>
      <trkpt lat="38.130133571103215" lon="140.4826558381319">
        <ele>1232.0699999999999</ele>
        <time>2026-01-04T03:57:30Z</time>
      </trkpt>
      <trkpt lat="38.130343034863472" lon="140.48278240486979">
        <ele>1232.55</ele>
        <time>2026-01-04T03:57:51Z</time>
      </trkpt>
      <trkpt lat="38.130320655182004" lon="140.48277553170919">
        <ele>1230.1400000000001</ele>
        <time>2026-01-04T03:58:02Z</time>
      </trkpt>
      <trkpt lat="38.130320655182004" lon="140.48278609290719">
        <ele>1236.3900000000001</ele>
        <time>2026-01-04T03:58:04Z</time>
      </trkpt>
      <trkpt lat="38.130323337391019" lon="140.48279036767781">
        <ele>1233.99</ele>
        <time>2026-01-04T03:58:05Z</time>
      </trkpt>
      <trkpt lat="38.130327025428414" lon="140.48280109651387">
        <ele>1228.7</ele>
        <time>2026-01-04T03:58:07Z</time>
      </trkpt>
      <trkpt lat="38.130328617990017" lon="140.48280696384609">
        <ele>1233.51</ele>
        <time>2026-01-04T03:58:08Z</time>
      </trkpt>
      <trkpt lat="38.130346806719899" lon="140.4828289244324">
        <ele>1234.47</ele>
        <time>2026-01-04T03:58:13Z</time>
      </trkpt>
      <trkpt lat="38.130367929115891" lon="140.48283537849784">
        <ele>1232.55</ele>
        <time>2026-01-04T03:58:16Z</time>
      </trkpt>
      <trkpt lat="38.130391985177994" lon="140.4828669782728">
        <ele>1235.4300000000001</ele>
        <time>2026-01-04T03:58:22Z</time>
      </trkpt>
      <trkpt lat="38.130386956036091" lon="140.48289581201971">
        <ele>1232.0699999999999</ele>
        <time>2026-01-04T03:58:30Z</time>
      </trkpt>
      <trkpt lat="38.130386704578996" lon="140.48289472237229">
        <ele>1228.7</ele>
        <time>2026-01-04T03:58:31Z</time>
      </trkpt>
      <trkpt lat="38.130386536940932" lon="140.4828910343349">
        <ele>1233.03</ele>
        <time>2026-01-04T03:58:32Z</time>
      </trkpt>
      <trkpt lat="38.130374802276492" lon="140.48285323195159">
        <ele>1233.51</ele>
        <time>2026-01-04T03:58:37Z</time>
      </trkpt>
      <trkpt lat="38.130320990458131" lon="140.48287988640368">
        <ele>1233.03</ele>
        <time>2026-01-04T03:58:41Z</time>
      </trkpt>
      <trkpt lat="38.130257036536932" lon="140.48280570656061">
        <ele>1237.3499999999999</ele>
        <time>2026-01-04T03:58:53Z</time>
      </trkpt>
      <trkpt lat="38.130258293822408" lon="140.4827974922955">
        <ele>1234.47</ele>
        <time>2026-01-04T03:58:54Z</time>
      </trkpt>
      <trkpt lat="38.130260976031423" lon="140.48278642818332">
        <ele>1233.51</ele>
        <time>2026-01-04T03:58:56Z</time>
      </trkpt>
      <trkpt lat="38.130257455632091" lon="140.4827647190541">
        <ele>1231.5899999999999</ele>
        <time>2026-01-04T03:59:01Z</time>
      </trkpt>
      <trkpt lat="38.130189646035433" lon="140.48273689113557">
        <ele>1233.03</ele>
        <time>2026-01-04T03:59:11Z</time>
      </trkpt>
      <trkpt lat="38.130252677947283" lon="140.48271384090185">
        <ele>1233.03</ele>
        <time>2026-01-04T03:59:27Z</time>
      </trkpt>
      <trkpt lat="38.130257874727249" lon="140.48269380815327">
        <ele>1231.1099999999999</ele>
        <time>2026-01-04T03:59:33Z</time>
      </trkpt>
      <trkpt lat="38.130253935232759" lon="140.482690455392">
        <ele>1235.4300000000001</ele>
        <time>2026-01-04T03:59:34Z</time>
      </trkpt>
      <trkpt lat="38.130330294370651" lon="140.48277813009918">
        <ele>1233.03</ele>
        <time>2026-01-04T03:59:40Z</time>
      </trkpt>
      <trkpt lat="38.130321325734258" lon="140.48276086337864">
        <ele>1231.1099999999999</ele>
        <time>2026-01-04T03:59:43Z</time>
      </trkpt>
      <trkpt lat="38.130319565534592" lon="140.48275533132255">
        <ele>1235.9100000000001</ele>
        <time>2026-01-04T03:59:44Z</time>
      </trkpt>
      <trkpt lat="38.130327025428414" lon="140.48275725916028">
        <ele>1234.47</ele>
        <time>2026-01-04T03:59:45Z</time>
      </trkpt>
      <trkpt lat="38.130332054570317" lon="140.4827544093132">
        <ele>1229.6600000000001</ele>
        <time>2026-01-04T03:59:46Z</time>
      </trkpt>
      <trkpt lat="38.130330964922905" lon="140.48275130800903">
        <ele>1232.0699999999999</ele>
        <time>2026-01-04T03:59:47Z</time>
      </trkpt>
      <trkpt lat="38.130326690152287" lon="140.48271518200636">
        <ele>1237.8299999999999</ele>
        <time>2026-01-04T03:59:53Z</time>
      </trkpt>
      <trkpt lat="38.130327193066478" lon="140.4827097337693">
        <ele>1234.95</ele>
        <time>2026-01-04T03:59:54Z</time>
      </trkpt>
      <trkpt lat="38.130345130339265" lon="140.48266874626279">
        <ele>1230.6199999999999</ele>
        <time>2026-01-04T04:00:03Z</time>
      </trkpt>
      <trkpt lat="38.130377903580666" lon="140.48265667632222">
        <ele>1233.99</ele>
        <time>2026-01-04T04:00:13Z</time>
      </trkpt>
      <trkpt lat="38.130379496142268" lon="140.48264879733324">
        <ele>1232.55</ele>
        <time>2026-01-04T04:00:16Z</time>
      </trkpt>
      <trkpt lat="38.13039617612958" lon="140.48264192417264">
        <ele>1229.6600000000001</ele>
        <time>2026-01-04T04:00:23Z</time>
      </trkpt>
      <trkpt lat="38.130398439243436" lon="140.48263924196362">
        <ele>1233.03</ele>
        <time>2026-01-04T04:00:24Z</time>
      </trkpt>
      <trkpt lat="38.130402127280831" lon="140.48264770768583">
        <ele>1233.03</ele>
        <time>2026-01-04T04:00:25Z</time>
      </trkpt>
      <trkpt lat="38.130408078432083" lon="140.48262029886246">
        <ele>1233.03</ele>
        <time>2026-01-04T04:00:31Z</time>
      </trkpt>
      <trkpt lat="38.13040598295629" lon="140.48253974877298">
        <ele>1232.0699999999999</ele>
        <time>2026-01-04T04:00:45Z</time>
      </trkpt>
      <trkpt lat="38.130390141159296" lon="140.482555674389">
        <ele>1234.47</ele>
        <time>2026-01-04T04:00:54Z</time>
      </trkpt>
      <trkpt lat="38.130384357646108" lon="140.48255374655128">
        <ele>1235.9100000000001</ele>
        <time>2026-01-04T04:00:56Z</time>
      </trkpt>
      <trkpt lat="38.130381172522902" lon="140.48255357891321">
        <ele>1233.51</ele>
        <time>2026-01-04T04:00:57Z</time>
      </trkpt>
      <trkpt lat="38.130374467000365" lon="140.48254326917231">
        <ele>1233.03</ele>
        <time>2026-01-04T04:01:19Z</time>
      </trkpt>
      <trkpt lat="38.130395757034421" lon="140.48263262026012">
        <ele>1232.55</ele>
        <time>2026-01-04T04:01:29Z</time>
      </trkpt>
      <trkpt lat="38.130449233576655" lon="140.48275759443641">
        <ele>1232.55</ele>
        <time>2026-01-04T04:01:58Z</time>
      </trkpt>
      <trkpt lat="38.130452753975987" lon="140.48273127526045">
        <ele>1233.03</ele>
        <time>2026-01-04T04:02:16Z</time>
      </trkpt>
      <trkpt lat="38.130450071766973" lon="140.48271912150085">
        <ele>1232.0699999999999</ele>
        <time>2026-01-04T04:02:21Z</time>
      </trkpt>
      <trkpt lat="38.130453089252114" lon="140.48271928913891">
        <ele>1233.51</ele>
        <time>2026-01-04T04:02:26Z</time>
      </trkpt>
      <trkpt lat="38.130441941320896" lon="140.48270428553224">
        <ele>1234.47</ele>
        <time>2026-01-04T04:02:35Z</time>
      </trkpt>
      <trkpt lat="38.130432721227407" lon="140.48269724473357">
        <ele>1233.03</ele>
        <time>2026-01-04T04:02:36Z</time>
      </trkpt>
      <trkpt lat="38.13040497712791" lon="140.48267846927047">
        <ele>1230.1400000000001</ele>
        <time>2026-01-04T04:02:45Z</time>
      </trkpt>
      <trkpt lat="38.130404893308878" lon="140.48267796635628">
        <ele>1235.4300000000001</ele>
        <time>2026-01-04T04:02:46Z</time>
      </trkpt>
      <trkpt lat="38.130371533334255" lon="140.48272339627147">
        <ele>1232.55</ele>
        <time>2026-01-04T04:02:56Z</time>
      </trkpt>
      <trkpt lat="38.130358709022403" lon="140.48271794803441">
        <ele>1235.4300000000001</ele>
        <time>2026-01-04T04:02:59Z</time>
      </trkpt>
      <trkpt lat="38.130355691537261" lon="140.48271568492055">
        <ele>1233.51</ele>
        <time>2026-01-04T04:03:00Z</time>
      </trkpt>
      <trkpt lat="38.130334988236427" lon="140.48273328691721">
        <ele>1234.95</ele>
        <time>2026-01-04T04:03:25Z</time>
      </trkpt>
      <trkpt lat="38.130330545827746" lon="140.48273286782205">
        <ele>1234.95</ele>
        <time>2026-01-04T04:03:26Z</time>
      </trkpt>
      <trkpt lat="38.130323421210051" lon="140.48273169435561">
        <ele>1233.51</ele>
        <time>2026-01-04T04:03:28Z</time>
      </trkpt>
      <trkpt lat="38.130323421210051" lon="140.48275239765644">
        <ele>1234.95</ele>
        <time>2026-01-04T04:03:49Z</time>
      </trkpt>
      <trkpt lat="38.130312943831086" lon="140.48276027664542">
        <ele>1233.03</ele>
        <time>2026-01-04T04:03:52Z</time>
      </trkpt>
      <trkpt lat="38.130288971588016" lon="140.48283504322171">
        <ele>1233.99</ele>
        <time>2026-01-04T04:04:12Z</time>
      </trkpt>
      <trkpt lat="38.130259048193693" lon="140.48286085948348">
        <ele>1233.03</ele>
        <time>2026-01-04T04:04:17Z</time>
      </trkpt>
      <trkpt lat="38.130238428711891" lon="140.48287594690919">
        <ele>1235.9100000000001</ele>
        <time>2026-01-04T04:04:20Z</time>
      </trkpt>
      <trkpt lat="38.130231304094195" lon="140.48288256861269">
        <ele>1232.0699999999999</ele>
        <time>2026-01-04T04:04:22Z</time>
      </trkpt>
      <trkpt lat="38.13022174872458" lon="140.48288977704942">
        <ele>1234.47</ele>
        <time>2026-01-04T04:04:25Z</time>
      </trkpt>
      <trkpt lat="38.130226274952292" lon="140.48306034877896">
        <ele>1234.47</ele>
        <time>2026-01-04T04:04:42Z</time>
      </trkpt>
      <trkpt lat="38.130226694047451" lon="140.48309345729649">
        <ele>1231.5899999999999</ele>
        <time>2026-01-04T04:04:45Z</time>
      </trkpt>
      <trkpt lat="38.130294755101204" lon="140.48333711922169">
        <ele>1235.4300000000001</ele>
        <time>2026-01-04T04:05:10Z</time>
      </trkpt>
      <trkpt lat="38.130297521129251" lon="140.48333787359297">
        <ele>1232.0699999999999</ele>
        <time>2026-01-04T04:05:11Z</time>
      </trkpt>
      <trkpt lat="38.130312105640769" lon="140.48333183862269">
        <ele>1231.5899999999999</ele>
        <time>2026-01-04T04:05:18Z</time>
      </trkpt>
      <trkpt lat="38.130312943831086" lon="140.4833297431469">
        <ele>1233.51</ele>
        <time>2026-01-04T04:05:20Z</time>
      </trkpt>
      <trkpt lat="38.13030238263309" lon="140.48331096768379">
        <ele>1232.55</ele>
        <time>2026-01-04T04:05:27Z</time>
      </trkpt>
      <trkpt lat="38.13028478063643" lon="140.4832779429853">
        <ele>1233.99</ele>
        <time>2026-01-04T04:05:34Z</time>
      </trkpt>
      <trkpt lat="38.130295844748616" lon="140.48325573094189">
        <ele>1234.47</ele>
        <time>2026-01-04T04:05:42Z</time>
      </trkpt>
      <trkpt lat="38.130308166146278" lon="140.48323167487979">
        <ele>1233.03</ele>
        <time>2026-01-04T04:05:45Z</time>
      </trkpt>
      <trkpt lat="38.130335994064808" lon="140.48301726579666">
        <ele>1232.55</ele>
        <time>2026-01-04T04:05:54Z</time>
      </trkpt>
      <trkpt lat="38.130281763151288" lon="140.48274761997163">
        <ele>1236.3900000000001</ele>
        <time>2026-01-04T04:06:20Z</time>
      </trkpt>
      <trkpt lat="38.130292911082506" lon="140.48273999243975">
        <ele>1232.0699999999999</ele>
        <time>2026-01-04T04:06:25Z</time>
      </trkpt>
      <trkpt lat="38.130328617990017" lon="140.4827234800905">
        <ele>1235.4300000000001</ele>
        <time>2026-01-04T04:06:40Z</time>
      </trkpt>
      <trkpt lat="38.130330462008715" lon="140.48272632993758">
        <ele>1235.4300000000001</ele>
        <time>2026-01-04T04:06:41Z</time>
      </trkpt>
      <trkpt lat="38.13033658079803" lon="140.48273420892656">
        <ele>1233.99</ele>
        <time>2026-01-04T04:06:43Z</time>
      </trkpt>
      <trkpt lat="38.130348650738597" lon="140.48280604183674">
        <ele>1233.51</ele>
        <time>2026-01-04T04:07:08Z</time>
      </trkpt>
      <trkpt lat="38.130336832255125" lon="140.48276270739734">
        <ele>1234.47</ele>
        <time>2026-01-04T04:07:20Z</time>
      </trkpt>
      <trkpt lat="38.130322666838765" lon="140.4827633779496">
        <ele>1234.95</ele>
        <time>2026-01-04T04:07:35Z</time>
      </trkpt>
      <trkpt lat="38.130333730950952" lon="140.48278978094459">
        <ele>1234.47</ele>
        <time>2026-01-04T04:08:03Z</time>
      </trkpt>
      <trkpt lat="38.130308669060469" lon="140.48273001797497">
        <ele>1234.47</ele>
        <time>2026-01-04T04:08:19Z</time>
      </trkpt>
      <trkpt lat="38.130321241915226" lon="140.48274518921971">
        <ele>1234.47</ele>
        <time>2026-01-04T04:08:37Z</time>
      </trkpt>
      <trkpt lat="38.130341107025743" lon="140.48280704766512">
        <ele>1233.51</ele>
        <time>2026-01-04T04:08:46Z</time>
      </trkpt>
      <trkpt lat="38.130341107025743" lon="140.4828545730561">
        <ele>1232.55</ele>
        <time>2026-01-04T04:08:56Z</time>
      </trkpt>
      <trkpt lat="38.130308920517564" lon="140.48283001407981">
        <ele>1233.99</ele>
        <time>2026-01-04T04:09:04Z</time>
      </trkpt>
      <trkpt lat="38.130292659625411" lon="140.48268559388816">
        <ele>1235.4300000000001</ele>
        <time>2026-01-04T04:09:29Z</time>
      </trkpt>
      <trkpt lat="38.13032191246748" lon="140.48272616229951">
        <ele>1233.03</ele>
        <time>2026-01-04T04:09:36Z</time>
      </trkpt>
      <trkpt lat="38.130370359867811" lon="140.48288818448782">
        <ele>1235.9100000000001</ele>
        <time>2026-01-04T04:09:45Z</time>
      </trkpt>
      <trkpt lat="38.130374802276492" lon="140.4829066246748">
        <ele>1234.47</ele>
        <time>2026-01-04T04:09:46Z</time>
      </trkpt>
      <trkpt lat="38.130384273827076" lon="140.48295683227479">
        <ele>1230.6199999999999</ele>
        <time>2026-01-04T04:09:49Z</time>
      </trkpt>
      <trkpt lat="38.130385363474488" lon="140.48296814784408">
        <ele>1230.6199999999999</ele>
        <time>2026-01-04T04:09:50Z</time>
      </trkpt>
      <trkpt lat="38.130386034026742" lon="140.48298491165042">
        <ele>1233.99</ele>
        <time>2026-01-04T04:09:51Z</time>
      </trkpt>
      <trkpt lat="38.130385363474488" lon="140.48302363604307">
        <ele>1232.0699999999999</ele>
        <time>2026-01-04T04:09:54Z</time>
      </trkpt>
      <trkpt lat="38.130382932722569" lon="140.48302967101336">
        <ele>1233.99</ele>
        <time>2026-01-04T04:09:55Z</time>
      </trkpt>
      <trkpt lat="38.130379160866141" lon="140.48303528688848">
        <ele>1232.55</ele>
        <time>2026-01-04T04:09:57Z</time>
      </trkpt>
      <trkpt lat="38.130304897204041" lon="140.48257025890052">
        <ele>1235.9100000000001</ele>
        <time>2026-01-04T04:10:00Z</time>
      </trkpt>
      <trkpt lat="38.130298778414726" lon="140.48255533911288">
        <ele>1233.03</ele>
        <time>2026-01-04T04:10:02Z</time>
      </trkpt>
      <trkpt lat="38.13029458746314" lon="140.48253807239234">
        <ele>1234.95</ele>
        <time>2026-01-04T04:10:05Z</time>
      </trkpt>
      <trkpt lat="38.130291989073157" lon="140.48249674960971">
        <ele>1230.1400000000001</ele>
        <time>2026-01-04T04:10:22Z</time>
      </trkpt>
      <trkpt lat="38.130291067063808" lon="140.4825025331229">
        <ele>1235.9100000000001</ele>
        <time>2026-01-04T04:10:23Z</time>
      </trkpt>
      <trkpt lat="38.130282517522573" lon="140.4825612064451">
        <ele>1233.51</ele>
        <time>2026-01-04T04:10:26Z</time>
      </trkpt>
      <trkpt lat="38.130263993516564" lon="140.48259993083775">
        <ele>1235.9100000000001</ele>
        <time>2026-01-04T04:10:32Z</time>
      </trkpt>
      <trkpt lat="38.13023985363543" lon="140.48260881565511">
        <ele>1231.1099999999999</ele>
        <time>2026-01-04T04:10:36Z</time>
      </trkpt>
      <trkpt lat="38.130249325186014" lon="140.48262809403241">
        <ele>1233.99</ele>
        <time>2026-01-04T04:10:37Z</time>
      </trkpt>
      <trkpt lat="38.130319062620401" lon="140.48266086727381">
        <ele>1235.4300000000001</ele>
        <time>2026-01-04T04:10:58Z</time>
      </trkpt>
      <trkpt lat="38.130325768142939" lon="140.48265969380736">
        <ele>1230.1400000000001</ele>
        <time>2026-01-04T04:11:01Z</time>
      </trkpt>
      <trkpt lat="38.130329875275493" lon="140.48265541903675">
        <ele>1232.55</ele>
        <time>2026-01-04T04:11:02Z</time>
      </trkpt>
      <trkpt lat="38.130335826426744" lon="140.48264653421938">
        <ele>1236.3900000000001</ele>
        <time>2026-01-04T04:11:03Z</time>
      </trkpt>
      <trkpt lat="38.130340604111552" lon="140.48263739794493">
        <ele>1233.51</ele>
        <time>2026-01-04T04:11:04Z</time>
      </trkpt>
      <trkpt lat="38.130342029035091" lon="140.48257771879435">
        <ele>1236.8699999999999</ele>
        <time>2026-01-04T04:11:10Z</time>
      </trkpt>
      <trkpt lat="38.130335491150618" lon="140.48258040100336">
        <ele>1235.4300000000001</ele>
        <time>2026-01-04T04:11:11Z</time>
      </trkpt>
      <trkpt lat="38.130319230258465" lon="140.48256522975862">
        <ele>1231.5899999999999</ele>
        <time>2026-01-04T04:11:14Z</time>
      </trkpt>
      <trkpt lat="38.130313362926245" lon="140.48255919478834">
        <ele>1237.3499999999999</ele>
        <time>2026-01-04T04:11:15Z</time>
      </trkpt>
      <trkpt lat="38.130308333784342" lon="140.48255483619869">
        <ele>1235.9100000000001</ele>
        <time>2026-01-04T04:11:16Z</time>
      </trkpt>
      <trkpt lat="38.130302969366312" lon="140.48255098052323">
        <ele>1232.0699999999999</ele>
        <time>2026-01-04T04:11:17Z</time>
      </trkpt>
      <trkpt lat="38.130298359319568" lon="140.48254653811455">
        <ele>1234.95</ele>
        <time>2026-01-04T04:11:18Z</time>
      </trkpt>
      <trkpt lat="38.130190903320909" lon="140.48254838213325">
        <ele>1234.95</ele>
        <time>2026-01-04T04:11:41Z</time>
      </trkpt>
      <trkpt lat="38.130220072343946" lon="140.48259356059134">
        <ele>1232.0699999999999</ele>
        <time>2026-01-04T04:11:51Z</time>
      </trkpt>
      <trkpt lat="38.130228454247117" lon="140.48260646872222">
        <ele>1235.4300000000001</ele>
        <time>2026-01-04T04:11:53Z</time>
      </trkpt>
      <trkpt lat="38.130229962989688" lon="140.48264309763908">
        <ele>1231.1099999999999</ele>
        <time>2026-01-04T04:11:56Z</time>
      </trkpt>
      <trkpt lat="38.130232142284513" lon="140.48265407793224">
        <ele>1235.9100000000001</ele>
        <time>2026-01-04T04:11:57Z</time>
      </trkpt>
      <trkpt lat="38.130228957161307" lon="140.48266539350152">
        <ele>1232.0699999999999</ele>
        <time>2026-01-04T04:11:59Z</time>
      </trkpt>
      <trkpt lat="38.130226191133261" lon="140.48266958445311">
        <ele>1232.0699999999999</ele>
        <time>2026-01-04T04:12:00Z</time>
      </trkpt>
      <trkpt lat="38.130220323801041" lon="140.48267075791955">
        <ele>1236.3900000000001</ele>
        <time>2026-01-04T04:12:01Z</time>
      </trkpt>
      <trkpt lat="38.130216719582677" lon="140.4826714284718">
        <ele>1234.47</ele>
        <time>2026-01-04T04:12:02Z</time>
      </trkpt>
      <trkpt lat="38.130197608843446" lon="140.48262692056596">
        <ele>1234.47</ele>
        <time>2026-01-04T04:12:09Z</time>
      </trkpt>
      <trkpt lat="38.130037430673838" lon="140.48241971991956">
        <ele>1234.95</ele>
        <time>2026-01-04T04:12:35Z</time>
      </trkpt>
      <trkpt lat="38.130038604140282" lon="140.4824332986027">
        <ele>1233.03</ele>
        <time>2026-01-04T04:12:38Z</time>
      </trkpt>
      <trkpt lat="38.130058804526925" lon="140.48247277736664">
        <ele>1236.3900000000001</ele>
        <time>2026-01-04T04:12:42Z</time>
      </trkpt>
      <trkpt lat="38.130069114267826" lon="140.48249440267682">
        <ele>1233.03</ele>
        <time>2026-01-04T04:12:43Z</time>
      </trkpt>
      <trkpt lat="38.130087135359645" lon="140.4825197160244">
        <ele>1234.95</ele>
        <time>2026-01-04T04:12:47Z</time>
      </trkpt>
      <trkpt lat="38.130088476464152" lon="140.4825197160244">
        <ele>1227.26</ele>
        <time>2026-01-04T04:12:48Z</time>
      </trkpt>
      <trkpt lat="38.130089314654469" lon="140.48251954838634">
        <ele>1227.26</ele>
        <time>2026-01-04T04:12:49Z</time>
      </trkpt>
      <trkpt lat="38.130091410130262" lon="140.48252013511956">
        <ele>1240.24</ele>
        <time>2026-01-04T04:12:50Z</time>
      </trkpt>
      <trkpt lat="38.13009375706315" lon="140.48252399079502">
        <ele>1240.24</ele>
        <time>2026-01-04T04:12:51Z</time>
      </trkpt>
      <trkpt lat="38.13010205514729" lon="140.48253773711622">
        <ele>1235.9100000000001</ele>
        <time>2026-01-04T04:12:52Z</time>
      </trkpt>
      <trkpt lat="38.130123177543283" lon="140.48255793750286">
        <ele>1233.03</ele>
        <time>2026-01-04T04:12:54Z</time>
      </trkpt>
      <trkpt lat="38.130130721256137" lon="140.48256087116897">
        <ele>1234.47</ele>
        <time>2026-01-04T04:12:56Z</time>
      </trkpt>
      <trkpt lat="38.130147401243448" lon="140.48258190974593">
        <ele>1235.9100000000001</ele>
        <time>2026-01-04T04:13:02Z</time>
      </trkpt>
      <trkpt lat="38.130153603851795" lon="140.48258760944009">
        <ele>1233.99</ele>
        <time>2026-01-04T04:13:04Z</time>
      </trkpt>
      <trkpt lat="38.130234824493527" lon="140.48270663246512">
        <ele>1236.3900000000001</ele>
        <time>2026-01-04T04:13:25Z</time>
      </trkpt>
      <trkpt lat="38.130235411226749" lon="140.48271325416863">
        <ele>1239.76</ele>
        <time>2026-01-04T04:13:27Z</time>
      </trkpt>
      <trkpt lat="38.130234824493527" lon="140.48271333798766">
        <ele>1235.9100000000001</ele>
        <time>2026-01-04T04:13:28Z</time>
      </trkpt>
      <trkpt lat="38.130284193903208" lon="140.4826732724905">
        <ele>1234.47</ele>
        <time>2026-01-04T04:13:45Z</time>
      </trkpt>
      <trkpt lat="38.13027111813426" lon="140.4825577698648">
        <ele>1232.0699999999999</ele>
        <time>2026-01-04T04:13:59Z</time>
      </trkpt>
      <trkpt lat="38.130266675725579" lon="140.48253740184009">
        <ele>1230.6199999999999</ele>
        <time>2026-01-04T04:14:01Z</time>
      </trkpt>
      <trkpt lat="38.130262149497867" lon="140.48252005130053">
        <ele>1241.2</ele>
        <time>2026-01-04T04:14:03Z</time>
      </trkpt>
      <trkpt lat="38.130259551107883" lon="140.48251451924443">
        <ele>1238.8</ele>
        <time>2026-01-04T04:14:04Z</time>
      </trkpt>
      <trkpt lat="38.130256868898869" lon="140.48250982537866">
        <ele>1231.5899999999999</ele>
        <time>2026-01-04T04:14:05Z</time>
      </trkpt>
      <trkpt lat="38.130252258852124" lon="140.48250102438033">
        <ele>1236.8699999999999</ele>
        <time>2026-01-04T04:14:07Z</time>
      </trkpt>
      <trkpt lat="38.130249911919236" lon="140.48249624669552">
        <ele>1234.47</ele>
        <time>2026-01-04T04:14:08Z</time>
      </trkpt>
      <trkpt lat="38.130246894434094" lon="140.48249163664877">
        <ele>1239.76</ele>
        <time>2026-01-04T04:14:09Z</time>
      </trkpt>
      <trkpt lat="38.130236249417067" lon="140.48250429332256">
        <ele>1234.95</ele>
        <time>2026-01-04T04:14:11Z</time>
      </trkpt>
      <trkpt lat="38.13023591414094" lon="140.4825038742274">
        <ele>1234.95</ele>
        <time>2026-01-04T04:14:12Z</time>
      </trkpt>
      <trkpt lat="38.130255024880171" lon="140.48260646872222">
        <ele>1234.95</ele>
        <time>2026-01-04T04:14:24Z</time>
      </trkpt>
      <trkpt lat="38.130255108699203" lon="140.48263119533658">
        <ele>1233.99</ele>
        <time>2026-01-04T04:14:35Z</time>
      </trkpt>
      <trkpt lat="38.130260054022074" lon="140.48267084173858">
        <ele>1235.9100000000001</ele>
        <time>2026-01-04T04:15:00Z</time>
      </trkpt>
      <trkpt lat="38.130259132012725" lon="140.48266933299601">
        <ele>1234.47</ele>
        <time>2026-01-04T04:15:02Z</time>
      </trkpt>
      <trkpt lat="38.13024815171957" lon="140.48267293721437">
        <ele>1234.95</ele>
        <time>2026-01-04T04:15:13Z</time>
      </trkpt>
      <trkpt lat="38.130238093435764" lon="140.48266363330185">
        <ele>1233.51</ele>
        <time>2026-01-04T04:15:24Z</time>
      </trkpt>
      <trkpt lat="38.130158549174666" lon="140.48274971544743">
        <ele>1233.51</ele>
        <time>2026-01-04T04:15:42Z</time>
      </trkpt>
      <trkpt lat="38.130145389586687" lon="140.48279296606779">
        <ele>1235.4300000000001</ele>
        <time>2026-01-04T04:15:52Z</time>
      </trkpt>
      <trkpt lat="38.130230382084846" lon="140.48291064798832">
        <ele>1233.99</ele>
        <time>2026-01-04T04:16:12Z</time>
      </trkpt>
      <trkpt lat="38.130239266902208" lon="140.48293747007847">
        <ele>1224.8599999999999</ele>
        <time>2026-01-04T04:16:18Z</time>
      </trkpt>
      <trkpt lat="38.130242368206382" lon="140.48294149339199">
        <ele>1205.1500000000001</ele>
        <time>2026-01-04T04:16:19Z</time>
      </trkpt>
      <trkpt lat="38.130244798958302" lon="140.4829460196197">
        <ele>1225.8199999999999</ele>
        <time>2026-01-04T04:16:20Z</time>
      </trkpt>
      <trkpt lat="38.130247397348285" lon="140.48294928856194">
        <ele>1234.95</ele>
        <time>2026-01-04T04:16:21Z</time>
      </trkpt>
      <trkpt lat="38.130250498652458" lon="140.48295825719833">
        <ele>1239.76</ele>
        <time>2026-01-04T04:16:23Z</time>
      </trkpt>
      <trkpt lat="38.130251504480839" lon="140.48296018503606">
        <ele>1236.3900000000001</ele>
        <time>2026-01-04T04:16:24Z</time>
      </trkpt>
      <trkpt lat="38.13025301322341" lon="140.48296035267413">
        <ele>1235.4300000000001</ele>
        <time>2026-01-04T04:16:26Z</time>
      </trkpt>
      <trkpt lat="38.130253851413727" lon="140.48295230604708">
        <ele>1233.03</ele>
        <time>2026-01-04T04:16:30Z</time>
      </trkpt>
      <trkpt lat="38.130261143669486" lon="140.48293093219399">
        <ele>1248.8900000000001</ele>
        <time>2026-01-04T04:16:36Z</time>
      </trkpt>
      <trkpt lat="38.130257371813059" lon="140.48292489722371">
        <ele>1240.24</ele>
        <time>2026-01-04T04:16:37Z</time>
      </trkpt>
      <trkpt lat="38.130258545279503" lon="140.48291869461536">
        <ele>1233.99</ele>
        <time>2026-01-04T04:16:38Z</time>
      </trkpt>
      <trkpt lat="38.130261227488518" lon="140.48291299492121">
        <ele>1233.99</ele>
        <time>2026-01-04T04:16:39Z</time>
      </trkpt>
      <trkpt lat="38.130266005173326" lon="140.48287259414792">
        <ele>1233.99</ele>
        <time>2026-01-04T04:16:58Z</time>
      </trkpt>
      <trkpt lat="38.13026818446815" lon="140.48287276178598">
        <ele>1235.4300000000001</ele>
        <time>2026-01-04T04:17:01Z</time>
      </trkpt>
      <trkpt lat="38.13026768155396" lon="140.48287904821336">
        <ele>1233.03</ele>
        <time>2026-01-04T04:17:26Z</time>
      </trkpt>
      <trkpt lat="38.130259215831757" lon="140.48288508318365">
        <ele>1233.99</ele>
        <time>2026-01-04T04:17:38Z</time>
      </trkpt>
      <trkpt lat="38.130260892212391" lon="140.48288608901203">
        <ele>1235.9100000000001</ele>
        <time>2026-01-04T04:17:42Z</time>
      </trkpt>
      <trkpt lat="38.130256868898869" lon="140.4828873462975">
        <ele>1234.47</ele>
        <time>2026-01-04T04:17:44Z</time>
      </trkpt>
      <trkpt lat="38.130256785079837" lon="140.48290360718966">
        <ele>1234.47</ele>
        <time>2026-01-04T04:18:02Z</time>
      </trkpt>
      <trkpt lat="38.130262903869152" lon="140.48290654085577">
        <ele>1235.9100000000001</ele>
        <time>2026-01-04T04:18:06Z</time>
      </trkpt>
      <trkpt lat="38.130296263843775" lon="140.48297250643373">
        <ele>1234.47</ele>
        <time>2026-01-04T04:18:22Z</time>
      </trkpt>
      <trkpt lat="38.130308920517564" lon="140.48298516310751">
        <ele>1236.3900000000001</ele>
        <time>2026-01-04T04:18:24Z</time>
      </trkpt>
      <trkpt lat="38.130323337391019" lon="140.48299765214324">
        <ele>1234.47</ele>
        <time>2026-01-04T04:18:26Z</time>
      </trkpt>
      <trkpt lat="38.130347477272153" lon="140.48301374539733">
        <ele>1235.9100000000001</ele>
        <time>2026-01-04T04:18:29Z</time>
      </trkpt>
      <trkpt lat="38.130372958257794" lon="140.4830379690975">
        <ele>1233.99</ele>
        <time>2026-01-04T04:18:32Z</time>
      </trkpt>
      <trkpt lat="38.130598934367299" lon="140.48331985250115">
        <ele>1230.1400000000001</ele>
        <time>2026-01-04T04:18:48Z</time>
      </trkpt>
      <trkpt lat="38.130623744800687" lon="140.48335312865674">
        <ele>1230.1400000000001</ele>
        <time>2026-01-04T04:18:49Z</time>
      </trkpt>
      <trkpt lat="38.130756011232734" lon="140.48354918137193">
        <ele>1228.22</ele>
        <time>2026-01-04T04:18:54Z</time>
      </trkpt>
      <trkpt lat="38.130813175812364" lon="140.48364456743002">
        <ele>1228.22</ele>
        <time>2026-01-04T04:18:56Z</time>
      </trkpt>
      <trkpt lat="38.130838824436069" lon="140.48369863070548">
        <ele>1227.74</ele>
        <time>2026-01-04T04:18:57Z</time>
      </trkpt>
      <trkpt lat="38.130864724516869" lon="140.48375914804637">
        <ele>1227.74</ele>
        <time>2026-01-04T04:18:58Z</time>
      </trkpt>
      <trkpt lat="38.130921637639403" lon="140.48395553603768">
        <ele>1224.8599999999999</ele>
        <time>2026-01-04T04:19:01Z</time>
      </trkpt>
      <trkpt lat="38.130991542711854" lon="140.48429173417389">
        <ele>1221.49</ele>
        <time>2026-01-04T04:19:06Z</time>
      </trkpt>
      <trkpt lat="38.131101094186306" lon="140.4845520760864">
        <ele>1221.01</ele>
        <time>2026-01-04T04:19:10Z</time>
      </trkpt>
      <trkpt lat="38.131122551858425" lon="140.48462240025401">
        <ele>1218.6099999999999</ele>
        <time>2026-01-04T04:19:11Z</time>
      </trkpt>
      <trkpt lat="38.131137974560261" lon="140.48469197005033">
        <ele>1218.6099999999999</ele>
        <time>2026-01-04T04:19:12Z</time>
      </trkpt>
      <trkpt lat="38.13115649856627" lon="140.48476388677955">
        <ele>1217.1700000000001</ele>
        <time>2026-01-04T04:19:13Z</time>
      </trkpt>
      <trkpt lat="38.131181141361594" lon="140.48482943326235">
        <ele>1217.1700000000001</ele>
        <time>2026-01-04T04:19:14Z</time>
      </trkpt>
      <trkpt lat="38.131211400032043" lon="140.48489531502128">
        <ele>1216.21</ele>
        <time>2026-01-04T04:19:15Z</time>
      </trkpt>
      <trkpt lat="38.131266385316849" lon="140.48502448014915">
        <ele>1215.72</ele>
        <time>2026-01-04T04:19:17Z</time>
      </trkpt>
      <trkpt lat="38.131312988698483" lon="140.4851723369211">
        <ele>1213.8</ele>
        <time>2026-01-04T04:19:19Z</time>
      </trkpt>
      <trkpt lat="38.131431257352233" lon="140.48547861166298">
        <ele>1209.96</ele>
        <time>2026-01-04T04:19:23Z</time>
      </trkpt>
      <trkpt lat="38.131460594013333" lon="140.48555178567767">
        <ele>1209.96</ele>
        <time>2026-01-04T04:19:24Z</time>
      </trkpt>
      <trkpt lat="38.131571151316166" lon="140.48583157360554">
        <ele>1207.0699999999999</ele>
        <time>2026-01-04T04:19:28Z</time>
      </trkpt>
      <trkpt lat="38.131734430789948" lon="140.48622342757881">
        <ele>1205.1500000000001</ele>
        <time>2026-01-04T04:19:34Z</time>
      </trkpt>
      <trkpt lat="38.131812550127506" lon="140.4864295385778">
        <ele>1203.23</ele>
        <time>2026-01-04T04:19:37Z</time>
      </trkpt>
      <trkpt lat="38.131936769932508" lon="140.48671871423721">
        <ele>1199.8599999999999</ele>
        <time>2026-01-04T04:19:41Z</time>
      </trkpt>
      <trkpt lat="38.132093260064721" lon="140.48709464259446">
        <ele>1196.5</ele>
        <time>2026-01-04T04:19:46Z</time>
      </trkpt>
      <trkpt lat="38.132164170965552" lon="140.48724786378443">
        <ele>1195.0599999999999</ele>
        <time>2026-01-04T04:19:48Z</time>
      </trkpt>
      <trkpt lat="38.132223431020975" lon="140.48741256818175">
        <ele>1194.0899999999999</ele>
        <time>2026-01-04T04:19:50Z</time>
      </trkpt>
      <trkpt lat="38.132307417690754" lon="140.48766469582915">
        <ele>1191.6900000000001</ele>
        <time>2026-01-04T04:19:53Z</time>
      </trkpt>
      <trkpt lat="38.132342034950852" lon="140.48773946240544">
        <ele>1189.77</ele>
        <time>2026-01-04T04:19:54Z</time>
      </trkpt>
      <trkpt lat="38.132380256429315" lon="140.48781582154334">
        <ele>1189.77</ele>
        <time>2026-01-04T04:19:55Z</time>
      </trkpt>
      <trkpt lat="38.13241571187973" lon="140.48789243213832">
        <ele>1189.29</ele>
        <time>2026-01-04T04:19:56Z</time>
      </trkpt>
      <trkpt lat="38.132448233664036" lon="140.48797742463648">
        <ele>1187.3699999999999</ele>
        <time>2026-01-04T04:19:57Z</time>
      </trkpt>
      <trkpt lat="38.1324811745435" lon="140.48806074075401">
        <ele>1186.4000000000001</ele>
        <time>2026-01-04T04:19:58Z</time>
      </trkpt>
      <trkpt lat="38.132522497326136" lon="140.48814883455634">
        <ele>1186.4000000000001</ele>
        <time>2026-01-04T04:19:59Z</time>
      </trkpt>
      <trkpt lat="38.132564071565866" lon="140.48823391087353">
        <ele>1185.9200000000001</ele>
        <time>2026-01-04T04:20:00Z</time>
      </trkpt>
      <trkpt lat="38.13260137103498" lon="140.48832753673196">
        <ele>1183.52</ele>
        <time>2026-01-04T04:20:01Z</time>
      </trkpt>
      <trkpt lat="38.132628696039319" lon="140.48842493444681">
        <ele>1182.0799999999999</ele>
        <time>2026-01-04T04:20:02Z</time>
      </trkpt>
      <trkpt lat="38.132660128176212" lon="140.48852602019906">
        <ele>1181.5999999999999</ele>
        <time>2026-01-04T04:20:03Z</time>
      </trkpt>
      <trkpt lat="38.132700528949499" lon="140.48861394636333">
        <ele>1179.1900000000001</ele>
        <time>2026-01-04T04:20:04Z</time>
      </trkpt>
      <trkpt lat="38.132749646902084" lon="140.48869617283344">
        <ele>1178.23</ele>
        <time>2026-01-04T04:20:05Z</time>
      </trkpt>
      <trkpt lat="38.132799435406923" lon="140.48876892775297">
        <ele>1178.23</ele>
        <time>2026-01-04T04:20:06Z</time>
      </trkpt>
      <trkpt lat="38.133058939129114" lon="140.4891213029623">
        <ele>1174.8699999999999</ele>
        <time>2026-01-04T04:20:11Z</time>
      </trkpt>
      <trkpt lat="38.133155750110745" lon="140.48924870789051">
        <ele>1173.4300000000001</ele>
        <time>2026-01-04T04:20:13Z</time>
      </trkpt>
      <trkpt lat="38.133204197511077" lon="140.48931777477264">
        <ele>1173.4300000000001</ele>
        <time>2026-01-04T04:20:14Z</time>
      </trkpt>
      <trkpt lat="38.133241329342127" lon="140.48938265070319">
        <ele>1171.98</ele>
        <time>2026-01-04T04:20:15Z</time>
      </trkpt>
      <trkpt lat="38.133281813934445" lon="140.48945615999401">
        <ele>1170.0599999999999</ele>
        <time>2026-01-04T04:20:16Z</time>
      </trkpt>
      <trkpt lat="38.133320789784193" lon="140.48951500095427">
        <ele>1170.54</ele>
        <time>2026-01-04T04:20:17Z</time>
      </trkpt>
      <trkpt lat="38.133370997384191" lon="140.48957551829517">
        <ele>1169.5799999999999</ele>
        <time>2026-01-04T04:20:18Z</time>
      </trkpt>
      <trkpt lat="38.133416511118412" lon="140.48963092267513">
        <ele>1168.6199999999999</ele>
        <time>2026-01-04T04:20:19Z</time>
      </trkpt>
      <trkpt lat="38.133452804759145" lon="140.48969026654959">
        <ele>1167.6600000000001</ele>
        <time>2026-01-04T04:20:20Z</time>
      </trkpt>
      <trkpt lat="38.133493959903717" lon="140.48975237645209">
        <ele>1167.6600000000001</ele>
        <time>2026-01-04T04:20:21Z</time>
      </trkpt>
      <trkpt lat="38.133540563285351" lon="140.48980308696628">
        <ele>1167.1800000000001</ele>
        <time>2026-01-04T04:20:22Z</time>
      </trkpt>
      <trkpt lat="38.133584652096033" lon="140.489855222404">
        <ele>1166.22</ele>
        <time>2026-01-04T04:20:23Z</time>
      </trkpt>
      <trkpt lat="38.133623627945781" lon="140.4899070225656">
        <ele>1165.74</ele>
        <time>2026-01-04T04:20:24Z</time>
      </trkpt>
      <trkpt lat="38.133783219382167" lon="140.49011933617294">
        <ele>1162.8499999999999</ele>
        <time>2026-01-04T04:20:28Z</time>
      </trkpt>
      <trkpt lat="38.13386108726263" lon="140.49021413549781">
        <ele>1161.4100000000001</ele>
        <time>2026-01-04T04:20:30Z</time>
      </trkpt>
      <trkpt lat="38.134009279310703" lon="140.49040306359529">
        <ele>1159.49</ele>
        <time>2026-01-04T04:20:34Z</time>
      </trkpt>
      <trkpt lat="38.134116316214204" lon="140.49055553041399">
        <ele>1157.5599999999999</ele>
        <time>2026-01-04T04:20:37Z</time>
      </trkpt>
      <trkpt lat="38.134186221286654" lon="140.49065644852817">
        <ele>1156.1199999999999</ele>
        <time>2026-01-04T04:20:39Z</time>
      </trkpt>
      <trkpt lat="38.134208349511027" lon="140.49072325229645">
        <ele>1155.1600000000001</ele>
        <time>2026-01-04T04:20:40Z</time>
      </trkpt>
      <trkpt lat="38.134217485785484" lon="140.49078536219895">
        <ele>1153.72</ele>
        <time>2026-01-04T04:20:41Z</time>
      </trkpt>
      <trkpt lat="38.134211618453264" lon="140.49085828475654">
        <ele>1152.76</ele>
        <time>2026-01-04T04:20:42Z</time>
      </trkpt>
      <trkpt lat="38.134200219064951" lon="140.4909210652113">
        <ele>1152.28</ele>
        <time>2026-01-04T04:20:43Z</time>
      </trkpt>
      <trkpt lat="38.134183874353766" lon="140.49099029973149">
        <ele>1150.8399999999999</ele>
        <time>2026-01-04T04:20:44Z</time>
      </trkpt>
      <trkpt lat="38.134176665917039" lon="140.49105349928141">
        <ele>1150.8399999999999</ele>
        <time>2026-01-04T04:20:45Z</time>
      </trkpt>
      <trkpt lat="38.13417918048799" lon="140.4911330435425">
        <ele>1150.3499999999999</ele>
        <time>2026-01-04T04:20:46Z</time>
      </trkpt>
      <trkpt lat="38.134192507714033" lon="140.4912006855011">
        <ele>1149.8699999999999</ele>
        <time>2026-01-04T04:20:47Z</time>
      </trkpt>
      <trkpt lat="38.134218659251928" lon="140.49127117730677">
        <ele>1148.4300000000001</ele>
        <time>2026-01-04T04:20:48Z</time>
      </trkpt>
      <trkpt lat="38.134244978427887" lon="140.49132389947772">
        <ele>1146.99</ele>
        <time>2026-01-04T04:20:49Z</time>
      </trkpt>
      <trkpt lat="38.134272051975131" lon="140.49137779511511">
        <ele>1146.99</ele>
        <time>2026-01-04T04:20:50Z</time>
      </trkpt>
      <trkpt lat="38.134301137179136" lon="140.49142934381962">
        <ele>1146.99</ele>
        <time>2026-01-04T04:20:51Z</time>
      </trkpt>
      <trkpt lat="38.134332234039903" lon="140.49146345816553">
        <ele>1145.55</ele>
        <time>2026-01-04T04:20:52Z</time>
      </trkpt>
      <trkpt lat="38.134367102757096" lon="140.49148206599057">
        <ele>1145.0699999999999</ele>
        <time>2026-01-04T04:20:53Z</time>
      </trkpt>
      <trkpt lat="38.134406246244907" lon="140.49149338155985">
        <ele>1143.6300000000001</ele>
        <time>2026-01-04T04:20:54Z</time>
      </trkpt>
      <trkpt lat="38.134445808827877" lon="140.49149530939758">
        <ele>1143.1400000000001</ele>
        <time>2026-01-04T04:20:55Z</time>
      </trkpt>
      <trkpt lat="38.134487634524703" lon="140.49149229191244">
        <ele>1143.1400000000001</ele>
        <time>2026-01-04T04:20:56Z</time>
      </trkpt>
      <trkpt lat="38.134811259806156" lon="140.49145532771945">
        <ele>1139.3</ele>
        <time>2026-01-04T04:21:06Z</time>
      </trkpt>
      <trkpt lat="38.135088281705976" lon="140.49145859666169">
        <ele>1136.9000000000001</ele>
        <time>2026-01-04T04:21:14Z</time>
      </trkpt>
      <trkpt lat="38.135121138766408" lon="140.49148977734149">
        <ele>1136.4200000000001</ele>
        <time>2026-01-04T04:21:15Z</time>
      </trkpt>
      <trkpt lat="38.135150643065572" lon="140.4915286693722">
        <ele>1134.97</ele>
        <time>2026-01-04T04:21:16Z</time>
      </trkpt>
      <trkpt lat="38.135175621137023" lon="140.49157803878188">
        <ele>1134.49</ele>
        <time>2026-01-04T04:21:17Z</time>
      </trkpt>
      <trkpt lat="38.135190205648541" lon="140.49163419753313">
        <ele>1134.49</ele>
        <time>2026-01-04T04:21:18Z</time>
      </trkpt>
      <trkpt lat="38.135192720219493" lon="140.49169982783496">
        <ele>1132.5699999999999</ele>
        <time>2026-01-04T04:21:19Z</time>
      </trkpt>
      <trkpt lat="38.135186769068241" lon="140.49176596105099">
        <ele>1132.0899999999999</ele>
        <time>2026-01-04T04:21:20Z</time>
      </trkpt>
      <trkpt lat="38.135170675814152" lon="140.49183553084731">
        <ele>1130.6500000000001</ele>
        <time>2026-01-04T04:21:21Z</time>
      </trkpt>
      <trkpt lat="38.135147374123335" lon="140.49189747311175">
        <ele>1129.6900000000001</ele>
        <time>2026-01-04T04:21:22Z</time>
      </trkpt>
      <trkpt lat="38.135125245898962" lon="140.49196268431842">
        <ele>1128.73</ele>
        <time>2026-01-04T04:21:23Z</time>
      </trkpt>
      <trkpt lat="38.135112170130014" lon="140.49202940426767">
        <ele>1127.76</ele>
        <time>2026-01-04T04:21:24Z</time>
      </trkpt>
      <trkpt lat="38.135114936158061" lon="140.49210232682526">
        <ele>1126.3199999999999</ele>
        <time>2026-01-04T04:21:25Z</time>
      </trkpt>
      <trkpt lat="38.135135974735022" lon="140.49216032959521">
        <ele>1124.8800000000001</ele>
        <time>2026-01-04T04:21:26Z</time>
      </trkpt>
      <trkpt lat="38.135171765461564" lon="140.49220123328269">
        <ele>1124.8800000000001</ele>
        <time>2026-01-04T04:21:27Z</time>
      </trkpt>
      <trkpt lat="38.135214513167739" lon="140.49222570843995">
        <ele>1124.4000000000001</ele>
        <time>2026-01-04T04:21:28Z</time>
      </trkpt>
      <trkpt lat="38.135264217853546" lon="140.49224448390305">
        <ele>1123.4400000000001</ele>
        <time>2026-01-04T04:21:29Z</time>
      </trkpt>
      <trkpt lat="38.135317526757717" lon="140.4922662768513">
        <ele>1122</ele>
        <time>2026-01-04T04:21:30Z</time>
      </trkpt>
      <trkpt lat="38.135364549234509" lon="140.49229569733143">
        <ele>1120.55</ele>
        <time>2026-01-04T04:21:31Z</time>
      </trkpt>
      <trkpt lat="38.135410733520985" lon="140.49233886413276">
        <ele>1120.55</ele>
        <time>2026-01-04T04:21:32Z</time>
      </trkpt>
      <trkpt lat="38.13544568605721" lon="140.49238613806665">
        <ele>1120.55</ele>
        <time>2026-01-04T04:21:33Z</time>
      </trkpt>
      <trkpt lat="38.135465383529663" lon="140.49244263209403">
        <ele>1120.55</ele>
        <time>2026-01-04T04:21:34Z</time>
      </trkpt>
      <trkpt lat="38.135464461520314" lon="140.49249778501689">
        <ele>1120.55</ele>
        <time>2026-01-04T04:21:35Z</time>
      </trkpt>
      <trkpt lat="38.135449374094605" lon="140.49255050718784">
        <ele>1119.5899999999999</ele>
        <time>2026-01-04T04:21:36Z</time>
      </trkpt>
      <trkpt lat="38.13542615622282" lon="140.4925995413214">
        <ele>1118.6300000000001</ele>
        <time>2026-01-04T04:21:37Z</time>
      </trkpt>
      <trkpt lat="38.135395394638181" lon="140.49264932982624">
        <ele>1117.6700000000001</ele>
        <time>2026-01-04T04:21:38Z</time>
      </trkpt>
      <trkpt lat="38.135368237271905" lon="140.49269777722657">
        <ele>1117.1900000000001</ele>
        <time>2026-01-04T04:21:39Z</time>
      </trkpt>
      <trkpt lat="38.135345187038183" lon="140.49275225959718">
        <ele>1117.1900000000001</ele>
        <time>2026-01-04T04:21:40Z</time>
      </trkpt>
      <trkpt lat="38.135325154289603" lon="140.49280590377748">
        <ele>1116.71</ele>
        <time>2026-01-04T04:21:41Z</time>
      </trkpt>
      <trkpt lat="38.135277964174747" lon="140.49291151575744">
        <ele>1113.8199999999999</ele>
        <time>2026-01-04T04:21:43Z</time>
      </trkpt>
      <trkpt lat="38.135264469310641" lon="140.49296692013741">
        <ele>1113.8199999999999</ele>
        <time>2026-01-04T04:21:44Z</time>
      </trkpt>
      <trkpt lat="38.135263212025166" lon="140.49301947467029">
        <ele>1113.3399999999999</ele>
        <time>2026-01-04T04:21:45Z</time>
      </trkpt>
      <trkpt lat="38.135269079357386" lon="140.49307471141219">
        <ele>1113.3399999999999</ele>
        <time>2026-01-04T04:21:46Z</time>
      </trkpt>
      <trkpt lat="38.135281065478921" lon="140.49312869086862">
        <ele>1113.3399999999999</ele>
        <time>2026-01-04T04:21:47Z</time>
      </trkpt>
      <trkpt lat="38.135296991094947" lon="140.49318166449666">
        <ele>1112.8599999999999</ele>
        <time>2026-01-04T04:21:48Z</time>
      </trkpt>
      <trkpt lat="38.13530302606523" lon="140.49322650767863">
        <ele>1111.9000000000001</ele>
        <time>2026-01-04T04:21:49Z</time>
      </trkpt>
      <trkpt lat="38.135301601141691" lon="140.49327654764056">
        <ele>1111.9000000000001</ele>
        <time>2026-01-04T04:21:50Z</time>
      </trkpt>
      <trkpt lat="38.135317442938685" lon="140.49337344244123">
        <ele>1109.98</ele>
        <time>2026-01-04T04:21:52Z</time>
      </trkpt>
      <trkpt lat="38.135342672467232" lon="140.49348525702953">
        <ele>1109.98</ele>
        <time>2026-01-04T04:21:54Z</time>
      </trkpt>
      <trkpt lat="38.135357927531004" lon="140.4935248196125">
        <ele>1109.5</ele>
        <time>2026-01-04T04:21:55Z</time>
      </trkpt>
      <trkpt lat="38.13538609072566" lon="140.49358676187694">
        <ele>1107.5799999999999</ele>
        <time>2026-01-04T04:22:03Z</time>
      </trkpt>
      <trkpt lat="38.135425401851535" lon="140.49358181655407">
        <ele>1107.5799999999999</ele>
        <time>2026-01-04T04:22:12Z</time>
      </trkpt>
      <trkpt lat="38.135440573096275" lon="140.49357393756509">
        <ele>1107.0999999999999</ele>
        <time>2026-01-04T04:22:13Z</time>
      </trkpt>
      <trkpt lat="38.135454403236508" lon="140.49356480129063">
        <ele>1107.0999999999999</ele>
        <time>2026-01-04T04:22:14Z</time>
      </trkpt>
      <trkpt lat="38.135478040203452" lon="140.49356253817677">
        <ele>1108.0599999999999</ele>
        <time>2026-01-04T04:22:17Z</time>
      </trkpt>
      <trkpt lat="38.135481476783752" lon="140.49356387928128">
        <ele>1109.98</ele>
        <time>2026-01-04T04:22:19Z</time>
      </trkpt>
      <trkpt lat="38.135478878393769" lon="140.4935665614903">
        <ele>1107.5799999999999</ele>
        <time>2026-01-04T04:22:22Z</time>
      </trkpt>
      <trkpt lat="38.135485667735338" lon="140.49356195144355">
        <ele>1108.0599999999999</ele>
        <time>2026-01-04T04:22:28Z</time>
      </trkpt>
      <trkpt lat="38.135485500097275" lon="140.49356496892869">
        <ele>1106.6099999999999</ele>
        <time>2026-01-04T04:22:32Z</time>
      </trkpt>
      <trkpt lat="38.135486505925655" lon="140.49356949515641">
        <ele>1108.0599999999999</ele>
        <time>2026-01-04T04:22:37Z</time>
      </trkpt>
      <trkpt lat="38.135488349944353" lon="140.4935697466135">
        <ele>1093.6400000000001</ele>
        <time>2026-01-04T04:22:38Z</time>
      </trkpt>
      <trkpt lat="38.135489774867892" lon="140.4935697466135">
        <ele>1104.21</ele>
        <time>2026-01-04T04:22:39Z</time>
      </trkpt>
      <trkpt lat="38.135490026324987" lon="140.49356949515641">
        <ele>1100.3699999999999</ele>
        <time>2026-01-04T04:22:40Z</time>
      </trkpt>
      <trkpt lat="38.135488098487258" lon="140.49356882460415">
        <ele>1111.9000000000001</ele>
        <time>2026-01-04T04:22:41Z</time>
      </trkpt>
      <trkpt lat="38.135484829545021" lon="140.493568405509">
        <ele>1107.5799999999999</ele>
        <time>2026-01-04T04:22:42Z</time>
      </trkpt>
      <trkpt lat="38.135472591966391" lon="140.49356672912836">
        <ele>1102.77</ele>
        <time>2026-01-04T04:22:50Z</time>
      </trkpt>
      <trkpt lat="38.135472005233169" lon="140.49356538802385">
        <ele>1108.0599999999999</ele>
        <time>2026-01-04T04:22:51Z</time>
      </trkpt>
      <trkpt lat="38.135471502318978" lon="140.49356379546225">
        <ele>1108.0599999999999</ele>
        <time>2026-01-04T04:22:52Z</time>
      </trkpt>
      <trkpt lat="38.135473513975739" lon="140.49356513656676">
        <ele>1100.3699999999999</ele>
        <time>2026-01-04T04:22:54Z</time>
      </trkpt>
      <trkpt lat="38.135475860908628" lon="140.49356714822352">
        <ele>1107.0999999999999</ele>
        <time>2026-01-04T04:22:55Z</time>
      </trkpt>
      <trkpt lat="38.13548038713634" lon="140.49356748349965">
        <ele>1114.79</ele>
        <time>2026-01-04T04:22:56Z</time>
      </trkpt>
      <trkpt lat="38.135486505925655" lon="140.49356857314706">
        <ele>1119.5899999999999</ele>
        <time>2026-01-04T04:22:57Z</time>
      </trkpt>
      <trkpt lat="38.13548818230629" lon="140.49357125535607">
        <ele>1112.8599999999999</ele>
        <time>2026-01-04T04:22:58Z</time>
      </trkpt>
      <trkpt lat="38.135484578087926" lon="140.49356807023287">
        <ele>1109.02</ele>
        <time>2026-01-04T04:22:59Z</time>
      </trkpt>
      <trkpt lat="38.13548575155437" lon="140.49357041716576">
        <ele>1109.02</ele>
        <time>2026-01-04T04:23:00Z</time>
      </trkpt>
      <trkpt lat="38.135492624714971" lon="140.49356421455741">
        <ele>1105.6500000000001</ele>
        <time>2026-01-04T04:23:02Z</time>
      </trkpt>
      <trkpt lat="38.135487847030163" lon="140.49354862421751">
        <ele>1105.1700000000001</ele>
        <time>2026-01-04T04:23:07Z</time>
      </trkpt>
      <trkpt lat="38.135467479005456" lon="140.49352574162185">
        <ele>1108.54</ele>
        <time>2026-01-04T04:23:19Z</time>
      </trkpt>
      <trkpt lat="38.135485164821148" lon="140.49354284070432">
        <ele>1107.0999999999999</ele>
        <time>2026-01-04T04:23:29Z</time>
      </trkpt>
      <trkpt lat="38.135495139285922" lon="140.4935388173908">
        <ele>1107.5799999999999</ele>
        <time>2026-01-04T04:23:44Z</time>
      </trkpt>
      <trkpt lat="38.135514501482248" lon="140.49351283349097">
        <ele>1107.0999999999999</ele>
        <time>2026-01-04T04:24:05Z</time>
      </trkpt>
      <trkpt lat="38.135513830929995" lon="140.49349782988429">
        <ele>1107.0999999999999</ele>
        <time>2026-01-04T04:24:17Z</time>
      </trkpt>
      <trkpt lat="38.135508550330997" lon="140.49348995089531">
        <ele>1108.0599999999999</ele>
        <time>2026-01-04T04:24:25Z</time>
      </trkpt>
      <trkpt lat="38.135505197569728" lon="140.49348584376276">
        <ele>1107.0999999999999</ele>
        <time>2026-01-04T04:24:32Z</time>
      </trkpt>
      <trkpt lat="38.13550234772265" lon="140.49348844215274">
        <ele>1108.54</ele>
        <time>2026-01-04T04:24:36Z</time>
      </trkpt>
      <trkpt lat="38.135494720190763" lon="140.49348433502018">
        <ele>1106.6099999999999</ele>
        <time>2026-01-04T04:24:54Z</time>
      </trkpt>
      <trkpt lat="38.135501509532332" lon="140.49349246546626">
        <ele>1108.54</ele>
        <time>2026-01-04T04:25:08Z</time>
      </trkpt>
      <trkpt lat="38.135499162599444" lon="140.4934938903898">
        <ele>1107.0999999999999</ele>
        <time>2026-01-04T04:25:11Z</time>
      </trkpt>
      <trkpt lat="38.135496815666556" lon="140.49348525702953">
        <ele>1084.99</ele>
        <time>2026-01-04T04:25:17Z</time>
      </trkpt>
      <trkpt lat="38.135494887828827" lon="140.49348366446793">
        <ele>1103.25</ele>
        <time>2026-01-04T04:25:18Z</time>
      </trkpt>
      <trkpt lat="38.135493798181415" lon="140.49348609521985">
        <ele>1127.28</ele>
        <time>2026-01-04T04:25:20Z</time>
      </trkpt>
      <trkpt lat="38.135493546724319" lon="140.49349062144756">
        <ele>1115.75</ele>
        <time>2026-01-04T04:25:21Z</time>
      </trkpt>
      <trkpt lat="38.135493798181415" lon="140.49349959008396">
        <ele>1108.54</ele>
        <time>2026-01-04T04:25:22Z</time>
      </trkpt>
      <trkpt lat="38.135495223104954" lon="140.49351199530065">
        <ele>1108.54</ele>
        <time>2026-01-04T04:25:23Z</time>
      </trkpt>
      <trkpt lat="38.13548818230629" lon="140.49353647045791">
        <ele>1109.5</ele>
        <time>2026-01-04T04:25:32Z</time>
      </trkpt>
      <trkpt lat="38.135478794574738" lon="140.49354191869497">
        <ele>1107.5799999999999</ele>
        <time>2026-01-04T04:25:38Z</time>
      </trkpt>
      <trkpt lat="38.135479297488928" lon="140.493542002514">
        <ele>1109.98</ele>
        <time>2026-01-04T04:25:40Z</time>
      </trkpt>
      <trkpt lat="38.135480219498277" lon="140.49354267306626">
        <ele>1108.0599999999999</ele>
        <time>2026-01-04T04:25:42Z</time>
      </trkpt>
      <trkpt lat="38.135472927242517" lon="140.4935575928539">
        <ele>1109.02</ele>
        <time>2026-01-04T04:25:47Z</time>
      </trkpt>
      <trkpt lat="38.135476531460881" lon="140.49356161616743">
        <ele>1108.0599999999999</ele>
        <time>2026-01-04T04:25:55Z</time>
      </trkpt>
      <trkpt lat="38.135481644421816" lon="140.49356337636709">
        <ele>1109.02</ele>
        <time>2026-01-04T04:25:58Z</time>
      </trkpt>
      <trkpt lat="38.135483236983418" lon="140.4935612808913">
        <ele>1104.21</ele>
        <time>2026-01-04T04:26:02Z</time>
      </trkpt>
      <trkpt lat="38.135483069345355" lon="140.49356111325324">
        <ele>1111.9000000000001</ele>
        <time>2026-01-04T04:26:03Z</time>
      </trkpt>
      <trkpt lat="38.135482985526323" lon="140.49356136471033">
        <ele>1109.98</ele>
        <time>2026-01-04T04:26:04Z</time>
      </trkpt>
      <trkpt lat="38.135482566431165" lon="140.49356362782419">
        <ele>1109.5</ele>
        <time>2026-01-04T04:26:06Z</time>
      </trkpt>
      <trkpt lat="38.135476699098945" lon="140.49356119707227">
        <ele>1086.9100000000001</ele>
        <time>2026-01-04T04:26:13Z</time>
      </trkpt>
      <trkpt lat="38.135476782917976" lon="140.49356371164322">
        <ele>1113.3399999999999</ele>
        <time>2026-01-04T04:26:14Z</time>
      </trkpt>
      <trkpt lat="38.135478375479579" lon="140.49356639385223">
        <ele>1123.4400000000001</ele>
        <time>2026-01-04T04:26:15Z</time>
      </trkpt>
      <trkpt lat="38.135478291660547" lon="140.49356622621417">
        <ele>1111.4200000000001</ele>
        <time>2026-01-04T04:26:16Z</time>
      </trkpt>
      <trkpt lat="38.13547451980412" lon="140.49355675466359">
        <ele>1108.0599999999999</ele>
        <time>2026-01-04T04:26:22Z</time>
      </trkpt>
      <trkpt lat="38.135472508147359" lon="140.49355675466359">
        <ele>1109.5</ele>
        <time>2026-01-04T04:26:25Z</time>
      </trkpt>
      <trkpt lat="38.135471250861883" lon="140.49355809576809">
        <ele>1107.5799999999999</ele>
        <time>2026-01-04T04:26:27Z</time>
      </trkpt>
      <trkpt lat="38.135471837595105" lon="140.49356044270098">
        <ele>1109.02</ele>
        <time>2026-01-04T04:26:29Z</time>
      </trkpt>
      <trkpt lat="38.135493965819478" lon="140.49356555566192">
        <ele>1103.73</ele>
        <time>2026-01-04T04:26:34Z</time>
      </trkpt>
      <trkpt lat="38.135496145114303" lon="140.4935628734529">
        <ele>1115.27</ele>
        <time>2026-01-04T04:26:35Z</time>
      </trkpt>
      <trkpt lat="38.13549505546689" lon="140.49356262199581">
        <ele>1110.46</ele>
        <time>2026-01-04T04:26:36Z</time>
      </trkpt>
      <trkpt lat="38.135476196184754" lon="140.49354636110365">
        <ele>1108.0599999999999</ele>
        <time>2026-01-04T04:26:51Z</time>
      </trkpt>
      <trkpt lat="38.135474435985088" lon="140.49357712268829">
        <ele>1109.5</ele>
        <time>2026-01-04T04:27:03Z</time>
      </trkpt>
      <trkpt lat="38.135470747947693" lon="140.49358047544956">
        <ele>1109.5</ele>
        <time>2026-01-04T04:27:04Z</time>
      </trkpt>
      <trkpt lat="38.135463120415807" lon="140.49358852207661">
        <ele>1109.98</ele>
        <time>2026-01-04T04:27:18Z</time>
      </trkpt>
      <trkpt lat="38.135462952777743" lon="140.49355767667294">
        <ele>1107.5799999999999</ele>
        <time>2026-01-04T04:27:24Z</time>
      </trkpt>
      <trkpt lat="38.135434621945024" lon="140.4935679025948">
        <ele>1109.5</ele>
        <time>2026-01-04T04:27:28Z</time>
      </trkpt>
      <trkpt lat="38.135456163436174" lon="140.49354560673237">
        <ele>1101.3299999999999</ele>
        <time>2026-01-04T04:27:39Z</time>
      </trkpt>
      <trkpt lat="38.135460186749697" lon="140.49354166723788">
        <ele>1115.75</ele>
        <time>2026-01-04T04:27:40Z</time>
      </trkpt>
      <trkpt lat="38.135466305539012" lon="140.49353781156242">
        <ele>1111.4200000000001</ele>
        <time>2026-01-04T04:27:41Z</time>
      </trkpt>
      <trkpt lat="38.135483236983418" lon="140.49356211908162">
        <ele>1109.02</ele>
        <time>2026-01-04T04:27:44Z</time>
      </trkpt>
      <trkpt lat="38.135462617501616" lon="140.49359438940883">
        <ele>1101.3299999999999</ele>
        <time>2026-01-04T04:27:52Z</time>
      </trkpt>
      <trkpt lat="38.135450631380081" lon="140.49360444769263">
        <ele>1087.3900000000001</ele>
        <time>2026-01-04T04:27:53Z</time>
      </trkpt>
      <trkpt lat="38.135440908372402" lon="140.49361224286258">
        <ele>1087.3900000000001</ele>
        <time>2026-01-04T04:27:54Z</time>
      </trkpt>
      <trkpt lat="38.135448535904288" lon="140.49360914155841">
        <ele>1111.9000000000001</ele>
        <time>2026-01-04T04:27:55Z</time>
      </trkpt>
      <trkpt lat="38.13545155338943" lon="140.49361132085323">
        <ele>1102.77</ele>
        <time>2026-01-04T04:27:56Z</time>
      </trkpt>
      <trkpt lat="38.135455409064889" lon="140.4936130810529">
        <ele>1111.4200000000001</ele>
        <time>2026-01-04T04:27:57Z</time>
      </trkpt>
      <trkpt lat="38.135461527854204" lon="140.49361031502485">
        <ele>1121.52</ele>
        <time>2026-01-04T04:27:59Z</time>
      </trkpt>
      <trkpt lat="38.135463204234838" lon="140.49360344186425">
        <ele>1121.52</ele>
        <time>2026-01-04T04:28:00Z</time>
      </trkpt>
      <trkpt lat="38.135462449863553" lon="140.49358248710632">
        <ele>1110.9400000000001</ele>
        <time>2026-01-04T04:28:03Z</time>
      </trkpt>
      <trkpt lat="38.135462617501616" lon="140.49358122982085">
        <ele>1109.5</ele>
        <time>2026-01-04T04:28:05Z</time>
      </trkpt>
      <trkpt lat="38.135455576702952" lon="140.4935803078115">
        <ele>1109.98</ele>
        <time>2026-01-04T04:28:24Z</time>
      </trkpt>
      <trkpt lat="38.135437052696943" lon="140.49360075965524">
        <ele>1080.6600000000001</ele>
        <time>2026-01-04T04:28:30Z</time>
      </trkpt>
      <trkpt lat="38.13544224947691" lon="140.49361023120582">
        <ele>1104.6900000000001</ele>
        <time>2026-01-04T04:28:31Z</time>
      </trkpt>
      <trkpt lat="38.135445015504956" lon="140.49361056648195">
        <ele>1101.3299999999999</ele>
        <time>2026-01-04T04:28:32Z</time>
      </trkpt>
      <trkpt lat="38.135447613894939" lon="140.49360637553036">
        <ele>1112.3800000000001</ele>
        <time>2026-01-04T04:28:33Z</time>
      </trkpt>
      <trkpt lat="38.135450212284923" lon="140.4935990832746">
        <ele>1112.3800000000001</ele>
        <time>2026-01-04T04:28:34Z</time>
      </trkpt>
      <trkpt lat="38.135454235598445" lon="140.4935750272125">
        <ele>1116.71</ele>
        <time>2026-01-04T04:28:37Z</time>
      </trkpt>
      <trkpt lat="38.135454738512635" lon="140.49356949515641">
        <ele>1110.9400000000001</ele>
        <time>2026-01-04T04:28:38Z</time>
      </trkpt>
      <trkpt lat="38.135454906150699" lon="140.4935665614903">
        <ele>1107.5799999999999</ele>
        <time>2026-01-04T04:28:39Z</time>
      </trkpt>
      <trkpt lat="38.135454654693604" lon="140.49356639385223">
        <ele>1107.5799999999999</ele>
        <time>2026-01-04T04:28:40Z</time>
      </trkpt>
      <trkpt lat="38.135459935292602" lon="140.49359229393303">
        <ele>1110.9400000000001</ele>
        <time>2026-01-04T04:28:48Z</time>
      </trkpt>
      <trkpt lat="38.135459935292602" lon="140.49359095282853">
        <ele>1121.03</ele>
        <time>2026-01-04T04:28:49Z</time>
      </trkpt>
      <trkpt lat="38.13545641489327" lon="140.49359229393303">
        <ele>1103.25</ele>
        <time>2026-01-04T04:28:50Z</time>
      </trkpt>
      <trkpt lat="38.135450966656208" lon="140.4935990832746">
        <ele>1097.96</ele>
        <time>2026-01-04T04:28:51Z</time>
      </trkpt>
      <trkpt lat="38.13543738797307" lon="140.49361190758646">
        <ele>1106.1300000000001</ele>
        <time>2026-01-04T04:28:53Z</time>
      </trkpt>
      <trkpt lat="38.135433029383421" lon="140.49361366778612">
        <ele>1113.8199999999999</ele>
        <time>2026-01-04T04:28:54Z</time>
      </trkpt>
      <trkpt lat="38.135429508984089" lon="140.49361249431968">
        <ele>1107.0999999999999</ele>
        <time>2026-01-04T04:28:55Z</time>
      </trkpt>
      <trkpt lat="38.135428419336677" lon="140.49360419623554">
        <ele>1121.03</ele>
        <time>2026-01-04T04:28:57Z</time>
      </trkpt>
      <trkpt lat="38.135429508984089" lon="140.49359145574272">
        <ele>1130.6500000000001</ele>
        <time>2026-01-04T04:28:58Z</time>
      </trkpt>
      <trkpt lat="38.135435879230499" lon="140.49358508549631">
        <ele>1090.75</ele>
        <time>2026-01-04T04:28:59Z</time>
      </trkpt>
      <trkpt lat="38.135438393801451" lon="140.49358525313437">
        <ele>1100.3699999999999</ele>
        <time>2026-01-04T04:29:00Z</time>
      </trkpt>
      <trkpt lat="38.135438729077578" lon="140.49358868971467">
        <ele>1109.02</ele>
        <time>2026-01-04T04:29:01Z</time>
      </trkpt>
      <trkpt lat="38.135441159829497" lon="140.49358835443854">
        <ele>1115.75</ele>
        <time>2026-01-04T04:29:02Z</time>
      </trkpt>
      <trkpt lat="38.13544568605721" lon="140.49358550459146">
        <ele>1120.0699999999999</ele>
        <time>2026-01-04T04:29:03Z</time>
      </trkpt>
      <trkpt lat="38.135446943342686" lon="140.49357854761183">
        <ele>1125.3599999999999</ele>
        <time>2026-01-04T04:29:04Z</time>
      </trkpt>
      <trkpt lat="38.135447362437844" lon="140.49357117153704">
        <ele>1109.98</ele>
        <time>2026-01-04T04:29:05Z</time>
      </trkpt>
      <trkpt lat="38.135448284447193" lon="140.49356756731868">
        <ele>1106.1300000000001</ele>
        <time>2026-01-04T04:29:06Z</time>
      </trkpt>
      <trkpt lat="38.13544912263751" lon="140.49356832168996">
        <ele>1108.0599999999999</ele>
        <time>2026-01-04T04:29:07Z</time>
      </trkpt>
      <trkpt lat="38.135443758219481" lon="140.49358651041985">
        <ele>1077.29</ele>
        <time>2026-01-04T04:29:09Z</time>
      </trkpt>
      <trkpt lat="38.135439986363053" lon="140.49359682016075">
        <ele>1117.1900000000001</ele>
        <time>2026-01-04T04:29:10Z</time>
      </trkpt>
      <trkpt lat="38.135450799018145" lon="140.49359581433237">
        <ele>1110.46</ele>
        <time>2026-01-04T04:29:12Z</time>
      </trkpt>
      <trkpt lat="38.135456163436174" lon="140.49358894117177">
        <ele>1107.0999999999999</ele>
        <time>2026-01-04T04:29:14Z</time>
      </trkpt>
      <trkpt lat="38.135460522025824" lon="140.49358265474439">
        <ele>1122.48</ele>
        <time>2026-01-04T04:29:15Z</time>
      </trkpt>
      <trkpt lat="38.135461360216141" lon="140.49358299002051">
        <ele>1114.3099999999999</ele>
        <time>2026-01-04T04:29:16Z</time>
      </trkpt>
      <trkpt lat="38.135460270568728" lon="140.49358273856342">
        <ele>1105.1700000000001</ele>
        <time>2026-01-04T04:29:17Z</time>
      </trkpt>
      <trkpt lat="38.135459683835506" lon="140.49358206801116">
        <ele>1109.5</ele>
        <time>2026-01-04T04:29:18Z</time>
      </trkpt>
      <trkpt lat="38.135457839816809" lon="140.49359086900949">
        <ele>1113.3399999999999</ele>
        <time>2026-01-04T04:29:20Z</time>
      </trkpt>
      <trkpt lat="38.135455157607794" lon="140.49359472468495">
        <ele>1102.77</ele>
        <time>2026-01-04T04:29:21Z</time>
      </trkpt>
      <trkpt lat="38.13545348122716" lon="140.49359363503754">
        <ele>1114.79</ele>
        <time>2026-01-04T04:29:22Z</time>
      </trkpt>
      <trkpt lat="38.135454319417477" lon="140.49359992146492">
        <ele>1092.6800000000001</ele>
        <time>2026-01-04T04:29:23Z</time>
      </trkpt>
      <trkpt lat="38.135453145951033" lon="140.49361257813871">
        <ele>1095.5599999999999</ele>
        <time>2026-01-04T04:29:24Z</time>
      </trkpt>
      <trkpt lat="38.135450882837176" lon="140.49363470636308">
        <ele>1130.6500000000001</ele>
        <time>2026-01-04T04:29:26Z</time>
      </trkpt>
      <trkpt lat="38.135449038818479" lon="140.49361274577677">
        <ele>1125.8399999999999</ele>
        <time>2026-01-04T04:29:27Z</time>
      </trkpt>
      <trkpt lat="38.135451637208462" lon="140.49360101111233">
        <ele>1115.75</ele>
        <time>2026-01-04T04:29:28Z</time>
      </trkpt>
      <trkpt lat="38.135451637208462" lon="140.49359547905624">
        <ele>1111.4200000000001</ele>
        <time>2026-01-04T04:29:29Z</time>
      </trkpt>
      <trkpt lat="38.135450715199113" lon="140.49359623342752">
        <ele>1096.52</ele>
        <time>2026-01-04T04:29:30Z</time>
      </trkpt>
      <trkpt lat="38.135450296103954" lon="140.4935977421701">
        <ele>1096.52</ele>
        <time>2026-01-04T04:29:31Z</time>
      </trkpt>
      <trkpt lat="38.135450379922986" lon="140.49359899945557">
        <ele>1104.6900000000001</ele>
        <time>2026-01-04T04:29:32Z</time>
      </trkpt>
      <trkpt lat="38.135452643036842" lon="140.49359028227627">
        <ele>1123.9200000000001</ele>
        <time>2026-01-04T04:29:34Z</time>
      </trkpt>
      <trkpt lat="38.135450882837176" lon="140.4935903660953">
        <ele>1114.79</ele>
        <time>2026-01-04T04:29:35Z</time>
      </trkpt>
      <trkpt lat="38.135450715199113" lon="140.49359137192369">
        <ele>1110.46</ele>
        <time>2026-01-04T04:29:36Z</time>
      </trkpt>
      <trkpt lat="38.135451804846525" lon="140.49359296448529">
        <ele>1106.1300000000001</ele>
        <time>2026-01-04T04:29:37Z</time>
      </trkpt>
      <trkpt lat="38.135452643036842" lon="140.49359422177076">
        <ele>1108.54</ele>
        <time>2026-01-04T04:29:38Z</time>
      </trkpt>
      <trkpt lat="38.135452726855874" lon="140.49359623342752">
        <ele>1109.5</ele>
        <time>2026-01-04T04:29:44Z</time>
      </trkpt>
      <trkpt lat="38.135454570874572" lon="140.49358357675374">
        <ele>1106.1300000000001</ele>
        <time>2026-01-04T04:29:55Z</time>
      </trkpt>
      <trkpt lat="38.13545498996973" lon="140.49358483403921">
        <ele>1106.1300000000001</ele>
        <time>2026-01-04T04:29:56Z</time>
      </trkpt>
      <trkpt lat="38.135455744341016" lon="140.49358449876308">
        <ele>1111.9000000000001</ele>
        <time>2026-01-04T04:29:57Z</time>
      </trkpt>
      <trkpt lat="38.135457085445523" lon="140.49358483403921">
        <ele>1108.54</ele>
        <time>2026-01-04T04:29:58Z</time>
      </trkpt>
      <trkpt lat="38.135461779311299" lon="140.49358550459146">
        <ele>1111.4200000000001</ele>
        <time>2026-01-04T04:30:02Z</time>
      </trkpt>
      <trkpt lat="38.13546035438776" lon="140.49358894117177">
        <ele>1106.6099999999999</ele>
        <time>2026-01-04T04:30:03Z</time>
      </trkpt>
      <trkpt lat="38.135459264740348" lon="140.49358994700015">
        <ele>1110.46</ele>
        <time>2026-01-04T04:30:04Z</time>
      </trkpt>
      <trkpt lat="38.135458761826158" lon="140.49359296448529">
        <ele>1097.96</ele>
        <time>2026-01-04T04:30:05Z</time>
      </trkpt>
      <trkpt lat="38.135460941120982" lon="140.4935924615711">
        <ele>1110.46</ele>
        <time>2026-01-04T04:30:06Z</time>
      </trkpt>
      <trkpt lat="38.135461527854204" lon="140.49359153956175">
        <ele>1114.79</ele>
        <time>2026-01-04T04:30:07Z</time>
      </trkpt>
      <trkpt lat="38.135461360216141" lon="140.49359170719981">
        <ele>1109.98</ele>
        <time>2026-01-04T04:30:08Z</time>
      </trkpt>
      <trkpt lat="38.135461695492268" lon="140.49359296448529">
        <ele>1099.8900000000001</ele>
        <time>2026-01-04T04:30:09Z</time>
      </trkpt>
      <trkpt lat="38.135461444035172" lon="140.49359321594238">
        <ele>1107.5799999999999</ele>
        <time>2026-01-04T04:30:10Z</time>
      </trkpt>
      <trkpt lat="38.135461192578077" lon="140.49359338358045">
        <ele>1112.3800000000001</ele>
        <time>2026-01-04T04:30:11Z</time>
      </trkpt>
      <trkpt lat="38.135460941120982" lon="140.49359237775207">
        <ele>1109.02</ele>
        <time>2026-01-04T04:30:12Z</time>
      </trkpt>
      <trkpt lat="38.135461779311299" lon="140.49358977936208">
        <ele>1105.6500000000001</ele>
        <time>2026-01-04T04:30:15Z</time>
      </trkpt>
      <trkpt lat="38.135461024940014" lon="140.49358852207661">
        <ele>1111.9000000000001</ele>
        <time>2026-01-04T04:30:16Z</time>
      </trkpt>
      <trkpt lat="38.13546085730195" lon="140.49358634278178">
        <ele>1109.02</ele>
        <time>2026-01-04T04:30:17Z</time>
      </trkpt>
      <trkpt lat="38.135459767654538" lon="140.49358483403921">
        <ele>1106.6099999999999</ele>
        <time>2026-01-04T04:30:20Z</time>
      </trkpt>
      <trkpt lat="38.135457253083587" lon="140.49358734861016">
        <ele>1109.5</ele>
        <time>2026-01-04T04:30:23Z</time>
      </trkpt>
      <trkpt lat="38.135454319417477" lon="140.49358868971467">
        <ele>1108.0599999999999</ele>
        <time>2026-01-04T04:30:25Z</time>
      </trkpt>
      <trkpt lat="38.135450715199113" lon="140.4935890249908">
        <ele>1111.4200000000001</ele>
        <time>2026-01-04T04:30:30Z</time>
      </trkpt>
      <trkpt lat="38.135452559217811" lon="140.49358986318111">
        <ele>1107.5799999999999</ele>
        <time>2026-01-04T04:30:31Z</time>
      </trkpt>
      <trkpt lat="38.135453313589096" lon="140.49359120428562">
        <ele>1110.9400000000001</ele>
        <time>2026-01-04T04:30:33Z</time>
      </trkpt>
      <trkpt lat="38.135453062132001" lon="140.49359262920916">
        <ele>1110.9400000000001</ele>
        <time>2026-01-04T04:30:34Z</time>
      </trkpt>
      <trkpt lat="38.135458258911967" lon="140.49359665252268">
        <ele>1108.0599999999999</ele>
        <time>2026-01-04T04:30:37Z</time>
      </trkpt>
      <trkpt lat="38.135467143729329" lon="140.49360042437911">
        <ele>1119.5899999999999</ele>
        <time>2026-01-04T04:30:51Z</time>
      </trkpt>
      <trkpt lat="38.135467311367393" lon="140.49359790980816">
        <ele>1112.8599999999999</ele>
        <time>2026-01-04T04:30:52Z</time>
      </trkpt>
      <trkpt lat="38.135460941120982" lon="140.49359648488462">
        <ele>1110.46</ele>
        <time>2026-01-04T04:30:54Z</time>
      </trkpt>
      <trkpt lat="38.135459264740348" lon="140.49359690397978">
        <ele>1107.0999999999999</ele>
        <time>2026-01-04T04:30:56Z</time>
      </trkpt>
      <trkpt lat="38.135458091273904" lon="140.49359581433237">
        <ele>1107.0999999999999</ele>
        <time>2026-01-04T04:30:57Z</time>
      </trkpt>
      <trkpt lat="38.135453397408128" lon="140.49359816126525">
        <ele>1108.54</ele>
        <time>2026-01-04T04:31:00Z</time>
      </trkpt>
      <trkpt lat="38.135447865352035" lon="140.49359983764589">
        <ele>1110.9400000000001</ele>
        <time>2026-01-04T04:31:06Z</time>
      </trkpt>
      <trkpt lat="38.135450547561049" lon="140.49359983764589">
        <ele>1105.6500000000001</ele>
        <time>2026-01-04T04:31:09Z</time>
      </trkpt>
      <trkpt lat="38.135449709370732" lon="140.49359958618879">
        <ele>1105.6500000000001</ele>
        <time>2026-01-04T04:31:10Z</time>
      </trkpt>
      <trkpt lat="38.135447949171066" lon="140.49359874799848">
        <ele>1109.02</ele>
        <time>2026-01-04T04:31:11Z</time>
      </trkpt>
      <trkpt lat="38.135444847866893" lon="140.49359715543687">
        <ele>1109.02</ele>
        <time>2026-01-04T04:31:12Z</time>
      </trkpt>
      <trkpt lat="38.135466892272234" lon="140.49360075965524">
        <ele>1104.21</ele>
        <time>2026-01-04T04:31:23Z</time>
      </trkpt>
      <trkpt lat="38.135467730462551" lon="140.49359958618879">
        <ele>1110.9400000000001</ele>
        <time>2026-01-04T04:31:24Z</time>
      </trkpt>
      <trkpt lat="38.135468568652868" lon="140.49359891563654">
        <ele>1105.6500000000001</ele>
        <time>2026-01-04T04:31:25Z</time>
      </trkpt>
      <trkpt lat="38.135468987748027" lon="140.4935990832746">
        <ele>1111.9000000000001</ele>
        <time>2026-01-04T04:31:26Z</time>
      </trkpt>
      <trkpt lat="38.135469239205122" lon="140.49359816126525">
        <ele>1111.9000000000001</ele>
        <time>2026-01-04T04:31:27Z</time>
      </trkpt>
      <trkpt lat="38.135469742119312" lon="140.49359656870365">
        <ele>1109.02</ele>
        <time>2026-01-04T04:31:28Z</time>
      </trkpt>
      <trkpt lat="38.135472424328327" lon="140.49359656870365">
        <ele>1094.1199999999999</ele>
        <time>2026-01-04T04:31:29Z</time>
      </trkpt>
      <trkpt lat="38.135475525632501" lon="140.49359782598913">
        <ele>1109.02</ele>
        <time>2026-01-04T04:31:30Z</time>
      </trkpt>
      <trkpt lat="38.135475441813469" lon="140.49359631724656">
        <ele>1119.5899999999999</ele>
        <time>2026-01-04T04:31:31Z</time>
      </trkpt>
      <trkpt lat="38.135475525632501" lon="140.49359715543687">
        <ele>1111.9000000000001</ele>
        <time>2026-01-04T04:31:32Z</time>
      </trkpt>
      <trkpt lat="38.135473094880581" lon="140.49359757453203">
        <ele>1108.0599999999999</ele>
        <time>2026-01-04T04:31:33Z</time>
      </trkpt>
      <trkpt lat="38.135469574481249" lon="140.49359598197043">
        <ele>1111.9000000000001</ele>
        <time>2026-01-04T04:31:36Z</time>
      </trkpt>
      <trkpt lat="38.135493882000446" lon="140.49358282238245">
        <ele>1108.0599999999999</ele>
        <time>2026-01-04T04:31:44Z</time>
      </trkpt>
      <trkpt lat="38.135465383529663" lon="140.493552563712">
        <ele>1108.0599999999999</ele>
        <time>2026-01-04T04:31:49Z</time>
      </trkpt>
      <trkpt lat="38.135438142344356" lon="140.49358089454472">
        <ele>1110.46</ele>
        <time>2026-01-04T04:31:59Z</time>
      </trkpt>
      <trkpt lat="38.13543738797307" lon="140.49358575604856">
        <ele>1105.6500000000001</ele>
        <time>2026-01-04T04:32:01Z</time>
      </trkpt>
      <trkpt lat="38.135436465963721" lon="140.49358801916242">
        <ele>1111.9000000000001</ele>
        <time>2026-01-04T04:32:02Z</time>
      </trkpt>
      <trkpt lat="38.135436214506626" lon="140.49358751624823">
        <ele>1111.9000000000001</ele>
        <time>2026-01-04T04:32:03Z</time>
      </trkpt>
      <trkpt lat="38.135435124859214" lon="140.49358642660081">
        <ele>1109.02</ele>
        <time>2026-01-04T04:32:06Z</time>
      </trkpt>
      <trkpt lat="38.135433364659548" lon="140.49358843825758">
        <ele>1110.46</ele>
        <time>2026-01-04T04:32:11Z</time>
      </trkpt>
      <trkpt lat="38.135426575317979" lon="140.49357812851667">
        <ele>1106.1300000000001</ele>
        <time>2026-01-04T04:32:22Z</time>
      </trkpt>
      <trkpt lat="38.135427832603455" lon="140.49356404691935">
        <ele>1112.3800000000001</ele>
        <time>2026-01-04T04:32:26Z</time>
      </trkpt>
      <trkpt lat="38.135427329689264" lon="140.49356538802385">
        <ele>1110.46</ele>
        <time>2026-01-04T04:32:27Z</time>
      </trkpt>
      <trkpt lat="38.135425234213471" lon="140.49356915988028">
        <ele>1109.5</ele>
        <time>2026-01-04T04:32:29Z</time>
      </trkpt>
      <trkpt lat="38.135506957769394" lon="140.49354476854205">
        <ele>1104.6900000000001</ele>
        <time>2026-01-04T04:32:42Z</time>
      </trkpt>
      <trkpt lat="38.135509137064219" lon="140.49353705719113">
        <ele>1109.98</ele>
        <time>2026-01-04T04:32:43Z</time>
      </trkpt>
      <trkpt lat="38.135505951941013" lon="140.49353320151567">
        <ele>1109.98</ele>
        <time>2026-01-04T04:32:44Z</time>
      </trkpt>
      <trkpt lat="38.135507209226489" lon="140.49353680573404">
        <ele>1108.54</ele>
        <time>2026-01-04T04:32:51Z</time>
      </trkpt>
    </trkseg>
  </trk>

</gpx>